<?xml version="1.0" encoding="UTF-8" standalone="no" ?>
<gpx xmlns="http://www.topografix.com/GPX/1/1" xmlns:xsi="http://www.w3.org/2001/XMLSchema-instance" xsi:schemaLocation="http://www.topografix.com/GPX/1/1 http://www.topografix.com/GPX/1/1/gpx.xsd" version="1.1" creator="VisuGPX - https://www.visugpx.com">
  <metadata>
    <name>Mouton d\'Anou</name>
    <desc><![CDATA[Bellissimo anello delle Prealpi di Nizza]]></desc>
  </metadata>
  <wpt lat="43.76143" lon="7.17371">
    <ele>281.7</ele>
    <name><![CDATA[wpt003]]></name>
    <desc><![CDATA[GATTIERES]]></desc>
    <link href="START"></link>
  </wpt>
  <wpt lat="43.79191" lon="7.18564">
    <ele>357.3</ele>
    <name><![CDATA[wpt004]]></name>
    <desc><![CDATA[CARROS]]></desc>
  </wpt>
  <wpt lat="43.8135" lon="7.16627">
    <ele>449.2</ele>
    <name><![CDATA[wpt005]]></name>
    <desc><![CDATA[SX]]></desc>
  </wpt>
  <wpt lat="43.80098" lon="7.1134">
    <ele>894.1</ele>
    <name><![CDATA[wpt006]]></name>
    <desc><![CDATA[MOUTON D ANOU 135]]></desc>
  </wpt>
  <wpt lat="43.7936" lon="7.12722">
    <ele>1013</ele>
    <name><![CDATA[wpt007]]></name>
    <desc><![CDATA[DESTRA 137]]></desc>
  </wpt>
  <wpt lat="43.79154" lon="7.13116">
    <ele>952.2</ele>
    <name><![CDATA[wpt008]]></name>
    <desc><![CDATA[138A]]></desc>
  </wpt>
  <wpt lat="43.78848" lon="7.13341">
    <ele>933.6</ele>
    <name><![CDATA[wpt009]]></name>
    <desc><![CDATA[PAUSA PRANZO]]></desc>
  </wpt>
  <wpt lat="43.77044" lon="7.14447">
    <ele>746</ele>
    <name><![CDATA[wpt010]]></name>
    <desc><![CDATA[SALITA]]></desc>
  </wpt>
  <wpt lat="43.76419" lon="7.14889">
    <ele>819.2</ele>
    <name><![CDATA[wpt011]]></name>
    <desc><![CDATA[BALISE 11]]></desc>
  </wpt>
  <trk>
    <name><![CDATA[2011-12-28-Moutond'Anou1]]></name>
    <trkseg>
      <trkpt lat="43.76206" lon="7.17528">
        <ele>271.1</ele>
        <time>2011-12-28T09:19:27Z</time>
      </trkpt>
      <trkpt lat="43.76206" lon="7.17528">
        <ele>271.1</ele>
        <time>2011-12-28T09:19:28Z</time>
      </trkpt>
      <trkpt lat="43.76214" lon="7.17519">
        <ele>267.8</ele>
        <time>2011-12-28T09:28:54Z</time>
      </trkpt>
      <trkpt lat="43.76226" lon="7.17505">
        <ele>270.4</ele>
        <time>2011-12-28T09:29:04Z</time>
      </trkpt>
      <trkpt lat="43.76223" lon="7.17494">
        <ele>270.8</ele>
        <time>2011-12-28T09:29:10Z</time>
      </trkpt>
      <trkpt lat="43.76216" lon="7.1749">
        <ele>271</ele>
        <time>2011-12-28T09:29:14Z</time>
      </trkpt>
      <trkpt lat="43.76208" lon="7.17489">
        <ele>270.5</ele>
        <time>2011-12-28T09:29:17Z</time>
      </trkpt>
      <trkpt lat="43.762" lon="7.1749">
        <ele>270.7</ele>
        <time>2011-12-28T09:29:20Z</time>
      </trkpt>
      <trkpt lat="43.76192" lon="7.17491">
        <ele>270.4</ele>
        <time>2011-12-28T09:29:23Z</time>
      </trkpt>
      <trkpt lat="43.76185" lon="7.17492">
        <ele>270.3</ele>
        <time>2011-12-28T09:29:26Z</time>
      </trkpt>
      <trkpt lat="43.76177" lon="7.17492">
        <ele>270.3</ele>
        <time>2011-12-28T09:29:29Z</time>
      </trkpt>
      <trkpt lat="43.76171" lon="7.17492">
        <ele>271.1</ele>
        <time>2011-12-28T09:29:31Z</time>
      </trkpt>
      <trkpt lat="43.76165" lon="7.17493">
        <ele>271.1</ele>
        <time>2011-12-28T09:29:33Z</time>
      </trkpt>
      <trkpt lat="43.76158" lon="7.17495">
        <ele>270.6</ele>
        <time>2011-12-28T09:29:35Z</time>
      </trkpt>
      <trkpt lat="43.76151" lon="7.17496">
        <ele>269.7</ele>
        <time>2011-12-28T09:29:38Z</time>
      </trkpt>
      <trkpt lat="43.76143" lon="7.17499">
        <ele>270</ele>
        <time>2011-12-28T09:29:41Z</time>
      </trkpt>
      <trkpt lat="43.76136" lon="7.17501">
        <ele>268.4</ele>
        <time>2011-12-28T09:29:43Z</time>
      </trkpt>
      <trkpt lat="43.76129" lon="7.17499">
        <ele>268</ele>
        <time>2011-12-28T09:29:45Z</time>
      </trkpt>
      <trkpt lat="43.76122" lon="7.17497">
        <ele>267.6</ele>
        <time>2011-12-28T09:29:47Z</time>
      </trkpt>
      <trkpt lat="43.76116" lon="7.17495">
        <ele>267.9</ele>
        <time>2011-12-28T09:29:49Z</time>
      </trkpt>
      <trkpt lat="43.76108" lon="7.17493">
        <ele>268.9</ele>
        <time>2011-12-28T09:29:52Z</time>
      </trkpt>
      <trkpt lat="43.76099" lon="7.17494">
        <ele>269.9</ele>
        <time>2011-12-28T09:29:55Z</time>
      </trkpt>
      <trkpt lat="43.76096" lon="7.17495">
        <ele>269.8</ele>
        <time>2011-12-28T09:29:56Z</time>
      </trkpt>
      <trkpt lat="43.76085" lon="7.17501">
        <ele>270</ele>
        <time>2011-12-28T09:30:00Z</time>
      </trkpt>
      <trkpt lat="43.7608" lon="7.1751">
        <ele>270.8</ele>
        <time>2011-12-28T09:30:03Z</time>
      </trkpt>
      <trkpt lat="43.76075" lon="7.17518">
        <ele>271.3</ele>
        <time>2011-12-28T09:30:06Z</time>
      </trkpt>
      <trkpt lat="43.7607" lon="7.17527">
        <ele>271.7</ele>
        <time>2011-12-28T09:30:09Z</time>
      </trkpt>
      <trkpt lat="43.76066" lon="7.17535">
        <ele>272.1</ele>
        <time>2011-12-28T09:30:12Z</time>
      </trkpt>
      <trkpt lat="43.76062" lon="7.17543">
        <ele>272.3</ele>
        <time>2011-12-28T09:30:15Z</time>
      </trkpt>
      <trkpt lat="43.76057" lon="7.17551">
        <ele>272.6</ele>
        <time>2011-12-28T09:30:18Z</time>
      </trkpt>
      <trkpt lat="43.76052" lon="7.1756">
        <ele>273.1</ele>
        <time>2011-12-28T09:30:21Z</time>
      </trkpt>
      <trkpt lat="43.76048" lon="7.17568">
        <ele>274.3</ele>
        <time>2011-12-28T09:30:24Z</time>
      </trkpt>
      <trkpt lat="43.76043" lon="7.17576">
        <ele>273.6</ele>
        <time>2011-12-28T09:30:27Z</time>
      </trkpt>
      <trkpt lat="43.7604" lon="7.17584">
        <ele>275.2</ele>
        <time>2011-12-28T09:30:30Z</time>
      </trkpt>
      <trkpt lat="43.76035" lon="7.17591">
        <ele>275.6</ele>
        <time>2011-12-28T09:30:33Z</time>
      </trkpt>
      <trkpt lat="43.7603" lon="7.17597">
        <ele>275.1</ele>
        <time>2011-12-28T09:30:36Z</time>
      </trkpt>
      <trkpt lat="43.76024" lon="7.17603">
        <ele>275.8</ele>
        <time>2011-12-28T09:30:39Z</time>
      </trkpt>
      <trkpt lat="43.76016" lon="7.17606">
        <ele>276.7</ele>
        <time>2011-12-28T09:30:42Z</time>
      </trkpt>
      <trkpt lat="43.76012" lon="7.17598">
        <ele>276.5</ele>
        <time>2011-12-28T09:30:46Z</time>
      </trkpt>
      <trkpt lat="43.76014" lon="7.17589">
        <ele>277</ele>
        <time>2011-12-28T09:30:49Z</time>
      </trkpt>
      <trkpt lat="43.76018" lon="7.1758">
        <ele>277</ele>
        <time>2011-12-28T09:30:52Z</time>
      </trkpt>
      <trkpt lat="43.76021" lon="7.17571">
        <ele>277.6</ele>
        <time>2011-12-28T09:30:55Z</time>
      </trkpt>
      <trkpt lat="43.76025" lon="7.17563">
        <ele>278.5</ele>
        <time>2011-12-28T09:30:58Z</time>
      </trkpt>
      <trkpt lat="43.76026" lon="7.17559">
        <ele>278.8</ele>
        <time>2011-12-28T09:30:59Z</time>
      </trkpt>
      <trkpt lat="43.76032" lon="7.17545">
        <ele>278.7</ele>
        <time>2011-12-28T09:31:03Z</time>
      </trkpt>
      <trkpt lat="43.76035" lon="7.17537">
        <ele>279</ele>
        <time>2011-12-28T09:31:05Z</time>
      </trkpt>
      <trkpt lat="43.76038" lon="7.1753">
        <ele>279</ele>
        <time>2011-12-28T09:31:07Z</time>
      </trkpt>
      <trkpt lat="43.76041" lon="7.17522">
        <ele>279</ele>
        <time>2011-12-28T09:31:09Z</time>
      </trkpt>
      <trkpt lat="43.76043" lon="7.17515">
        <ele>278.6</ele>
        <time>2011-12-28T09:31:11Z</time>
      </trkpt>
      <trkpt lat="43.76046" lon="7.17507">
        <ele>278.9</ele>
        <time>2011-12-28T09:31:13Z</time>
      </trkpt>
      <trkpt lat="43.7605" lon="7.17499">
        <ele>279.3</ele>
        <time>2011-12-28T09:31:15Z</time>
      </trkpt>
      <trkpt lat="43.76053" lon="7.17491">
        <ele>279.8</ele>
        <time>2011-12-28T09:31:17Z</time>
      </trkpt>
      <trkpt lat="43.76056" lon="7.17483">
        <ele>280</ele>
        <time>2011-12-28T09:31:19Z</time>
      </trkpt>
      <trkpt lat="43.76059" lon="7.17475">
        <ele>280</ele>
        <time>2011-12-28T09:31:21Z</time>
      </trkpt>
      <trkpt lat="43.76062" lon="7.17467">
        <ele>279.9</ele>
        <time>2011-12-28T09:31:23Z</time>
      </trkpt>
      <trkpt lat="43.76065" lon="7.1746">
        <ele>279.8</ele>
        <time>2011-12-28T09:31:25Z</time>
      </trkpt>
      <trkpt lat="43.7607" lon="7.1745">
        <ele>280.6</ele>
        <time>2011-12-28T09:31:28Z</time>
      </trkpt>
      <trkpt lat="43.76074" lon="7.17445">
        <ele>280</ele>
        <time>2011-12-28T09:31:30Z</time>
      </trkpt>
      <trkpt lat="43.7608" lon="7.1744">
        <ele>279.9</ele>
        <time>2011-12-28T09:31:32Z</time>
      </trkpt>
      <trkpt lat="43.76086" lon="7.17437">
        <ele>280</ele>
        <time>2011-12-28T09:31:34Z</time>
      </trkpt>
      <trkpt lat="43.76093" lon="7.17437">
        <ele>280.5</ele>
        <time>2011-12-28T09:31:36Z</time>
      </trkpt>
      <trkpt lat="43.761" lon="7.17436">
        <ele>281.3</ele>
        <time>2011-12-28T09:31:38Z</time>
      </trkpt>
      <trkpt lat="43.76107" lon="7.17436">
        <ele>282</ele>
        <time>2011-12-28T09:31:40Z</time>
      </trkpt>
      <trkpt lat="43.76114" lon="7.17436">
        <ele>281.7</ele>
        <time>2011-12-28T09:31:42Z</time>
      </trkpt>
      <trkpt lat="43.76122" lon="7.17436">
        <ele>281.1</ele>
        <time>2011-12-28T09:31:44Z</time>
      </trkpt>
      <trkpt lat="43.76129" lon="7.17436">
        <ele>281.5</ele>
        <time>2011-12-28T09:31:46Z</time>
      </trkpt>
      <trkpt lat="43.76135" lon="7.17435">
        <ele>281.4</ele>
        <time>2011-12-28T09:31:48Z</time>
      </trkpt>
      <trkpt lat="43.76142" lon="7.17434">
        <ele>281.1</ele>
        <time>2011-12-28T09:31:50Z</time>
      </trkpt>
      <trkpt lat="43.76148" lon="7.17433">
        <ele>281</ele>
        <time>2011-12-28T09:31:52Z</time>
      </trkpt>
      <trkpt lat="43.76155" lon="7.17433">
        <ele>282</ele>
        <time>2011-12-28T09:31:54Z</time>
      </trkpt>
      <trkpt lat="43.76162" lon="7.17432">
        <ele>282.4</ele>
        <time>2011-12-28T09:31:56Z</time>
      </trkpt>
      <trkpt lat="43.76168" lon="7.17431">
        <ele>282.6</ele>
        <time>2011-12-28T09:31:58Z</time>
      </trkpt>
      <trkpt lat="43.76175" lon="7.17429">
        <ele>282.6</ele>
        <time>2011-12-28T09:32:00Z</time>
      </trkpt>
      <trkpt lat="43.76179" lon="7.17428">
        <ele>282.6</ele>
        <time>2011-12-28T09:32:01Z</time>
      </trkpt>
      <trkpt lat="43.76189" lon="7.17426">
        <ele>282.9</ele>
        <time>2011-12-28T09:32:04Z</time>
      </trkpt>
      <trkpt lat="43.76196" lon="7.17425">
        <ele>283.1</ele>
        <time>2011-12-28T09:32:06Z</time>
      </trkpt>
      <trkpt lat="43.76203" lon="7.17425">
        <ele>282.8</ele>
        <time>2011-12-28T09:32:08Z</time>
      </trkpt>
      <trkpt lat="43.7621" lon="7.17423">
        <ele>283.7</ele>
        <time>2011-12-28T09:32:10Z</time>
      </trkpt>
      <trkpt lat="43.76217" lon="7.17422">
        <ele>284.3</ele>
        <time>2011-12-28T09:32:12Z</time>
      </trkpt>
      <trkpt lat="43.76224" lon="7.17423">
        <ele>284.2</ele>
        <time>2011-12-28T09:32:14Z</time>
      </trkpt>
      <trkpt lat="43.76231" lon="7.17425">
        <ele>284</ele>
        <time>2011-12-28T09:32:16Z</time>
      </trkpt>
      <trkpt lat="43.76237" lon="7.17428">
        <ele>284</ele>
        <time>2011-12-28T09:32:18Z</time>
      </trkpt>
      <trkpt lat="43.76244" lon="7.17431">
        <ele>284.5</ele>
        <time>2011-12-28T09:32:20Z</time>
      </trkpt>
      <trkpt lat="43.7625" lon="7.17434">
        <ele>284.2</ele>
        <time>2011-12-28T09:32:22Z</time>
      </trkpt>
      <trkpt lat="43.76256" lon="7.17438">
        <ele>283.7</ele>
        <time>2011-12-28T09:32:24Z</time>
      </trkpt>
      <trkpt lat="43.76262" lon="7.17442">
        <ele>284.1</ele>
        <time>2011-12-28T09:32:26Z</time>
      </trkpt>
      <trkpt lat="43.76268" lon="7.17445">
        <ele>284.5</ele>
        <time>2011-12-28T09:32:28Z</time>
      </trkpt>
      <trkpt lat="43.76275" lon="7.17449">
        <ele>284.6</ele>
        <time>2011-12-28T09:32:30Z</time>
      </trkpt>
      <trkpt lat="43.76281" lon="7.17453">
        <ele>285.7</ele>
        <time>2011-12-28T09:32:32Z</time>
      </trkpt>
      <trkpt lat="43.76287" lon="7.17458">
        <ele>285.9</ele>
        <time>2011-12-28T09:32:34Z</time>
      </trkpt>
      <trkpt lat="43.76293" lon="7.17463">
        <ele>285.8</ele>
        <time>2011-12-28T09:32:36Z</time>
      </trkpt>
      <trkpt lat="43.76297" lon="7.17471">
        <ele>286</ele>
        <time>2011-12-28T09:32:38Z</time>
      </trkpt>
      <trkpt lat="43.76299" lon="7.1748">
        <ele>286.2</ele>
        <time>2011-12-28T09:32:40Z</time>
      </trkpt>
      <trkpt lat="43.763" lon="7.17489">
        <ele>286.7</ele>
        <time>2011-12-28T09:32:42Z</time>
      </trkpt>
      <trkpt lat="43.76301" lon="7.17498">
        <ele>287.2</ele>
        <time>2011-12-28T09:32:44Z</time>
      </trkpt>
      <trkpt lat="43.76302" lon="7.17508">
        <ele>287.2</ele>
        <time>2011-12-28T09:32:46Z</time>
      </trkpt>
      <trkpt lat="43.76304" lon="7.17517">
        <ele>286.4</ele>
        <time>2011-12-28T09:32:48Z</time>
      </trkpt>
      <trkpt lat="43.76308" lon="7.17525">
        <ele>286.7</ele>
        <time>2011-12-28T09:32:50Z</time>
      </trkpt>
      <trkpt lat="43.76313" lon="7.17531">
        <ele>286.8</ele>
        <time>2011-12-28T09:32:52Z</time>
      </trkpt>
      <trkpt lat="43.76319" lon="7.17535">
        <ele>287</ele>
        <time>2011-12-28T09:32:54Z</time>
      </trkpt>
      <trkpt lat="43.76326" lon="7.17538">
        <ele>287.1</ele>
        <time>2011-12-28T09:32:56Z</time>
      </trkpt>
      <trkpt lat="43.76332" lon="7.17541">
        <ele>286.9</ele>
        <time>2011-12-28T09:32:58Z</time>
      </trkpt>
      <trkpt lat="43.7634" lon="7.17544">
        <ele>287.6</ele>
        <time>2011-12-28T09:33:01Z</time>
      </trkpt>
      <trkpt lat="43.76345" lon="7.17547">
        <ele>287.7</ele>
        <time>2011-12-28T09:33:03Z</time>
      </trkpt>
      <trkpt lat="43.76348" lon="7.17549">
        <ele>288</ele>
        <time>2011-12-28T09:33:04Z</time>
      </trkpt>
      <trkpt lat="43.76358" lon="7.17556">
        <ele>288.6</ele>
        <time>2011-12-28T09:33:07Z</time>
      </trkpt>
      <trkpt lat="43.76364" lon="7.1756">
        <ele>288.6</ele>
        <time>2011-12-28T09:33:09Z</time>
      </trkpt>
      <trkpt lat="43.76371" lon="7.17564">
        <ele>288.5</ele>
        <time>2011-12-28T09:33:11Z</time>
      </trkpt>
      <trkpt lat="43.76377" lon="7.17568">
        <ele>288.5</ele>
        <time>2011-12-28T09:33:13Z</time>
      </trkpt>
      <trkpt lat="43.76384" lon="7.1757">
        <ele>288.7</ele>
        <time>2011-12-28T09:33:15Z</time>
      </trkpt>
      <trkpt lat="43.7639" lon="7.17573">
        <ele>289.4</ele>
        <time>2011-12-28T09:33:17Z</time>
      </trkpt>
      <trkpt lat="43.76397" lon="7.17576">
        <ele>289.7</ele>
        <time>2011-12-28T09:33:19Z</time>
      </trkpt>
      <trkpt lat="43.76404" lon="7.17579">
        <ele>289.9</ele>
        <time>2011-12-28T09:33:21Z</time>
      </trkpt>
      <trkpt lat="43.76411" lon="7.17582">
        <ele>289.8</ele>
        <time>2011-12-28T09:33:23Z</time>
      </trkpt>
      <trkpt lat="43.76417" lon="7.17586">
        <ele>289.3</ele>
        <time>2011-12-28T09:33:25Z</time>
      </trkpt>
      <trkpt lat="43.76424" lon="7.17589">
        <ele>289.5</ele>
        <time>2011-12-28T09:33:27Z</time>
      </trkpt>
      <trkpt lat="43.76431" lon="7.17592">
        <ele>290</ele>
        <time>2011-12-28T09:33:29Z</time>
      </trkpt>
      <trkpt lat="43.76437" lon="7.17597">
        <ele>290.3</ele>
        <time>2011-12-28T09:33:31Z</time>
      </trkpt>
      <trkpt lat="43.76443" lon="7.17603">
        <ele>290.8</ele>
        <time>2011-12-28T09:33:33Z</time>
      </trkpt>
      <trkpt lat="43.76447" lon="7.1761">
        <ele>291.2</ele>
        <time>2011-12-28T09:33:35Z</time>
      </trkpt>
      <trkpt lat="43.76452" lon="7.17617">
        <ele>291.2</ele>
        <time>2011-12-28T09:33:37Z</time>
      </trkpt>
      <trkpt lat="43.76457" lon="7.17625">
        <ele>291.2</ele>
        <time>2011-12-28T09:33:39Z</time>
      </trkpt>
      <trkpt lat="43.76462" lon="7.17631">
        <ele>291.4</ele>
        <time>2011-12-28T09:33:41Z</time>
      </trkpt>
      <trkpt lat="43.76468" lon="7.17636">
        <ele>290.9</ele>
        <time>2011-12-28T09:33:43Z</time>
      </trkpt>
      <trkpt lat="43.76475" lon="7.1764">
        <ele>291.3</ele>
        <time>2011-12-28T09:33:45Z</time>
      </trkpt>
      <trkpt lat="43.76482" lon="7.17643">
        <ele>291.2</ele>
        <time>2011-12-28T09:33:47Z</time>
      </trkpt>
      <trkpt lat="43.76489" lon="7.17645">
        <ele>291.4</ele>
        <time>2011-12-28T09:33:49Z</time>
      </trkpt>
      <trkpt lat="43.76496" lon="7.17646">
        <ele>291.6</ele>
        <time>2011-12-28T09:33:51Z</time>
      </trkpt>
      <trkpt lat="43.76504" lon="7.17647">
        <ele>291.4</ele>
        <time>2011-12-28T09:33:53Z</time>
      </trkpt>
      <trkpt lat="43.76511" lon="7.17647">
        <ele>292.1</ele>
        <time>2011-12-28T09:33:55Z</time>
      </trkpt>
      <trkpt lat="43.76519" lon="7.17646">
        <ele>292.6</ele>
        <time>2011-12-28T09:33:57Z</time>
      </trkpt>
      <trkpt lat="43.76527" lon="7.17644">
        <ele>292.7</ele>
        <time>2011-12-28T09:33:59Z</time>
      </trkpt>
      <trkpt lat="43.76534" lon="7.17641">
        <ele>292.4</ele>
        <time>2011-12-28T09:34:01Z</time>
      </trkpt>
      <trkpt lat="43.7654" lon="7.17635">
        <ele>292.5</ele>
        <time>2011-12-28T09:34:03Z</time>
      </trkpt>
      <trkpt lat="43.76546" lon="7.17628">
        <ele>292.9</ele>
        <time>2011-12-28T09:34:05Z</time>
      </trkpt>
      <trkpt lat="43.76549" lon="7.17624">
        <ele>293.1</ele>
        <time>2011-12-28T09:34:06Z</time>
      </trkpt>
      <trkpt lat="43.76558" lon="7.17614">
        <ele>292.7</ele>
        <time>2011-12-28T09:34:09Z</time>
      </trkpt>
      <trkpt lat="43.76565" lon="7.17608">
        <ele>293.6</ele>
        <time>2011-12-28T09:34:11Z</time>
      </trkpt>
      <trkpt lat="43.76572" lon="7.17604">
        <ele>293.5</ele>
        <time>2011-12-28T09:34:13Z</time>
      </trkpt>
      <trkpt lat="43.76579" lon="7.176">
        <ele>293.4</ele>
        <time>2011-12-28T09:34:15Z</time>
      </trkpt>
      <trkpt lat="43.76586" lon="7.17597">
        <ele>293.7</ele>
        <time>2011-12-28T09:34:17Z</time>
      </trkpt>
      <trkpt lat="43.76593" lon="7.17593">
        <ele>293.9</ele>
        <time>2011-12-28T09:34:19Z</time>
      </trkpt>
      <trkpt lat="43.766" lon="7.17588">
        <ele>294</ele>
        <time>2011-12-28T09:34:21Z</time>
      </trkpt>
      <trkpt lat="43.76606" lon="7.17582">
        <ele>293.9</ele>
        <time>2011-12-28T09:34:23Z</time>
      </trkpt>
      <trkpt lat="43.7661" lon="7.17574">
        <ele>294.6</ele>
        <time>2011-12-28T09:34:25Z</time>
      </trkpt>
      <trkpt lat="43.76613" lon="7.17565">
        <ele>294.6</ele>
        <time>2011-12-28T09:34:27Z</time>
      </trkpt>
      <trkpt lat="43.76617" lon="7.17555">
        <ele>294</ele>
        <time>2011-12-28T09:34:29Z</time>
      </trkpt>
      <trkpt lat="43.76622" lon="7.17547">
        <ele>293.6</ele>
        <time>2011-12-28T09:34:31Z</time>
      </trkpt>
      <trkpt lat="43.76628" lon="7.17541">
        <ele>293.9</ele>
        <time>2011-12-28T09:34:33Z</time>
      </trkpt>
      <trkpt lat="43.76635" lon="7.17538">
        <ele>293.8</ele>
        <time>2011-12-28T09:34:35Z</time>
      </trkpt>
      <trkpt lat="43.76642" lon="7.17534">
        <ele>293.5</ele>
        <time>2011-12-28T09:34:37Z</time>
      </trkpt>
      <trkpt lat="43.76648" lon="7.1753">
        <ele>293.8</ele>
        <time>2011-12-28T09:34:39Z</time>
      </trkpt>
      <trkpt lat="43.76654" lon="7.17524">
        <ele>294.5</ele>
        <time>2011-12-28T09:34:41Z</time>
      </trkpt>
      <trkpt lat="43.7666" lon="7.17518">
        <ele>294.8</ele>
        <time>2011-12-28T09:34:43Z</time>
      </trkpt>
      <trkpt lat="43.76666" lon="7.17511">
        <ele>294.9</ele>
        <time>2011-12-28T09:34:45Z</time>
      </trkpt>
      <trkpt lat="43.76671" lon="7.17503">
        <ele>295.3</ele>
        <time>2011-12-28T09:34:47Z</time>
      </trkpt>
      <trkpt lat="43.76676" lon="7.17496">
        <ele>295</ele>
        <time>2011-12-28T09:34:49Z</time>
      </trkpt>
      <trkpt lat="43.76682" lon="7.1749">
        <ele>294.8</ele>
        <time>2011-12-28T09:34:51Z</time>
      </trkpt>
      <trkpt lat="43.76688" lon="7.17485">
        <ele>294.8</ele>
        <time>2011-12-28T09:34:53Z</time>
      </trkpt>
      <trkpt lat="43.76694" lon="7.1748">
        <ele>294.6</ele>
        <time>2011-12-28T09:34:55Z</time>
      </trkpt>
      <trkpt lat="43.767" lon="7.17476">
        <ele>294.3</ele>
        <time>2011-12-28T09:34:57Z</time>
      </trkpt>
      <trkpt lat="43.76707" lon="7.17472">
        <ele>294.4</ele>
        <time>2011-12-28T09:34:59Z</time>
      </trkpt>
      <trkpt lat="43.76714" lon="7.17468">
        <ele>294.5</ele>
        <time>2011-12-28T09:35:01Z</time>
      </trkpt>
      <trkpt lat="43.76721" lon="7.17464">
        <ele>295</ele>
        <time>2011-12-28T09:35:03Z</time>
      </trkpt>
      <trkpt lat="43.76728" lon="7.1746">
        <ele>294.7</ele>
        <time>2011-12-28T09:35:05Z</time>
      </trkpt>
      <trkpt lat="43.76735" lon="7.17457">
        <ele>294.7</ele>
        <time>2011-12-28T09:35:07Z</time>
      </trkpt>
      <trkpt lat="43.76739" lon="7.17455">
        <ele>294.9</ele>
        <time>2011-12-28T09:35:08Z</time>
      </trkpt>
      <trkpt lat="43.76749" lon="7.17448">
        <ele>296</ele>
        <time>2011-12-28T09:35:11Z</time>
      </trkpt>
      <trkpt lat="43.76754" lon="7.1744">
        <ele>296</ele>
        <time>2011-12-28T09:35:13Z</time>
      </trkpt>
      <trkpt lat="43.76758" lon="7.17431">
        <ele>296.7</ele>
        <time>2011-12-28T09:35:15Z</time>
      </trkpt>
      <trkpt lat="43.7676" lon="7.1742">
        <ele>296.7</ele>
        <time>2011-12-28T09:35:17Z</time>
      </trkpt>
      <trkpt lat="43.76763" lon="7.17409">
        <ele>296.4</ele>
        <time>2011-12-28T09:35:19Z</time>
      </trkpt>
      <trkpt lat="43.76767" lon="7.17399">
        <ele>296.5</ele>
        <time>2011-12-28T09:35:21Z</time>
      </trkpt>
      <trkpt lat="43.76773" lon="7.17392">
        <ele>296.7</ele>
        <time>2011-12-28T09:35:23Z</time>
      </trkpt>
      <trkpt lat="43.76778" lon="7.17386">
        <ele>297.3</ele>
        <time>2011-12-28T09:35:25Z</time>
      </trkpt>
      <trkpt lat="43.76785" lon="7.1738">
        <ele>296.5</ele>
        <time>2011-12-28T09:35:27Z</time>
      </trkpt>
      <trkpt lat="43.76791" lon="7.17374">
        <ele>296.6</ele>
        <time>2011-12-28T09:35:29Z</time>
      </trkpt>
      <trkpt lat="43.76798" lon="7.17369">
        <ele>296.4</ele>
        <time>2011-12-28T09:35:31Z</time>
      </trkpt>
      <trkpt lat="43.76804" lon="7.17363">
        <ele>295.9</ele>
        <time>2011-12-28T09:35:33Z</time>
      </trkpt>
      <trkpt lat="43.7681" lon="7.17357">
        <ele>295.6</ele>
        <time>2011-12-28T09:35:35Z</time>
      </trkpt>
      <trkpt lat="43.76815" lon="7.1735">
        <ele>296.4</ele>
        <time>2011-12-28T09:35:37Z</time>
      </trkpt>
      <trkpt lat="43.76821" lon="7.17343">
        <ele>296.1</ele>
        <time>2011-12-28T09:35:39Z</time>
      </trkpt>
      <trkpt lat="43.76826" lon="7.17336">
        <ele>296.9</ele>
        <time>2011-12-28T09:35:41Z</time>
      </trkpt>
      <trkpt lat="43.76832" lon="7.17328">
        <ele>297.2</ele>
        <time>2011-12-28T09:35:43Z</time>
      </trkpt>
      <trkpt lat="43.76838" lon="7.17321">
        <ele>297.5</ele>
        <time>2011-12-28T09:35:45Z</time>
      </trkpt>
      <trkpt lat="43.76843" lon="7.17314">
        <ele>297.2</ele>
        <time>2011-12-28T09:35:47Z</time>
      </trkpt>
      <trkpt lat="43.76849" lon="7.17308">
        <ele>296.5</ele>
        <time>2011-12-28T09:35:49Z</time>
      </trkpt>
      <trkpt lat="43.76855" lon="7.17303">
        <ele>297.2</ele>
        <time>2011-12-28T09:35:51Z</time>
      </trkpt>
      <trkpt lat="43.76862" lon="7.17298">
        <ele>297.7</ele>
        <time>2011-12-28T09:35:53Z</time>
      </trkpt>
      <trkpt lat="43.76869" lon="7.17295">
        <ele>297.6</ele>
        <time>2011-12-28T09:35:55Z</time>
      </trkpt>
      <trkpt lat="43.76877" lon="7.17295">
        <ele>297.3</ele>
        <time>2011-12-28T09:35:57Z</time>
      </trkpt>
      <trkpt lat="43.76884" lon="7.17299">
        <ele>297.5</ele>
        <time>2011-12-28T09:35:59Z</time>
      </trkpt>
      <trkpt lat="43.76891" lon="7.17306">
        <ele>297.9</ele>
        <time>2011-12-28T09:36:01Z</time>
      </trkpt>
      <trkpt lat="43.76898" lon="7.17312">
        <ele>298</ele>
        <time>2011-12-28T09:36:03Z</time>
      </trkpt>
      <trkpt lat="43.76906" lon="7.17316">
        <ele>298.8</ele>
        <time>2011-12-28T09:36:05Z</time>
      </trkpt>
      <trkpt lat="43.76914" lon="7.17321">
        <ele>298.2</ele>
        <time>2011-12-28T09:36:07Z</time>
      </trkpt>
      <trkpt lat="43.76922" lon="7.17324">
        <ele>297.7</ele>
        <time>2011-12-28T09:36:09Z</time>
      </trkpt>
      <trkpt lat="43.76926" lon="7.17326">
        <ele>297.6</ele>
        <time>2011-12-28T09:36:10Z</time>
      </trkpt>
      <trkpt lat="43.76938" lon="7.17331">
        <ele>298</ele>
        <time>2011-12-28T09:36:13Z</time>
      </trkpt>
      <trkpt lat="43.76946" lon="7.17335">
        <ele>298.4</ele>
        <time>2011-12-28T09:36:15Z</time>
      </trkpt>
      <trkpt lat="43.76953" lon="7.17339">
        <ele>298.5</ele>
        <time>2011-12-28T09:36:17Z</time>
      </trkpt>
      <trkpt lat="43.7696" lon="7.17344">
        <ele>298.9</ele>
        <time>2011-12-28T09:36:19Z</time>
      </trkpt>
      <trkpt lat="43.76967" lon="7.17348">
        <ele>299.1</ele>
        <time>2011-12-28T09:36:21Z</time>
      </trkpt>
      <trkpt lat="43.76974" lon="7.17353">
        <ele>299</ele>
        <time>2011-12-28T09:36:23Z</time>
      </trkpt>
      <trkpt lat="43.76981" lon="7.17358">
        <ele>299.1</ele>
        <time>2011-12-28T09:36:25Z</time>
      </trkpt>
      <trkpt lat="43.76988" lon="7.17363">
        <ele>299.4</ele>
        <time>2011-12-28T09:36:27Z</time>
      </trkpt>
      <trkpt lat="43.76995" lon="7.17369">
        <ele>299</ele>
        <time>2011-12-28T09:36:29Z</time>
      </trkpt>
      <trkpt lat="43.77001" lon="7.17376">
        <ele>299.4</ele>
        <time>2011-12-28T09:36:31Z</time>
      </trkpt>
      <trkpt lat="43.77007" lon="7.17383">
        <ele>299.5</ele>
        <time>2011-12-28T09:36:33Z</time>
      </trkpt>
      <trkpt lat="43.77013" lon="7.1739">
        <ele>299.4</ele>
        <time>2011-12-28T09:36:35Z</time>
      </trkpt>
      <trkpt lat="43.77019" lon="7.17397">
        <ele>299.4</ele>
        <time>2011-12-28T09:36:37Z</time>
      </trkpt>
      <trkpt lat="43.77024" lon="7.17403">
        <ele>299.6</ele>
        <time>2011-12-28T09:36:39Z</time>
      </trkpt>
      <trkpt lat="43.77029" lon="7.17411">
        <ele>300</ele>
        <time>2011-12-28T09:36:41Z</time>
      </trkpt>
      <trkpt lat="43.77035" lon="7.17417">
        <ele>299.8</ele>
        <time>2011-12-28T09:36:43Z</time>
      </trkpt>
      <trkpt lat="43.77041" lon="7.17423">
        <ele>300.8</ele>
        <time>2011-12-28T09:36:45Z</time>
      </trkpt>
      <trkpt lat="43.77049" lon="7.17426">
        <ele>301</ele>
        <time>2011-12-28T09:36:47Z</time>
      </trkpt>
      <trkpt lat="43.77057" lon="7.17427">
        <ele>300.8</ele>
        <time>2011-12-28T09:36:49Z</time>
      </trkpt>
      <trkpt lat="43.77066" lon="7.17425">
        <ele>300.6</ele>
        <time>2011-12-28T09:36:51Z</time>
      </trkpt>
      <trkpt lat="43.77073" lon="7.17421">
        <ele>300.6</ele>
        <time>2011-12-28T09:36:53Z</time>
      </trkpt>
      <trkpt lat="43.7708" lon="7.17415">
        <ele>300.7</ele>
        <time>2011-12-28T09:36:55Z</time>
      </trkpt>
      <trkpt lat="43.77087" lon="7.17411">
        <ele>300.6</ele>
        <time>2011-12-28T09:36:57Z</time>
      </trkpt>
      <trkpt lat="43.77093" lon="7.1741">
        <ele>301.2</ele>
        <time>2011-12-28T09:36:59Z</time>
      </trkpt>
      <trkpt lat="43.77099" lon="7.17414">
        <ele>301.2</ele>
        <time>2011-12-28T09:37:01Z</time>
      </trkpt>
      <trkpt lat="43.77103" lon="7.17423">
        <ele>301</ele>
        <time>2011-12-28T09:37:03Z</time>
      </trkpt>
      <trkpt lat="43.77103" lon="7.17434">
        <ele>301.2</ele>
        <time>2011-12-28T09:37:05Z</time>
      </trkpt>
      <trkpt lat="43.77104" lon="7.17446">
        <ele>301.3</ele>
        <time>2011-12-28T09:37:07Z</time>
      </trkpt>
      <trkpt lat="43.77105" lon="7.17457">
        <ele>301.3</ele>
        <time>2011-12-28T09:37:09Z</time>
      </trkpt>
      <trkpt lat="43.77108" lon="7.17469">
        <ele>301.7</ele>
        <time>2011-12-28T09:37:11Z</time>
      </trkpt>
      <trkpt lat="43.7711" lon="7.17475">
        <ele>301.9</ele>
        <time>2011-12-28T09:37:12Z</time>
      </trkpt>
      <trkpt lat="43.77112" lon="7.1748">
        <ele>301.8</ele>
        <time>2011-12-28T09:37:13Z</time>
      </trkpt>
      <trkpt lat="43.77115" lon="7.17485">
        <ele>301.7</ele>
        <time>2011-12-28T09:37:14Z</time>
      </trkpt>
      <trkpt lat="43.77118" lon="7.1749">
        <ele>301.7</ele>
        <time>2011-12-28T09:37:15Z</time>
      </trkpt>
      <trkpt lat="43.77125" lon="7.17499">
        <ele>301.8</ele>
        <time>2011-12-28T09:37:17Z</time>
      </trkpt>
      <trkpt lat="43.77131" lon="7.17507">
        <ele>301.9</ele>
        <time>2011-12-28T09:37:19Z</time>
      </trkpt>
      <trkpt lat="43.77135" lon="7.17515">
        <ele>301.8</ele>
        <time>2011-12-28T09:37:21Z</time>
      </trkpt>
      <trkpt lat="43.7714" lon="7.17525">
        <ele>302.9</ele>
        <time>2011-12-28T09:37:23Z</time>
      </trkpt>
      <trkpt lat="43.77143" lon="7.17535">
        <ele>303.4</ele>
        <time>2011-12-28T09:37:25Z</time>
      </trkpt>
      <trkpt lat="43.77146" lon="7.17545">
        <ele>303.2</ele>
        <time>2011-12-28T09:37:27Z</time>
      </trkpt>
      <trkpt lat="43.77149" lon="7.17555">
        <ele>303.2</ele>
        <time>2011-12-28T09:37:29Z</time>
      </trkpt>
      <trkpt lat="43.77152" lon="7.17565">
        <ele>303.4</ele>
        <time>2011-12-28T09:37:31Z</time>
      </trkpt>
      <trkpt lat="43.77155" lon="7.17576">
        <ele>303.8</ele>
        <time>2011-12-28T09:37:33Z</time>
      </trkpt>
      <trkpt lat="43.77157" lon="7.17586">
        <ele>304.1</ele>
        <time>2011-12-28T09:37:35Z</time>
      </trkpt>
      <trkpt lat="43.77158" lon="7.17598">
        <ele>304</ele>
        <time>2011-12-28T09:37:37Z</time>
      </trkpt>
      <trkpt lat="43.77158" lon="7.17609">
        <ele>303.6</ele>
        <time>2011-12-28T09:37:39Z</time>
      </trkpt>
      <trkpt lat="43.77158" lon="7.1762">
        <ele>303.6</ele>
        <time>2011-12-28T09:37:41Z</time>
      </trkpt>
      <trkpt lat="43.77157" lon="7.17631">
        <ele>303.9</ele>
        <time>2011-12-28T09:37:43Z</time>
      </trkpt>
      <trkpt lat="43.77157" lon="7.17642">
        <ele>304.1</ele>
        <time>2011-12-28T09:37:45Z</time>
      </trkpt>
      <trkpt lat="43.77159" lon="7.17653">
        <ele>304.3</ele>
        <time>2011-12-28T09:37:47Z</time>
      </trkpt>
      <trkpt lat="43.77162" lon="7.17663">
        <ele>304.7</ele>
        <time>2011-12-28T09:37:49Z</time>
      </trkpt>
      <trkpt lat="43.77166" lon="7.17672">
        <ele>304.9</ele>
        <time>2011-12-28T09:37:51Z</time>
      </trkpt>
      <trkpt lat="43.77172" lon="7.1768">
        <ele>305.4</ele>
        <time>2011-12-28T09:37:53Z</time>
      </trkpt>
      <trkpt lat="43.77179" lon="7.17686">
        <ele>306</ele>
        <time>2011-12-28T09:37:55Z</time>
      </trkpt>
      <trkpt lat="43.77187" lon="7.17691">
        <ele>306</ele>
        <time>2011-12-28T09:37:57Z</time>
      </trkpt>
      <trkpt lat="43.77194" lon="7.17696">
        <ele>305.6</ele>
        <time>2011-12-28T09:37:59Z</time>
      </trkpt>
      <trkpt lat="43.77202" lon="7.17701">
        <ele>305.8</ele>
        <time>2011-12-28T09:38:01Z</time>
      </trkpt>
      <trkpt lat="43.7721" lon="7.17706">
        <ele>305.9</ele>
        <time>2011-12-28T09:38:03Z</time>
      </trkpt>
      <trkpt lat="43.77217" lon="7.17712">
        <ele>306</ele>
        <time>2011-12-28T09:38:05Z</time>
      </trkpt>
      <trkpt lat="43.77225" lon="7.17717">
        <ele>305.9</ele>
        <time>2011-12-28T09:38:07Z</time>
      </trkpt>
      <trkpt lat="43.77233" lon="7.17722">
        <ele>305.6</ele>
        <time>2011-12-28T09:38:09Z</time>
      </trkpt>
      <trkpt lat="43.77241" lon="7.17727">
        <ele>305.7</ele>
        <time>2011-12-28T09:38:11Z</time>
      </trkpt>
      <trkpt lat="43.77249" lon="7.17733">
        <ele>305.8</ele>
        <time>2011-12-28T09:38:13Z</time>
      </trkpt>
      <trkpt lat="43.77252" lon="7.17735">
        <ele>305.9</ele>
        <time>2011-12-28T09:38:14Z</time>
      </trkpt>
      <trkpt lat="43.77264" lon="7.17741">
        <ele>306.5</ele>
        <time>2011-12-28T09:38:17Z</time>
      </trkpt>
      <trkpt lat="43.77272" lon="7.17744">
        <ele>306.5</ele>
        <time>2011-12-28T09:38:19Z</time>
      </trkpt>
      <trkpt lat="43.77281" lon="7.17746">
        <ele>306.7</ele>
        <time>2011-12-28T09:38:21Z</time>
      </trkpt>
      <trkpt lat="43.77289" lon="7.17749">
        <ele>306.6</ele>
        <time>2011-12-28T09:38:23Z</time>
      </trkpt>
      <trkpt lat="43.77297" lon="7.17753">
        <ele>306</ele>
        <time>2011-12-28T09:38:25Z</time>
      </trkpt>
      <trkpt lat="43.77305" lon="7.17758">
        <ele>305.7</ele>
        <time>2011-12-28T09:38:27Z</time>
      </trkpt>
      <trkpt lat="43.77313" lon="7.17763">
        <ele>306</ele>
        <time>2011-12-28T09:38:29Z</time>
      </trkpt>
      <trkpt lat="43.7732" lon="7.17769">
        <ele>306.4</ele>
        <time>2011-12-28T09:38:31Z</time>
      </trkpt>
      <trkpt lat="43.77327" lon="7.17775">
        <ele>306.5</ele>
        <time>2011-12-28T09:38:33Z</time>
      </trkpt>
      <trkpt lat="43.77334" lon="7.1778">
        <ele>306.7</ele>
        <time>2011-12-28T09:38:35Z</time>
      </trkpt>
      <trkpt lat="43.77342" lon="7.17783">
        <ele>307.6</ele>
        <time>2011-12-28T09:38:37Z</time>
      </trkpt>
      <trkpt lat="43.7735" lon="7.17784">
        <ele>307.5</ele>
        <time>2011-12-28T09:38:39Z</time>
      </trkpt>
      <trkpt lat="43.77358" lon="7.17783">
        <ele>307.8</ele>
        <time>2011-12-28T09:38:41Z</time>
      </trkpt>
      <trkpt lat="43.77366" lon="7.17781">
        <ele>308.1</ele>
        <time>2011-12-28T09:38:43Z</time>
      </trkpt>
      <trkpt lat="43.77374" lon="7.17778">
        <ele>308</ele>
        <time>2011-12-28T09:38:45Z</time>
      </trkpt>
      <trkpt lat="43.77383" lon="7.17778">
        <ele>307.8</ele>
        <time>2011-12-28T09:38:47Z</time>
      </trkpt>
      <trkpt lat="43.7739" lon="7.17781">
        <ele>308</ele>
        <time>2011-12-28T09:38:49Z</time>
      </trkpt>
      <trkpt lat="43.77396" lon="7.17788">
        <ele>308.3</ele>
        <time>2011-12-28T09:38:51Z</time>
      </trkpt>
      <trkpt lat="43.774" lon="7.17798">
        <ele>308.7</ele>
        <time>2011-12-28T09:38:53Z</time>
      </trkpt>
      <trkpt lat="43.77403" lon="7.17808">
        <ele>308.7</ele>
        <time>2011-12-28T09:38:55Z</time>
      </trkpt>
      <trkpt lat="43.77405" lon="7.17818">
        <ele>308.4</ele>
        <time>2011-12-28T09:38:57Z</time>
      </trkpt>
      <trkpt lat="43.77407" lon="7.17828">
        <ele>308.1</ele>
        <time>2011-12-28T09:38:59Z</time>
      </trkpt>
      <trkpt lat="43.77409" lon="7.1784">
        <ele>308.5</ele>
        <time>2011-12-28T09:39:01Z</time>
      </trkpt>
      <trkpt lat="43.77411" lon="7.17851">
        <ele>308.3</ele>
        <time>2011-12-28T09:39:03Z</time>
      </trkpt>
      <trkpt lat="43.77413" lon="7.17862">
        <ele>308.6</ele>
        <time>2011-12-28T09:39:05Z</time>
      </trkpt>
      <trkpt lat="43.77416" lon="7.17873">
        <ele>308.7</ele>
        <time>2011-12-28T09:39:07Z</time>
      </trkpt>
      <trkpt lat="43.77419" lon="7.17884">
        <ele>309</ele>
        <time>2011-12-28T09:39:09Z</time>
      </trkpt>
      <trkpt lat="43.77423" lon="7.17894">
        <ele>309.4</ele>
        <time>2011-12-28T09:39:11Z</time>
      </trkpt>
      <trkpt lat="43.77428" lon="7.17903">
        <ele>309.4</ele>
        <time>2011-12-28T09:39:13Z</time>
      </trkpt>
      <trkpt lat="43.77434" lon="7.1791">
        <ele>309.8</ele>
        <time>2011-12-28T09:39:15Z</time>
      </trkpt>
      <trkpt lat="43.77437" lon="7.17914">
        <ele>310</ele>
        <time>2011-12-28T09:39:16Z</time>
      </trkpt>
      <trkpt lat="43.77447" lon="7.17924">
        <ele>309.9</ele>
        <time>2011-12-28T09:39:19Z</time>
      </trkpt>
      <trkpt lat="43.77454" lon="7.17932">
        <ele>310.2</ele>
        <time>2011-12-28T09:39:21Z</time>
      </trkpt>
      <trkpt lat="43.77461" lon="7.17939">
        <ele>310.3</ele>
        <time>2011-12-28T09:39:23Z</time>
      </trkpt>
      <trkpt lat="43.77468" lon="7.17946">
        <ele>310</ele>
        <time>2011-12-28T09:39:25Z</time>
      </trkpt>
      <trkpt lat="43.77475" lon="7.17954">
        <ele>310.4</ele>
        <time>2011-12-28T09:39:27Z</time>
      </trkpt>
      <trkpt lat="43.77481" lon="7.17961">
        <ele>309.1</ele>
        <time>2011-12-28T09:39:29Z</time>
      </trkpt>
      <trkpt lat="43.77488" lon="7.17969">
        <ele>309</ele>
        <time>2011-12-28T09:39:31Z</time>
      </trkpt>
      <trkpt lat="43.77494" lon="7.17978">
        <ele>309.3</ele>
        <time>2011-12-28T09:39:33Z</time>
      </trkpt>
      <trkpt lat="43.775" lon="7.17986">
        <ele>309.9</ele>
        <time>2011-12-28T09:39:35Z</time>
      </trkpt>
      <trkpt lat="43.77508" lon="7.17992">
        <ele>310.6</ele>
        <time>2011-12-28T09:39:37Z</time>
      </trkpt>
      <trkpt lat="43.77516" lon="7.17996">
        <ele>310.5</ele>
        <time>2011-12-28T09:39:39Z</time>
      </trkpt>
      <trkpt lat="43.77524" lon="7.17998">
        <ele>311.2</ele>
        <time>2011-12-28T09:39:41Z</time>
      </trkpt>
      <trkpt lat="43.77532" lon="7.17998">
        <ele>311.6</ele>
        <time>2011-12-28T09:39:43Z</time>
      </trkpt>
      <trkpt lat="43.77539" lon="7.17997">
        <ele>311.5</ele>
        <time>2011-12-28T09:39:45Z</time>
      </trkpt>
      <trkpt lat="43.77547" lon="7.17995">
        <ele>311.4</ele>
        <time>2011-12-28T09:39:47Z</time>
      </trkpt>
      <trkpt lat="43.77555" lon="7.17993">
        <ele>311.4</ele>
        <time>2011-12-28T09:39:49Z</time>
      </trkpt>
      <trkpt lat="43.77563" lon="7.1799">
        <ele>311.4</ele>
        <time>2011-12-28T09:39:51Z</time>
      </trkpt>
      <trkpt lat="43.77571" lon="7.17985">
        <ele>311.6</ele>
        <time>2011-12-28T09:39:53Z</time>
      </trkpt>
      <trkpt lat="43.77578" lon="7.17981">
        <ele>312</ele>
        <time>2011-12-28T09:39:55Z</time>
      </trkpt>
      <trkpt lat="43.77586" lon="7.17977">
        <ele>311.9</ele>
        <time>2011-12-28T09:39:57Z</time>
      </trkpt>
      <trkpt lat="43.77594" lon="7.17972">
        <ele>311.9</ele>
        <time>2011-12-28T09:39:59Z</time>
      </trkpt>
      <trkpt lat="43.77602" lon="7.17967">
        <ele>312.2</ele>
        <time>2011-12-28T09:40:01Z</time>
      </trkpt>
      <trkpt lat="43.7761" lon="7.17961">
        <ele>312.4</ele>
        <time>2011-12-28T09:40:03Z</time>
      </trkpt>
      <trkpt lat="43.77618" lon="7.17955">
        <ele>312.9</ele>
        <time>2011-12-28T09:40:05Z</time>
      </trkpt>
      <trkpt lat="43.77625" lon="7.17949">
        <ele>312.4</ele>
        <time>2011-12-28T09:40:07Z</time>
      </trkpt>
      <trkpt lat="43.77632" lon="7.17942">
        <ele>312.6</ele>
        <time>2011-12-28T09:40:09Z</time>
      </trkpt>
      <trkpt lat="43.7764" lon="7.17936">
        <ele>312.5</ele>
        <time>2011-12-28T09:40:11Z</time>
      </trkpt>
      <trkpt lat="43.77647" lon="7.17929">
        <ele>313</ele>
        <time>2011-12-28T09:40:13Z</time>
      </trkpt>
      <trkpt lat="43.77654" lon="7.17922">
        <ele>313.9</ele>
        <time>2011-12-28T09:40:15Z</time>
      </trkpt>
      <trkpt lat="43.77661" lon="7.17915">
        <ele>312.7</ele>
        <time>2011-12-28T09:40:17Z</time>
      </trkpt>
      <trkpt lat="43.77664" lon="7.17911">
        <ele>313</ele>
        <time>2011-12-28T09:40:18Z</time>
      </trkpt>
      <trkpt lat="43.77675" lon="7.17901">
        <ele>313.2</ele>
        <time>2011-12-28T09:40:21Z</time>
      </trkpt>
      <trkpt lat="43.77681" lon="7.17894">
        <ele>313.7</ele>
        <time>2011-12-28T09:40:23Z</time>
      </trkpt>
      <trkpt lat="43.77688" lon="7.17886">
        <ele>314.1</ele>
        <time>2011-12-28T09:40:25Z</time>
      </trkpt>
      <trkpt lat="43.77694" lon="7.17878">
        <ele>313.9</ele>
        <time>2011-12-28T09:40:27Z</time>
      </trkpt>
      <trkpt lat="43.77701" lon="7.17871">
        <ele>313.7</ele>
        <time>2011-12-28T09:40:29Z</time>
      </trkpt>
      <trkpt lat="43.77707" lon="7.17864">
        <ele>313.7</ele>
        <time>2011-12-28T09:40:31Z</time>
      </trkpt>
      <trkpt lat="43.77713" lon="7.17857">
        <ele>313.9</ele>
        <time>2011-12-28T09:40:33Z</time>
      </trkpt>
      <trkpt lat="43.77719" lon="7.1785">
        <ele>314</ele>
        <time>2011-12-28T09:40:35Z</time>
      </trkpt>
      <trkpt lat="43.77726" lon="7.17845">
        <ele>314.2</ele>
        <time>2011-12-28T09:40:37Z</time>
      </trkpt>
      <trkpt lat="43.77734" lon="7.17844">
        <ele>314.2</ele>
        <time>2011-12-28T09:40:39Z</time>
      </trkpt>
      <trkpt lat="43.77741" lon="7.17847">
        <ele>314.2</ele>
        <time>2011-12-28T09:40:41Z</time>
      </trkpt>
      <trkpt lat="43.77748" lon="7.17853">
        <ele>314.2</ele>
        <time>2011-12-28T09:40:43Z</time>
      </trkpt>
      <trkpt lat="43.77752" lon="7.17862">
        <ele>313.8</ele>
        <time>2011-12-28T09:40:45Z</time>
      </trkpt>
      <trkpt lat="43.77756" lon="7.17871">
        <ele>314.3</ele>
        <time>2011-12-28T09:40:47Z</time>
      </trkpt>
      <trkpt lat="43.7776" lon="7.17881">
        <ele>314.7</ele>
        <time>2011-12-28T09:40:49Z</time>
      </trkpt>
      <trkpt lat="43.77764" lon="7.17891">
        <ele>315.3</ele>
        <time>2011-12-28T09:40:51Z</time>
      </trkpt>
      <trkpt lat="43.77767" lon="7.17901">
        <ele>315.3</ele>
        <time>2011-12-28T09:40:53Z</time>
      </trkpt>
      <trkpt lat="43.7777" lon="7.17911">
        <ele>315</ele>
        <time>2011-12-28T09:40:55Z</time>
      </trkpt>
      <trkpt lat="43.77771" lon="7.17922">
        <ele>315.5</ele>
        <time>2011-12-28T09:40:57Z</time>
      </trkpt>
      <trkpt lat="43.77773" lon="7.17934">
        <ele>315.3</ele>
        <time>2011-12-28T09:40:59Z</time>
      </trkpt>
      <trkpt lat="43.77775" lon="7.17945">
        <ele>315.8</ele>
        <time>2011-12-28T09:41:01Z</time>
      </trkpt>
      <trkpt lat="43.77776" lon="7.17956">
        <ele>316.5</ele>
        <time>2011-12-28T09:41:03Z</time>
      </trkpt>
      <trkpt lat="43.77779" lon="7.17967">
        <ele>316.4</ele>
        <time>2011-12-28T09:41:05Z</time>
      </trkpt>
      <trkpt lat="43.77784" lon="7.17976">
        <ele>315.9</ele>
        <time>2011-12-28T09:41:07Z</time>
      </trkpt>
      <trkpt lat="43.7779" lon="7.17984">
        <ele>316.4</ele>
        <time>2011-12-28T09:41:09Z</time>
      </trkpt>
      <trkpt lat="43.77796" lon="7.17991">
        <ele>317.1</ele>
        <time>2011-12-28T09:41:11Z</time>
      </trkpt>
      <trkpt lat="43.77803" lon="7.17997">
        <ele>317.5</ele>
        <time>2011-12-28T09:41:13Z</time>
      </trkpt>
      <trkpt lat="43.77811" lon="7.18002">
        <ele>317.9</ele>
        <time>2011-12-28T09:41:15Z</time>
      </trkpt>
      <trkpt lat="43.77819" lon="7.18004">
        <ele>317.7</ele>
        <time>2011-12-28T09:41:17Z</time>
      </trkpt>
      <trkpt lat="43.77827" lon="7.18005">
        <ele>317.3</ele>
        <time>2011-12-28T09:41:19Z</time>
      </trkpt>
      <trkpt lat="43.7783" lon="7.18004">
        <ele>317.5</ele>
        <time>2011-12-28T09:41:20Z</time>
      </trkpt>
      <trkpt lat="43.77842" lon="7.18002">
        <ele>318.3</ele>
        <time>2011-12-28T09:41:23Z</time>
      </trkpt>
      <trkpt lat="43.7785" lon="7.17998">
        <ele>318.7</ele>
        <time>2011-12-28T09:41:25Z</time>
      </trkpt>
      <trkpt lat="43.77858" lon="7.17992">
        <ele>318.9</ele>
        <time>2011-12-28T09:41:27Z</time>
      </trkpt>
      <trkpt lat="43.77865" lon="7.17987">
        <ele>319</ele>
        <time>2011-12-28T09:41:29Z</time>
      </trkpt>
      <trkpt lat="43.77872" lon="7.1798">
        <ele>319.2</ele>
        <time>2011-12-28T09:41:31Z</time>
      </trkpt>
      <trkpt lat="43.7788" lon="7.17974">
        <ele>318.7</ele>
        <time>2011-12-28T09:41:33Z</time>
      </trkpt>
      <trkpt lat="43.77887" lon="7.17969">
        <ele>319.3</ele>
        <time>2011-12-28T09:41:35Z</time>
      </trkpt>
      <trkpt lat="43.77894" lon="7.17962">
        <ele>319.8</ele>
        <time>2011-12-28T09:41:37Z</time>
      </trkpt>
      <trkpt lat="43.77901" lon="7.17958">
        <ele>319.7</ele>
        <time>2011-12-28T09:41:39Z</time>
      </trkpt>
      <trkpt lat="43.77909" lon="7.17954">
        <ele>319.6</ele>
        <time>2011-12-28T09:41:41Z</time>
      </trkpt>
      <trkpt lat="43.77917" lon="7.17952">
        <ele>319.7</ele>
        <time>2011-12-28T09:41:43Z</time>
      </trkpt>
      <trkpt lat="43.77925" lon="7.17951">
        <ele>319.8</ele>
        <time>2011-12-28T09:41:45Z</time>
      </trkpt>
      <trkpt lat="43.77933" lon="7.17953">
        <ele>320.6</ele>
        <time>2011-12-28T09:41:47Z</time>
      </trkpt>
      <trkpt lat="43.7794" lon="7.17957">
        <ele>320.2</ele>
        <time>2011-12-28T09:41:49Z</time>
      </trkpt>
      <trkpt lat="43.77947" lon="7.17963">
        <ele>320.3</ele>
        <time>2011-12-28T09:41:51Z</time>
      </trkpt>
      <trkpt lat="43.77954" lon="7.17969">
        <ele>320.7</ele>
        <time>2011-12-28T09:41:53Z</time>
      </trkpt>
      <trkpt lat="43.7796" lon="7.17975">
        <ele>320.8</ele>
        <time>2011-12-28T09:41:55Z</time>
      </trkpt>
      <trkpt lat="43.77967" lon="7.17982">
        <ele>320.6</ele>
        <time>2011-12-28T09:41:57Z</time>
      </trkpt>
      <trkpt lat="43.77974" lon="7.17988">
        <ele>320.9</ele>
        <time>2011-12-28T09:41:59Z</time>
      </trkpt>
      <trkpt lat="43.77981" lon="7.17995">
        <ele>320.8</ele>
        <time>2011-12-28T09:42:01Z</time>
      </trkpt>
      <trkpt lat="43.77987" lon="7.18">
        <ele>321.4</ele>
        <time>2011-12-28T09:42:03Z</time>
      </trkpt>
      <trkpt lat="43.77995" lon="7.18003">
        <ele>321.5</ele>
        <time>2011-12-28T09:42:05Z</time>
      </trkpt>
      <trkpt lat="43.78003" lon="7.18004">
        <ele>321.6</ele>
        <time>2011-12-28T09:42:07Z</time>
      </trkpt>
      <trkpt lat="43.78011" lon="7.18004">
        <ele>321.9</ele>
        <time>2011-12-28T09:42:09Z</time>
      </trkpt>
      <trkpt lat="43.78019" lon="7.18002">
        <ele>322.1</ele>
        <time>2011-12-28T09:42:11Z</time>
      </trkpt>
      <trkpt lat="43.78027" lon="7.18001">
        <ele>322.8</ele>
        <time>2011-12-28T09:42:13Z</time>
      </trkpt>
      <trkpt lat="43.78035" lon="7.18">
        <ele>322.5</ele>
        <time>2011-12-28T09:42:15Z</time>
      </trkpt>
      <trkpt lat="43.78043" lon="7.18002">
        <ele>322.5</ele>
        <time>2011-12-28T09:42:17Z</time>
      </trkpt>
      <trkpt lat="43.7805" lon="7.18006">
        <ele>322.4</ele>
        <time>2011-12-28T09:42:19Z</time>
      </trkpt>
      <trkpt lat="43.78057" lon="7.18013">
        <ele>322.5</ele>
        <time>2011-12-28T09:42:21Z</time>
      </trkpt>
      <trkpt lat="43.7806" lon="7.18016">
        <ele>322.6</ele>
        <time>2011-12-28T09:42:22Z</time>
      </trkpt>
      <trkpt lat="43.78067" lon="7.18029">
        <ele>322.8</ele>
        <time>2011-12-28T09:42:25Z</time>
      </trkpt>
      <trkpt lat="43.78071" lon="7.18039">
        <ele>322.9</ele>
        <time>2011-12-28T09:42:27Z</time>
      </trkpt>
      <trkpt lat="43.78077" lon="7.18048">
        <ele>322.7</ele>
        <time>2011-12-28T09:42:29Z</time>
      </trkpt>
      <trkpt lat="43.78083" lon="7.18056">
        <ele>323.2</ele>
        <time>2011-12-28T09:42:31Z</time>
      </trkpt>
      <trkpt lat="43.78091" lon="7.1806">
        <ele>323.8</ele>
        <time>2011-12-28T09:42:33Z</time>
      </trkpt>
      <trkpt lat="43.78098" lon="7.18062">
        <ele>324</ele>
        <time>2011-12-28T09:42:35Z</time>
      </trkpt>
      <trkpt lat="43.78106" lon="7.18061">
        <ele>323.9</ele>
        <time>2011-12-28T09:42:37Z</time>
      </trkpt>
      <trkpt lat="43.78114" lon="7.1806">
        <ele>323.7</ele>
        <time>2011-12-28T09:42:39Z</time>
      </trkpt>
      <trkpt lat="43.78122" lon="7.18058">
        <ele>323.9</ele>
        <time>2011-12-28T09:42:41Z</time>
      </trkpt>
      <trkpt lat="43.78129" lon="7.18055">
        <ele>323.8</ele>
        <time>2011-12-28T09:42:43Z</time>
      </trkpt>
      <trkpt lat="43.78137" lon="7.18051">
        <ele>324.1</ele>
        <time>2011-12-28T09:42:45Z</time>
      </trkpt>
      <trkpt lat="43.78143" lon="7.18045">
        <ele>324.4</ele>
        <time>2011-12-28T09:42:47Z</time>
      </trkpt>
      <trkpt lat="43.78149" lon="7.18038">
        <ele>324.6</ele>
        <time>2011-12-28T09:42:49Z</time>
      </trkpt>
      <trkpt lat="43.78154" lon="7.18029">
        <ele>324.8</ele>
        <time>2011-12-28T09:42:51Z</time>
      </trkpt>
      <trkpt lat="43.7816" lon="7.1802">
        <ele>324.9</ele>
        <time>2011-12-28T09:42:53Z</time>
      </trkpt>
      <trkpt lat="43.78165" lon="7.18012">
        <ele>324.7</ele>
        <time>2011-12-28T09:42:55Z</time>
      </trkpt>
      <trkpt lat="43.7817" lon="7.18003">
        <ele>324.6</ele>
        <time>2011-12-28T09:42:57Z</time>
      </trkpt>
      <trkpt lat="43.78175" lon="7.17994">
        <ele>324.6</ele>
        <time>2011-12-28T09:42:59Z</time>
      </trkpt>
      <trkpt lat="43.78179" lon="7.17985">
        <ele>324.7</ele>
        <time>2011-12-28T09:43:01Z</time>
      </trkpt>
      <trkpt lat="43.78184" lon="7.17977">
        <ele>325</ele>
        <time>2011-12-28T09:43:03Z</time>
      </trkpt>
      <trkpt lat="43.78189" lon="7.17969">
        <ele>325</ele>
        <time>2011-12-28T09:43:05Z</time>
      </trkpt>
      <trkpt lat="43.78195" lon="7.17961">
        <ele>325.8</ele>
        <time>2011-12-28T09:43:07Z</time>
      </trkpt>
      <trkpt lat="43.78201" lon="7.17953">
        <ele>326</ele>
        <time>2011-12-28T09:43:09Z</time>
      </trkpt>
      <trkpt lat="43.78207" lon="7.17946">
        <ele>326.3</ele>
        <time>2011-12-28T09:43:11Z</time>
      </trkpt>
      <trkpt lat="43.78213" lon="7.17938">
        <ele>326.7</ele>
        <time>2011-12-28T09:43:13Z</time>
      </trkpt>
      <trkpt lat="43.78218" lon="7.1793">
        <ele>327.4</ele>
        <time>2011-12-28T09:43:15Z</time>
      </trkpt>
      <trkpt lat="43.78223" lon="7.17921">
        <ele>327.1</ele>
        <time>2011-12-28T09:43:17Z</time>
      </trkpt>
      <trkpt lat="43.78227" lon="7.17911">
        <ele>327.4</ele>
        <time>2011-12-28T09:43:19Z</time>
      </trkpt>
      <trkpt lat="43.78231" lon="7.17902">
        <ele>327.3</ele>
        <time>2011-12-28T09:43:21Z</time>
      </trkpt>
      <trkpt lat="43.78233" lon="7.17891">
        <ele>327.3</ele>
        <time>2011-12-28T09:43:23Z</time>
      </trkpt>
      <trkpt lat="43.78234" lon="7.17886">
        <ele>327.5</ele>
        <time>2011-12-28T09:43:24Z</time>
      </trkpt>
      <trkpt lat="43.78234" lon="7.1787">
        <ele>327.5</ele>
        <time>2011-12-28T09:43:27Z</time>
      </trkpt>
      <trkpt lat="43.78232" lon="7.17859">
        <ele>327.5</ele>
        <time>2011-12-28T09:43:29Z</time>
      </trkpt>
      <trkpt lat="43.78231" lon="7.17849">
        <ele>327.8</ele>
        <time>2011-12-28T09:43:31Z</time>
      </trkpt>
      <trkpt lat="43.7823" lon="7.17839">
        <ele>328</ele>
        <time>2011-12-28T09:43:33Z</time>
      </trkpt>
      <trkpt lat="43.78229" lon="7.17829">
        <ele>327.7</ele>
        <time>2011-12-28T09:43:35Z</time>
      </trkpt>
      <trkpt lat="43.78228" lon="7.17819">
        <ele>327.9</ele>
        <time>2011-12-28T09:43:37Z</time>
      </trkpt>
      <trkpt lat="43.78227" lon="7.17807">
        <ele>328.6</ele>
        <time>2011-12-28T09:43:39Z</time>
      </trkpt>
      <trkpt lat="43.78226" lon="7.17797">
        <ele>328.5</ele>
        <time>2011-12-28T09:43:41Z</time>
      </trkpt>
      <trkpt lat="43.78225" lon="7.17785">
        <ele>328.1</ele>
        <time>2011-12-28T09:43:43Z</time>
      </trkpt>
      <trkpt lat="43.78226" lon="7.17774">
        <ele>328.8</ele>
        <time>2011-12-28T09:43:45Z</time>
      </trkpt>
      <trkpt lat="43.78226" lon="7.17763">
        <ele>328.9</ele>
        <time>2011-12-28T09:43:47Z</time>
      </trkpt>
      <trkpt lat="43.78227" lon="7.17753">
        <ele>329.2</ele>
        <time>2011-12-28T09:43:49Z</time>
      </trkpt>
      <trkpt lat="43.78226" lon="7.17742">
        <ele>329.6</ele>
        <time>2011-12-28T09:43:51Z</time>
      </trkpt>
      <trkpt lat="43.78224" lon="7.17732">
        <ele>329.8</ele>
        <time>2011-12-28T09:43:53Z</time>
      </trkpt>
      <trkpt lat="43.78222" lon="7.17721">
        <ele>329.8</ele>
        <time>2011-12-28T09:43:55Z</time>
      </trkpt>
      <trkpt lat="43.7822" lon="7.1771">
        <ele>329.2</ele>
        <time>2011-12-28T09:43:57Z</time>
      </trkpt>
      <trkpt lat="43.78222" lon="7.17699">
        <ele>329.1</ele>
        <time>2011-12-28T09:43:59Z</time>
      </trkpt>
      <trkpt lat="43.78226" lon="7.17691">
        <ele>329.1</ele>
        <time>2011-12-28T09:44:01Z</time>
      </trkpt>
      <trkpt lat="43.78233" lon="7.17685">
        <ele>329.3</ele>
        <time>2011-12-28T09:44:03Z</time>
      </trkpt>
      <trkpt lat="43.78241" lon="7.17685">
        <ele>329.8</ele>
        <time>2011-12-28T09:44:05Z</time>
      </trkpt>
      <trkpt lat="43.78248" lon="7.17689">
        <ele>330.5</ele>
        <time>2011-12-28T09:44:07Z</time>
      </trkpt>
      <trkpt lat="43.78255" lon="7.17693">
        <ele>330.5</ele>
        <time>2011-12-28T09:44:09Z</time>
      </trkpt>
      <trkpt lat="43.78262" lon="7.17697">
        <ele>330.2</ele>
        <time>2011-12-28T09:44:11Z</time>
      </trkpt>
      <trkpt lat="43.78269" lon="7.177">
        <ele>330.2</ele>
        <time>2011-12-28T09:44:13Z</time>
      </trkpt>
      <trkpt lat="43.78276" lon="7.17704">
        <ele>330.4</ele>
        <time>2011-12-28T09:44:15Z</time>
      </trkpt>
      <trkpt lat="43.78282" lon="7.1771">
        <ele>330.6</ele>
        <time>2011-12-28T09:44:17Z</time>
      </trkpt>
      <trkpt lat="43.78288" lon="7.17718">
        <ele>331.6</ele>
        <time>2011-12-28T09:44:19Z</time>
      </trkpt>
      <trkpt lat="43.78294" lon="7.17723">
        <ele>332.1</ele>
        <time>2011-12-28T09:44:21Z</time>
      </trkpt>
      <trkpt lat="43.78301" lon="7.17726">
        <ele>332.4</ele>
        <time>2011-12-28T09:44:23Z</time>
      </trkpt>
      <trkpt lat="43.78308" lon="7.17724">
        <ele>332.5</ele>
        <time>2011-12-28T09:44:25Z</time>
      </trkpt>
      <trkpt lat="43.78312" lon="7.17722">
        <ele>332.5</ele>
        <time>2011-12-28T09:44:26Z</time>
      </trkpt>
      <trkpt lat="43.78322" lon="7.17712">
        <ele>332.9</ele>
        <time>2011-12-28T09:44:29Z</time>
      </trkpt>
      <trkpt lat="43.78328" lon="7.17705">
        <ele>332.6</ele>
        <time>2011-12-28T09:44:31Z</time>
      </trkpt>
      <trkpt lat="43.78334" lon="7.17699">
        <ele>332.6</ele>
        <time>2011-12-28T09:44:33Z</time>
      </trkpt>
      <trkpt lat="43.78341" lon="7.17693">
        <ele>333.1</ele>
        <time>2011-12-28T09:44:35Z</time>
      </trkpt>
      <trkpt lat="43.78348" lon="7.17688">
        <ele>333.5</ele>
        <time>2011-12-28T09:44:37Z</time>
      </trkpt>
      <trkpt lat="43.78356" lon="7.17683">
        <ele>333.5</ele>
        <time>2011-12-28T09:44:39Z</time>
      </trkpt>
      <trkpt lat="43.78364" lon="7.17679">
        <ele>333.1</ele>
        <time>2011-12-28T09:44:41Z</time>
      </trkpt>
      <trkpt lat="43.78372" lon="7.17677">
        <ele>332.7</ele>
        <time>2011-12-28T09:44:43Z</time>
      </trkpt>
      <trkpt lat="43.7838" lon="7.17675">
        <ele>333.6</ele>
        <time>2011-12-28T09:44:45Z</time>
      </trkpt>
      <trkpt lat="43.78388" lon="7.17674">
        <ele>334</ele>
        <time>2011-12-28T09:44:47Z</time>
      </trkpt>
      <trkpt lat="43.78396" lon="7.17673">
        <ele>334.4</ele>
        <time>2011-12-28T09:44:49Z</time>
      </trkpt>
      <trkpt lat="43.78404" lon="7.17676">
        <ele>334.6</ele>
        <time>2011-12-28T09:44:51Z</time>
      </trkpt>
      <trkpt lat="43.7841" lon="7.17684">
        <ele>334.9</ele>
        <time>2011-12-28T09:44:53Z</time>
      </trkpt>
      <trkpt lat="43.78414" lon="7.17693">
        <ele>335.1</ele>
        <time>2011-12-28T09:44:55Z</time>
      </trkpt>
      <trkpt lat="43.78414" lon="7.17704">
        <ele>335.3</ele>
        <time>2011-12-28T09:44:57Z</time>
      </trkpt>
      <trkpt lat="43.78413" lon="7.17714">
        <ele>335.1</ele>
        <time>2011-12-28T09:44:59Z</time>
      </trkpt>
      <trkpt lat="43.78415" lon="7.17725">
        <ele>335.7</ele>
        <time>2011-12-28T09:45:01Z</time>
      </trkpt>
      <trkpt lat="43.78417" lon="7.17737">
        <ele>335.6</ele>
        <time>2011-12-28T09:45:03Z</time>
      </trkpt>
      <trkpt lat="43.7842" lon="7.17747">
        <ele>335.3</ele>
        <time>2011-12-28T09:45:05Z</time>
      </trkpt>
      <trkpt lat="43.7842" lon="7.17758">
        <ele>335.7</ele>
        <time>2011-12-28T09:45:07Z</time>
      </trkpt>
      <trkpt lat="43.78419" lon="7.1777">
        <ele>336.2</ele>
        <time>2011-12-28T09:45:09Z</time>
      </trkpt>
      <trkpt lat="43.78417" lon="7.17782">
        <ele>335.6</ele>
        <time>2011-12-28T09:45:11Z</time>
      </trkpt>
      <trkpt lat="43.78415" lon="7.17793">
        <ele>335.8</ele>
        <time>2011-12-28T09:45:13Z</time>
      </trkpt>
      <trkpt lat="43.78413" lon="7.17804">
        <ele>336.3</ele>
        <time>2011-12-28T09:45:15Z</time>
      </trkpt>
      <trkpt lat="43.78412" lon="7.17815">
        <ele>336.2</ele>
        <time>2011-12-28T09:45:17Z</time>
      </trkpt>
      <trkpt lat="43.7841" lon="7.17826">
        <ele>336.2</ele>
        <time>2011-12-28T09:45:19Z</time>
      </trkpt>
      <trkpt lat="43.78409" lon="7.17837">
        <ele>336.7</ele>
        <time>2011-12-28T09:45:21Z</time>
      </trkpt>
      <trkpt lat="43.78407" lon="7.17848">
        <ele>336.8</ele>
        <time>2011-12-28T09:45:23Z</time>
      </trkpt>
      <trkpt lat="43.78405" lon="7.17859">
        <ele>336.8</ele>
        <time>2011-12-28T09:45:25Z</time>
      </trkpt>
      <trkpt lat="43.78404" lon="7.17871">
        <ele>337.1</ele>
        <time>2011-12-28T09:45:27Z</time>
      </trkpt>
      <trkpt lat="43.78403" lon="7.17876">
        <ele>337.2</ele>
        <time>2011-12-28T09:45:28Z</time>
      </trkpt>
      <trkpt lat="43.784" lon="7.17893">
        <ele>337.4</ele>
        <time>2011-12-28T09:45:31Z</time>
      </trkpt>
      <trkpt lat="43.78398" lon="7.17904">
        <ele>337.4</ele>
        <time>2011-12-28T09:45:33Z</time>
      </trkpt>
      <trkpt lat="43.78397" lon="7.17915">
        <ele>337.8</ele>
        <time>2011-12-28T09:45:35Z</time>
      </trkpt>
      <trkpt lat="43.78395" lon="7.17926">
        <ele>337.2</ele>
        <time>2011-12-28T09:45:37Z</time>
      </trkpt>
      <trkpt lat="43.78395" lon="7.17938">
        <ele>338.2</ele>
        <time>2011-12-28T09:45:39Z</time>
      </trkpt>
      <trkpt lat="43.78397" lon="7.17949">
        <ele>338.5</ele>
        <time>2011-12-28T09:45:41Z</time>
      </trkpt>
      <trkpt lat="43.78402" lon="7.17957">
        <ele>338.6</ele>
        <time>2011-12-28T09:45:43Z</time>
      </trkpt>
      <trkpt lat="43.78409" lon="7.17963">
        <ele>339.5</ele>
        <time>2011-12-28T09:45:45Z</time>
      </trkpt>
      <trkpt lat="43.78417" lon="7.17967">
        <ele>340.4</ele>
        <time>2011-12-28T09:45:47Z</time>
      </trkpt>
      <trkpt lat="43.78425" lon="7.17972">
        <ele>339.6</ele>
        <time>2011-12-28T09:45:49Z</time>
      </trkpt>
      <trkpt lat="43.78433" lon="7.17977">
        <ele>339.5</ele>
        <time>2011-12-28T09:45:51Z</time>
      </trkpt>
      <trkpt lat="43.7844" lon="7.17981">
        <ele>339.6</ele>
        <time>2011-12-28T09:45:53Z</time>
      </trkpt>
      <trkpt lat="43.78448" lon="7.17986">
        <ele>339.8</ele>
        <time>2011-12-28T09:45:55Z</time>
      </trkpt>
      <trkpt lat="43.78456" lon="7.17989">
        <ele>340</ele>
        <time>2011-12-28T09:45:57Z</time>
      </trkpt>
      <trkpt lat="43.78465" lon="7.17989">
        <ele>340.2</ele>
        <time>2011-12-28T09:45:59Z</time>
      </trkpt>
      <trkpt lat="43.78473" lon="7.17987">
        <ele>340</ele>
        <time>2011-12-28T09:46:01Z</time>
      </trkpt>
      <trkpt lat="43.78477" lon="7.17985">
        <ele>339.9</ele>
        <time>2011-12-28T09:46:02Z</time>
      </trkpt>
      <trkpt lat="43.78486" lon="7.17981">
        <ele>339.9</ele>
        <time>2011-12-28T09:46:04Z</time>
      </trkpt>
      <trkpt lat="43.78494" lon="7.17978">
        <ele>340</ele>
        <time>2011-12-28T09:46:06Z</time>
      </trkpt>
      <trkpt lat="43.78502" lon="7.17973">
        <ele>340.1</ele>
        <time>2011-12-28T09:46:08Z</time>
      </trkpt>
      <trkpt lat="43.78509" lon="7.17967">
        <ele>340.2</ele>
        <time>2011-12-28T09:46:10Z</time>
      </trkpt>
      <trkpt lat="43.78516" lon="7.17959">
        <ele>340.6</ele>
        <time>2011-12-28T09:46:12Z</time>
      </trkpt>
      <trkpt lat="43.78522" lon="7.17951">
        <ele>340.9</ele>
        <time>2011-12-28T09:46:14Z</time>
      </trkpt>
      <trkpt lat="43.78528" lon="7.17943">
        <ele>341.1</ele>
        <time>2011-12-28T09:46:16Z</time>
      </trkpt>
      <trkpt lat="43.78534" lon="7.17934">
        <ele>341.2</ele>
        <time>2011-12-28T09:46:18Z</time>
      </trkpt>
      <trkpt lat="43.78541" lon="7.17927">
        <ele>341.2</ele>
        <time>2011-12-28T09:46:20Z</time>
      </trkpt>
      <trkpt lat="43.78547" lon="7.1792">
        <ele>341.3</ele>
        <time>2011-12-28T09:46:22Z</time>
      </trkpt>
      <trkpt lat="43.78553" lon="7.17912">
        <ele>341.3</ele>
        <time>2011-12-28T09:46:24Z</time>
      </trkpt>
      <trkpt lat="43.7856" lon="7.17904">
        <ele>341.6</ele>
        <time>2011-12-28T09:46:26Z</time>
      </trkpt>
      <trkpt lat="43.78566" lon="7.17897">
        <ele>341.9</ele>
        <time>2011-12-28T09:46:28Z</time>
      </trkpt>
      <trkpt lat="43.78569" lon="7.17893">
        <ele>342</ele>
        <time>2011-12-28T09:46:29Z</time>
      </trkpt>
      <trkpt lat="43.7858" lon="7.17886">
        <ele>342.1</ele>
        <time>2011-12-28T09:46:32Z</time>
      </trkpt>
      <trkpt lat="43.78589" lon="7.17882">
        <ele>341.9</ele>
        <time>2011-12-28T09:46:34Z</time>
      </trkpt>
      <trkpt lat="43.78597" lon="7.17883">
        <ele>342.4</ele>
        <time>2011-12-28T09:46:36Z</time>
      </trkpt>
      <trkpt lat="43.78606" lon="7.17884">
        <ele>342.8</ele>
        <time>2011-12-28T09:46:38Z</time>
      </trkpt>
      <trkpt lat="43.78614" lon="7.17888">
        <ele>342.9</ele>
        <time>2011-12-28T09:46:40Z</time>
      </trkpt>
      <trkpt lat="43.78623" lon="7.17891">
        <ele>343</ele>
        <time>2011-12-28T09:46:42Z</time>
      </trkpt>
      <trkpt lat="43.78627" lon="7.17893">
        <ele>343.2</ele>
        <time>2011-12-28T09:46:43Z</time>
      </trkpt>
      <trkpt lat="43.78631" lon="7.17896">
        <ele>343.3</ele>
        <time>2011-12-28T09:46:44Z</time>
      </trkpt>
      <trkpt lat="43.78635" lon="7.17898">
        <ele>343.2</ele>
        <time>2011-12-28T09:46:45Z</time>
      </trkpt>
      <trkpt lat="43.78639" lon="7.17902">
        <ele>343.1</ele>
        <time>2011-12-28T09:46:46Z</time>
      </trkpt>
      <trkpt lat="43.78646" lon="7.1791">
        <ele>342.4</ele>
        <time>2011-12-28T09:46:48Z</time>
      </trkpt>
      <trkpt lat="43.78651" lon="7.17919">
        <ele>342.9</ele>
        <time>2011-12-28T09:46:50Z</time>
      </trkpt>
      <trkpt lat="43.78654" lon="7.1793">
        <ele>343.2</ele>
        <time>2011-12-28T09:46:52Z</time>
      </trkpt>
      <trkpt lat="43.78656" lon="7.17941">
        <ele>343.6</ele>
        <time>2011-12-28T09:46:54Z</time>
      </trkpt>
      <trkpt lat="43.78658" lon="7.17953">
        <ele>343.9</ele>
        <time>2011-12-28T09:46:56Z</time>
      </trkpt>
      <trkpt lat="43.7866" lon="7.17964">
        <ele>343.7</ele>
        <time>2011-12-28T09:46:58Z</time>
      </trkpt>
      <trkpt lat="43.78661" lon="7.17975">
        <ele>344.3</ele>
        <time>2011-12-28T09:47:00Z</time>
      </trkpt>
      <trkpt lat="43.78663" lon="7.17987">
        <ele>344.6</ele>
        <time>2011-12-28T09:47:02Z</time>
      </trkpt>
      <trkpt lat="43.78665" lon="7.17998">
        <ele>344.8</ele>
        <time>2011-12-28T09:47:04Z</time>
      </trkpt>
      <trkpt lat="43.78668" lon="7.1801">
        <ele>344.6</ele>
        <time>2011-12-28T09:47:06Z</time>
      </trkpt>
      <trkpt lat="43.78672" lon="7.18021">
        <ele>344.7</ele>
        <time>2011-12-28T09:47:08Z</time>
      </trkpt>
      <trkpt lat="43.78676" lon="7.18032">
        <ele>345.3</ele>
        <time>2011-12-28T09:47:10Z</time>
      </trkpt>
      <trkpt lat="43.7868" lon="7.18042">
        <ele>345.8</ele>
        <time>2011-12-28T09:47:12Z</time>
      </trkpt>
      <trkpt lat="43.78684" lon="7.18054">
        <ele>345.8</ele>
        <time>2011-12-28T09:47:14Z</time>
      </trkpt>
      <trkpt lat="43.78687" lon="7.18065">
        <ele>345.5</ele>
        <time>2011-12-28T09:47:16Z</time>
      </trkpt>
      <trkpt lat="43.78689" lon="7.18076">
        <ele>345.4</ele>
        <time>2011-12-28T09:47:18Z</time>
      </trkpt>
      <trkpt lat="43.78689" lon="7.18088">
        <ele>345.5</ele>
        <time>2011-12-28T09:47:20Z</time>
      </trkpt>
      <trkpt lat="43.78686" lon="7.18099">
        <ele>345.5</ele>
        <time>2011-12-28T09:47:22Z</time>
      </trkpt>
      <trkpt lat="43.78683" lon="7.1811">
        <ele>345.6</ele>
        <time>2011-12-28T09:47:24Z</time>
      </trkpt>
      <trkpt lat="43.78679" lon="7.18121">
        <ele>344.9</ele>
        <time>2011-12-28T09:47:26Z</time>
      </trkpt>
      <trkpt lat="43.78675" lon="7.18132">
        <ele>345.5</ele>
        <time>2011-12-28T09:47:28Z</time>
      </trkpt>
      <trkpt lat="43.7867" lon="7.18141">
        <ele>346</ele>
        <time>2011-12-28T09:47:30Z</time>
      </trkpt>
      <trkpt lat="43.78667" lon="7.18146">
        <ele>346.2</ele>
        <time>2011-12-28T09:47:31Z</time>
      </trkpt>
      <trkpt lat="43.78659" lon="7.18159">
        <ele>345.9</ele>
        <time>2011-12-28T09:47:34Z</time>
      </trkpt>
      <trkpt lat="43.78652" lon="7.18166">
        <ele>346.1</ele>
        <time>2011-12-28T09:47:36Z</time>
      </trkpt>
      <trkpt lat="43.78645" lon="7.18173">
        <ele>346.2</ele>
        <time>2011-12-28T09:47:38Z</time>
      </trkpt>
      <trkpt lat="43.78638" lon="7.18179">
        <ele>346.4</ele>
        <time>2011-12-28T09:47:40Z</time>
      </trkpt>
      <trkpt lat="43.78632" lon="7.18186">
        <ele>346.8</ele>
        <time>2011-12-28T09:47:42Z</time>
      </trkpt>
      <trkpt lat="43.78626" lon="7.18194">
        <ele>347.1</ele>
        <time>2011-12-28T09:47:44Z</time>
      </trkpt>
      <trkpt lat="43.78623" lon="7.18204">
        <ele>347.5</ele>
        <time>2011-12-28T09:47:46Z</time>
      </trkpt>
      <trkpt lat="43.78621" lon="7.18215">
        <ele>348</ele>
        <time>2011-12-28T09:47:48Z</time>
      </trkpt>
      <trkpt lat="43.7862" lon="7.18226">
        <ele>348.5</ele>
        <time>2011-12-28T09:47:50Z</time>
      </trkpt>
      <trkpt lat="43.78621" lon="7.18237">
        <ele>348.5</ele>
        <time>2011-12-28T09:47:52Z</time>
      </trkpt>
      <trkpt lat="43.78624" lon="7.18247">
        <ele>348.4</ele>
        <time>2011-12-28T09:47:54Z</time>
      </trkpt>
      <trkpt lat="43.7863" lon="7.18255">
        <ele>348</ele>
        <time>2011-12-28T09:47:56Z</time>
      </trkpt>
      <trkpt lat="43.78636" lon="7.1826">
        <ele>348.1</ele>
        <time>2011-12-28T09:47:58Z</time>
      </trkpt>
      <trkpt lat="43.78643" lon="7.18266">
        <ele>348.5</ele>
        <time>2011-12-28T09:48:00Z</time>
      </trkpt>
      <trkpt lat="43.7865" lon="7.1827">
        <ele>349</ele>
        <time>2011-12-28T09:48:02Z</time>
      </trkpt>
      <trkpt lat="43.78657" lon="7.18275">
        <ele>349.4</ele>
        <time>2011-12-28T09:48:04Z</time>
      </trkpt>
      <trkpt lat="43.78664" lon="7.18279">
        <ele>348.6</ele>
        <time>2011-12-28T09:48:06Z</time>
      </trkpt>
      <trkpt lat="43.78672" lon="7.18282">
        <ele>348.6</ele>
        <time>2011-12-28T09:48:08Z</time>
      </trkpt>
      <trkpt lat="43.78679" lon="7.18283">
        <ele>348.8</ele>
        <time>2011-12-28T09:48:10Z</time>
      </trkpt>
      <trkpt lat="43.78687" lon="7.18284">
        <ele>348.9</ele>
        <time>2011-12-28T09:48:12Z</time>
      </trkpt>
      <trkpt lat="43.78695" lon="7.18284">
        <ele>349.3</ele>
        <time>2011-12-28T09:48:14Z</time>
      </trkpt>
      <trkpt lat="43.78703" lon="7.18284">
        <ele>349.4</ele>
        <time>2011-12-28T09:48:16Z</time>
      </trkpt>
      <trkpt lat="43.7871" lon="7.18284">
        <ele>349.9</ele>
        <time>2011-12-28T09:48:18Z</time>
      </trkpt>
      <trkpt lat="43.78718" lon="7.18284">
        <ele>350</ele>
        <time>2011-12-28T09:48:20Z</time>
      </trkpt>
      <trkpt lat="43.78726" lon="7.18284">
        <ele>349.9</ele>
        <time>2011-12-28T09:48:22Z</time>
      </trkpt>
      <trkpt lat="43.78734" lon="7.18284">
        <ele>350.2</ele>
        <time>2011-12-28T09:48:24Z</time>
      </trkpt>
      <trkpt lat="43.78742" lon="7.18284">
        <ele>350.5</ele>
        <time>2011-12-28T09:48:26Z</time>
      </trkpt>
      <trkpt lat="43.7875" lon="7.18285">
        <ele>351.1</ele>
        <time>2011-12-28T09:48:28Z</time>
      </trkpt>
      <trkpt lat="43.78757" lon="7.18288">
        <ele>351.3</ele>
        <time>2011-12-28T09:48:30Z</time>
      </trkpt>
      <trkpt lat="43.78764" lon="7.18293">
        <ele>351.2</ele>
        <time>2011-12-28T09:48:32Z</time>
      </trkpt>
      <trkpt lat="43.78767" lon="7.18295">
        <ele>351.2</ele>
        <time>2011-12-28T09:48:33Z</time>
      </trkpt>
      <trkpt lat="43.78777" lon="7.18306">
        <ele>351.9</ele>
        <time>2011-12-28T09:48:36Z</time>
      </trkpt>
      <trkpt lat="43.78782" lon="7.18314">
        <ele>352.3</ele>
        <time>2011-12-28T09:48:38Z</time>
      </trkpt>
      <trkpt lat="43.78787" lon="7.18323">
        <ele>352.2</ele>
        <time>2011-12-28T09:48:40Z</time>
      </trkpt>
      <trkpt lat="43.78792" lon="7.18331">
        <ele>352</ele>
        <time>2011-12-28T09:48:42Z</time>
      </trkpt>
      <trkpt lat="43.78797" lon="7.18339">
        <ele>352.1</ele>
        <time>2011-12-28T09:48:44Z</time>
      </trkpt>
      <trkpt lat="43.78802" lon="7.18347">
        <ele>351.8</ele>
        <time>2011-12-28T09:48:46Z</time>
      </trkpt>
      <trkpt lat="43.78808" lon="7.18355">
        <ele>351.8</ele>
        <time>2011-12-28T09:48:48Z</time>
      </trkpt>
      <trkpt lat="43.78815" lon="7.18363">
        <ele>351.8</ele>
        <time>2011-12-28T09:48:50Z</time>
      </trkpt>
      <trkpt lat="43.78822" lon="7.18369">
        <ele>351.6</ele>
        <time>2011-12-28T09:48:52Z</time>
      </trkpt>
      <trkpt lat="43.78829" lon="7.18375">
        <ele>352.5</ele>
        <time>2011-12-28T09:48:54Z</time>
      </trkpt>
      <trkpt lat="43.78836" lon="7.18381">
        <ele>352.6</ele>
        <time>2011-12-28T09:48:56Z</time>
      </trkpt>
      <trkpt lat="43.78843" lon="7.18387">
        <ele>352.8</ele>
        <time>2011-12-28T09:48:58Z</time>
      </trkpt>
      <trkpt lat="43.7885" lon="7.18393">
        <ele>352.9</ele>
        <time>2011-12-28T09:49:00Z</time>
      </trkpt>
      <trkpt lat="43.78857" lon="7.184">
        <ele>353.2</ele>
        <time>2011-12-28T09:49:02Z</time>
      </trkpt>
      <trkpt lat="43.78862" lon="7.18408">
        <ele>353.5</ele>
        <time>2011-12-28T09:49:04Z</time>
      </trkpt>
      <trkpt lat="43.78866" lon="7.18417">
        <ele>353.8</ele>
        <time>2011-12-28T09:49:06Z</time>
      </trkpt>
      <trkpt lat="43.78869" lon="7.18428">
        <ele>353.8</ele>
        <time>2011-12-28T09:49:08Z</time>
      </trkpt>
      <trkpt lat="43.78872" lon="7.18439">
        <ele>353.5</ele>
        <time>2011-12-28T09:49:10Z</time>
      </trkpt>
      <trkpt lat="43.78875" lon="7.1845">
        <ele>353.7</ele>
        <time>2011-12-28T09:49:12Z</time>
      </trkpt>
      <trkpt lat="43.78878" lon="7.1846">
        <ele>354.4</ele>
        <time>2011-12-28T09:49:14Z</time>
      </trkpt>
      <trkpt lat="43.78883" lon="7.18469">
        <ele>355.2</ele>
        <time>2011-12-28T09:49:16Z</time>
      </trkpt>
      <trkpt lat="43.78889" lon="7.18477">
        <ele>354.6</ele>
        <time>2011-12-28T09:49:18Z</time>
      </trkpt>
      <trkpt lat="43.78896" lon="7.18482">
        <ele>354.3</ele>
        <time>2011-12-28T09:49:20Z</time>
      </trkpt>
      <trkpt lat="43.78902" lon="7.18487">
        <ele>354.6</ele>
        <time>2011-12-28T09:49:22Z</time>
      </trkpt>
      <trkpt lat="43.78906" lon="7.18494">
        <ele>354.7</ele>
        <time>2011-12-28T09:49:24Z</time>
      </trkpt>
      <trkpt lat="43.78909" lon="7.18501">
        <ele>354.7</ele>
        <time>2011-12-28T09:49:26Z</time>
      </trkpt>
      <trkpt lat="43.78914" lon="7.18508">
        <ele>354.8</ele>
        <time>2011-12-28T09:49:28Z</time>
      </trkpt>
      <trkpt lat="43.78919" lon="7.18512">
        <ele>355</ele>
        <time>2011-12-28T09:49:30Z</time>
      </trkpt>
      <trkpt lat="43.78927" lon="7.18517">
        <ele>355.2</ele>
        <time>2011-12-28T09:49:33Z</time>
      </trkpt>
      <trkpt lat="43.7893" lon="7.18518">
        <ele>355.5</ele>
        <time>2011-12-28T09:49:34Z</time>
      </trkpt>
      <trkpt lat="43.78943" lon="7.18524">
        <ele>356.4</ele>
        <time>2011-12-28T09:49:39Z</time>
      </trkpt>
      <trkpt lat="43.78951" lon="7.18527">
        <ele>356.9</ele>
        <time>2011-12-28T09:49:42Z</time>
      </trkpt>
      <trkpt lat="43.78959" lon="7.18528">
        <ele>357.6</ele>
        <time>2011-12-28T09:49:45Z</time>
      </trkpt>
      <trkpt lat="43.78967" lon="7.18528">
        <ele>357.9</ele>
        <time>2011-12-28T09:49:48Z</time>
      </trkpt>
      <trkpt lat="43.78975" lon="7.18528">
        <ele>358.5</ele>
        <time>2011-12-28T09:49:51Z</time>
      </trkpt>
      <trkpt lat="43.78983" lon="7.18526">
        <ele>358.6</ele>
        <time>2011-12-28T09:49:54Z</time>
      </trkpt>
      <trkpt lat="43.78991" lon="7.18524">
        <ele>359.6</ele>
        <time>2011-12-28T09:49:57Z</time>
      </trkpt>
      <trkpt lat="43.78999" lon="7.1852">
        <ele>360.6</ele>
        <time>2011-12-28T09:50:00Z</time>
      </trkpt>
      <trkpt lat="43.79007" lon="7.18516">
        <ele>361.3</ele>
        <time>2011-12-28T09:50:03Z</time>
      </trkpt>
      <trkpt lat="43.79014" lon="7.18512">
        <ele>361.8</ele>
        <time>2011-12-28T09:50:06Z</time>
      </trkpt>
      <trkpt lat="43.79021" lon="7.18506">
        <ele>362.2</ele>
        <time>2011-12-28T09:50:09Z</time>
      </trkpt>
      <trkpt lat="43.79028" lon="7.185">
        <ele>362.4</ele>
        <time>2011-12-28T09:50:12Z</time>
      </trkpt>
      <trkpt lat="43.79035" lon="7.18494">
        <ele>362.6</ele>
        <time>2011-12-28T09:50:15Z</time>
      </trkpt>
      <trkpt lat="43.79043" lon="7.18488">
        <ele>363.8</ele>
        <time>2011-12-28T09:50:18Z</time>
      </trkpt>
      <trkpt lat="43.7905" lon="7.18482">
        <ele>363.8</ele>
        <time>2011-12-28T09:50:21Z</time>
      </trkpt>
      <trkpt lat="43.79057" lon="7.18478">
        <ele>364.8</ele>
        <time>2011-12-28T09:50:24Z</time>
      </trkpt>
      <trkpt lat="43.79065" lon="7.18474">
        <ele>364.4</ele>
        <time>2011-12-28T09:50:27Z</time>
      </trkpt>
      <trkpt lat="43.79072" lon="7.18472">
        <ele>365.1</ele>
        <time>2011-12-28T09:50:30Z</time>
      </trkpt>
      <trkpt lat="43.7908" lon="7.18473">
        <ele>365.8</ele>
        <time>2011-12-28T09:50:34Z</time>
      </trkpt>
      <trkpt lat="43.79082" lon="7.18474">
        <ele>366.3</ele>
        <time>2011-12-28T09:50:35Z</time>
      </trkpt>
      <trkpt lat="43.79095" lon="7.18476">
        <ele>367.6</ele>
        <time>2011-12-28T09:50:40Z</time>
      </trkpt>
      <trkpt lat="43.79103" lon="7.18481">
        <ele>367.7</ele>
        <time>2011-12-28T09:50:43Z</time>
      </trkpt>
      <trkpt lat="43.7911" lon="7.18485">
        <ele>368.2</ele>
        <time>2011-12-28T09:50:46Z</time>
      </trkpt>
      <trkpt lat="43.79118" lon="7.18489">
        <ele>369.2</ele>
        <time>2011-12-28T09:50:50Z</time>
      </trkpt>
      <trkpt lat="43.79127" lon="7.18491">
        <ele>370.8</ele>
        <time>2011-12-28T09:51:37Z</time>
      </trkpt>
      <trkpt lat="43.79129" lon="7.18491">
        <ele>370.6</ele>
        <time>2011-12-28T09:51:38Z</time>
      </trkpt>
      <trkpt lat="43.79142" lon="7.18491">
        <ele>370.8</ele>
        <time>2011-12-28T09:51:43Z</time>
      </trkpt>
      <trkpt lat="43.79149" lon="7.18491">
        <ele>371</ele>
        <time>2011-12-28T09:51:46Z</time>
      </trkpt>
      <trkpt lat="43.79155" lon="7.1849">
        <ele>371.3</ele>
        <time>2011-12-28T09:51:48Z</time>
      </trkpt>
      <trkpt lat="43.79161" lon="7.18488">
        <ele>371.5</ele>
        <time>2011-12-28T09:51:50Z</time>
      </trkpt>
      <trkpt lat="43.7917" lon="7.18485">
        <ele>371.8</ele>
        <time>2011-12-28T09:51:53Z</time>
      </trkpt>
      <trkpt lat="43.79176" lon="7.18485">
        <ele>372</ele>
        <time>2011-12-28T09:51:55Z</time>
      </trkpt>
      <trkpt lat="43.79182" lon="7.18488">
        <ele>372.4</ele>
        <time>2011-12-28T09:51:57Z</time>
      </trkpt>
      <trkpt lat="43.79188" lon="7.18491">
        <ele>372.3</ele>
        <time>2011-12-28T09:51:59Z</time>
      </trkpt>
      <trkpt lat="43.79193" lon="7.18496">
        <ele>373.2</ele>
        <time>2011-12-28T09:52:01Z</time>
      </trkpt>
      <trkpt lat="43.79197" lon="7.18503">
        <ele>373.6</ele>
        <time>2011-12-28T09:52:03Z</time>
      </trkpt>
      <trkpt lat="43.792" lon="7.1851">
        <ele>373.8</ele>
        <time>2011-12-28T09:52:05Z</time>
      </trkpt>
      <trkpt lat="43.79203" lon="7.18517">
        <ele>374.1</ele>
        <time>2011-12-28T09:52:07Z</time>
      </trkpt>
      <trkpt lat="43.79207" lon="7.18524">
        <ele>374.2</ele>
        <time>2011-12-28T09:52:09Z</time>
      </trkpt>
      <trkpt lat="43.79211" lon="7.18531">
        <ele>374.4</ele>
        <time>2011-12-28T09:52:11Z</time>
      </trkpt>
      <trkpt lat="43.79214" lon="7.18538">
        <ele>375</ele>
        <time>2011-12-28T09:52:13Z</time>
      </trkpt>
      <trkpt lat="43.79219" lon="7.18549">
        <ele>376</ele>
        <time>2011-12-28T09:52:16Z</time>
      </trkpt>
      <trkpt lat="43.79226" lon="7.18553">
        <ele>376.9</ele>
        <time>2011-12-28T09:52:19Z</time>
      </trkpt>
      <trkpt lat="43.79235" lon="7.18553">
        <ele>379.1</ele>
        <time>2011-12-28T09:52:41Z</time>
      </trkpt>
      <trkpt lat="43.79235" lon="7.18552">
        <ele>379</ele>
        <time>2011-12-28T09:52:42Z</time>
      </trkpt>
      <trkpt lat="43.79237" lon="7.1854">
        <ele>379.5</ele>
        <time>2011-12-28T09:55:01Z</time>
      </trkpt>
      <trkpt lat="43.79243" lon="7.18522">
        <ele>379.5</ele>
        <time>2011-12-28T09:55:06Z</time>
      </trkpt>
      <trkpt lat="43.79247" lon="7.18512">
        <ele>379.4</ele>
        <time>2011-12-28T09:55:09Z</time>
      </trkpt>
      <trkpt lat="43.79252" lon="7.18502">
        <ele>379.5</ele>
        <time>2011-12-28T09:55:12Z</time>
      </trkpt>
      <trkpt lat="43.79258" lon="7.18492">
        <ele>379.5</ele>
        <time>2011-12-28T09:55:15Z</time>
      </trkpt>
      <trkpt lat="43.79264" lon="7.18484">
        <ele>379.8</ele>
        <time>2011-12-28T09:55:18Z</time>
      </trkpt>
      <trkpt lat="43.7927" lon="7.18477">
        <ele>380.3</ele>
        <time>2011-12-28T09:55:21Z</time>
      </trkpt>
      <trkpt lat="43.79278" lon="7.1847">
        <ele>380.9</ele>
        <time>2011-12-28T09:55:24Z</time>
      </trkpt>
      <trkpt lat="43.79285" lon="7.18464">
        <ele>381</ele>
        <time>2011-12-28T09:55:27Z</time>
      </trkpt>
      <trkpt lat="43.79292" lon="7.18457">
        <ele>381.3</ele>
        <time>2011-12-28T09:55:30Z</time>
      </trkpt>
      <trkpt lat="43.793" lon="7.18451">
        <ele>382.3</ele>
        <time>2011-12-28T09:55:33Z</time>
      </trkpt>
      <trkpt lat="43.79307" lon="7.18444">
        <ele>382.7</ele>
        <time>2011-12-28T09:55:36Z</time>
      </trkpt>
      <trkpt lat="43.79314" lon="7.18438">
        <ele>383.5</ele>
        <time>2011-12-28T09:55:39Z</time>
      </trkpt>
      <trkpt lat="43.79321" lon="7.18431">
        <ele>383.6</ele>
        <time>2011-12-28T09:55:42Z</time>
      </trkpt>
      <trkpt lat="43.79329" lon="7.18425">
        <ele>384.7</ele>
        <time>2011-12-28T09:55:45Z</time>
      </trkpt>
      <trkpt lat="43.79337" lon="7.1842">
        <ele>385</ele>
        <time>2011-12-28T09:55:48Z</time>
      </trkpt>
      <trkpt lat="43.79343" lon="7.18417">
        <ele>385.2</ele>
        <time>2011-12-28T09:55:50Z</time>
      </trkpt>
      <trkpt lat="43.79351" lon="7.18413">
        <ele>385.2</ele>
        <time>2011-12-28T09:55:53Z</time>
      </trkpt>
      <trkpt lat="43.79359" lon="7.1841">
        <ele>385.8</ele>
        <time>2011-12-28T09:55:56Z</time>
      </trkpt>
      <trkpt lat="43.79367" lon="7.18406">
        <ele>386.5</ele>
        <time>2011-12-28T09:55:59Z</time>
      </trkpt>
      <trkpt lat="43.79375" lon="7.18402">
        <ele>387.5</ele>
        <time>2011-12-28T09:56:02Z</time>
      </trkpt>
      <trkpt lat="43.79377" lon="7.18401">
        <ele>387.7</ele>
        <time>2011-12-28T09:56:03Z</time>
      </trkpt>
      <trkpt lat="43.79389" lon="7.18392">
        <ele>387.3</ele>
        <time>2011-12-28T09:56:08Z</time>
      </trkpt>
      <trkpt lat="43.79397" lon="7.18387">
        <ele>387.7</ele>
        <time>2011-12-28T09:56:11Z</time>
      </trkpt>
      <trkpt lat="43.79404" lon="7.18381">
        <ele>388.1</ele>
        <time>2011-12-28T09:56:14Z</time>
      </trkpt>
      <trkpt lat="43.79411" lon="7.18376">
        <ele>389.4</ele>
        <time>2011-12-28T09:56:17Z</time>
      </trkpt>
      <trkpt lat="43.79418" lon="7.18371">
        <ele>389.5</ele>
        <time>2011-12-28T09:56:20Z</time>
      </trkpt>
      <trkpt lat="43.79425" lon="7.18365">
        <ele>389.5</ele>
        <time>2011-12-28T09:56:23Z</time>
      </trkpt>
      <trkpt lat="43.79432" lon="7.18359">
        <ele>390.2</ele>
        <time>2011-12-28T09:56:26Z</time>
      </trkpt>
      <trkpt lat="43.79439" lon="7.18351">
        <ele>391.4</ele>
        <time>2011-12-28T09:56:29Z</time>
      </trkpt>
      <trkpt lat="43.79444" lon="7.18343">
        <ele>392.3</ele>
        <time>2011-12-28T09:56:32Z</time>
      </trkpt>
      <trkpt lat="43.7945" lon="7.18335">
        <ele>393</ele>
        <time>2011-12-28T09:56:35Z</time>
      </trkpt>
      <trkpt lat="43.79456" lon="7.18328">
        <ele>393</ele>
        <time>2011-12-28T09:56:38Z</time>
      </trkpt>
      <trkpt lat="43.79463" lon="7.1832">
        <ele>393</ele>
        <time>2011-12-28T09:56:41Z</time>
      </trkpt>
      <trkpt lat="43.79469" lon="7.18313">
        <ele>393.2</ele>
        <time>2011-12-28T09:56:44Z</time>
      </trkpt>
      <trkpt lat="43.79474" lon="7.18305">
        <ele>393.6</ele>
        <time>2011-12-28T09:56:47Z</time>
      </trkpt>
      <trkpt lat="43.79481" lon="7.18298">
        <ele>394.6</ele>
        <time>2011-12-28T09:56:50Z</time>
      </trkpt>
      <trkpt lat="43.79488" lon="7.18292">
        <ele>395</ele>
        <time>2011-12-28T09:56:53Z</time>
      </trkpt>
      <trkpt lat="43.79495" lon="7.18286">
        <ele>394.9</ele>
        <time>2011-12-28T09:56:56Z</time>
      </trkpt>
      <trkpt lat="43.79503" lon="7.18283">
        <ele>396</ele>
        <time>2011-12-28T09:56:59Z</time>
      </trkpt>
      <trkpt lat="43.7951" lon="7.1828">
        <ele>396.5</ele>
        <time>2011-12-28T09:57:02Z</time>
      </trkpt>
      <trkpt lat="43.79518" lon="7.18277">
        <ele>396.9</ele>
        <time>2011-12-28T09:57:05Z</time>
      </trkpt>
      <trkpt lat="43.7952" lon="7.18276">
        <ele>397.3</ele>
        <time>2011-12-28T09:57:06Z</time>
      </trkpt>
      <trkpt lat="43.79533" lon="7.18269">
        <ele>398.2</ele>
        <time>2011-12-28T09:57:11Z</time>
      </trkpt>
      <trkpt lat="43.79541" lon="7.18266">
        <ele>398.3</ele>
        <time>2011-12-28T09:57:14Z</time>
      </trkpt>
      <trkpt lat="43.79549" lon="7.18262">
        <ele>397.9</ele>
        <time>2011-12-28T09:57:17Z</time>
      </trkpt>
      <trkpt lat="43.79556" lon="7.18258">
        <ele>398.4</ele>
        <time>2011-12-28T09:57:20Z</time>
      </trkpt>
      <trkpt lat="43.79564" lon="7.18254">
        <ele>399.5</ele>
        <time>2011-12-28T09:57:23Z</time>
      </trkpt>
      <trkpt lat="43.79572" lon="7.1825">
        <ele>399.8</ele>
        <time>2011-12-28T09:57:26Z</time>
      </trkpt>
      <trkpt lat="43.7958" lon="7.18245">
        <ele>400.6</ele>
        <time>2011-12-28T09:57:29Z</time>
      </trkpt>
      <trkpt lat="43.79588" lon="7.18242">
        <ele>401.5</ele>
        <time>2011-12-28T09:57:32Z</time>
      </trkpt>
      <trkpt lat="43.79596" lon="7.18238">
        <ele>401.1</ele>
        <time>2011-12-28T09:57:35Z</time>
      </trkpt>
      <trkpt lat="43.79604" lon="7.18236">
        <ele>401.5</ele>
        <time>2011-12-28T09:57:38Z</time>
      </trkpt>
      <trkpt lat="43.79611" lon="7.18235">
        <ele>401.8</ele>
        <time>2011-12-28T09:57:41Z</time>
      </trkpt>
      <trkpt lat="43.79619" lon="7.18234">
        <ele>402.9</ele>
        <time>2011-12-28T09:57:44Z</time>
      </trkpt>
      <trkpt lat="43.79626" lon="7.18233">
        <ele>404.1</ele>
        <time>2011-12-28T09:57:47Z</time>
      </trkpt>
      <trkpt lat="43.79634" lon="7.18234">
        <ele>404.3</ele>
        <time>2011-12-28T09:57:50Z</time>
      </trkpt>
      <trkpt lat="43.79642" lon="7.18235">
        <ele>404.3</ele>
        <time>2011-12-28T09:57:53Z</time>
      </trkpt>
      <trkpt lat="43.7965" lon="7.18238">
        <ele>405.2</ele>
        <time>2011-12-28T09:57:56Z</time>
      </trkpt>
      <trkpt lat="43.79658" lon="7.18241">
        <ele>406.4</ele>
        <time>2011-12-28T09:57:59Z</time>
      </trkpt>
      <trkpt lat="43.79666" lon="7.18246">
        <ele>406.3</ele>
        <time>2011-12-28T09:58:02Z</time>
      </trkpt>
      <trkpt lat="43.79673" lon="7.18253">
        <ele>406.7</ele>
        <time>2011-12-28T09:58:05Z</time>
      </trkpt>
      <trkpt lat="43.79677" lon="7.18262">
        <ele>407.8</ele>
        <time>2011-12-28T09:58:08Z</time>
      </trkpt>
      <trkpt lat="43.79679" lon="7.18265">
        <ele>408.1</ele>
        <time>2011-12-28T09:58:09Z</time>
      </trkpt>
      <trkpt lat="43.79684" lon="7.18281">
        <ele>408.3</ele>
        <time>2011-12-28T09:58:14Z</time>
      </trkpt>
      <trkpt lat="43.79688" lon="7.18292">
        <ele>407.9</ele>
        <time>2011-12-28T09:58:17Z</time>
      </trkpt>
      <trkpt lat="43.79692" lon="7.18302">
        <ele>408.8</ele>
        <time>2011-12-28T09:58:20Z</time>
      </trkpt>
      <trkpt lat="43.79695" lon="7.18313">
        <ele>409.7</ele>
        <time>2011-12-28T09:58:23Z</time>
      </trkpt>
      <trkpt lat="43.79698" lon="7.18323">
        <ele>410.1</ele>
        <time>2011-12-28T09:58:26Z</time>
      </trkpt>
      <trkpt lat="43.79702" lon="7.18333">
        <ele>411.3</ele>
        <time>2011-12-28T09:58:29Z</time>
      </trkpt>
      <trkpt lat="43.79706" lon="7.18344">
        <ele>411.5</ele>
        <time>2011-12-28T09:58:32Z</time>
      </trkpt>
      <trkpt lat="43.79711" lon="7.18353">
        <ele>412</ele>
        <time>2011-12-28T09:58:35Z</time>
      </trkpt>
      <trkpt lat="43.79717" lon="7.18362">
        <ele>412.3</ele>
        <time>2011-12-28T09:58:38Z</time>
      </trkpt>
      <trkpt lat="43.79723" lon="7.18371">
        <ele>413.1</ele>
        <time>2011-12-28T09:58:41Z</time>
      </trkpt>
      <trkpt lat="43.79729" lon="7.18379">
        <ele>413.5</ele>
        <time>2011-12-28T09:58:44Z</time>
      </trkpt>
      <trkpt lat="43.79736" lon="7.18386">
        <ele>414.1</ele>
        <time>2011-12-28T09:58:47Z</time>
      </trkpt>
      <trkpt lat="43.79743" lon="7.18392">
        <ele>413.2</ele>
        <time>2011-12-28T09:58:50Z</time>
      </trkpt>
      <trkpt lat="43.79751" lon="7.18398">
        <ele>414.2</ele>
        <time>2011-12-28T09:58:53Z</time>
      </trkpt>
      <trkpt lat="43.79759" lon="7.18403">
        <ele>414.5</ele>
        <time>2011-12-28T09:58:56Z</time>
      </trkpt>
      <trkpt lat="43.79767" lon="7.18407">
        <ele>415.3</ele>
        <time>2011-12-28T09:58:59Z</time>
      </trkpt>
      <trkpt lat="43.79775" lon="7.18409">
        <ele>415</ele>
        <time>2011-12-28T09:59:02Z</time>
      </trkpt>
      <trkpt lat="43.79784" lon="7.18411">
        <ele>416.4</ele>
        <time>2011-12-28T09:59:05Z</time>
      </trkpt>
      <trkpt lat="43.79793" lon="7.18414">
        <ele>417.3</ele>
        <time>2011-12-28T09:59:08Z</time>
      </trkpt>
      <trkpt lat="43.79801" lon="7.18415">
        <ele>417.7</ele>
        <time>2011-12-28T09:59:11Z</time>
      </trkpt>
      <trkpt lat="43.79804" lon="7.18416">
        <ele>417.9</ele>
        <time>2011-12-28T09:59:12Z</time>
      </trkpt>
      <trkpt lat="43.79818" lon="7.18413">
        <ele>418.8</ele>
        <time>2011-12-28T09:59:17Z</time>
      </trkpt>
      <trkpt lat="43.79826" lon="7.18409">
        <ele>418.7</ele>
        <time>2011-12-28T09:59:20Z</time>
      </trkpt>
      <trkpt lat="43.79833" lon="7.18401">
        <ele>419.4</ele>
        <time>2011-12-28T09:59:23Z</time>
      </trkpt>
      <trkpt lat="43.79839" lon="7.18391">
        <ele>419.5</ele>
        <time>2011-12-28T09:59:26Z</time>
      </trkpt>
      <trkpt lat="43.79842" lon="7.1838">
        <ele>419.3</ele>
        <time>2011-12-28T09:59:29Z</time>
      </trkpt>
      <trkpt lat="43.79843" lon="7.18368">
        <ele>419.8</ele>
        <time>2011-12-28T09:59:32Z</time>
      </trkpt>
      <trkpt lat="43.79843" lon="7.18356">
        <ele>420.1</ele>
        <time>2011-12-28T09:59:35Z</time>
      </trkpt>
      <trkpt lat="43.79842" lon="7.18344">
        <ele>420.5</ele>
        <time>2011-12-28T09:59:38Z</time>
      </trkpt>
      <trkpt lat="43.7984" lon="7.18333">
        <ele>420.7</ele>
        <time>2011-12-28T09:59:41Z</time>
      </trkpt>
      <trkpt lat="43.79838" lon="7.18321">
        <ele>420.9</ele>
        <time>2011-12-28T09:59:44Z</time>
      </trkpt>
      <trkpt lat="43.79836" lon="7.18311">
        <ele>421.4</ele>
        <time>2011-12-28T09:59:47Z</time>
      </trkpt>
      <trkpt lat="43.79835" lon="7.18299">
        <ele>421.7</ele>
        <time>2011-12-28T09:59:50Z</time>
      </trkpt>
      <trkpt lat="43.79833" lon="7.18288">
        <ele>421.9</ele>
        <time>2011-12-28T09:59:53Z</time>
      </trkpt>
      <trkpt lat="43.79832" lon="7.18276">
        <ele>422.1</ele>
        <time>2011-12-28T09:59:56Z</time>
      </trkpt>
      <trkpt lat="43.79831" lon="7.18265">
        <ele>422.9</ele>
        <time>2011-12-28T09:59:59Z</time>
      </trkpt>
      <trkpt lat="43.79829" lon="7.18254">
        <ele>423.8</ele>
        <time>2011-12-28T10:00:02Z</time>
      </trkpt>
      <trkpt lat="43.79827" lon="7.18242">
        <ele>424.7</ele>
        <time>2011-12-28T10:00:05Z</time>
      </trkpt>
      <trkpt lat="43.79823" lon="7.18232">
        <ele>424.2</ele>
        <time>2011-12-28T10:00:08Z</time>
      </trkpt>
      <trkpt lat="43.79819" lon="7.18221">
        <ele>425.2</ele>
        <time>2011-12-28T10:00:11Z</time>
      </trkpt>
      <trkpt lat="43.79816" lon="7.18214">
        <ele>425.4</ele>
        <time>2011-12-28T10:00:13Z</time>
      </trkpt>
      <trkpt lat="43.79814" lon="7.1821">
        <ele>425.4</ele>
        <time>2011-12-28T10:00:14Z</time>
      </trkpt>
      <trkpt lat="43.79809" lon="7.18196">
        <ele>426.2</ele>
        <time>2011-12-28T10:00:18Z</time>
      </trkpt>
      <trkpt lat="43.79807" lon="7.18184">
        <ele>426.6</ele>
        <time>2011-12-28T10:00:21Z</time>
      </trkpt>
      <trkpt lat="43.79808" lon="7.18172">
        <ele>425.9</ele>
        <time>2011-12-28T10:00:24Z</time>
      </trkpt>
      <trkpt lat="43.79812" lon="7.18161">
        <ele>426.4</ele>
        <time>2011-12-28T10:00:27Z</time>
      </trkpt>
      <trkpt lat="43.79818" lon="7.18154">
        <ele>426.9</ele>
        <time>2011-12-28T10:00:30Z</time>
      </trkpt>
      <trkpt lat="43.79825" lon="7.18151">
        <ele>427.5</ele>
        <time>2011-12-28T10:00:33Z</time>
      </trkpt>
      <trkpt lat="43.79832" lon="7.18151">
        <ele>428.2</ele>
        <time>2011-12-28T10:00:36Z</time>
      </trkpt>
      <trkpt lat="43.79839" lon="7.18154">
        <ele>428.2</ele>
        <time>2011-12-28T10:00:39Z</time>
      </trkpt>
      <trkpt lat="43.79845" lon="7.18159">
        <ele>429</ele>
        <time>2011-12-28T10:00:42Z</time>
      </trkpt>
      <trkpt lat="43.79851" lon="7.18166">
        <ele>429</ele>
        <time>2011-12-28T10:00:45Z</time>
      </trkpt>
      <trkpt lat="43.79857" lon="7.18174">
        <ele>428.9</ele>
        <time>2011-12-28T10:00:48Z</time>
      </trkpt>
      <trkpt lat="43.79864" lon="7.18182">
        <ele>429.4</ele>
        <time>2011-12-28T10:00:51Z</time>
      </trkpt>
      <trkpt lat="43.79869" lon="7.1819">
        <ele>430.1</ele>
        <time>2011-12-28T10:00:54Z</time>
      </trkpt>
      <trkpt lat="43.79873" lon="7.18197">
        <ele>429.9</ele>
        <time>2011-12-28T10:00:56Z</time>
      </trkpt>
      <trkpt lat="43.79876" lon="7.18204">
        <ele>430</ele>
        <time>2011-12-28T10:00:58Z</time>
      </trkpt>
      <trkpt lat="43.79882" lon="7.18214">
        <ele>430.3</ele>
        <time>2011-12-28T10:01:01Z</time>
      </trkpt>
      <trkpt lat="43.79887" lon="7.18224">
        <ele>430.8</ele>
        <time>2011-12-28T10:01:04Z</time>
      </trkpt>
      <trkpt lat="43.79894" lon="7.18232">
        <ele>432.2</ele>
        <time>2011-12-28T10:01:07Z</time>
      </trkpt>
      <trkpt lat="43.799" lon="7.18239">
        <ele>432.4</ele>
        <time>2011-12-28T10:01:10Z</time>
      </trkpt>
      <trkpt lat="43.79907" lon="7.18244">
        <ele>432.7</ele>
        <time>2011-12-28T10:01:13Z</time>
      </trkpt>
      <trkpt lat="43.79915" lon="7.18247">
        <ele>432.5</ele>
        <time>2011-12-28T10:01:16Z</time>
      </trkpt>
      <trkpt lat="43.79918" lon="7.18247">
        <ele>432.4</ele>
        <time>2011-12-28T10:01:17Z</time>
      </trkpt>
      <trkpt lat="43.79931" lon="7.18243">
        <ele>433.6</ele>
        <time>2011-12-28T10:01:22Z</time>
      </trkpt>
      <trkpt lat="43.79939" lon="7.18238">
        <ele>434</ele>
        <time>2011-12-28T10:01:25Z</time>
      </trkpt>
      <trkpt lat="43.79946" lon="7.18231">
        <ele>433.8</ele>
        <time>2011-12-28T10:01:28Z</time>
      </trkpt>
      <trkpt lat="43.79952" lon="7.18224">
        <ele>433.8</ele>
        <time>2011-12-28T10:01:31Z</time>
      </trkpt>
      <trkpt lat="43.79959" lon="7.18215">
        <ele>434.3</ele>
        <time>2011-12-28T10:01:34Z</time>
      </trkpt>
      <trkpt lat="43.79965" lon="7.18207">
        <ele>434.7</ele>
        <time>2011-12-28T10:01:37Z</time>
      </trkpt>
      <trkpt lat="43.79969" lon="7.182">
        <ele>434.8</ele>
        <time>2011-12-28T10:01:39Z</time>
      </trkpt>
      <trkpt lat="43.79975" lon="7.18191">
        <ele>434.9</ele>
        <time>2011-12-28T10:01:42Z</time>
      </trkpt>
      <trkpt lat="43.79978" lon="7.18184">
        <ele>435</ele>
        <time>2011-12-28T10:01:44Z</time>
      </trkpt>
      <trkpt lat="43.79984" lon="7.18175">
        <ele>435.8</ele>
        <time>2011-12-28T10:01:47Z</time>
      </trkpt>
      <trkpt lat="43.79988" lon="7.18169">
        <ele>436.2</ele>
        <time>2011-12-28T10:01:49Z</time>
      </trkpt>
      <trkpt lat="43.79994" lon="7.18165">
        <ele>436.1</ele>
        <time>2011-12-28T10:01:51Z</time>
      </trkpt>
      <trkpt lat="43.8" lon="7.18164">
        <ele>436.3</ele>
        <time>2011-12-28T10:01:53Z</time>
      </trkpt>
      <trkpt lat="43.80009" lon="7.18168">
        <ele>436.7</ele>
        <time>2011-12-28T10:01:56Z</time>
      </trkpt>
      <trkpt lat="43.80015" lon="7.18174">
        <ele>437.5</ele>
        <time>2011-12-28T10:01:59Z</time>
      </trkpt>
      <trkpt lat="43.80019" lon="7.18184">
        <ele>437.5</ele>
        <time>2011-12-28T10:02:02Z</time>
      </trkpt>
      <trkpt lat="43.8002" lon="7.18196">
        <ele>438</ele>
        <time>2011-12-28T10:02:05Z</time>
      </trkpt>
      <trkpt lat="43.80021" lon="7.18208">
        <ele>437.8</ele>
        <time>2011-12-28T10:02:08Z</time>
      </trkpt>
      <trkpt lat="43.80023" lon="7.1822">
        <ele>437.9</ele>
        <time>2011-12-28T10:02:11Z</time>
      </trkpt>
      <trkpt lat="43.80024" lon="7.18231">
        <ele>438.7</ele>
        <time>2011-12-28T10:02:14Z</time>
      </trkpt>
      <trkpt lat="43.80024" lon="7.18243">
        <ele>439.6</ele>
        <time>2011-12-28T10:02:17Z</time>
      </trkpt>
      <trkpt lat="43.80024" lon="7.18255">
        <ele>439.5</ele>
        <time>2011-12-28T10:02:20Z</time>
      </trkpt>
      <trkpt lat="43.80024" lon="7.18259">
        <ele>439.4</ele>
        <time>2011-12-28T10:02:21Z</time>
      </trkpt>
      <trkpt lat="43.80024" lon="7.18279">
        <ele>441.3</ele>
        <time>2011-12-28T10:02:26Z</time>
      </trkpt>
      <trkpt lat="43.80024" lon="7.18291">
        <ele>442.2</ele>
        <time>2011-12-28T10:02:29Z</time>
      </trkpt>
      <trkpt lat="43.80026" lon="7.18299">
        <ele>442.4</ele>
        <time>2011-12-28T10:02:31Z</time>
      </trkpt>
      <trkpt lat="43.80029" lon="7.18306">
        <ele>442.4</ele>
        <time>2011-12-28T10:02:33Z</time>
      </trkpt>
      <trkpt lat="43.80035" lon="7.18315">
        <ele>442.5</ele>
        <time>2011-12-28T10:02:36Z</time>
      </trkpt>
      <trkpt lat="43.80044" lon="7.18317">
        <ele>442.3</ele>
        <time>2011-12-28T10:02:39Z</time>
      </trkpt>
      <trkpt lat="43.80052" lon="7.18313">
        <ele>442.3</ele>
        <time>2011-12-28T10:02:42Z</time>
      </trkpt>
      <trkpt lat="43.80059" lon="7.18307">
        <ele>443.2</ele>
        <time>2011-12-28T10:02:45Z</time>
      </trkpt>
      <trkpt lat="43.80064" lon="7.18301">
        <ele>443.3</ele>
        <time>2011-12-28T10:02:47Z</time>
      </trkpt>
      <trkpt lat="43.80069" lon="7.18296">
        <ele>443.9</ele>
        <time>2011-12-28T10:02:49Z</time>
      </trkpt>
      <trkpt lat="43.80074" lon="7.1829">
        <ele>443.9</ele>
        <time>2011-12-28T10:02:51Z</time>
      </trkpt>
      <trkpt lat="43.80079" lon="7.18284">
        <ele>443.9</ele>
        <time>2011-12-28T10:02:53Z</time>
      </trkpt>
      <trkpt lat="43.80084" lon="7.18279">
        <ele>443.7</ele>
        <time>2011-12-28T10:02:55Z</time>
      </trkpt>
      <trkpt lat="43.80089" lon="7.18273">
        <ele>443.5</ele>
        <time>2011-12-28T10:02:57Z</time>
      </trkpt>
      <trkpt lat="43.80093" lon="7.18267">
        <ele>444</ele>
        <time>2011-12-28T10:02:59Z</time>
      </trkpt>
      <trkpt lat="43.80098" lon="7.18261">
        <ele>443.8</ele>
        <time>2011-12-28T10:03:01Z</time>
      </trkpt>
      <trkpt lat="43.80102" lon="7.18255">
        <ele>444.1</ele>
        <time>2011-12-28T10:03:03Z</time>
      </trkpt>
      <trkpt lat="43.80107" lon="7.1825">
        <ele>444.3</ele>
        <time>2011-12-28T10:03:05Z</time>
      </trkpt>
      <trkpt lat="43.80111" lon="7.18243">
        <ele>444.7</ele>
        <time>2011-12-28T10:03:07Z</time>
      </trkpt>
      <trkpt lat="43.80115" lon="7.18236">
        <ele>445.1</ele>
        <time>2011-12-28T10:03:09Z</time>
      </trkpt>
      <trkpt lat="43.80119" lon="7.18229">
        <ele>445.1</ele>
        <time>2011-12-28T10:03:11Z</time>
      </trkpt>
      <trkpt lat="43.80123" lon="7.18222">
        <ele>445.1</ele>
        <time>2011-12-28T10:03:13Z</time>
      </trkpt>
      <trkpt lat="43.80127" lon="7.18215">
        <ele>445.5</ele>
        <time>2011-12-28T10:03:15Z</time>
      </trkpt>
      <trkpt lat="43.80131" lon="7.18208">
        <ele>445.3</ele>
        <time>2011-12-28T10:03:17Z</time>
      </trkpt>
      <trkpt lat="43.80135" lon="7.18201">
        <ele>445.6</ele>
        <time>2011-12-28T10:03:19Z</time>
      </trkpt>
      <trkpt lat="43.80139" lon="7.18194">
        <ele>446</ele>
        <time>2011-12-28T10:03:21Z</time>
      </trkpt>
      <trkpt lat="43.80144" lon="7.18187">
        <ele>446.1</ele>
        <time>2011-12-28T10:03:23Z</time>
      </trkpt>
      <trkpt lat="43.80146" lon="7.18184">
        <ele>446.3</ele>
        <time>2011-12-28T10:03:24Z</time>
      </trkpt>
      <trkpt lat="43.80151" lon="7.18172">
        <ele>447.5</ele>
        <time>2011-12-28T10:03:27Z</time>
      </trkpt>
      <trkpt lat="43.80155" lon="7.18165">
        <ele>447.5</ele>
        <time>2011-12-28T10:03:29Z</time>
      </trkpt>
      <trkpt lat="43.80159" lon="7.18157">
        <ele>447.4</ele>
        <time>2011-12-28T10:03:31Z</time>
      </trkpt>
      <trkpt lat="43.80162" lon="7.18149">
        <ele>447.5</ele>
        <time>2011-12-28T10:03:33Z</time>
      </trkpt>
      <trkpt lat="43.80166" lon="7.18141">
        <ele>447.8</ele>
        <time>2011-12-28T10:03:35Z</time>
      </trkpt>
      <trkpt lat="43.80168" lon="7.18133">
        <ele>448</ele>
        <time>2011-12-28T10:03:37Z</time>
      </trkpt>
      <trkpt lat="43.8017" lon="7.18125">
        <ele>447.8</ele>
        <time>2011-12-28T10:03:39Z</time>
      </trkpt>
      <trkpt lat="43.80172" lon="7.18116">
        <ele>448.4</ele>
        <time>2011-12-28T10:03:41Z</time>
      </trkpt>
      <trkpt lat="43.80173" lon="7.18107">
        <ele>448.5</ele>
        <time>2011-12-28T10:03:43Z</time>
      </trkpt>
      <trkpt lat="43.80174" lon="7.18099">
        <ele>448.5</ele>
        <time>2011-12-28T10:03:45Z</time>
      </trkpt>
      <trkpt lat="43.80176" lon="7.1809">
        <ele>448.5</ele>
        <time>2011-12-28T10:03:47Z</time>
      </trkpt>
      <trkpt lat="43.80179" lon="7.18082">
        <ele>448.5</ele>
        <time>2011-12-28T10:03:49Z</time>
      </trkpt>
      <trkpt lat="43.80183" lon="7.18075">
        <ele>448.9</ele>
        <time>2011-12-28T10:03:51Z</time>
      </trkpt>
      <trkpt lat="43.80186" lon="7.18068">
        <ele>449.1</ele>
        <time>2011-12-28T10:03:53Z</time>
      </trkpt>
      <trkpt lat="43.80191" lon="7.18058">
        <ele>448.8</ele>
        <time>2011-12-28T10:03:56Z</time>
      </trkpt>
      <trkpt lat="43.80194" lon="7.18051">
        <ele>449</ele>
        <time>2011-12-28T10:03:58Z</time>
      </trkpt>
      <trkpt lat="43.80197" lon="7.18044">
        <ele>449.2</ele>
        <time>2011-12-28T10:04:00Z</time>
      </trkpt>
      <trkpt lat="43.802" lon="7.18034">
        <ele>449.4</ele>
        <time>2011-12-28T10:04:03Z</time>
      </trkpt>
      <trkpt lat="43.80196" lon="7.18023">
        <ele>450.9</ele>
        <time>2011-12-28T10:04:58Z</time>
      </trkpt>
      <trkpt lat="43.80196" lon="7.18023">
        <ele>450.7</ele>
        <time>2011-12-28T10:04:59Z</time>
      </trkpt>
      <trkpt lat="43.80195" lon="7.18003">
        <ele>450</ele>
        <time>2011-12-28T10:05:55Z</time>
      </trkpt>
      <trkpt lat="43.80194" lon="7.17995">
        <ele>450.1</ele>
        <time>2011-12-28T10:05:57Z</time>
      </trkpt>
      <trkpt lat="43.80192" lon="7.17983">
        <ele>450.4</ele>
        <time>2011-12-28T10:06:00Z</time>
      </trkpt>
      <trkpt lat="43.80191" lon="7.17979">
        <ele>450.5</ele>
        <time>2011-12-28T10:06:01Z</time>
      </trkpt>
      <trkpt lat="43.80186" lon="7.1796">
        <ele>450.7</ele>
        <time>2011-12-28T10:06:06Z</time>
      </trkpt>
      <trkpt lat="43.80184" lon="7.17949">
        <ele>451.7</ele>
        <time>2011-12-28T10:06:09Z</time>
      </trkpt>
      <trkpt lat="43.80182" lon="7.17938">
        <ele>451.4</ele>
        <time>2011-12-28T10:06:12Z</time>
      </trkpt>
      <trkpt lat="43.8018" lon="7.17927">
        <ele>451.5</ele>
        <time>2011-12-28T10:06:15Z</time>
      </trkpt>
      <trkpt lat="43.80178" lon="7.17916">
        <ele>451.3</ele>
        <time>2011-12-28T10:06:18Z</time>
      </trkpt>
      <trkpt lat="43.80176" lon="7.17904">
        <ele>451.3</ele>
        <time>2011-12-28T10:06:21Z</time>
      </trkpt>
      <trkpt lat="43.80174" lon="7.17892">
        <ele>451.4</ele>
        <time>2011-12-28T10:06:24Z</time>
      </trkpt>
      <trkpt lat="43.80172" lon="7.17881">
        <ele>451.6</ele>
        <time>2011-12-28T10:06:27Z</time>
      </trkpt>
      <trkpt lat="43.80172" lon="7.17868">
        <ele>451.3</ele>
        <time>2011-12-28T10:06:30Z</time>
      </trkpt>
      <trkpt lat="43.80172" lon="7.17856">
        <ele>451.1</ele>
        <time>2011-12-28T10:06:33Z</time>
      </trkpt>
      <trkpt lat="43.80173" lon="7.17848">
        <ele>451.2</ele>
        <time>2011-12-28T10:06:35Z</time>
      </trkpt>
      <trkpt lat="43.80174" lon="7.17835">
        <ele>450.9</ele>
        <time>2011-12-28T10:06:38Z</time>
      </trkpt>
      <trkpt lat="43.80174" lon="7.17827">
        <ele>451.5</ele>
        <time>2011-12-28T10:06:40Z</time>
      </trkpt>
      <trkpt lat="43.80174" lon="7.17819">
        <ele>451.3</ele>
        <time>2011-12-28T10:06:42Z</time>
      </trkpt>
      <trkpt lat="43.80175" lon="7.1781">
        <ele>452.3</ele>
        <time>2011-12-28T10:06:44Z</time>
      </trkpt>
      <trkpt lat="43.80176" lon="7.17802">
        <ele>452.3</ele>
        <time>2011-12-28T10:06:46Z</time>
      </trkpt>
      <trkpt lat="43.80178" lon="7.17793">
        <ele>452.3</ele>
        <time>2011-12-28T10:06:48Z</time>
      </trkpt>
      <trkpt lat="43.8018" lon="7.17785">
        <ele>452.2</ele>
        <time>2011-12-28T10:06:50Z</time>
      </trkpt>
      <trkpt lat="43.80183" lon="7.17777">
        <ele>451.9</ele>
        <time>2011-12-28T10:06:52Z</time>
      </trkpt>
      <trkpt lat="43.80186" lon="7.17769">
        <ele>451.6</ele>
        <time>2011-12-28T10:06:54Z</time>
      </trkpt>
      <trkpt lat="43.8019" lon="7.17763">
        <ele>452.3</ele>
        <time>2011-12-28T10:06:56Z</time>
      </trkpt>
      <trkpt lat="43.80194" lon="7.17756">
        <ele>452.4</ele>
        <time>2011-12-28T10:06:58Z</time>
      </trkpt>
      <trkpt lat="43.80199" lon="7.1775">
        <ele>452.8</ele>
        <time>2011-12-28T10:07:00Z</time>
      </trkpt>
      <trkpt lat="43.80204" lon="7.17743">
        <ele>453.1</ele>
        <time>2011-12-28T10:07:02Z</time>
      </trkpt>
      <trkpt lat="43.80206" lon="7.1774">
        <ele>453.2</ele>
        <time>2011-12-28T10:07:03Z</time>
      </trkpt>
      <trkpt lat="43.80213" lon="7.17731">
        <ele>452.5</ele>
        <time>2011-12-28T10:07:06Z</time>
      </trkpt>
      <trkpt lat="43.80217" lon="7.17725">
        <ele>453.2</ele>
        <time>2011-12-28T10:07:08Z</time>
      </trkpt>
      <trkpt lat="43.80221" lon="7.17718">
        <ele>452.9</ele>
        <time>2011-12-28T10:07:10Z</time>
      </trkpt>
      <trkpt lat="43.80225" lon="7.17712">
        <ele>453.6</ele>
        <time>2011-12-28T10:07:12Z</time>
      </trkpt>
      <trkpt lat="43.80229" lon="7.17705">
        <ele>454.1</ele>
        <time>2011-12-28T10:07:14Z</time>
      </trkpt>
      <trkpt lat="43.80233" lon="7.17698">
        <ele>454</ele>
        <time>2011-12-28T10:07:16Z</time>
      </trkpt>
      <trkpt lat="43.80236" lon="7.1769">
        <ele>453.8</ele>
        <time>2011-12-28T10:07:18Z</time>
      </trkpt>
      <trkpt lat="43.80239" lon="7.17682">
        <ele>453.5</ele>
        <time>2011-12-28T10:07:20Z</time>
      </trkpt>
      <trkpt lat="43.80242" lon="7.17673">
        <ele>453.5</ele>
        <time>2011-12-28T10:07:22Z</time>
      </trkpt>
      <trkpt lat="43.80244" lon="7.17664">
        <ele>453.5</ele>
        <time>2011-12-28T10:07:24Z</time>
      </trkpt>
      <trkpt lat="43.80245" lon="7.17654">
        <ele>453.5</ele>
        <time>2011-12-28T10:07:26Z</time>
      </trkpt>
      <trkpt lat="43.80247" lon="7.17644">
        <ele>453.4</ele>
        <time>2011-12-28T10:07:28Z</time>
      </trkpt>
      <trkpt lat="43.80249" lon="7.17635">
        <ele>453.3</ele>
        <time>2011-12-28T10:07:30Z</time>
      </trkpt>
      <trkpt lat="43.8025" lon="7.17626">
        <ele>453.3</ele>
        <time>2011-12-28T10:07:32Z</time>
      </trkpt>
      <trkpt lat="43.80252" lon="7.17617">
        <ele>453.6</ele>
        <time>2011-12-28T10:07:34Z</time>
      </trkpt>
      <trkpt lat="43.80253" lon="7.17608">
        <ele>454</ele>
        <time>2011-12-28T10:07:36Z</time>
      </trkpt>
      <trkpt lat="43.80255" lon="7.176">
        <ele>454.5</ele>
        <time>2011-12-28T10:07:38Z</time>
      </trkpt>
      <trkpt lat="43.80256" lon="7.17591">
        <ele>454.5</ele>
        <time>2011-12-28T10:07:40Z</time>
      </trkpt>
      <trkpt lat="43.80258" lon="7.17582">
        <ele>454.4</ele>
        <time>2011-12-28T10:07:42Z</time>
      </trkpt>
      <trkpt lat="43.8026" lon="7.17573">
        <ele>454.3</ele>
        <time>2011-12-28T10:07:44Z</time>
      </trkpt>
      <trkpt lat="43.80263" lon="7.17565">
        <ele>454.3</ele>
        <time>2011-12-28T10:07:46Z</time>
      </trkpt>
      <trkpt lat="43.80265" lon="7.17557">
        <ele>454.7</ele>
        <time>2011-12-28T10:07:48Z</time>
      </trkpt>
      <trkpt lat="43.80268" lon="7.17549">
        <ele>454.4</ele>
        <time>2011-12-28T10:07:50Z</time>
      </trkpt>
      <trkpt lat="43.80271" lon="7.17541">
        <ele>454.2</ele>
        <time>2011-12-28T10:07:52Z</time>
      </trkpt>
      <trkpt lat="43.80274" lon="7.17533">
        <ele>454.4</ele>
        <time>2011-12-28T10:07:54Z</time>
      </trkpt>
      <trkpt lat="43.80277" lon="7.17524">
        <ele>454.9</ele>
        <time>2011-12-28T10:07:56Z</time>
      </trkpt>
      <trkpt lat="43.80279" lon="7.17514">
        <ele>455.3</ele>
        <time>2011-12-28T10:07:58Z</time>
      </trkpt>
      <trkpt lat="43.80282" lon="7.17505">
        <ele>455.1</ele>
        <time>2011-12-28T10:08:00Z</time>
      </trkpt>
      <trkpt lat="43.80285" lon="7.17496">
        <ele>454.7</ele>
        <time>2011-12-28T10:08:02Z</time>
      </trkpt>
      <trkpt lat="43.80287" lon="7.17486">
        <ele>454.4</ele>
        <time>2011-12-28T10:08:04Z</time>
      </trkpt>
      <trkpt lat="43.80288" lon="7.17482">
        <ele>454.3</ele>
        <time>2011-12-28T10:08:05Z</time>
      </trkpt>
      <trkpt lat="43.80292" lon="7.17469">
        <ele>455.4</ele>
        <time>2011-12-28T10:08:08Z</time>
      </trkpt>
      <trkpt lat="43.80295" lon="7.1746">
        <ele>455.9</ele>
        <time>2011-12-28T10:08:10Z</time>
      </trkpt>
      <trkpt lat="43.803" lon="7.17453">
        <ele>456.2</ele>
        <time>2011-12-28T10:08:12Z</time>
      </trkpt>
      <trkpt lat="43.80306" lon="7.17446">
        <ele>456.3</ele>
        <time>2011-12-28T10:08:14Z</time>
      </trkpt>
      <trkpt lat="43.80312" lon="7.17439">
        <ele>455.6</ele>
        <time>2011-12-28T10:08:16Z</time>
      </trkpt>
      <trkpt lat="43.80317" lon="7.17431">
        <ele>455.4</ele>
        <time>2011-12-28T10:08:18Z</time>
      </trkpt>
      <trkpt lat="43.80322" lon="7.17423">
        <ele>455.5</ele>
        <time>2011-12-28T10:08:20Z</time>
      </trkpt>
      <trkpt lat="43.80326" lon="7.17415">
        <ele>455.7</ele>
        <time>2011-12-28T10:08:22Z</time>
      </trkpt>
      <trkpt lat="43.80328" lon="7.17405">
        <ele>456.6</ele>
        <time>2011-12-28T10:08:24Z</time>
      </trkpt>
      <trkpt lat="43.8033" lon="7.17396">
        <ele>457</ele>
        <time>2011-12-28T10:08:26Z</time>
      </trkpt>
      <trkpt lat="43.80332" lon="7.17387">
        <ele>457.1</ele>
        <time>2011-12-28T10:08:28Z</time>
      </trkpt>
      <trkpt lat="43.80337" lon="7.1738">
        <ele>457.4</ele>
        <time>2011-12-28T10:08:30Z</time>
      </trkpt>
      <trkpt lat="43.80343" lon="7.17375">
        <ele>457.5</ele>
        <time>2011-12-28T10:08:32Z</time>
      </trkpt>
      <trkpt lat="43.80349" lon="7.17372">
        <ele>457.4</ele>
        <time>2011-12-28T10:08:34Z</time>
      </trkpt>
      <trkpt lat="43.80356" lon="7.17369">
        <ele>457.3</ele>
        <time>2011-12-28T10:08:36Z</time>
      </trkpt>
      <trkpt lat="43.80362" lon="7.17365">
        <ele>457.2</ele>
        <time>2011-12-28T10:08:38Z</time>
      </trkpt>
      <trkpt lat="43.80368" lon="7.17361">
        <ele>457.3</ele>
        <time>2011-12-28T10:08:40Z</time>
      </trkpt>
      <trkpt lat="43.80375" lon="7.17357">
        <ele>457.5</ele>
        <time>2011-12-28T10:08:42Z</time>
      </trkpt>
      <trkpt lat="43.80382" lon="7.17353">
        <ele>458.3</ele>
        <time>2011-12-28T10:08:44Z</time>
      </trkpt>
      <trkpt lat="43.80387" lon="7.17348">
        <ele>458.6</ele>
        <time>2011-12-28T10:08:46Z</time>
      </trkpt>
      <trkpt lat="43.80392" lon="7.17342">
        <ele>458.4</ele>
        <time>2011-12-28T10:08:48Z</time>
      </trkpt>
      <trkpt lat="43.80396" lon="7.17334">
        <ele>459.4</ele>
        <time>2011-12-28T10:08:50Z</time>
      </trkpt>
      <trkpt lat="43.80399" lon="7.17325">
        <ele>458.7</ele>
        <time>2011-12-28T10:08:52Z</time>
      </trkpt>
      <trkpt lat="43.80401" lon="7.17315">
        <ele>458.3</ele>
        <time>2011-12-28T10:08:54Z</time>
      </trkpt>
      <trkpt lat="43.80403" lon="7.17305">
        <ele>458.5</ele>
        <time>2011-12-28T10:08:56Z</time>
      </trkpt>
      <trkpt lat="43.80404" lon="7.17295">
        <ele>458.7</ele>
        <time>2011-12-28T10:08:58Z</time>
      </trkpt>
      <trkpt lat="43.80406" lon="7.17285">
        <ele>458.7</ele>
        <time>2011-12-28T10:09:00Z</time>
      </trkpt>
      <trkpt lat="43.80408" lon="7.17275">
        <ele>458.6</ele>
        <time>2011-12-28T10:09:02Z</time>
      </trkpt>
      <trkpt lat="43.80409" lon="7.17266">
        <ele>458</ele>
        <time>2011-12-28T10:09:04Z</time>
      </trkpt>
      <trkpt lat="43.80412" lon="7.17257">
        <ele>458.4</ele>
        <time>2011-12-28T10:09:06Z</time>
      </trkpt>
      <trkpt lat="43.80413" lon="7.17252">
        <ele>458.5</ele>
        <time>2011-12-28T10:09:07Z</time>
      </trkpt>
      <trkpt lat="43.80418" lon="7.17239">
        <ele>458.6</ele>
        <time>2011-12-28T10:09:10Z</time>
      </trkpt>
      <trkpt lat="43.8042" lon="7.1723">
        <ele>458.6</ele>
        <time>2011-12-28T10:09:12Z</time>
      </trkpt>
      <trkpt lat="43.80423" lon="7.17221">
        <ele>458.6</ele>
        <time>2011-12-28T10:09:14Z</time>
      </trkpt>
      <trkpt lat="43.80425" lon="7.17212">
        <ele>458.5</ele>
        <time>2011-12-28T10:09:16Z</time>
      </trkpt>
      <trkpt lat="43.80427" lon="7.17202">
        <ele>459</ele>
        <time>2011-12-28T10:09:18Z</time>
      </trkpt>
      <trkpt lat="43.80428" lon="7.17192">
        <ele>459</ele>
        <time>2011-12-28T10:09:20Z</time>
      </trkpt>
      <trkpt lat="43.80429" lon="7.17182">
        <ele>459.2</ele>
        <time>2011-12-28T10:09:22Z</time>
      </trkpt>
      <trkpt lat="43.8043" lon="7.17172">
        <ele>459.5</ele>
        <time>2011-12-28T10:09:24Z</time>
      </trkpt>
      <trkpt lat="43.80431" lon="7.17162">
        <ele>459.7</ele>
        <time>2011-12-28T10:09:26Z</time>
      </trkpt>
      <trkpt lat="43.80431" lon="7.17152">
        <ele>459.7</ele>
        <time>2011-12-28T10:09:28Z</time>
      </trkpt>
      <trkpt lat="43.80432" lon="7.17142">
        <ele>459.7</ele>
        <time>2011-12-28T10:09:30Z</time>
      </trkpt>
      <trkpt lat="43.80433" lon="7.17132">
        <ele>460.4</ele>
        <time>2011-12-28T10:09:32Z</time>
      </trkpt>
      <trkpt lat="43.80434" lon="7.17123">
        <ele>460.5</ele>
        <time>2011-12-28T10:09:34Z</time>
      </trkpt>
      <trkpt lat="43.80435" lon="7.17114">
        <ele>460.4</ele>
        <time>2011-12-28T10:09:36Z</time>
      </trkpt>
      <trkpt lat="43.80438" lon="7.17105">
        <ele>460.4</ele>
        <time>2011-12-28T10:09:38Z</time>
      </trkpt>
      <trkpt lat="43.80441" lon="7.17097">
        <ele>460.4</ele>
        <time>2011-12-28T10:09:40Z</time>
      </trkpt>
      <trkpt lat="43.80445" lon="7.1709">
        <ele>461.5</ele>
        <time>2011-12-28T10:09:42Z</time>
      </trkpt>
      <trkpt lat="43.8045" lon="7.17084">
        <ele>461.3</ele>
        <time>2011-12-28T10:09:44Z</time>
      </trkpt>
      <trkpt lat="43.80455" lon="7.17079">
        <ele>461.3</ele>
        <time>2011-12-28T10:09:46Z</time>
      </trkpt>
      <trkpt lat="43.80461" lon="7.17075">
        <ele>461.5</ele>
        <time>2011-12-28T10:09:48Z</time>
      </trkpt>
      <trkpt lat="43.80467" lon="7.1707">
        <ele>461.5</ele>
        <time>2011-12-28T10:09:50Z</time>
      </trkpt>
      <trkpt lat="43.80471" lon="7.17064">
        <ele>461.4</ele>
        <time>2011-12-28T10:09:52Z</time>
      </trkpt>
      <trkpt lat="43.80475" lon="7.17057">
        <ele>461.6</ele>
        <time>2011-12-28T10:09:54Z</time>
      </trkpt>
      <trkpt lat="43.80478" lon="7.17049">
        <ele>461.5</ele>
        <time>2011-12-28T10:09:56Z</time>
      </trkpt>
      <trkpt lat="43.80481" lon="7.1704">
        <ele>460.8</ele>
        <time>2011-12-28T10:09:58Z</time>
      </trkpt>
      <trkpt lat="43.80484" lon="7.17031">
        <ele>460.9</ele>
        <time>2011-12-28T10:10:00Z</time>
      </trkpt>
      <trkpt lat="43.80487" lon="7.17022">
        <ele>461</ele>
        <time>2011-12-28T10:10:02Z</time>
      </trkpt>
      <trkpt lat="43.80491" lon="7.17015">
        <ele>461</ele>
        <time>2011-12-28T10:10:04Z</time>
      </trkpt>
      <trkpt lat="43.80495" lon="7.17007">
        <ele>461</ele>
        <time>2011-12-28T10:10:06Z</time>
      </trkpt>
      <trkpt lat="43.80498" lon="7.17">
        <ele>461</ele>
        <time>2011-12-28T10:10:08Z</time>
      </trkpt>
      <trkpt lat="43.805" lon="7.16996">
        <ele>460.9</ele>
        <time>2011-12-28T10:10:09Z</time>
      </trkpt>
      <trkpt lat="43.80504" lon="7.16984">
        <ele>461.1</ele>
        <time>2011-12-28T10:10:12Z</time>
      </trkpt>
      <trkpt lat="43.80505" lon="7.16975">
        <ele>461.7</ele>
        <time>2011-12-28T10:10:14Z</time>
      </trkpt>
      <trkpt lat="43.80505" lon="7.16963">
        <ele>462.3</ele>
        <time>2011-12-28T10:10:17Z</time>
      </trkpt>
      <trkpt lat="43.80504" lon="7.16954">
        <ele>462.1</ele>
        <time>2011-12-28T10:10:19Z</time>
      </trkpt>
      <trkpt lat="43.80504" lon="7.16946">
        <ele>462.1</ele>
        <time>2011-12-28T10:10:21Z</time>
      </trkpt>
      <trkpt lat="43.80505" lon="7.16937">
        <ele>462.3</ele>
        <time>2011-12-28T10:10:23Z</time>
      </trkpt>
      <trkpt lat="43.80507" lon="7.16928">
        <ele>462.2</ele>
        <time>2011-12-28T10:10:25Z</time>
      </trkpt>
      <trkpt lat="43.8051" lon="7.1692">
        <ele>462.6</ele>
        <time>2011-12-28T10:10:27Z</time>
      </trkpt>
      <trkpt lat="43.80512" lon="7.16911">
        <ele>461.9</ele>
        <time>2011-12-28T10:10:29Z</time>
      </trkpt>
      <trkpt lat="43.80515" lon="7.16902">
        <ele>461.6</ele>
        <time>2011-12-28T10:10:31Z</time>
      </trkpt>
      <trkpt lat="43.80518" lon="7.16893">
        <ele>461.5</ele>
        <time>2011-12-28T10:10:33Z</time>
      </trkpt>
      <trkpt lat="43.80521" lon="7.16885">
        <ele>461.8</ele>
        <time>2011-12-28T10:10:35Z</time>
      </trkpt>
      <trkpt lat="43.80525" lon="7.16877">
        <ele>462.5</ele>
        <time>2011-12-28T10:10:37Z</time>
      </trkpt>
      <trkpt lat="43.80529" lon="7.16868">
        <ele>462.5</ele>
        <time>2011-12-28T10:10:39Z</time>
      </trkpt>
      <trkpt lat="43.80534" lon="7.1686">
        <ele>462.5</ele>
        <time>2011-12-28T10:10:41Z</time>
      </trkpt>
      <trkpt lat="43.80537" lon="7.16851">
        <ele>462.7</ele>
        <time>2011-12-28T10:10:43Z</time>
      </trkpt>
      <trkpt lat="43.8054" lon="7.16842">
        <ele>463.3</ele>
        <time>2011-12-28T10:10:45Z</time>
      </trkpt>
      <trkpt lat="43.80542" lon="7.16832">
        <ele>463.7</ele>
        <time>2011-12-28T10:10:47Z</time>
      </trkpt>
      <trkpt lat="43.80543" lon="7.16823">
        <ele>463.8</ele>
        <time>2011-12-28T10:10:49Z</time>
      </trkpt>
      <trkpt lat="43.80545" lon="7.16813">
        <ele>464.3</ele>
        <time>2011-12-28T10:10:51Z</time>
      </trkpt>
      <trkpt lat="43.80547" lon="7.16803">
        <ele>463.8</ele>
        <time>2011-12-28T10:10:53Z</time>
      </trkpt>
      <trkpt lat="43.80549" lon="7.16794">
        <ele>463.3</ele>
        <time>2011-12-28T10:10:55Z</time>
      </trkpt>
      <trkpt lat="43.8055" lon="7.16784">
        <ele>463.6</ele>
        <time>2011-12-28T10:10:57Z</time>
      </trkpt>
      <trkpt lat="43.80552" lon="7.16775">
        <ele>463.6</ele>
        <time>2011-12-28T10:10:59Z</time>
      </trkpt>
      <trkpt lat="43.80553" lon="7.16766">
        <ele>463.1</ele>
        <time>2011-12-28T10:11:01Z</time>
      </trkpt>
      <trkpt lat="43.80555" lon="7.16758">
        <ele>463</ele>
        <time>2011-12-28T10:11:03Z</time>
      </trkpt>
      <trkpt lat="43.80557" lon="7.16749">
        <ele>462.8</ele>
        <time>2011-12-28T10:11:05Z</time>
      </trkpt>
      <trkpt lat="43.80559" lon="7.1674">
        <ele>463.7</ele>
        <time>2011-12-28T10:11:07Z</time>
      </trkpt>
      <trkpt lat="43.80561" lon="7.16732">
        <ele>463.5</ele>
        <time>2011-12-28T10:11:09Z</time>
      </trkpt>
      <trkpt lat="43.80563" lon="7.16723">
        <ele>463.6</ele>
        <time>2011-12-28T10:11:11Z</time>
      </trkpt>
      <trkpt lat="43.80564" lon="7.16718">
        <ele>463.9</ele>
        <time>2011-12-28T10:11:12Z</time>
      </trkpt>
      <trkpt lat="43.80567" lon="7.16705">
        <ele>463.6</ele>
        <time>2011-12-28T10:11:15Z</time>
      </trkpt>
      <trkpt lat="43.80569" lon="7.16695">
        <ele>463.8</ele>
        <time>2011-12-28T10:11:17Z</time>
      </trkpt>
      <trkpt lat="43.80572" lon="7.16685">
        <ele>464.6</ele>
        <time>2011-12-28T10:11:19Z</time>
      </trkpt>
      <trkpt lat="43.80576" lon="7.16677">
        <ele>464.5</ele>
        <time>2011-12-28T10:11:21Z</time>
      </trkpt>
      <trkpt lat="43.80584" lon="7.16673">
        <ele>464.4</ele>
        <time>2011-12-28T10:11:23Z</time>
      </trkpt>
      <trkpt lat="43.80591" lon="7.16674">
        <ele>464.2</ele>
        <time>2011-12-28T10:11:25Z</time>
      </trkpt>
      <trkpt lat="43.80599" lon="7.16675">
        <ele>463.7</ele>
        <time>2011-12-28T10:11:27Z</time>
      </trkpt>
      <trkpt lat="43.80605" lon="7.16678">
        <ele>463.7</ele>
        <time>2011-12-28T10:11:29Z</time>
      </trkpt>
      <trkpt lat="43.80612" lon="7.1668">
        <ele>464.4</ele>
        <time>2011-12-28T10:11:31Z</time>
      </trkpt>
      <trkpt lat="43.80619" lon="7.16682">
        <ele>464.9</ele>
        <time>2011-12-28T10:11:33Z</time>
      </trkpt>
      <trkpt lat="43.80627" lon="7.16684">
        <ele>464.9</ele>
        <time>2011-12-28T10:11:35Z</time>
      </trkpt>
      <trkpt lat="43.80634" lon="7.16684">
        <ele>465.3</ele>
        <time>2011-12-28T10:11:37Z</time>
      </trkpt>
      <trkpt lat="43.80642" lon="7.16681">
        <ele>466</ele>
        <time>2011-12-28T10:11:39Z</time>
      </trkpt>
      <trkpt lat="43.80649" lon="7.16676">
        <ele>465.5</ele>
        <time>2011-12-28T10:11:41Z</time>
      </trkpt>
      <trkpt lat="43.80656" lon="7.16672">
        <ele>465.4</ele>
        <time>2011-12-28T10:11:43Z</time>
      </trkpt>
      <trkpt lat="43.80663" lon="7.16667">
        <ele>465.1</ele>
        <time>2011-12-28T10:11:45Z</time>
      </trkpt>
      <trkpt lat="43.80669" lon="7.16663">
        <ele>465.5</ele>
        <time>2011-12-28T10:11:47Z</time>
      </trkpt>
      <trkpt lat="43.80675" lon="7.1666">
        <ele>465.9</ele>
        <time>2011-12-28T10:11:49Z</time>
      </trkpt>
      <trkpt lat="43.80683" lon="7.16657">
        <ele>465.6</ele>
        <time>2011-12-28T10:11:52Z</time>
      </trkpt>
      <trkpt lat="43.80692" lon="7.16656">
        <ele>465.7</ele>
        <time>2011-12-28T10:11:55Z</time>
      </trkpt>
      <trkpt lat="43.807" lon="7.16658">
        <ele>466.3</ele>
        <time>2011-12-28T10:11:58Z</time>
      </trkpt>
      <trkpt lat="43.80706" lon="7.16663">
        <ele>466.2</ele>
        <time>2011-12-28T10:12:00Z</time>
      </trkpt>
      <trkpt lat="43.80711" lon="7.16668">
        <ele>466.4</ele>
        <time>2011-12-28T10:12:02Z</time>
      </trkpt>
      <trkpt lat="43.80716" lon="7.16674">
        <ele>466.4</ele>
        <time>2011-12-28T10:12:04Z</time>
      </trkpt>
      <trkpt lat="43.8072" lon="7.16679">
        <ele>466.6</ele>
        <time>2011-12-28T10:12:06Z</time>
      </trkpt>
      <trkpt lat="43.80725" lon="7.16685">
        <ele>466.6</ele>
        <time>2011-12-28T10:12:08Z</time>
      </trkpt>
      <trkpt lat="43.8073" lon="7.16691">
        <ele>466.8</ele>
        <time>2011-12-28T10:12:10Z</time>
      </trkpt>
      <trkpt lat="43.80735" lon="7.16697">
        <ele>467.1</ele>
        <time>2011-12-28T10:12:12Z</time>
      </trkpt>
      <trkpt lat="43.80737" lon="7.167">
        <ele>467.1</ele>
        <time>2011-12-28T10:12:13Z</time>
      </trkpt>
      <trkpt lat="43.80747" lon="7.16714">
        <ele>467</ele>
        <time>2011-12-28T10:12:18Z</time>
      </trkpt>
      <trkpt lat="43.80754" lon="7.16722">
        <ele>467.5</ele>
        <time>2011-12-28T10:12:21Z</time>
      </trkpt>
      <trkpt lat="43.80759" lon="7.16727">
        <ele>467.2</ele>
        <time>2011-12-28T10:12:23Z</time>
      </trkpt>
      <trkpt lat="43.80764" lon="7.16732">
        <ele>467.6</ele>
        <time>2011-12-28T10:12:25Z</time>
      </trkpt>
      <trkpt lat="43.80769" lon="7.16737">
        <ele>468</ele>
        <time>2011-12-28T10:12:27Z</time>
      </trkpt>
      <trkpt lat="43.80775" lon="7.16742">
        <ele>468</ele>
        <time>2011-12-28T10:12:29Z</time>
      </trkpt>
      <trkpt lat="43.8078" lon="7.16747">
        <ele>468.1</ele>
        <time>2011-12-28T10:12:31Z</time>
      </trkpt>
      <trkpt lat="43.80786" lon="7.16753">
        <ele>467.9</ele>
        <time>2011-12-28T10:12:33Z</time>
      </trkpt>
      <trkpt lat="43.80792" lon="7.16758">
        <ele>467.6</ele>
        <time>2011-12-28T10:12:35Z</time>
      </trkpt>
      <trkpt lat="43.80798" lon="7.16763">
        <ele>468.4</ele>
        <time>2011-12-28T10:12:37Z</time>
      </trkpt>
      <trkpt lat="43.80804" lon="7.16768">
        <ele>468.7</ele>
        <time>2011-12-28T10:12:39Z</time>
      </trkpt>
      <trkpt lat="43.8081" lon="7.16775">
        <ele>468.9</ele>
        <time>2011-12-28T10:12:41Z</time>
      </trkpt>
      <trkpt lat="43.80816" lon="7.16781">
        <ele>469.2</ele>
        <time>2011-12-28T10:12:43Z</time>
      </trkpt>
      <trkpt lat="43.80821" lon="7.16786">
        <ele>468.6</ele>
        <time>2011-12-28T10:12:45Z</time>
      </trkpt>
      <trkpt lat="43.80827" lon="7.16792">
        <ele>468.5</ele>
        <time>2011-12-28T10:12:47Z</time>
      </trkpt>
      <trkpt lat="43.80832" lon="7.16799">
        <ele>468</ele>
        <time>2011-12-28T10:12:49Z</time>
      </trkpt>
      <trkpt lat="43.80838" lon="7.16806">
        <ele>467.9</ele>
        <time>2011-12-28T10:12:51Z</time>
      </trkpt>
      <trkpt lat="43.80843" lon="7.16812">
        <ele>468.1</ele>
        <time>2011-12-28T10:12:53Z</time>
      </trkpt>
      <trkpt lat="43.80848" lon="7.16819">
        <ele>468.1</ele>
        <time>2011-12-28T10:12:55Z</time>
      </trkpt>
      <trkpt lat="43.80852" lon="7.16826">
        <ele>467.9</ele>
        <time>2011-12-28T10:12:57Z</time>
      </trkpt>
      <trkpt lat="43.80857" lon="7.16832">
        <ele>468</ele>
        <time>2011-12-28T10:12:59Z</time>
      </trkpt>
      <trkpt lat="43.80861" lon="7.16838">
        <ele>467.6</ele>
        <time>2011-12-28T10:13:01Z</time>
      </trkpt>
      <trkpt lat="43.80867" lon="7.16847">
        <ele>468.2</ele>
        <time>2011-12-28T10:13:04Z</time>
      </trkpt>
      <trkpt lat="43.80874" lon="7.16854">
        <ele>468.6</ele>
        <time>2011-12-28T10:13:08Z</time>
      </trkpt>
      <trkpt lat="43.80879" lon="7.16864">
        <ele>469</ele>
        <time>2011-12-28T10:13:12Z</time>
      </trkpt>
      <trkpt lat="43.80885" lon="7.16872">
        <ele>470.3</ele>
        <time>2011-12-28T10:13:22Z</time>
      </trkpt>
      <trkpt lat="43.80885" lon="7.16873">
        <ele>470.4</ele>
        <time>2011-12-28T10:13:23Z</time>
      </trkpt>
      <trkpt lat="43.80892" lon="7.1689">
        <ele>470.8</ele>
        <time>2011-12-28T10:13:33Z</time>
      </trkpt>
      <trkpt lat="43.80899" lon="7.16899">
        <ele>471.3</ele>
        <time>2011-12-28T10:13:37Z</time>
      </trkpt>
      <trkpt lat="43.80905" lon="7.16906">
        <ele>471.1</ele>
        <time>2011-12-28T10:13:41Z</time>
      </trkpt>
      <trkpt lat="43.80912" lon="7.16906">
        <ele>470.8</ele>
        <time>2011-12-28T10:13:44Z</time>
      </trkpt>
      <trkpt lat="43.8092" lon="7.16904">
        <ele>471.4</ele>
        <time>2011-12-28T10:13:47Z</time>
      </trkpt>
      <trkpt lat="43.80928" lon="7.16898">
        <ele>471.4</ele>
        <time>2011-12-28T10:13:51Z</time>
      </trkpt>
      <trkpt lat="43.80934" lon="7.16891">
        <ele>472.1</ele>
        <time>2011-12-28T10:13:55Z</time>
      </trkpt>
      <trkpt lat="43.8094" lon="7.16885">
        <ele>472.7</ele>
        <time>2011-12-28T10:13:59Z</time>
      </trkpt>
      <trkpt lat="43.80945" lon="7.16876">
        <ele>473.2</ele>
        <time>2011-12-28T10:14:03Z</time>
      </trkpt>
      <trkpt lat="43.80949" lon="7.16866">
        <ele>474.3</ele>
        <time>2011-12-28T10:14:07Z</time>
      </trkpt>
      <trkpt lat="43.80953" lon="7.16857">
        <ele>475.7</ele>
        <time>2011-12-28T10:14:11Z</time>
      </trkpt>
      <trkpt lat="43.80959" lon="7.16848">
        <ele>476.4</ele>
        <time>2011-12-28T10:14:15Z</time>
      </trkpt>
      <trkpt lat="43.80962" lon="7.1684">
        <ele>475.9</ele>
        <time>2011-12-28T10:14:18Z</time>
      </trkpt>
      <trkpt lat="43.80967" lon="7.1683">
        <ele>476.1</ele>
        <time>2011-12-28T10:14:21Z</time>
      </trkpt>
      <trkpt lat="43.80973" lon="7.16822">
        <ele>477</ele>
        <time>2011-12-28T10:14:24Z</time>
      </trkpt>
      <trkpt lat="43.80975" lon="7.16819">
        <ele>477.2</ele>
        <time>2011-12-28T10:14:25Z</time>
      </trkpt>
      <trkpt lat="43.80984" lon="7.16807">
        <ele>477.7</ele>
        <time>2011-12-28T10:14:30Z</time>
      </trkpt>
      <trkpt lat="43.80987" lon="7.16797">
        <ele>477.8</ele>
        <time>2011-12-28T10:14:33Z</time>
      </trkpt>
      <trkpt lat="43.80993" lon="7.16789">
        <ele>477.6</ele>
        <time>2011-12-28T10:14:36Z</time>
      </trkpt>
      <trkpt lat="43.80998" lon="7.16781">
        <ele>478.2</ele>
        <time>2011-12-28T10:14:39Z</time>
      </trkpt>
      <trkpt lat="43.81003" lon="7.16774">
        <ele>478.5</ele>
        <time>2011-12-28T10:14:42Z</time>
      </trkpt>
      <trkpt lat="43.81008" lon="7.16767">
        <ele>479.4</ele>
        <time>2011-12-28T10:14:45Z</time>
      </trkpt>
      <trkpt lat="43.81014" lon="7.1676">
        <ele>480</ele>
        <time>2011-12-28T10:14:48Z</time>
      </trkpt>
      <trkpt lat="43.8102" lon="7.16752">
        <ele>479.8</ele>
        <time>2011-12-28T10:14:51Z</time>
      </trkpt>
      <trkpt lat="43.81025" lon="7.16746">
        <ele>480.9</ele>
        <time>2011-12-28T10:14:54Z</time>
      </trkpt>
      <trkpt lat="43.81031" lon="7.16739">
        <ele>481.3</ele>
        <time>2011-12-28T10:14:57Z</time>
      </trkpt>
      <trkpt lat="43.81035" lon="7.16732">
        <ele>482.1</ele>
        <time>2011-12-28T10:15:00Z</time>
      </trkpt>
      <trkpt lat="43.8104" lon="7.16722">
        <ele>483.3</ele>
        <time>2011-12-28T10:15:04Z</time>
      </trkpt>
      <trkpt lat="43.81044" lon="7.16713">
        <ele>484.3</ele>
        <time>2011-12-28T10:15:07Z</time>
      </trkpt>
      <trkpt lat="43.81047" lon="7.16705">
        <ele>483.6</ele>
        <time>2011-12-28T10:15:10Z</time>
      </trkpt>
      <trkpt lat="43.8105" lon="7.16696">
        <ele>484</ele>
        <time>2011-12-28T10:15:13Z</time>
      </trkpt>
      <trkpt lat="43.81054" lon="7.16685">
        <ele>484.8</ele>
        <time>2011-12-28T10:15:17Z</time>
      </trkpt>
      <trkpt lat="43.81058" lon="7.16677">
        <ele>484.2</ele>
        <time>2011-12-28T10:15:20Z</time>
      </trkpt>
      <trkpt lat="43.8106" lon="7.16668">
        <ele>484.7</ele>
        <time>2011-12-28T10:15:23Z</time>
      </trkpt>
      <trkpt lat="43.81063" lon="7.16659">
        <ele>485.1</ele>
        <time>2011-12-28T10:15:26Z</time>
      </trkpt>
      <trkpt lat="43.81064" lon="7.16656">
        <ele>485.1</ele>
        <time>2011-12-28T10:15:27Z</time>
      </trkpt>
      <trkpt lat="43.81069" lon="7.16642">
        <ele>485.9</ele>
        <time>2011-12-28T10:15:32Z</time>
      </trkpt>
      <trkpt lat="43.81075" lon="7.16633">
        <ele>485.6</ele>
        <time>2011-12-28T10:15:36Z</time>
      </trkpt>
      <trkpt lat="43.81081" lon="7.16625">
        <ele>485.9</ele>
        <time>2011-12-28T10:15:40Z</time>
      </trkpt>
      <trkpt lat="43.81088" lon="7.16623">
        <ele>487</ele>
        <time>2011-12-28T10:15:43Z</time>
      </trkpt>
      <trkpt lat="43.81095" lon="7.16622">
        <ele>487.9</ele>
        <time>2011-12-28T10:15:46Z</time>
      </trkpt>
      <trkpt lat="43.81103" lon="7.16619">
        <ele>488.2</ele>
        <time>2011-12-28T10:15:49Z</time>
      </trkpt>
      <trkpt lat="43.81109" lon="7.16616">
        <ele>487.7</ele>
        <time>2011-12-28T10:15:51Z</time>
      </trkpt>
      <trkpt lat="43.81116" lon="7.16612">
        <ele>487.4</ele>
        <time>2011-12-28T10:15:53Z</time>
      </trkpt>
      <trkpt lat="43.81121" lon="7.1661">
        <ele>487.4</ele>
        <time>2011-12-28T10:15:54Z</time>
      </trkpt>
      <trkpt lat="43.81126" lon="7.16609">
        <ele>487.4</ele>
        <time>2011-12-28T10:15:55Z</time>
      </trkpt>
      <trkpt lat="43.8113" lon="7.16609">
        <ele>487.1</ele>
        <time>2011-12-28T10:15:56Z</time>
      </trkpt>
      <trkpt lat="43.81135" lon="7.16608">
        <ele>486.9</ele>
        <time>2011-12-28T10:15:57Z</time>
      </trkpt>
      <trkpt lat="43.8114" lon="7.16607">
        <ele>486.8</ele>
        <time>2011-12-28T10:15:58Z</time>
      </trkpt>
      <trkpt lat="43.81144" lon="7.16606">
        <ele>486.7</ele>
        <time>2011-12-28T10:15:59Z</time>
      </trkpt>
      <trkpt lat="43.81153" lon="7.16604">
        <ele>486.4</ele>
        <time>2011-12-28T10:16:01Z</time>
      </trkpt>
      <trkpt lat="43.81161" lon="7.16601">
        <ele>486.1</ele>
        <time>2011-12-28T10:16:03Z</time>
      </trkpt>
      <trkpt lat="43.81169" lon="7.16598">
        <ele>486.5</ele>
        <time>2011-12-28T10:16:05Z</time>
      </trkpt>
      <trkpt lat="43.81176" lon="7.16595">
        <ele>487</ele>
        <time>2011-12-28T10:16:07Z</time>
      </trkpt>
      <trkpt lat="43.81182" lon="7.16591">
        <ele>487.1</ele>
        <time>2011-12-28T10:16:09Z</time>
      </trkpt>
      <trkpt lat="43.8119" lon="7.16586">
        <ele>487.6</ele>
        <time>2011-12-28T10:16:12Z</time>
      </trkpt>
      <trkpt lat="43.81197" lon="7.1658">
        <ele>487.6</ele>
        <time>2011-12-28T10:16:15Z</time>
      </trkpt>
      <trkpt lat="43.81205" lon="7.16575">
        <ele>487.7</ele>
        <time>2011-12-28T10:16:18Z</time>
      </trkpt>
      <trkpt lat="43.81212" lon="7.16572">
        <ele>488</ele>
        <time>2011-12-28T10:16:21Z</time>
      </trkpt>
      <trkpt lat="43.81219" lon="7.16568">
        <ele>488.7</ele>
        <time>2011-12-28T10:16:24Z</time>
      </trkpt>
      <trkpt lat="43.81226" lon="7.16566">
        <ele>489.7</ele>
        <time>2011-12-28T10:16:27Z</time>
      </trkpt>
      <trkpt lat="43.81233" lon="7.16566">
        <ele>490.6</ele>
        <time>2011-12-28T10:16:30Z</time>
      </trkpt>
      <trkpt lat="43.81236" lon="7.16567">
        <ele>490.4</ele>
        <time>2011-12-28T10:16:31Z</time>
      </trkpt>
      <trkpt lat="43.81248" lon="7.16573">
        <ele>490.6</ele>
        <time>2011-12-28T10:16:36Z</time>
      </trkpt>
      <trkpt lat="43.81256" lon="7.16575">
        <ele>490.9</ele>
        <time>2011-12-28T10:16:39Z</time>
      </trkpt>
      <trkpt lat="43.81264" lon="7.16576">
        <ele>492</ele>
        <time>2011-12-28T10:16:43Z</time>
      </trkpt>
      <trkpt lat="43.81273" lon="7.16575">
        <ele>493.4</ele>
        <time>2011-12-28T10:16:47Z</time>
      </trkpt>
      <trkpt lat="43.8128" lon="7.16573">
        <ele>494.5</ele>
        <time>2011-12-28T10:16:51Z</time>
      </trkpt>
      <trkpt lat="43.81287" lon="7.16571">
        <ele>495.4</ele>
        <time>2011-12-28T10:16:55Z</time>
      </trkpt>
      <trkpt lat="43.81296" lon="7.16568">
        <ele>496.5</ele>
        <time>2011-12-28T10:17:00Z</time>
      </trkpt>
      <trkpt lat="43.81304" lon="7.16563">
        <ele>497.7</ele>
        <time>2011-12-28T10:17:05Z</time>
      </trkpt>
      <trkpt lat="43.8131" lon="7.16558">
        <ele>498.9</ele>
        <time>2011-12-28T10:17:10Z</time>
      </trkpt>
      <trkpt lat="43.81318" lon="7.16554">
        <ele>499.6</ele>
        <time>2011-12-28T10:17:14Z</time>
      </trkpt>
      <trkpt lat="43.81326" lon="7.16549">
        <ele>499.5</ele>
        <time>2011-12-28T10:17:18Z</time>
      </trkpt>
      <trkpt lat="43.81332" lon="7.16544">
        <ele>500.1</ele>
        <time>2011-12-28T10:17:21Z</time>
      </trkpt>
      <trkpt lat="43.81339" lon="7.1654">
        <ele>500.4</ele>
        <time>2011-12-28T10:17:25Z</time>
      </trkpt>
      <trkpt lat="43.81347" lon="7.1654">
        <ele>502</ele>
        <time>2011-12-28T10:17:30Z</time>
      </trkpt>
      <trkpt lat="43.81356" lon="7.16544">
        <ele>502.2</ele>
        <time>2011-12-28T10:17:35Z</time>
      </trkpt>
      <trkpt lat="43.81357" lon="7.16545">
        <ele>502.7</ele>
        <time>2011-12-28T10:17:36Z</time>
      </trkpt>
      <trkpt lat="43.81372" lon="7.16542">
        <ele>504.1</ele>
        <time>2011-12-28T10:18:14Z</time>
      </trkpt>
      <trkpt lat="43.8138" lon="7.16543">
        <ele>505.8</ele>
        <time>2011-12-28T10:18:21Z</time>
      </trkpt>
      <trkpt lat="43.81389" lon="7.16539">
        <ele>508.3</ele>
        <time>2011-12-28T10:18:31Z</time>
      </trkpt>
      <trkpt lat="43.81396" lon="7.16534">
        <ele>510.9</ele>
        <time>2011-12-28T10:18:40Z</time>
      </trkpt>
      <trkpt lat="43.81397" lon="7.16534">
        <ele>511.1</ele>
        <time>2011-12-28T10:18:41Z</time>
      </trkpt>
      <trkpt lat="43.81413" lon="7.16527">
        <ele>514.5</ele>
        <time>2011-12-28T10:18:57Z</time>
      </trkpt>
      <trkpt lat="43.81422" lon="7.16525">
        <ele>516.7</ele>
        <time>2011-12-28T10:19:23Z</time>
      </trkpt>
      <trkpt lat="43.8143" lon="7.16529">
        <ele>518.2</ele>
        <time>2011-12-28T10:23:07Z</time>
      </trkpt>
      <trkpt lat="43.81431" lon="7.16529">
        <ele>518</ele>
        <time>2011-12-28T10:23:08Z</time>
      </trkpt>
      <trkpt lat="43.81445" lon="7.16522">
        <ele>519.3</ele>
        <time>2011-12-28T10:23:17Z</time>
      </trkpt>
      <trkpt lat="43.81451" lon="7.16516">
        <ele>520.6</ele>
        <time>2011-12-28T10:23:22Z</time>
      </trkpt>
      <trkpt lat="43.81458" lon="7.1651">
        <ele>521.1</ele>
        <time>2011-12-28T10:23:27Z</time>
      </trkpt>
      <trkpt lat="43.81466" lon="7.16504">
        <ele>522.2</ele>
        <time>2011-12-28T10:23:33Z</time>
      </trkpt>
      <trkpt lat="43.81474" lon="7.165">
        <ele>523.6</ele>
        <time>2011-12-28T10:23:39Z</time>
      </trkpt>
      <trkpt lat="43.81482" lon="7.16498">
        <ele>524.4</ele>
        <time>2011-12-28T10:23:45Z</time>
      </trkpt>
      <trkpt lat="43.8149" lon="7.16496">
        <ele>526.7</ele>
        <time>2011-12-28T10:23:57Z</time>
      </trkpt>
      <trkpt lat="43.81498" lon="7.16497">
        <ele>528.2</ele>
        <time>2011-12-28T10:24:03Z</time>
      </trkpt>
      <trkpt lat="43.81506" lon="7.16496">
        <ele>528.4</ele>
        <time>2011-12-28T10:24:10Z</time>
      </trkpt>
      <trkpt lat="43.81507" lon="7.16496">
        <ele>528.4</ele>
        <time>2011-12-28T10:24:11Z</time>
      </trkpt>
      <trkpt lat="43.81522" lon="7.16495">
        <ele>530.9</ele>
        <time>2011-12-28T10:24:22Z</time>
      </trkpt>
      <trkpt lat="43.8153" lon="7.16491">
        <ele>531.6</ele>
        <time>2011-12-28T10:24:28Z</time>
      </trkpt>
      <trkpt lat="43.81538" lon="7.16488">
        <ele>533.3</ele>
        <time>2011-12-28T10:24:34Z</time>
      </trkpt>
      <trkpt lat="43.81546" lon="7.16483">
        <ele>534.4</ele>
        <time>2011-12-28T10:24:40Z</time>
      </trkpt>
      <trkpt lat="43.81553" lon="7.16477">
        <ele>535.8</ele>
        <time>2011-12-28T10:24:49Z</time>
      </trkpt>
      <trkpt lat="43.8156" lon="7.16473">
        <ele>537.1</ele>
        <time>2011-12-28T10:24:53Z</time>
      </trkpt>
      <trkpt lat="43.81567" lon="7.16467">
        <ele>537.5</ele>
        <time>2011-12-28T10:24:57Z</time>
      </trkpt>
      <trkpt lat="43.81573" lon="7.16463">
        <ele>537.6</ele>
        <time>2011-12-28T10:25:00Z</time>
      </trkpt>
      <trkpt lat="43.81579" lon="7.16458">
        <ele>537.8</ele>
        <time>2011-12-28T10:25:03Z</time>
      </trkpt>
      <trkpt lat="43.81586" lon="7.16453">
        <ele>537.8</ele>
        <time>2011-12-28T10:25:06Z</time>
      </trkpt>
      <trkpt lat="43.81593" lon="7.16449">
        <ele>537.8</ele>
        <time>2011-12-28T10:25:09Z</time>
      </trkpt>
      <trkpt lat="43.816" lon="7.16445">
        <ele>538</ele>
        <time>2011-12-28T10:25:12Z</time>
      </trkpt>
      <trkpt lat="43.81602" lon="7.16443">
        <ele>538.4</ele>
        <time>2011-12-28T10:25:13Z</time>
      </trkpt>
      <trkpt lat="43.81613" lon="7.16435">
        <ele>539.2</ele>
        <time>2011-12-28T10:25:18Z</time>
      </trkpt>
      <trkpt lat="43.81619" lon="7.1643">
        <ele>539</ele>
        <time>2011-12-28T10:25:21Z</time>
      </trkpt>
      <trkpt lat="43.81626" lon="7.16424">
        <ele>538.9</ele>
        <time>2011-12-28T10:25:25Z</time>
      </trkpt>
      <trkpt lat="43.81633" lon="7.16418">
        <ele>539.5</ele>
        <time>2011-12-28T10:25:29Z</time>
      </trkpt>
      <trkpt lat="43.8164" lon="7.16413">
        <ele>541.7</ele>
        <time>2011-12-28T10:25:34Z</time>
      </trkpt>
      <trkpt lat="43.81647" lon="7.16406">
        <ele>542.7</ele>
        <time>2011-12-28T10:25:40Z</time>
      </trkpt>
      <trkpt lat="43.81649" lon="7.16394">
        <ele>545.1</ele>
        <time>2011-12-28T10:25:46Z</time>
      </trkpt>
      <trkpt lat="43.81652" lon="7.16383">
        <ele>547.1</ele>
        <time>2011-12-28T10:25:52Z</time>
      </trkpt>
      <trkpt lat="43.81653" lon="7.16372">
        <ele>548.5</ele>
        <time>2011-12-28T10:25:58Z</time>
      </trkpt>
      <trkpt lat="43.81654" lon="7.16361">
        <ele>548.9</ele>
        <time>2011-12-28T10:26:04Z</time>
      </trkpt>
      <trkpt lat="43.81652" lon="7.1635">
        <ele>550.7</ele>
        <time>2011-12-28T10:26:10Z</time>
      </trkpt>
      <trkpt lat="43.81652" lon="7.16338">
        <ele>552.5</ele>
        <time>2011-12-28T10:26:16Z</time>
      </trkpt>
      <trkpt lat="43.81653" lon="7.16336">
        <ele>552.7</ele>
        <time>2011-12-28T10:26:17Z</time>
      </trkpt>
      <trkpt lat="43.81664" lon="7.16322">
        <ele>553.8</ele>
        <time>2011-12-28T10:26:24Z</time>
      </trkpt>
      <trkpt lat="43.81671" lon="7.1632">
        <ele>554.5</ele>
        <time>2011-12-28T10:26:28Z</time>
      </trkpt>
      <trkpt lat="43.81679" lon="7.16318">
        <ele>555.6</ele>
        <time>2011-12-28T10:26:33Z</time>
      </trkpt>
      <trkpt lat="43.81688" lon="7.16315">
        <ele>556.1</ele>
        <time>2011-12-28T10:26:38Z</time>
      </trkpt>
      <trkpt lat="43.81693" lon="7.16307">
        <ele>556.2</ele>
        <time>2011-12-28T10:26:42Z</time>
      </trkpt>
      <trkpt lat="43.81698" lon="7.16298">
        <ele>556.2</ele>
        <time>2011-12-28T10:26:46Z</time>
      </trkpt>
      <trkpt lat="43.81701" lon="7.16288">
        <ele>556.2</ele>
        <time>2011-12-28T10:26:50Z</time>
      </trkpt>
      <trkpt lat="43.81703" lon="7.16277">
        <ele>556.9</ele>
        <time>2011-12-28T10:26:55Z</time>
      </trkpt>
      <trkpt lat="43.81704" lon="7.16264">
        <ele>558</ele>
        <time>2011-12-28T10:27:00Z</time>
      </trkpt>
      <trkpt lat="43.81704" lon="7.16252">
        <ele>559.3</ele>
        <time>2011-12-28T10:27:06Z</time>
      </trkpt>
      <trkpt lat="43.81704" lon="7.16241">
        <ele>562</ele>
        <time>2011-12-28T10:27:12Z</time>
      </trkpt>
      <trkpt lat="43.81706" lon="7.1623">
        <ele>563.8</ele>
        <time>2011-12-28T10:27:18Z</time>
      </trkpt>
      <trkpt lat="43.81707" lon="7.16228">
        <ele>564.5</ele>
        <time>2011-12-28T10:27:19Z</time>
      </trkpt>
      <trkpt lat="43.81715" lon="7.1621">
        <ele>567.6</ele>
        <time>2011-12-28T10:27:30Z</time>
      </trkpt>
      <trkpt lat="43.81718" lon="7.16198">
        <ele>569.4</ele>
        <time>2011-12-28T10:27:37Z</time>
      </trkpt>
      <trkpt lat="43.81718" lon="7.16186">
        <ele>570.7</ele>
        <time>2011-12-28T10:27:44Z</time>
      </trkpt>
      <trkpt lat="43.81717" lon="7.16175">
        <ele>571.4</ele>
        <time>2011-12-28T10:27:50Z</time>
      </trkpt>
      <trkpt lat="43.81714" lon="7.16163">
        <ele>572</ele>
        <time>2011-12-28T10:27:56Z</time>
      </trkpt>
      <trkpt lat="43.81713" lon="7.16152">
        <ele>572.7</ele>
        <time>2011-12-28T10:28:02Z</time>
      </trkpt>
      <trkpt lat="43.81711" lon="7.16142">
        <ele>573.9</ele>
        <time>2011-12-28T10:28:08Z</time>
      </trkpt>
      <trkpt lat="43.8171" lon="7.16131">
        <ele>575.6</ele>
        <time>2011-12-28T10:28:14Z</time>
      </trkpt>
      <trkpt lat="43.8171" lon="7.1612">
        <ele>577.7</ele>
        <time>2011-12-28T10:28:20Z</time>
      </trkpt>
      <trkpt lat="43.8171" lon="7.16118">
        <ele>577.3</ele>
        <time>2011-12-28T10:28:21Z</time>
      </trkpt>
      <trkpt lat="43.81707" lon="7.16098">
        <ele>578.8</ele>
        <time>2011-12-28T10:28:32Z</time>
      </trkpt>
      <trkpt lat="43.81703" lon="7.16088">
        <ele>579.8</ele>
        <time>2011-12-28T10:28:38Z</time>
      </trkpt>
      <trkpt lat="43.81699" lon="7.16077">
        <ele>581.1</ele>
        <time>2011-12-28T10:28:45Z</time>
      </trkpt>
      <trkpt lat="43.81695" lon="7.16067">
        <ele>583</ele>
        <time>2011-12-28T10:28:52Z</time>
      </trkpt>
      <trkpt lat="43.81693" lon="7.16056">
        <ele>585.2</ele>
        <time>2011-12-28T10:28:59Z</time>
      </trkpt>
      <trkpt lat="43.8169" lon="7.16045">
        <ele>585.9</ele>
        <time>2011-12-28T10:29:06Z</time>
      </trkpt>
      <trkpt lat="43.81684" lon="7.16053">
        <ele>587.2</ele>
        <time>2011-12-28T10:29:16Z</time>
      </trkpt>
      <trkpt lat="43.81683" lon="7.16064">
        <ele>588.7</ele>
        <time>2011-12-28T10:29:23Z</time>
      </trkpt>
      <trkpt lat="43.81682" lon="7.16065">
        <ele>588.8</ele>
        <time>2011-12-28T10:29:24Z</time>
      </trkpt>
      <trkpt lat="43.81673" lon="7.16049">
        <ele>590.7</ele>
        <time>2011-12-28T10:29:41Z</time>
      </trkpt>
      <trkpt lat="43.81671" lon="7.16039">
        <ele>591.4</ele>
        <time>2011-12-28T10:29:47Z</time>
      </trkpt>
      <trkpt lat="43.81669" lon="7.16028">
        <ele>592.4</ele>
        <time>2011-12-28T10:29:53Z</time>
      </trkpt>
      <trkpt lat="43.81667" lon="7.16016">
        <ele>593.5</ele>
        <time>2011-12-28T10:29:59Z</time>
      </trkpt>
      <trkpt lat="43.81666" lon="7.16004">
        <ele>594.7</ele>
        <time>2011-12-28T10:30:06Z</time>
      </trkpt>
      <trkpt lat="43.81664" lon="7.15992">
        <ele>596.7</ele>
        <time>2011-12-28T10:30:13Z</time>
      </trkpt>
      <trkpt lat="43.81661" lon="7.15981">
        <ele>598.1</ele>
        <time>2011-12-28T10:30:20Z</time>
      </trkpt>
      <trkpt lat="43.81656" lon="7.15971">
        <ele>599</ele>
        <time>2011-12-28T10:30:27Z</time>
      </trkpt>
      <trkpt lat="43.81655" lon="7.1597">
        <ele>599.3</ele>
        <time>2011-12-28T10:30:28Z</time>
      </trkpt>
      <trkpt lat="43.81643" lon="7.15955">
        <ele>601.6</ele>
        <time>2011-12-28T10:30:41Z</time>
      </trkpt>
      <trkpt lat="43.81638" lon="7.15947">
        <ele>602.7</ele>
        <time>2011-12-28T10:30:48Z</time>
      </trkpt>
      <trkpt lat="43.81633" lon="7.15938">
        <ele>604.1</ele>
        <time>2011-12-28T10:30:54Z</time>
      </trkpt>
      <trkpt lat="43.8163" lon="7.15928">
        <ele>605.9</ele>
        <time>2011-12-28T10:31:00Z</time>
      </trkpt>
      <trkpt lat="43.81626" lon="7.15917">
        <ele>607.4</ele>
        <time>2011-12-28T10:31:06Z</time>
      </trkpt>
      <trkpt lat="43.81622" lon="7.15907">
        <ele>608.2</ele>
        <time>2011-12-28T10:31:11Z</time>
      </trkpt>
      <trkpt lat="43.81618" lon="7.15897">
        <ele>608.8</ele>
        <time>2011-12-28T10:31:16Z</time>
      </trkpt>
      <trkpt lat="43.81614" lon="7.15886">
        <ele>609.6</ele>
        <time>2011-12-28T10:31:21Z</time>
      </trkpt>
      <trkpt lat="43.8161" lon="7.15875">
        <ele>609.5</ele>
        <time>2011-12-28T10:31:26Z</time>
      </trkpt>
      <trkpt lat="43.81607" lon="7.15866">
        <ele>609.7</ele>
        <time>2011-12-28T10:31:30Z</time>
      </trkpt>
      <trkpt lat="43.81606" lon="7.15864">
        <ele>609.6</ele>
        <time>2011-12-28T10:31:31Z</time>
      </trkpt>
      <trkpt lat="43.81599" lon="7.15846">
        <ele>609.5</ele>
        <time>2011-12-28T10:31:38Z</time>
      </trkpt>
      <trkpt lat="43.81594" lon="7.15835">
        <ele>610.1</ele>
        <time>2011-12-28T10:31:42Z</time>
      </trkpt>
      <trkpt lat="43.81591" lon="7.15825">
        <ele>610</ele>
        <time>2011-12-28T10:31:46Z</time>
      </trkpt>
      <trkpt lat="43.81586" lon="7.15817">
        <ele>610.2</ele>
        <time>2011-12-28T10:31:50Z</time>
      </trkpt>
      <trkpt lat="43.81578" lon="7.1581">
        <ele>611.1</ele>
        <time>2011-12-28T10:31:55Z</time>
      </trkpt>
      <trkpt lat="43.81571" lon="7.15805">
        <ele>612.3</ele>
        <time>2011-12-28T10:32:00Z</time>
      </trkpt>
      <trkpt lat="43.81562" lon="7.15802">
        <ele>612.9</ele>
        <time>2011-12-28T10:32:05Z</time>
      </trkpt>
      <trkpt lat="43.81554" lon="7.15797">
        <ele>613.5</ele>
        <time>2011-12-28T10:32:10Z</time>
      </trkpt>
      <trkpt lat="43.81547" lon="7.15792">
        <ele>614.3</ele>
        <time>2011-12-28T10:32:15Z</time>
      </trkpt>
      <trkpt lat="43.8154" lon="7.15785">
        <ele>614.5</ele>
        <time>2011-12-28T10:32:21Z</time>
      </trkpt>
      <trkpt lat="43.81533" lon="7.15777">
        <ele>615.6</ele>
        <time>2011-12-28T10:32:28Z</time>
      </trkpt>
      <trkpt lat="43.81528" lon="7.1577">
        <ele>616.6</ele>
        <time>2011-12-28T10:32:34Z</time>
      </trkpt>
      <trkpt lat="43.81527" lon="7.15768">
        <ele>617.1</ele>
        <time>2011-12-28T10:32:35Z</time>
      </trkpt>
      <trkpt lat="43.81517" lon="7.1575">
        <ele>620.1</ele>
        <time>2011-12-28T10:32:48Z</time>
      </trkpt>
      <trkpt lat="43.81513" lon="7.1574">
        <ele>622.4</ele>
        <time>2011-12-28T10:32:56Z</time>
      </trkpt>
      <trkpt lat="43.8151" lon="7.1573">
        <ele>624.8</ele>
        <time>2011-12-28T10:33:03Z</time>
      </trkpt>
      <trkpt lat="43.81507" lon="7.1572">
        <ele>625.8</ele>
        <time>2011-12-28T10:33:10Z</time>
      </trkpt>
      <trkpt lat="43.81501" lon="7.1571">
        <ele>627.3</ele>
        <time>2011-12-28T10:33:17Z</time>
      </trkpt>
      <trkpt lat="43.81498" lon="7.15699">
        <ele>628.9</ele>
        <time>2011-12-28T10:33:23Z</time>
      </trkpt>
      <trkpt lat="43.81495" lon="7.15688">
        <ele>629.8</ele>
        <time>2011-12-28T10:33:30Z</time>
      </trkpt>
      <trkpt lat="43.8149" lon="7.15678">
        <ele>631.1</ele>
        <time>2011-12-28T10:33:36Z</time>
      </trkpt>
      <trkpt lat="43.81489" lon="7.15677">
        <ele>631.4</ele>
        <time>2011-12-28T10:33:37Z</time>
      </trkpt>
      <trkpt lat="43.81479" lon="7.1566">
        <ele>632.4</ele>
        <time>2011-12-28T10:33:49Z</time>
      </trkpt>
      <trkpt lat="43.81475" lon="7.1565">
        <ele>633.4</ele>
        <time>2011-12-28T10:33:54Z</time>
      </trkpt>
      <trkpt lat="43.81469" lon="7.15643">
        <ele>633.5</ele>
        <time>2011-12-28T10:34:00Z</time>
      </trkpt>
      <trkpt lat="43.81464" lon="7.15635">
        <ele>634</ele>
        <time>2011-12-28T10:34:05Z</time>
      </trkpt>
      <trkpt lat="43.81458" lon="7.15627">
        <ele>635.5</ele>
        <time>2011-12-28T10:34:10Z</time>
      </trkpt>
      <trkpt lat="43.81454" lon="7.15619">
        <ele>635.7</ele>
        <time>2011-12-28T10:34:15Z</time>
      </trkpt>
      <trkpt lat="43.81449" lon="7.15609">
        <ele>636.7</ele>
        <time>2011-12-28T10:34:21Z</time>
      </trkpt>
      <trkpt lat="43.81445" lon="7.15598">
        <ele>636.6</ele>
        <time>2011-12-28T10:34:28Z</time>
      </trkpt>
      <trkpt lat="43.81442" lon="7.15588">
        <ele>638.2</ele>
        <time>2011-12-28T10:34:35Z</time>
      </trkpt>
      <trkpt lat="43.81435" lon="7.1558">
        <ele>639.4</ele>
        <time>2011-12-28T10:39:15Z</time>
      </trkpt>
      <trkpt lat="43.81435" lon="7.15578">
        <ele>639.3</ele>
        <time>2011-12-28T10:39:16Z</time>
      </trkpt>
      <trkpt lat="43.81424" lon="7.15563">
        <ele>640.3</ele>
        <time>2011-12-28T10:39:26Z</time>
      </trkpt>
      <trkpt lat="43.81417" lon="7.15559">
        <ele>641</ele>
        <time>2011-12-28T10:39:31Z</time>
      </trkpt>
      <trkpt lat="43.81408" lon="7.15557">
        <ele>641.2</ele>
        <time>2011-12-28T10:39:37Z</time>
      </trkpt>
      <trkpt lat="43.814" lon="7.15557">
        <ele>642.9</ele>
        <time>2011-12-28T10:39:43Z</time>
      </trkpt>
      <trkpt lat="43.81392" lon="7.15556">
        <ele>644.3</ele>
        <time>2011-12-28T10:39:49Z</time>
      </trkpt>
      <trkpt lat="43.81383" lon="7.15557">
        <ele>645.2</ele>
        <time>2011-12-28T10:39:56Z</time>
      </trkpt>
      <trkpt lat="43.81375" lon="7.15559">
        <ele>646.8</ele>
        <time>2011-12-28T10:40:03Z</time>
      </trkpt>
      <trkpt lat="43.81368" lon="7.15559">
        <ele>647.9</ele>
        <time>2011-12-28T10:40:10Z</time>
      </trkpt>
      <trkpt lat="43.81371" lon="7.15549">
        <ele>649.4</ele>
        <time>2011-12-28T10:40:22Z</time>
      </trkpt>
      <trkpt lat="43.81372" lon="7.15548">
        <ele>649.4</ele>
        <time>2011-12-28T10:40:23Z</time>
      </trkpt>
      <trkpt lat="43.81386" lon="7.15539">
        <ele>651.8</ele>
        <time>2011-12-28T10:40:36Z</time>
      </trkpt>
      <trkpt lat="43.81392" lon="7.1553">
        <ele>653</ele>
        <time>2011-12-28T10:40:47Z</time>
      </trkpt>
      <trkpt lat="43.81398" lon="7.15521">
        <ele>654.5</ele>
        <time>2011-12-28T10:40:58Z</time>
      </trkpt>
      <trkpt lat="43.81402" lon="7.1551">
        <ele>656.4</ele>
        <time>2011-12-28T10:41:22Z</time>
      </trkpt>
      <trkpt lat="43.81407" lon="7.15501">
        <ele>657.7</ele>
        <time>2011-12-28T10:41:29Z</time>
      </trkpt>
      <trkpt lat="43.81408" lon="7.15499">
        <ele>657.7</ele>
        <time>2011-12-28T10:41:30Z</time>
      </trkpt>
      <trkpt lat="43.81415" lon="7.15481">
        <ele>660.7</ele>
        <time>2011-12-28T10:41:45Z</time>
      </trkpt>
      <trkpt lat="43.81419" lon="7.15469">
        <ele>663.4</ele>
        <time>2011-12-28T10:42:18Z</time>
      </trkpt>
      <trkpt lat="43.8142" lon="7.15457">
        <ele>662.9</ele>
        <time>2011-12-28T10:42:25Z</time>
      </trkpt>
      <trkpt lat="43.81419" lon="7.15445">
        <ele>665.7</ele>
        <time>2011-12-28T10:42:38Z</time>
      </trkpt>
      <trkpt lat="43.8142" lon="7.15444">
        <ele>665.9</ele>
        <time>2011-12-28T10:42:39Z</time>
      </trkpt>
      <trkpt lat="43.81423" lon="7.15423">
        <ele>667.8</ele>
        <time>2011-12-28T10:43:00Z</time>
      </trkpt>
      <trkpt lat="43.81423" lon="7.15412">
        <ele>669.3</ele>
        <time>2011-12-28T10:43:06Z</time>
      </trkpt>
      <trkpt lat="43.81424" lon="7.15401">
        <ele>669.9</ele>
        <time>2011-12-28T10:43:12Z</time>
      </trkpt>
      <trkpt lat="43.81425" lon="7.15389">
        <ele>671.5</ele>
        <time>2011-12-28T10:43:19Z</time>
      </trkpt>
      <trkpt lat="43.81428" lon="7.15379">
        <ele>672.2</ele>
        <time>2011-12-28T10:43:25Z</time>
      </trkpt>
      <trkpt lat="43.81432" lon="7.15368">
        <ele>673.3</ele>
        <time>2011-12-28T10:43:32Z</time>
      </trkpt>
      <trkpt lat="43.81437" lon="7.1536">
        <ele>674</ele>
        <time>2011-12-28T10:43:39Z</time>
      </trkpt>
      <trkpt lat="43.81438" lon="7.15359">
        <ele>674</ele>
        <time>2011-12-28T10:43:40Z</time>
      </trkpt>
      <trkpt lat="43.81444" lon="7.15338">
        <ele>676.4</ele>
        <time>2011-12-28T10:43:54Z</time>
      </trkpt>
      <trkpt lat="43.81445" lon="7.15326">
        <ele>677.1</ele>
        <time>2011-12-28T10:44:01Z</time>
      </trkpt>
      <trkpt lat="43.81444" lon="7.15315">
        <ele>678.8</ele>
        <time>2011-12-28T10:44:11Z</time>
      </trkpt>
      <trkpt lat="43.81442" lon="7.15304">
        <ele>679</ele>
        <time>2011-12-28T10:44:17Z</time>
      </trkpt>
      <trkpt lat="43.81442" lon="7.15292">
        <ele>680.3</ele>
        <time>2011-12-28T10:44:24Z</time>
      </trkpt>
      <trkpt lat="43.81442" lon="7.1528">
        <ele>682.2</ele>
        <time>2011-12-28T10:44:31Z</time>
      </trkpt>
      <trkpt lat="43.81443" lon="7.15269">
        <ele>683.1</ele>
        <time>2011-12-28T10:44:38Z</time>
      </trkpt>
      <trkpt lat="43.81446" lon="7.15257">
        <ele>684.3</ele>
        <time>2011-12-28T10:44:45Z</time>
      </trkpt>
      <trkpt lat="43.81447" lon="7.15255">
        <ele>684.2</ele>
        <time>2011-12-28T10:44:46Z</time>
      </trkpt>
      <trkpt lat="43.81455" lon="7.15236">
        <ele>685.7</ele>
        <time>2011-12-28T10:44:57Z</time>
      </trkpt>
      <trkpt lat="43.81457" lon="7.15224">
        <ele>686.7</ele>
        <time>2011-12-28T10:45:03Z</time>
      </trkpt>
      <trkpt lat="43.81458" lon="7.15212">
        <ele>688.1</ele>
        <time>2011-12-28T10:45:11Z</time>
      </trkpt>
      <trkpt lat="43.81458" lon="7.152">
        <ele>688.1</ele>
        <time>2011-12-28T10:45:18Z</time>
      </trkpt>
      <trkpt lat="43.81458" lon="7.15188">
        <ele>688.2</ele>
        <time>2011-12-28T10:45:23Z</time>
      </trkpt>
      <trkpt lat="43.81459" lon="7.15176">
        <ele>689.2</ele>
        <time>2011-12-28T10:45:28Z</time>
      </trkpt>
      <trkpt lat="43.8146" lon="7.15166">
        <ele>689</ele>
        <time>2011-12-28T10:45:32Z</time>
      </trkpt>
      <trkpt lat="43.81461" lon="7.15156">
        <ele>689.3</ele>
        <time>2011-12-28T10:45:36Z</time>
      </trkpt>
      <trkpt lat="43.81461" lon="7.15145">
        <ele>690</ele>
        <time>2011-12-28T10:45:40Z</time>
      </trkpt>
      <trkpt lat="43.81462" lon="7.15135">
        <ele>690</ele>
        <time>2011-12-28T10:45:44Z</time>
      </trkpt>
      <trkpt lat="43.81462" lon="7.15125">
        <ele>690.5</ele>
        <time>2011-12-28T10:45:48Z</time>
      </trkpt>
      <trkpt lat="43.81463" lon="7.15122">
        <ele>690.6</ele>
        <time>2011-12-28T10:45:49Z</time>
      </trkpt>
      <trkpt lat="43.81465" lon="7.15103">
        <ele>690.8</ele>
        <time>2011-12-28T10:45:56Z</time>
      </trkpt>
      <trkpt lat="43.81468" lon="7.15093">
        <ele>691.1</ele>
        <time>2011-12-28T10:46:00Z</time>
      </trkpt>
      <trkpt lat="43.81472" lon="7.15083">
        <ele>691.3</ele>
        <time>2011-12-28T10:46:04Z</time>
      </trkpt>
      <trkpt lat="43.81473" lon="7.15073">
        <ele>692</ele>
        <time>2011-12-28T10:46:08Z</time>
      </trkpt>
      <trkpt lat="43.81476" lon="7.15063">
        <ele>692.2</ele>
        <time>2011-12-28T10:46:12Z</time>
      </trkpt>
      <trkpt lat="43.8148" lon="7.15054">
        <ele>691.7</ele>
        <time>2011-12-28T10:46:16Z</time>
      </trkpt>
      <trkpt lat="43.81483" lon="7.15044">
        <ele>691.4</ele>
        <time>2011-12-28T10:46:20Z</time>
      </trkpt>
      <trkpt lat="43.81485" lon="7.15032">
        <ele>692.3</ele>
        <time>2011-12-28T10:46:25Z</time>
      </trkpt>
      <trkpt lat="43.81489" lon="7.15023">
        <ele>693.1</ele>
        <time>2011-12-28T10:46:30Z</time>
      </trkpt>
      <trkpt lat="43.81493" lon="7.15014">
        <ele>692.6</ele>
        <time>2011-12-28T10:46:34Z</time>
      </trkpt>
      <trkpt lat="43.81496" lon="7.15004">
        <ele>692.1</ele>
        <time>2011-12-28T10:46:37Z</time>
      </trkpt>
      <trkpt lat="43.81497" lon="7.14995">
        <ele>691.9</ele>
        <time>2011-12-28T10:46:40Z</time>
      </trkpt>
      <trkpt lat="43.81498" lon="7.14985">
        <ele>691.5</ele>
        <time>2011-12-28T10:46:43Z</time>
      </trkpt>
      <trkpt lat="43.81498" lon="7.14974">
        <ele>691</ele>
        <time>2011-12-28T10:46:46Z</time>
      </trkpt>
      <trkpt lat="43.81498" lon="7.14965">
        <ele>691.2</ele>
        <time>2011-12-28T10:46:48Z</time>
      </trkpt>
      <trkpt lat="43.81496" lon="7.14954">
        <ele>690.1</ele>
        <time>2011-12-28T10:46:50Z</time>
      </trkpt>
      <trkpt lat="43.81494" lon="7.14942">
        <ele>689.2</ele>
        <time>2011-12-28T10:46:52Z</time>
      </trkpt>
      <trkpt lat="43.81493" lon="7.14937">
        <ele>688.9</ele>
        <time>2011-12-28T10:46:53Z</time>
      </trkpt>
      <trkpt lat="43.81492" lon="7.14923">
        <ele>688.6</ele>
        <time>2011-12-28T10:46:56Z</time>
      </trkpt>
      <trkpt lat="43.8149" lon="7.14914">
        <ele>688.5</ele>
        <time>2011-12-28T10:46:58Z</time>
      </trkpt>
      <trkpt lat="43.81489" lon="7.14905">
        <ele>688.7</ele>
        <time>2011-12-28T10:47:00Z</time>
      </trkpt>
      <trkpt lat="43.81488" lon="7.14893">
        <ele>688.9</ele>
        <time>2011-12-28T10:47:03Z</time>
      </trkpt>
      <trkpt lat="43.81486" lon="7.14882">
        <ele>688.8</ele>
        <time>2011-12-28T10:47:06Z</time>
      </trkpt>
      <trkpt lat="43.81485" lon="7.14873">
        <ele>688.5</ele>
        <time>2011-12-28T10:47:09Z</time>
      </trkpt>
      <trkpt lat="43.81484" lon="7.14863">
        <ele>689</ele>
        <time>2011-12-28T10:47:12Z</time>
      </trkpt>
      <trkpt lat="43.81483" lon="7.14853">
        <ele>689.5</ele>
        <time>2011-12-28T10:47:15Z</time>
      </trkpt>
      <trkpt lat="43.81483" lon="7.14842">
        <ele>690.6</ele>
        <time>2011-12-28T10:47:19Z</time>
      </trkpt>
      <trkpt lat="43.81484" lon="7.1483">
        <ele>691.6</ele>
        <time>2011-12-28T10:47:24Z</time>
      </trkpt>
      <trkpt lat="43.81483" lon="7.1482">
        <ele>692.3</ele>
        <time>2011-12-28T10:47:28Z</time>
      </trkpt>
      <trkpt lat="43.81481" lon="7.14811">
        <ele>692.6</ele>
        <time>2011-12-28T10:47:32Z</time>
      </trkpt>
      <trkpt lat="43.81478" lon="7.148">
        <ele>694</ele>
        <time>2011-12-28T10:47:36Z</time>
      </trkpt>
      <trkpt lat="43.81475" lon="7.14789">
        <ele>694.7</ele>
        <time>2011-12-28T10:47:40Z</time>
      </trkpt>
      <trkpt lat="43.81472" lon="7.14778">
        <ele>694.8</ele>
        <time>2011-12-28T10:47:44Z</time>
      </trkpt>
      <trkpt lat="43.8147" lon="7.14766">
        <ele>694.6</ele>
        <time>2011-12-28T10:47:48Z</time>
      </trkpt>
      <trkpt lat="43.81471" lon="7.14755">
        <ele>694</ele>
        <time>2011-12-28T10:47:52Z</time>
      </trkpt>
      <trkpt lat="43.81472" lon="7.14744">
        <ele>693.3</ele>
        <time>2011-12-28T10:47:55Z</time>
      </trkpt>
      <trkpt lat="43.81472" lon="7.14741">
        <ele>693.1</ele>
        <time>2011-12-28T10:47:56Z</time>
      </trkpt>
      <trkpt lat="43.81474" lon="7.14723">
        <ele>693.7</ele>
        <time>2011-12-28T10:48:01Z</time>
      </trkpt>
      <trkpt lat="43.81475" lon="7.14713">
        <ele>694.3</ele>
        <time>2011-12-28T10:48:04Z</time>
      </trkpt>
      <trkpt lat="43.81474" lon="7.14702">
        <ele>694.3</ele>
        <time>2011-12-28T10:48:07Z</time>
      </trkpt>
      <trkpt lat="43.81474" lon="7.14691">
        <ele>694.2</ele>
        <time>2011-12-28T10:48:10Z</time>
      </trkpt>
      <trkpt lat="43.81473" lon="7.1468">
        <ele>693.9</ele>
        <time>2011-12-28T10:48:13Z</time>
      </trkpt>
      <trkpt lat="43.81473" lon="7.1467">
        <ele>694.4</ele>
        <time>2011-12-28T10:48:16Z</time>
      </trkpt>
      <trkpt lat="43.81472" lon="7.14659">
        <ele>694.1</ele>
        <time>2011-12-28T10:48:19Z</time>
      </trkpt>
      <trkpt lat="43.81472" lon="7.14649">
        <ele>694</ele>
        <time>2011-12-28T10:48:22Z</time>
      </trkpt>
      <trkpt lat="43.8147" lon="7.14638">
        <ele>693.7</ele>
        <time>2011-12-28T10:48:25Z</time>
      </trkpt>
      <trkpt lat="43.81469" lon="7.14628">
        <ele>694.5</ele>
        <time>2011-12-28T10:48:28Z</time>
      </trkpt>
      <trkpt lat="43.81467" lon="7.14617">
        <ele>694.7</ele>
        <time>2011-12-28T10:48:31Z</time>
      </trkpt>
      <trkpt lat="43.81463" lon="7.14607">
        <ele>695.2</ele>
        <time>2011-12-28T10:48:34Z</time>
      </trkpt>
      <trkpt lat="43.8146" lon="7.14598">
        <ele>695.6</ele>
        <time>2011-12-28T10:48:37Z</time>
      </trkpt>
      <trkpt lat="43.81458" lon="7.14589">
        <ele>695.8</ele>
        <time>2011-12-28T10:48:40Z</time>
      </trkpt>
      <trkpt lat="43.81455" lon="7.14577">
        <ele>695.5</ele>
        <time>2011-12-28T10:48:44Z</time>
      </trkpt>
      <trkpt lat="43.81451" lon="7.14566">
        <ele>695</ele>
        <time>2011-12-28T10:48:48Z</time>
      </trkpt>
      <trkpt lat="43.81448" lon="7.14557">
        <ele>695.4</ele>
        <time>2011-12-28T10:48:51Z</time>
      </trkpt>
      <trkpt lat="43.81445" lon="7.14549">
        <ele>696.1</ele>
        <time>2011-12-28T10:48:54Z</time>
      </trkpt>
      <trkpt lat="43.81441" lon="7.1454">
        <ele>696.4</ele>
        <time>2011-12-28T10:48:57Z</time>
      </trkpt>
      <trkpt lat="43.8144" lon="7.14537">
        <ele>696.5</ele>
        <time>2011-12-28T10:48:58Z</time>
      </trkpt>
      <trkpt lat="43.81434" lon="7.1452">
        <ele>696</ele>
        <time>2011-12-28T10:49:05Z</time>
      </trkpt>
      <trkpt lat="43.81431" lon="7.1451">
        <ele>696</ele>
        <time>2011-12-28T10:49:08Z</time>
      </trkpt>
      <trkpt lat="43.81428" lon="7.145">
        <ele>696.9</ele>
        <time>2011-12-28T10:49:11Z</time>
      </trkpt>
      <trkpt lat="43.81427" lon="7.14491">
        <ele>697.9</ele>
        <time>2011-12-28T10:49:14Z</time>
      </trkpt>
      <trkpt lat="43.81425" lon="7.14481">
        <ele>697.6</ele>
        <time>2011-12-28T10:49:17Z</time>
      </trkpt>
      <trkpt lat="43.81424" lon="7.1447">
        <ele>698</ele>
        <time>2011-12-28T10:49:21Z</time>
      </trkpt>
      <trkpt lat="43.81422" lon="7.14458">
        <ele>698.6</ele>
        <time>2011-12-28T10:49:25Z</time>
      </trkpt>
      <trkpt lat="43.8142" lon="7.14448">
        <ele>698.5</ele>
        <time>2011-12-28T10:49:29Z</time>
      </trkpt>
      <trkpt lat="43.81417" lon="7.14438">
        <ele>699.5</ele>
        <time>2011-12-28T10:49:33Z</time>
      </trkpt>
      <trkpt lat="43.81415" lon="7.14428">
        <ele>700.4</ele>
        <time>2011-12-28T10:49:37Z</time>
      </trkpt>
      <trkpt lat="43.81411" lon="7.14417">
        <ele>700.4</ele>
        <time>2011-12-28T10:49:57Z</time>
      </trkpt>
      <trkpt lat="43.81409" lon="7.14405">
        <ele>701.4</ele>
        <time>2011-12-28T10:50:02Z</time>
      </trkpt>
      <trkpt lat="43.81409" lon="7.14403">
        <ele>701.6</ele>
        <time>2011-12-28T10:50:03Z</time>
      </trkpt>
      <trkpt lat="43.81407" lon="7.14382">
        <ele>702.5</ele>
        <time>2011-12-28T10:50:12Z</time>
      </trkpt>
      <trkpt lat="43.81406" lon="7.14371">
        <ele>704.4</ele>
        <time>2011-12-28T10:50:17Z</time>
      </trkpt>
      <trkpt lat="43.81405" lon="7.1436">
        <ele>705</ele>
        <time>2011-12-28T10:50:22Z</time>
      </trkpt>
      <trkpt lat="43.81403" lon="7.14348">
        <ele>705.5</ele>
        <time>2011-12-28T10:50:28Z</time>
      </trkpt>
      <trkpt lat="43.81401" lon="7.14338">
        <ele>705.5</ele>
        <time>2011-12-28T10:50:32Z</time>
      </trkpt>
      <trkpt lat="43.81399" lon="7.14328">
        <ele>705.8</ele>
        <time>2011-12-28T10:50:35Z</time>
      </trkpt>
      <trkpt lat="43.81397" lon="7.14319">
        <ele>706.1</ele>
        <time>2011-12-28T10:50:38Z</time>
      </trkpt>
      <trkpt lat="43.81395" lon="7.14308">
        <ele>706.1</ele>
        <time>2011-12-28T10:50:41Z</time>
      </trkpt>
      <trkpt lat="43.81393" lon="7.14297">
        <ele>706.4</ele>
        <time>2011-12-28T10:50:44Z</time>
      </trkpt>
      <trkpt lat="43.81392" lon="7.14285">
        <ele>706.6</ele>
        <time>2011-12-28T10:50:47Z</time>
      </trkpt>
      <trkpt lat="43.81389" lon="7.14274">
        <ele>705.8</ele>
        <time>2011-12-28T10:50:50Z</time>
      </trkpt>
      <trkpt lat="43.81386" lon="7.14263">
        <ele>705.8</ele>
        <time>2011-12-28T10:50:53Z</time>
      </trkpt>
      <trkpt lat="43.81384" lon="7.14252">
        <ele>706</ele>
        <time>2011-12-28T10:50:56Z</time>
      </trkpt>
      <trkpt lat="43.81381" lon="7.14242">
        <ele>706.4</ele>
        <time>2011-12-28T10:50:59Z</time>
      </trkpt>
      <trkpt lat="43.81377" lon="7.14233">
        <ele>706.6</ele>
        <time>2011-12-28T10:51:02Z</time>
      </trkpt>
      <trkpt lat="43.81374" lon="7.14224">
        <ele>706.9</ele>
        <time>2011-12-28T10:51:05Z</time>
      </trkpt>
      <trkpt lat="43.81373" lon="7.14221">
        <ele>706.8</ele>
        <time>2011-12-28T10:51:06Z</time>
      </trkpt>
      <trkpt lat="43.81368" lon="7.14206">
        <ele>708.1</ele>
        <time>2011-12-28T10:51:11Z</time>
      </trkpt>
      <trkpt lat="43.81365" lon="7.14197">
        <ele>708.4</ele>
        <time>2011-12-28T10:51:14Z</time>
      </trkpt>
      <trkpt lat="43.81361" lon="7.14187">
        <ele>708.2</ele>
        <time>2011-12-28T10:51:17Z</time>
      </trkpt>
      <trkpt lat="43.81358" lon="7.14178">
        <ele>708.5</ele>
        <time>2011-12-28T10:51:20Z</time>
      </trkpt>
      <trkpt lat="43.81354" lon="7.14168">
        <ele>708.4</ele>
        <time>2011-12-28T10:51:23Z</time>
      </trkpt>
      <trkpt lat="43.81352" lon="7.14157">
        <ele>709.1</ele>
        <time>2011-12-28T10:51:27Z</time>
      </trkpt>
      <trkpt lat="43.81348" lon="7.14146">
        <ele>708.4</ele>
        <time>2011-12-28T10:51:31Z</time>
      </trkpt>
      <trkpt lat="43.81343" lon="7.14139">
        <ele>708.1</ele>
        <time>2011-12-28T10:51:34Z</time>
      </trkpt>
      <trkpt lat="43.81339" lon="7.14131">
        <ele>708.8</ele>
        <time>2011-12-28T10:51:37Z</time>
      </trkpt>
      <trkpt lat="43.81334" lon="7.14124">
        <ele>709.9</ele>
        <time>2011-12-28T10:51:40Z</time>
      </trkpt>
      <trkpt lat="43.81329" lon="7.14116">
        <ele>709.9</ele>
        <time>2011-12-28T10:51:43Z</time>
      </trkpt>
      <trkpt lat="43.81325" lon="7.14108">
        <ele>710.2</ele>
        <time>2011-12-28T10:51:46Z</time>
      </trkpt>
      <trkpt lat="43.81321" lon="7.141">
        <ele>710.6</ele>
        <time>2011-12-28T10:51:49Z</time>
      </trkpt>
      <trkpt lat="43.81316" lon="7.14092">
        <ele>710.6</ele>
        <time>2011-12-28T10:51:52Z</time>
      </trkpt>
      <trkpt lat="43.81312" lon="7.14084">
        <ele>711.2</ele>
        <time>2011-12-28T10:51:55Z</time>
      </trkpt>
      <trkpt lat="43.81308" lon="7.14077">
        <ele>711.6</ele>
        <time>2011-12-28T10:51:58Z</time>
      </trkpt>
      <trkpt lat="43.81304" lon="7.14069">
        <ele>711.9</ele>
        <time>2011-12-28T10:52:01Z</time>
      </trkpt>
      <trkpt lat="43.81299" lon="7.14061">
        <ele>712.2</ele>
        <time>2011-12-28T10:52:04Z</time>
      </trkpt>
      <trkpt lat="43.81295" lon="7.14054">
        <ele>711.8</ele>
        <time>2011-12-28T10:52:07Z</time>
      </trkpt>
      <trkpt lat="43.81291" lon="7.14046">
        <ele>712.1</ele>
        <time>2011-12-28T10:52:10Z</time>
      </trkpt>
      <trkpt lat="43.81289" lon="7.14044">
        <ele>712.3</ele>
        <time>2011-12-28T10:52:11Z</time>
      </trkpt>
      <trkpt lat="43.81281" lon="7.14032">
        <ele>712.7</ele>
        <time>2011-12-28T10:52:16Z</time>
      </trkpt>
      <trkpt lat="43.81277" lon="7.14025">
        <ele>712.8</ele>
        <time>2011-12-28T10:52:19Z</time>
      </trkpt>
      <trkpt lat="43.81273" lon="7.14017">
        <ele>713.3</ele>
        <time>2011-12-28T10:52:22Z</time>
      </trkpt>
      <trkpt lat="43.81269" lon="7.14009">
        <ele>714</ele>
        <time>2011-12-28T10:52:25Z</time>
      </trkpt>
      <trkpt lat="43.81265" lon="7.14001">
        <ele>715</ele>
        <time>2011-12-28T10:52:28Z</time>
      </trkpt>
      <trkpt lat="43.81261" lon="7.13993">
        <ele>715.2</ele>
        <time>2011-12-28T10:52:31Z</time>
      </trkpt>
      <trkpt lat="43.81257" lon="7.13983">
        <ele>714.7</ele>
        <time>2011-12-28T10:52:35Z</time>
      </trkpt>
      <trkpt lat="43.81252" lon="7.13973">
        <ele>715.1</ele>
        <time>2011-12-28T10:52:39Z</time>
      </trkpt>
      <trkpt lat="43.81248" lon="7.13963">
        <ele>715.4</ele>
        <time>2011-12-28T10:52:43Z</time>
      </trkpt>
      <trkpt lat="43.81243" lon="7.13954">
        <ele>716.1</ele>
        <time>2011-12-28T10:52:47Z</time>
      </trkpt>
      <trkpt lat="43.81238" lon="7.13945">
        <ele>717</ele>
        <time>2011-12-28T10:52:51Z</time>
      </trkpt>
      <trkpt lat="43.81233" lon="7.13936">
        <ele>717.5</ele>
        <time>2011-12-28T10:52:55Z</time>
      </trkpt>
      <trkpt lat="43.81228" lon="7.13928">
        <ele>718.1</ele>
        <time>2011-12-28T10:52:59Z</time>
      </trkpt>
      <trkpt lat="43.81223" lon="7.13919">
        <ele>718.7</ele>
        <time>2011-12-28T10:53:03Z</time>
      </trkpt>
      <trkpt lat="43.81219" lon="7.13909">
        <ele>718.9</ele>
        <time>2011-12-28T10:53:08Z</time>
      </trkpt>
      <trkpt lat="43.81215" lon="7.13901">
        <ele>719.8</ele>
        <time>2011-12-28T10:53:12Z</time>
      </trkpt>
      <trkpt lat="43.81211" lon="7.13892">
        <ele>719.9</ele>
        <time>2011-12-28T10:53:16Z</time>
      </trkpt>
      <trkpt lat="43.8121" lon="7.1389">
        <ele>720.2</ele>
        <time>2011-12-28T10:53:17Z</time>
      </trkpt>
      <trkpt lat="43.81202" lon="7.13875">
        <ele>720.8</ele>
        <time>2011-12-28T10:53:24Z</time>
      </trkpt>
      <trkpt lat="43.81197" lon="7.13867">
        <ele>721.9</ele>
        <time>2011-12-28T10:53:28Z</time>
      </trkpt>
      <trkpt lat="43.81192" lon="7.13858">
        <ele>722</ele>
        <time>2011-12-28T10:53:32Z</time>
      </trkpt>
      <trkpt lat="43.8119" lon="7.13847">
        <ele>722.2</ele>
        <time>2011-12-28T10:53:36Z</time>
      </trkpt>
      <trkpt lat="43.81191" lon="7.13836">
        <ele>722.3</ele>
        <time>2011-12-28T10:53:40Z</time>
      </trkpt>
      <trkpt lat="43.81193" lon="7.13824">
        <ele>723.2</ele>
        <time>2011-12-28T10:53:44Z</time>
      </trkpt>
      <trkpt lat="43.81195" lon="7.13812">
        <ele>723.7</ele>
        <time>2011-12-28T10:53:48Z</time>
      </trkpt>
      <trkpt lat="43.81196" lon="7.13802">
        <ele>724</ele>
        <time>2011-12-28T10:53:51Z</time>
      </trkpt>
      <trkpt lat="43.81196" lon="7.13792">
        <ele>723.7</ele>
        <time>2011-12-28T10:53:54Z</time>
      </trkpt>
      <trkpt lat="43.81197" lon="7.13782">
        <ele>723.4</ele>
        <time>2011-12-28T10:53:57Z</time>
      </trkpt>
      <trkpt lat="43.81197" lon="7.13772">
        <ele>723.9</ele>
        <time>2011-12-28T10:54:00Z</time>
      </trkpt>
      <trkpt lat="43.81198" lon="7.13761">
        <ele>724.1</ele>
        <time>2011-12-28T10:54:03Z</time>
      </trkpt>
      <trkpt lat="43.81198" lon="7.13751">
        <ele>723.8</ele>
        <time>2011-12-28T10:54:06Z</time>
      </trkpt>
      <trkpt lat="43.81198" lon="7.13741">
        <ele>724</ele>
        <time>2011-12-28T10:54:09Z</time>
      </trkpt>
      <trkpt lat="43.81197" lon="7.13731">
        <ele>724.1</ele>
        <time>2011-12-28T10:54:12Z</time>
      </trkpt>
      <trkpt lat="43.81194" lon="7.1372">
        <ele>724.8</ele>
        <time>2011-12-28T10:54:16Z</time>
      </trkpt>
      <trkpt lat="43.8119" lon="7.1371">
        <ele>725.9</ele>
        <time>2011-12-28T10:54:21Z</time>
      </trkpt>
      <trkpt lat="43.81189" lon="7.13708">
        <ele>726.3</ele>
        <time>2011-12-28T10:54:22Z</time>
      </trkpt>
      <trkpt lat="43.81183" lon="7.13689">
        <ele>728.1</ele>
        <time>2011-12-28T10:54:31Z</time>
      </trkpt>
      <trkpt lat="43.81179" lon="7.13678">
        <ele>728.8</ele>
        <time>2011-12-28T10:54:36Z</time>
      </trkpt>
      <trkpt lat="43.81176" lon="7.13667">
        <ele>729.2</ele>
        <time>2011-12-28T10:54:41Z</time>
      </trkpt>
      <trkpt lat="43.81173" lon="7.13657">
        <ele>729.2</ele>
        <time>2011-12-28T10:54:45Z</time>
      </trkpt>
      <trkpt lat="43.8117" lon="7.13648">
        <ele>730.6</ele>
        <time>2011-12-28T10:54:49Z</time>
      </trkpt>
      <trkpt lat="43.81166" lon="7.13638">
        <ele>730.9</ele>
        <time>2011-12-28T10:54:53Z</time>
      </trkpt>
      <trkpt lat="43.81162" lon="7.13629">
        <ele>732</ele>
        <time>2011-12-28T10:54:57Z</time>
      </trkpt>
      <trkpt lat="43.81159" lon="7.1362">
        <ele>731.9</ele>
        <time>2011-12-28T10:55:01Z</time>
      </trkpt>
      <trkpt lat="43.81156" lon="7.13609">
        <ele>732</ele>
        <time>2011-12-28T10:55:06Z</time>
      </trkpt>
      <trkpt lat="43.81152" lon="7.13599">
        <ele>733.7</ele>
        <time>2011-12-28T10:55:12Z</time>
      </trkpt>
      <trkpt lat="43.81149" lon="7.13588">
        <ele>734.4</ele>
        <time>2011-12-28T10:55:18Z</time>
      </trkpt>
      <trkpt lat="43.81146" lon="7.13578">
        <ele>735.3</ele>
        <time>2011-12-28T10:55:38Z</time>
      </trkpt>
      <trkpt lat="43.81145" lon="7.13576">
        <ele>735.3</ele>
        <time>2011-12-28T10:55:39Z</time>
      </trkpt>
      <trkpt lat="43.81137" lon="7.13561">
        <ele>736.8</ele>
        <time>2011-12-28T10:55:46Z</time>
      </trkpt>
      <trkpt lat="43.81134" lon="7.13553">
        <ele>737.3</ele>
        <time>2011-12-28T10:55:50Z</time>
      </trkpt>
      <trkpt lat="43.81129" lon="7.13543">
        <ele>737.8</ele>
        <time>2011-12-28T10:55:55Z</time>
      </trkpt>
      <trkpt lat="43.81125" lon="7.13533">
        <ele>737.8</ele>
        <time>2011-12-28T10:56:00Z</time>
      </trkpt>
      <trkpt lat="43.81121" lon="7.13523">
        <ele>738.2</ele>
        <time>2011-12-28T10:56:05Z</time>
      </trkpt>
      <trkpt lat="43.81117" lon="7.13513">
        <ele>739.1</ele>
        <time>2011-12-28T10:56:11Z</time>
      </trkpt>
      <trkpt lat="43.81113" lon="7.13504">
        <ele>740.1</ele>
        <time>2011-12-28T10:56:17Z</time>
      </trkpt>
      <trkpt lat="43.81109" lon="7.13494">
        <ele>740.8</ele>
        <time>2011-12-28T10:56:23Z</time>
      </trkpt>
      <trkpt lat="43.81104" lon="7.13484">
        <ele>741.7</ele>
        <time>2011-12-28T10:56:29Z</time>
      </trkpt>
      <trkpt lat="43.811" lon="7.13475">
        <ele>742.7</ele>
        <time>2011-12-28T10:56:35Z</time>
      </trkpt>
      <trkpt lat="43.81095" lon="7.13465">
        <ele>743.1</ele>
        <time>2011-12-28T10:56:41Z</time>
      </trkpt>
      <trkpt lat="43.81094" lon="7.13464">
        <ele>743.1</ele>
        <time>2011-12-28T10:56:42Z</time>
      </trkpt>
      <trkpt lat="43.81084" lon="7.13447">
        <ele>744.6</ele>
        <time>2011-12-28T10:56:53Z</time>
      </trkpt>
      <trkpt lat="43.81079" lon="7.13438">
        <ele>745.6</ele>
        <time>2011-12-28T10:56:59Z</time>
      </trkpt>
      <trkpt lat="43.81075" lon="7.13429">
        <ele>746</ele>
        <time>2011-12-28T10:57:04Z</time>
      </trkpt>
      <trkpt lat="43.8107" lon="7.13421">
        <ele>746.9</ele>
        <time>2011-12-28T10:57:09Z</time>
      </trkpt>
      <trkpt lat="43.81065" lon="7.13412">
        <ele>747.3</ele>
        <time>2011-12-28T10:57:14Z</time>
      </trkpt>
      <trkpt lat="43.8106" lon="7.13404">
        <ele>748.1</ele>
        <time>2011-12-28T10:57:19Z</time>
      </trkpt>
      <trkpt lat="43.81054" lon="7.13397">
        <ele>748.6</ele>
        <time>2011-12-28T10:57:24Z</time>
      </trkpt>
      <trkpt lat="43.81048" lon="7.13389">
        <ele>750.3</ele>
        <time>2011-12-28T10:57:29Z</time>
      </trkpt>
      <trkpt lat="43.81042" lon="7.13382">
        <ele>749.7</ele>
        <time>2011-12-28T10:57:34Z</time>
      </trkpt>
      <trkpt lat="43.81035" lon="7.13375">
        <ele>749.9</ele>
        <time>2011-12-28T10:57:39Z</time>
      </trkpt>
      <trkpt lat="43.8103" lon="7.13368">
        <ele>751.1</ele>
        <time>2011-12-28T10:57:44Z</time>
      </trkpt>
      <trkpt lat="43.81029" lon="7.13366">
        <ele>751.2</ele>
        <time>2011-12-28T10:57:45Z</time>
      </trkpt>
      <trkpt lat="43.8102" lon="7.13349">
        <ele>752.1</ele>
        <time>2011-12-28T10:57:54Z</time>
      </trkpt>
      <trkpt lat="43.81017" lon="7.13338">
        <ele>752.4</ele>
        <time>2011-12-28T10:57:59Z</time>
      </trkpt>
      <trkpt lat="43.81013" lon="7.13328">
        <ele>752.4</ele>
        <time>2011-12-28T10:58:04Z</time>
      </trkpt>
      <trkpt lat="43.8101" lon="7.13318">
        <ele>753.2</ele>
        <time>2011-12-28T10:58:09Z</time>
      </trkpt>
      <trkpt lat="43.81006" lon="7.13308">
        <ele>753.7</ele>
        <time>2011-12-28T10:58:14Z</time>
      </trkpt>
      <trkpt lat="43.81003" lon="7.13299">
        <ele>754.7</ele>
        <time>2011-12-28T10:58:19Z</time>
      </trkpt>
      <trkpt lat="43.80998" lon="7.13289">
        <ele>755.9</ele>
        <time>2011-12-28T10:58:25Z</time>
      </trkpt>
      <trkpt lat="43.80994" lon="7.1328">
        <ele>756.5</ele>
        <time>2011-12-28T10:58:30Z</time>
      </trkpt>
      <trkpt lat="43.80988" lon="7.1327">
        <ele>758.4</ele>
        <time>2011-12-28T10:58:40Z</time>
      </trkpt>
      <trkpt lat="43.80984" lon="7.1326">
        <ele>759.3</ele>
        <time>2011-12-28T11:00:31Z</time>
      </trkpt>
      <trkpt lat="43.80984" lon="7.13259">
        <ele>759.5</ele>
        <time>2011-12-28T11:00:32Z</time>
      </trkpt>
      <trkpt lat="43.80978" lon="7.1324">
        <ele>763</ele>
        <time>2011-12-28T11:00:45Z</time>
      </trkpt>
      <trkpt lat="43.80974" lon="7.13229">
        <ele>762.7</ele>
        <time>2011-12-28T11:00:52Z</time>
      </trkpt>
      <trkpt lat="43.8097" lon="7.13219">
        <ele>764</ele>
        <time>2011-12-28T11:00:59Z</time>
      </trkpt>
      <trkpt lat="43.80966" lon="7.13208">
        <ele>765.3</ele>
        <time>2011-12-28T11:01:07Z</time>
      </trkpt>
      <trkpt lat="43.80962" lon="7.13198">
        <ele>766.9</ele>
        <time>2011-12-28T11:01:35Z</time>
      </trkpt>
      <trkpt lat="43.80961" lon="7.13197">
        <ele>767</ele>
        <time>2011-12-28T11:01:36Z</time>
      </trkpt>
      <trkpt lat="43.80951" lon="7.13181">
        <ele>768.5</ele>
        <time>2011-12-28T11:01:49Z</time>
      </trkpt>
      <trkpt lat="43.80945" lon="7.13174">
        <ele>769.5</ele>
        <time>2011-12-28T11:01:56Z</time>
      </trkpt>
      <trkpt lat="43.80939" lon="7.13165">
        <ele>772.6</ele>
        <time>2011-12-28T11:02:04Z</time>
      </trkpt>
      <trkpt lat="43.80933" lon="7.13156">
        <ele>773.4</ele>
        <time>2011-12-28T11:02:12Z</time>
      </trkpt>
      <trkpt lat="43.80926" lon="7.1315">
        <ele>774.4</ele>
        <time>2011-12-28T11:02:23Z</time>
      </trkpt>
      <trkpt lat="43.80919" lon="7.13142">
        <ele>776.5</ele>
        <time>2011-12-28T11:02:37Z</time>
      </trkpt>
      <trkpt lat="43.80913" lon="7.13135">
        <ele>777.9</ele>
        <time>2011-12-28T11:02:45Z</time>
      </trkpt>
      <trkpt lat="43.80912" lon="7.13135">
        <ele>777.8</ele>
        <time>2011-12-28T11:02:46Z</time>
      </trkpt>
      <trkpt lat="43.80901" lon="7.13118">
        <ele>779.4</ele>
        <time>2011-12-28T11:03:01Z</time>
      </trkpt>
      <trkpt lat="43.80896" lon="7.13108">
        <ele>781.3</ele>
        <time>2011-12-28T11:03:09Z</time>
      </trkpt>
      <trkpt lat="43.80889" lon="7.13101">
        <ele>781.9</ele>
        <time>2011-12-28T11:03:17Z</time>
      </trkpt>
      <trkpt lat="43.80884" lon="7.13091">
        <ele>784</ele>
        <time>2011-12-28T11:03:25Z</time>
      </trkpt>
      <trkpt lat="43.80879" lon="7.13081">
        <ele>785</ele>
        <time>2011-12-28T11:03:34Z</time>
      </trkpt>
      <trkpt lat="43.80874" lon="7.13071">
        <ele>786.3</ele>
        <time>2011-12-28T11:03:42Z</time>
      </trkpt>
      <trkpt lat="43.80869" lon="7.13062">
        <ele>787.6</ele>
        <time>2011-12-28T11:03:49Z</time>
      </trkpt>
      <trkpt lat="43.80868" lon="7.1306">
        <ele>787.8</ele>
        <time>2011-12-28T11:03:50Z</time>
      </trkpt>
      <trkpt lat="43.8086" lon="7.13041">
        <ele>790.8</ele>
        <time>2011-12-28T11:04:05Z</time>
      </trkpt>
      <trkpt lat="43.80858" lon="7.1303">
        <ele>791.4</ele>
        <time>2011-12-28T11:04:12Z</time>
      </trkpt>
      <trkpt lat="43.80855" lon="7.13019">
        <ele>791.8</ele>
        <time>2011-12-28T11:04:20Z</time>
      </trkpt>
      <trkpt lat="43.8085" lon="7.13008">
        <ele>793.3</ele>
        <time>2011-12-28T11:04:27Z</time>
      </trkpt>
      <trkpt lat="43.80844" lon="7.13">
        <ele>794.2</ele>
        <time>2011-12-28T11:04:34Z</time>
      </trkpt>
      <trkpt lat="43.80837" lon="7.12993">
        <ele>795.4</ele>
        <time>2011-12-28T11:04:41Z</time>
      </trkpt>
      <trkpt lat="43.80829" lon="7.12987">
        <ele>796.9</ele>
        <time>2011-12-28T11:04:48Z</time>
      </trkpt>
      <trkpt lat="43.80822" lon="7.12979">
        <ele>797.9</ele>
        <time>2011-12-28T11:04:55Z</time>
      </trkpt>
      <trkpt lat="43.80822" lon="7.12978">
        <ele>798</ele>
        <time>2011-12-28T11:04:56Z</time>
      </trkpt>
      <trkpt lat="43.80809" lon="7.12963">
        <ele>800.4</ele>
        <time>2011-12-28T11:05:17Z</time>
      </trkpt>
      <trkpt lat="43.80805" lon="7.12953">
        <ele>801.1</ele>
        <time>2011-12-28T11:05:42Z</time>
      </trkpt>
      <trkpt lat="43.808" lon="7.12945">
        <ele>801.7</ele>
        <time>2011-12-28T11:05:49Z</time>
      </trkpt>
      <trkpt lat="43.80794" lon="7.12936">
        <ele>803.6</ele>
        <time>2011-12-28T11:05:56Z</time>
      </trkpt>
      <trkpt lat="43.80789" lon="7.12927">
        <ele>804</ele>
        <time>2011-12-28T11:06:03Z</time>
      </trkpt>
      <trkpt lat="43.80788" lon="7.12926">
        <ele>804</ele>
        <time>2011-12-28T11:06:04Z</time>
      </trkpt>
      <trkpt lat="43.80779" lon="7.12909">
        <ele>807.2</ele>
        <time>2011-12-28T11:06:16Z</time>
      </trkpt>
      <trkpt lat="43.80775" lon="7.129">
        <ele>807.7</ele>
        <time>2011-12-28T11:06:22Z</time>
      </trkpt>
      <trkpt lat="43.80771" lon="7.12891">
        <ele>809</ele>
        <time>2011-12-28T11:06:28Z</time>
      </trkpt>
      <trkpt lat="43.80767" lon="7.12882">
        <ele>809.7</ele>
        <time>2011-12-28T11:06:33Z</time>
      </trkpt>
      <trkpt lat="43.80762" lon="7.12871">
        <ele>810.4</ele>
        <time>2011-12-28T11:06:39Z</time>
      </trkpt>
      <trkpt lat="43.80758" lon="7.12861">
        <ele>811.7</ele>
        <time>2011-12-28T11:06:45Z</time>
      </trkpt>
      <trkpt lat="43.80753" lon="7.12851">
        <ele>812.7</ele>
        <time>2011-12-28T11:06:52Z</time>
      </trkpt>
      <trkpt lat="43.80749" lon="7.12841">
        <ele>813.6</ele>
        <time>2011-12-28T11:06:58Z</time>
      </trkpt>
      <trkpt lat="43.80744" lon="7.12832">
        <ele>813.6</ele>
        <time>2011-12-28T11:07:03Z</time>
      </trkpt>
      <trkpt lat="43.8074" lon="7.12823">
        <ele>800.3</ele>
        <time>2011-12-28T11:07:08Z</time>
      </trkpt>
      <trkpt lat="43.80739" lon="7.12821">
        <ele>799.4</ele>
        <time>2011-12-28T11:07:09Z</time>
      </trkpt>
      <trkpt lat="43.80732" lon="7.12803">
        <ele>796.8</ele>
        <time>2011-12-28T11:07:18Z</time>
      </trkpt>
      <trkpt lat="43.80729" lon="7.12792">
        <ele>797.4</ele>
        <time>2011-12-28T11:07:23Z</time>
      </trkpt>
      <trkpt lat="43.80726" lon="7.12781">
        <ele>797.6</ele>
        <time>2011-12-28T11:07:28Z</time>
      </trkpt>
      <trkpt lat="43.80723" lon="7.12772">
        <ele>798.6</ele>
        <time>2011-12-28T11:07:33Z</time>
      </trkpt>
      <trkpt lat="43.80719" lon="7.12763">
        <ele>798.8</ele>
        <time>2011-12-28T11:07:38Z</time>
      </trkpt>
      <trkpt lat="43.80713" lon="7.12755">
        <ele>799.2</ele>
        <time>2011-12-28T11:07:44Z</time>
      </trkpt>
      <trkpt lat="43.80708" lon="7.12744">
        <ele>800.6</ele>
        <time>2011-12-28T11:07:51Z</time>
      </trkpt>
      <trkpt lat="43.80703" lon="7.12735">
        <ele>801.9</ele>
        <time>2011-12-28T11:07:57Z</time>
      </trkpt>
      <trkpt lat="43.80699" lon="7.12724">
        <ele>802.4</ele>
        <time>2011-12-28T11:08:03Z</time>
      </trkpt>
      <trkpt lat="43.80696" lon="7.12712">
        <ele>802.9</ele>
        <time>2011-12-28T11:08:09Z</time>
      </trkpt>
      <trkpt lat="43.80692" lon="7.12702">
        <ele>804</ele>
        <time>2011-12-28T11:08:15Z</time>
      </trkpt>
      <trkpt lat="43.80692" lon="7.12701">
        <ele>803.7</ele>
        <time>2011-12-28T11:08:16Z</time>
      </trkpt>
      <trkpt lat="43.80683" lon="7.12682">
        <ele>805</ele>
        <time>2011-12-28T11:08:28Z</time>
      </trkpt>
      <trkpt lat="43.80679" lon="7.12673">
        <ele>806.5</ele>
        <time>2011-12-28T11:08:48Z</time>
      </trkpt>
      <trkpt lat="43.80674" lon="7.12663">
        <ele>807</ele>
        <time>2011-12-28T11:08:54Z</time>
      </trkpt>
      <trkpt lat="43.8067" lon="7.12653">
        <ele>806.7</ele>
        <time>2011-12-28T11:08:59Z</time>
      </trkpt>
      <trkpt lat="43.80667" lon="7.12643">
        <ele>807.5</ele>
        <time>2011-12-28T11:09:04Z</time>
      </trkpt>
      <trkpt lat="43.80664" lon="7.12634">
        <ele>809</ele>
        <time>2011-12-28T11:09:09Z</time>
      </trkpt>
      <trkpt lat="43.80662" lon="7.12622">
        <ele>809.6</ele>
        <time>2011-12-28T11:09:15Z</time>
      </trkpt>
      <trkpt lat="43.80659" lon="7.12611">
        <ele>810</ele>
        <time>2011-12-28T11:09:21Z</time>
      </trkpt>
      <trkpt lat="43.80658" lon="7.12609">
        <ele>810.1</ele>
        <time>2011-12-28T11:09:22Z</time>
      </trkpt>
      <trkpt lat="43.80652" lon="7.12591">
        <ele>811.4</ele>
        <time>2011-12-28T11:09:31Z</time>
      </trkpt>
      <trkpt lat="43.80648" lon="7.12581">
        <ele>811.3</ele>
        <time>2011-12-28T11:09:36Z</time>
      </trkpt>
      <trkpt lat="43.80645" lon="7.12572">
        <ele>812.5</ele>
        <time>2011-12-28T11:09:41Z</time>
      </trkpt>
      <trkpt lat="43.80641" lon="7.12562">
        <ele>813.6</ele>
        <time>2011-12-28T11:09:46Z</time>
      </trkpt>
      <trkpt lat="43.80637" lon="7.12554">
        <ele>813.5</ele>
        <time>2011-12-28T11:09:51Z</time>
      </trkpt>
      <trkpt lat="43.80632" lon="7.12545">
        <ele>814.6</ele>
        <time>2011-12-28T11:09:56Z</time>
      </trkpt>
      <trkpt lat="43.80627" lon="7.12538">
        <ele>815.2</ele>
        <time>2011-12-28T11:10:01Z</time>
      </trkpt>
      <trkpt lat="43.80621" lon="7.12531">
        <ele>815.5</ele>
        <time>2011-12-28T11:10:06Z</time>
      </trkpt>
      <trkpt lat="43.80615" lon="7.12522">
        <ele>816.6</ele>
        <time>2011-12-28T11:10:12Z</time>
      </trkpt>
      <trkpt lat="43.80609" lon="7.12514">
        <ele>817.7</ele>
        <time>2011-12-28T11:10:18Z</time>
      </trkpt>
      <trkpt lat="43.80603" lon="7.12505">
        <ele>818.4</ele>
        <time>2011-12-28T11:10:24Z</time>
      </trkpt>
      <trkpt lat="43.80602" lon="7.12504">
        <ele>818.5</ele>
        <time>2011-12-28T11:10:25Z</time>
      </trkpt>
      <trkpt lat="43.80591" lon="7.12487">
        <ele>820.3</ele>
        <time>2011-12-28T11:10:37Z</time>
      </trkpt>
      <trkpt lat="43.80586" lon="7.12479">
        <ele>820.7</ele>
        <time>2011-12-28T11:10:43Z</time>
      </trkpt>
      <trkpt lat="43.8058" lon="7.12471">
        <ele>821.5</ele>
        <time>2011-12-28T11:10:49Z</time>
      </trkpt>
      <trkpt lat="43.80573" lon="7.12463">
        <ele>823.1</ele>
        <time>2011-12-28T11:10:55Z</time>
      </trkpt>
      <trkpt lat="43.80566" lon="7.12455">
        <ele>823</ele>
        <time>2011-12-28T11:11:01Z</time>
      </trkpt>
      <trkpt lat="43.8056" lon="7.12448">
        <ele>824.6</ele>
        <time>2011-12-28T11:11:07Z</time>
      </trkpt>
      <trkpt lat="43.80553" lon="7.12442">
        <ele>824.9</ele>
        <time>2011-12-28T11:11:12Z</time>
      </trkpt>
      <trkpt lat="43.80546" lon="7.12436">
        <ele>825.3</ele>
        <time>2011-12-28T11:11:17Z</time>
      </trkpt>
      <trkpt lat="43.80539" lon="7.12431">
        <ele>825.8</ele>
        <time>2011-12-28T11:11:21Z</time>
      </trkpt>
      <trkpt lat="43.80533" lon="7.12425">
        <ele>825.9</ele>
        <time>2011-12-28T11:11:25Z</time>
      </trkpt>
      <trkpt lat="43.80526" lon="7.12419">
        <ele>826</ele>
        <time>2011-12-28T11:11:29Z</time>
      </trkpt>
      <trkpt lat="43.80525" lon="7.12417">
        <ele>826.2</ele>
        <time>2011-12-28T11:11:30Z</time>
      </trkpt>
      <trkpt lat="43.80514" lon="7.12404">
        <ele>827.5</ele>
        <time>2011-12-28T11:13:51Z</time>
      </trkpt>
      <trkpt lat="43.80513" lon="7.12403">
        <ele>827.4</ele>
        <time>2011-12-28T11:13:52Z</time>
      </trkpt>
      <trkpt lat="43.80501" lon="7.12391">
        <ele>827.5</ele>
        <time>2011-12-28T11:13:59Z</time>
      </trkpt>
      <trkpt lat="43.80493" lon="7.12384">
        <ele>827.8</ele>
        <time>2011-12-28T11:14:04Z</time>
      </trkpt>
      <trkpt lat="43.80487" lon="7.12377">
        <ele>828.4</ele>
        <time>2011-12-28T11:14:09Z</time>
      </trkpt>
      <trkpt lat="43.8048" lon="7.12371">
        <ele>829.9</ele>
        <time>2011-12-28T11:14:15Z</time>
      </trkpt>
      <trkpt lat="43.80472" lon="7.12367">
        <ele>830.7</ele>
        <time>2011-12-28T11:14:20Z</time>
      </trkpt>
      <trkpt lat="43.80464" lon="7.12362">
        <ele>831.7</ele>
        <time>2011-12-28T11:14:26Z</time>
      </trkpt>
      <trkpt lat="43.80456" lon="7.12358">
        <ele>832.8</ele>
        <time>2011-12-28T11:14:32Z</time>
      </trkpt>
      <trkpt lat="43.80449" lon="7.12354">
        <ele>833.5</ele>
        <time>2011-12-28T11:14:38Z</time>
      </trkpt>
      <trkpt lat="43.80441" lon="7.1235">
        <ele>834.6</ele>
        <time>2011-12-28T11:14:44Z</time>
      </trkpt>
      <trkpt lat="43.80434" lon="7.12345">
        <ele>835.5</ele>
        <time>2011-12-28T11:14:50Z</time>
      </trkpt>
      <trkpt lat="43.80428" lon="7.12339">
        <ele>836.8</ele>
        <time>2011-12-28T11:14:56Z</time>
      </trkpt>
      <trkpt lat="43.80427" lon="7.12338">
        <ele>837</ele>
        <time>2011-12-28T11:14:57Z</time>
      </trkpt>
      <trkpt lat="43.80414" lon="7.12325">
        <ele>838.2</ele>
        <time>2011-12-28T11:15:09Z</time>
      </trkpt>
      <trkpt lat="43.80407" lon="7.12318">
        <ele>840.5</ele>
        <time>2011-12-28T11:15:16Z</time>
      </trkpt>
      <trkpt lat="43.80401" lon="7.12311">
        <ele>841.4</ele>
        <time>2011-12-28T11:15:22Z</time>
      </trkpt>
      <trkpt lat="43.80395" lon="7.12303">
        <ele>842.2</ele>
        <time>2011-12-28T11:15:29Z</time>
      </trkpt>
      <trkpt lat="43.80388" lon="7.12298">
        <ele>843.9</ele>
        <time>2011-12-28T11:15:35Z</time>
      </trkpt>
      <trkpt lat="43.80381" lon="7.12293">
        <ele>845.1</ele>
        <time>2011-12-28T11:15:41Z</time>
      </trkpt>
      <trkpt lat="43.80374" lon="7.12286">
        <ele>846.4</ele>
        <time>2011-12-28T11:15:47Z</time>
      </trkpt>
      <trkpt lat="43.80368" lon="7.1228">
        <ele>846.8</ele>
        <time>2011-12-28T11:15:52Z</time>
      </trkpt>
      <trkpt lat="43.8036" lon="7.12273">
        <ele>847.9</ele>
        <time>2011-12-28T11:15:58Z</time>
      </trkpt>
      <trkpt lat="43.80359" lon="7.12272">
        <ele>847.9</ele>
        <time>2011-12-28T11:15:59Z</time>
      </trkpt>
      <trkpt lat="43.80346" lon="7.12261">
        <ele>849.6</ele>
        <time>2011-12-28T11:16:09Z</time>
      </trkpt>
      <trkpt lat="43.80339" lon="7.12254">
        <ele>849.8</ele>
        <time>2011-12-28T11:16:14Z</time>
      </trkpt>
      <trkpt lat="43.80332" lon="7.12247">
        <ele>850</ele>
        <time>2011-12-28T11:16:19Z</time>
      </trkpt>
      <trkpt lat="43.80325" lon="7.12241">
        <ele>850.6</ele>
        <time>2011-12-28T11:16:24Z</time>
      </trkpt>
      <trkpt lat="43.80318" lon="7.12234">
        <ele>851</ele>
        <time>2011-12-28T11:16:29Z</time>
      </trkpt>
      <trkpt lat="43.80313" lon="7.12227">
        <ele>851.5</ele>
        <time>2011-12-28T11:16:33Z</time>
      </trkpt>
      <trkpt lat="43.80306" lon="7.12218">
        <ele>851.9</ele>
        <time>2011-12-28T11:16:38Z</time>
      </trkpt>
      <trkpt lat="43.80301" lon="7.1221">
        <ele>852.4</ele>
        <time>2011-12-28T11:16:42Z</time>
      </trkpt>
      <trkpt lat="43.80295" lon="7.12202">
        <ele>852.5</ele>
        <time>2011-12-28T11:16:46Z</time>
      </trkpt>
      <trkpt lat="43.80291" lon="7.12193">
        <ele>852.8</ele>
        <time>2011-12-28T11:16:50Z</time>
      </trkpt>
      <trkpt lat="43.80287" lon="7.12184">
        <ele>853.3</ele>
        <time>2011-12-28T11:16:54Z</time>
      </trkpt>
      <trkpt lat="43.80285" lon="7.12175">
        <ele>854</ele>
        <time>2011-12-28T11:16:58Z</time>
      </trkpt>
      <trkpt lat="43.80283" lon="7.12163">
        <ele>854.8</ele>
        <time>2011-12-28T11:17:03Z</time>
      </trkpt>
      <trkpt lat="43.80283" lon="7.1216">
        <ele>855.2</ele>
        <time>2011-12-28T11:17:04Z</time>
      </trkpt>
      <trkpt lat="43.80282" lon="7.1214">
        <ele>857.7</ele>
        <time>2011-12-28T11:17:13Z</time>
      </trkpt>
      <trkpt lat="43.80282" lon="7.1213">
        <ele>857.9</ele>
        <time>2011-12-28T11:17:17Z</time>
      </trkpt>
      <trkpt lat="43.80282" lon="7.12119">
        <ele>858.6</ele>
        <time>2011-12-28T11:17:21Z</time>
      </trkpt>
      <trkpt lat="43.8028" lon="7.12109">
        <ele>859.2</ele>
        <time>2011-12-28T11:17:25Z</time>
      </trkpt>
      <trkpt lat="43.80278" lon="7.121">
        <ele>859.5</ele>
        <time>2011-12-28T11:17:29Z</time>
      </trkpt>
      <trkpt lat="43.80277" lon="7.12088">
        <ele>860.1</ele>
        <time>2011-12-28T11:17:33Z</time>
      </trkpt>
      <trkpt lat="43.80277" lon="7.12078">
        <ele>860.3</ele>
        <time>2011-12-28T11:17:36Z</time>
      </trkpt>
      <trkpt lat="43.80276" lon="7.12068">
        <ele>860.1</ele>
        <time>2011-12-28T11:17:39Z</time>
      </trkpt>
      <trkpt lat="43.80275" lon="7.12057">
        <ele>860</ele>
        <time>2011-12-28T11:17:42Z</time>
      </trkpt>
      <trkpt lat="43.80271" lon="7.12046">
        <ele>859.8</ele>
        <time>2011-12-28T11:17:45Z</time>
      </trkpt>
      <trkpt lat="43.80266" lon="7.12039">
        <ele>859.2</ele>
        <time>2011-12-28T11:17:48Z</time>
      </trkpt>
      <trkpt lat="43.80258" lon="7.12034">
        <ele>859.9</ele>
        <time>2011-12-28T11:17:52Z</time>
      </trkpt>
      <trkpt lat="43.80251" lon="7.12032">
        <ele>860.5</ele>
        <time>2011-12-28T11:17:56Z</time>
      </trkpt>
      <trkpt lat="43.80242" lon="7.12029">
        <ele>860.1</ele>
        <time>2011-12-28T11:18:01Z</time>
      </trkpt>
      <trkpt lat="43.80235" lon="7.12021">
        <ele>862.1</ele>
        <time>2011-12-28T11:18:06Z</time>
      </trkpt>
      <trkpt lat="43.80235" lon="7.12019">
        <ele>862.6</ele>
        <time>2011-12-28T11:18:07Z</time>
      </trkpt>
      <trkpt lat="43.8023" lon="7.12">
        <ele>864.4</ele>
        <time>2011-12-28T11:18:16Z</time>
      </trkpt>
      <trkpt lat="43.80229" lon="7.11989">
        <ele>865.6</ele>
        <time>2011-12-28T11:18:21Z</time>
      </trkpt>
      <trkpt lat="43.80227" lon="7.11979">
        <ele>866</ele>
        <time>2011-12-28T11:18:25Z</time>
      </trkpt>
      <trkpt lat="43.80226" lon="7.11969">
        <ele>866.7</ele>
        <time>2011-12-28T11:18:29Z</time>
      </trkpt>
      <trkpt lat="43.80227" lon="7.11959">
        <ele>866.8</ele>
        <time>2011-12-28T11:18:33Z</time>
      </trkpt>
      <trkpt lat="43.8023" lon="7.11949">
        <ele>866.5</ele>
        <time>2011-12-28T11:18:37Z</time>
      </trkpt>
      <trkpt lat="43.80236" lon="7.11939">
        <ele>867.1</ele>
        <time>2011-12-28T11:18:41Z</time>
      </trkpt>
      <trkpt lat="43.80241" lon="7.11932">
        <ele>867.6</ele>
        <time>2011-12-28T11:18:44Z</time>
      </trkpt>
      <trkpt lat="43.80246" lon="7.11926">
        <ele>867.5</ele>
        <time>2011-12-28T11:18:47Z</time>
      </trkpt>
      <trkpt lat="43.8025" lon="7.11919">
        <ele>867.4</ele>
        <time>2011-12-28T11:18:50Z</time>
      </trkpt>
      <trkpt lat="43.80256" lon="7.11909">
        <ele>867.4</ele>
        <time>2011-12-28T11:18:54Z</time>
      </trkpt>
      <trkpt lat="43.8026" lon="7.11899">
        <ele>868.8</ele>
        <time>2011-12-28T11:18:58Z</time>
      </trkpt>
      <trkpt lat="43.80264" lon="7.11888">
        <ele>869.3</ele>
        <time>2011-12-28T11:19:02Z</time>
      </trkpt>
      <trkpt lat="43.80264" lon="7.11879">
        <ele>869.5</ele>
        <time>2011-12-28T11:19:05Z</time>
      </trkpt>
      <trkpt lat="43.80266" lon="7.11869">
        <ele>869.7</ele>
        <time>2011-12-28T11:19:08Z</time>
      </trkpt>
      <trkpt lat="43.80267" lon="7.11859">
        <ele>870.2</ele>
        <time>2011-12-28T11:19:11Z</time>
      </trkpt>
      <trkpt lat="43.80267" lon="7.11856">
        <ele>870.2</ele>
        <time>2011-12-28T11:19:12Z</time>
      </trkpt>
      <trkpt lat="43.80268" lon="7.11838">
        <ele>870.3</ele>
        <time>2011-12-28T11:19:18Z</time>
      </trkpt>
      <trkpt lat="43.80268" lon="7.11825">
        <ele>870.4</ele>
        <time>2011-12-28T11:19:22Z</time>
      </trkpt>
      <trkpt lat="43.80265" lon="7.11814">
        <ele>870.7</ele>
        <time>2011-12-28T11:19:26Z</time>
      </trkpt>
      <trkpt lat="43.80262" lon="7.11803">
        <ele>871.1</ele>
        <time>2011-12-28T11:19:30Z</time>
      </trkpt>
      <trkpt lat="43.80258" lon="7.11793">
        <ele>872.1</ele>
        <time>2011-12-28T11:19:34Z</time>
      </trkpt>
      <trkpt lat="43.80255" lon="7.11785">
        <ele>873.1</ele>
        <time>2011-12-28T11:19:37Z</time>
      </trkpt>
      <trkpt lat="43.80251" lon="7.11774">
        <ele>874.8</ele>
        <time>2011-12-28T11:19:41Z</time>
      </trkpt>
      <trkpt lat="43.80247" lon="7.11765">
        <ele>874.5</ele>
        <time>2011-12-28T11:19:45Z</time>
      </trkpt>
      <trkpt lat="43.80243" lon="7.11753">
        <ele>874.4</ele>
        <time>2011-12-28T11:19:49Z</time>
      </trkpt>
      <trkpt lat="43.8024" lon="7.11743">
        <ele>875.5</ele>
        <time>2011-12-28T11:19:53Z</time>
      </trkpt>
      <trkpt lat="43.80237" lon="7.11732">
        <ele>876.7</ele>
        <time>2011-12-28T11:19:57Z</time>
      </trkpt>
      <trkpt lat="43.80234" lon="7.11721">
        <ele>877.4</ele>
        <time>2011-12-28T11:20:01Z</time>
      </trkpt>
      <trkpt lat="43.80232" lon="7.1171">
        <ele>878.1</ele>
        <time>2011-12-28T11:20:05Z</time>
      </trkpt>
      <trkpt lat="43.8023" lon="7.11699">
        <ele>878.9</ele>
        <time>2011-12-28T11:20:09Z</time>
      </trkpt>
      <trkpt lat="43.80227" lon="7.11687">
        <ele>880.1</ele>
        <time>2011-12-28T11:20:13Z</time>
      </trkpt>
      <trkpt lat="43.80224" lon="7.11677">
        <ele>880.7</ele>
        <time>2011-12-28T11:20:17Z</time>
      </trkpt>
      <trkpt lat="43.80223" lon="7.11674">
        <ele>880.7</ele>
        <time>2011-12-28T11:20:18Z</time>
      </trkpt>
      <trkpt lat="43.80217" lon="7.11655">
        <ele>881.3</ele>
        <time>2011-12-28T11:20:25Z</time>
      </trkpt>
      <trkpt lat="43.80212" lon="7.11645">
        <ele>882.3</ele>
        <time>2011-12-28T11:20:29Z</time>
      </trkpt>
      <trkpt lat="43.80206" lon="7.11637">
        <ele>883</ele>
        <time>2011-12-28T11:20:33Z</time>
      </trkpt>
      <trkpt lat="43.802" lon="7.11629">
        <ele>883.4</ele>
        <time>2011-12-28T11:20:37Z</time>
      </trkpt>
      <trkpt lat="43.80193" lon="7.11622">
        <ele>883.9</ele>
        <time>2011-12-28T11:20:41Z</time>
      </trkpt>
      <trkpt lat="43.80187" lon="7.11613">
        <ele>884.5</ele>
        <time>2011-12-28T11:20:45Z</time>
      </trkpt>
      <trkpt lat="43.8018" lon="7.11606">
        <ele>884.4</ele>
        <time>2011-12-28T11:20:49Z</time>
      </trkpt>
      <trkpt lat="43.80174" lon="7.11598">
        <ele>885.1</ele>
        <time>2011-12-28T11:20:53Z</time>
      </trkpt>
      <trkpt lat="43.80169" lon="7.1159">
        <ele>885.7</ele>
        <time>2011-12-28T11:20:57Z</time>
      </trkpt>
      <trkpt lat="43.80164" lon="7.11582">
        <ele>887.2</ele>
        <time>2011-12-28T11:21:01Z</time>
      </trkpt>
      <trkpt lat="43.80159" lon="7.11573">
        <ele>887.7</ele>
        <time>2011-12-28T11:21:05Z</time>
      </trkpt>
      <trkpt lat="43.80154" lon="7.11563">
        <ele>888.5</ele>
        <time>2011-12-28T11:21:09Z</time>
      </trkpt>
      <trkpt lat="43.8015" lon="7.11553">
        <ele>889.2</ele>
        <time>2011-12-28T11:21:13Z</time>
      </trkpt>
      <trkpt lat="43.80145" lon="7.11544">
        <ele>889.6</ele>
        <time>2011-12-28T11:21:17Z</time>
      </trkpt>
      <trkpt lat="43.80141" lon="7.11533">
        <ele>890.3</ele>
        <time>2011-12-28T11:21:21Z</time>
      </trkpt>
      <trkpt lat="43.8014" lon="7.11531">
        <ele>890.5</ele>
        <time>2011-12-28T11:21:22Z</time>
      </trkpt>
      <trkpt lat="43.80133" lon="7.11513">
        <ele>890.5</ele>
        <time>2011-12-28T11:21:29Z</time>
      </trkpt>
      <trkpt lat="43.80128" lon="7.11503">
        <ele>891.6</ele>
        <time>2011-12-28T11:21:33Z</time>
      </trkpt>
      <trkpt lat="43.80124" lon="7.11492">
        <ele>891.6</ele>
        <time>2011-12-28T11:21:37Z</time>
      </trkpt>
      <trkpt lat="43.80119" lon="7.11482">
        <ele>891.9</ele>
        <time>2011-12-28T11:21:41Z</time>
      </trkpt>
      <trkpt lat="43.80115" lon="7.11472">
        <ele>893.4</ele>
        <time>2011-12-28T11:21:45Z</time>
      </trkpt>
      <trkpt lat="43.8011" lon="7.11462">
        <ele>893.6</ele>
        <time>2011-12-28T11:21:49Z</time>
      </trkpt>
      <trkpt lat="43.80106" lon="7.11452">
        <ele>894.1</ele>
        <time>2011-12-28T11:21:53Z</time>
      </trkpt>
      <trkpt lat="43.80102" lon="7.11444">
        <ele>894.3</ele>
        <time>2011-12-28T11:21:56Z</time>
      </trkpt>
      <trkpt lat="43.80098" lon="7.11433">
        <ele>895</ele>
        <time>2011-12-28T11:22:00Z</time>
      </trkpt>
      <trkpt lat="43.80094" lon="7.11422">
        <ele>895.2</ele>
        <time>2011-12-28T11:22:04Z</time>
      </trkpt>
      <trkpt lat="43.80092" lon="7.1141">
        <ele>895.6</ele>
        <time>2011-12-28T11:22:08Z</time>
      </trkpt>
      <trkpt lat="43.80091" lon="7.11398">
        <ele>896.4</ele>
        <time>2011-12-28T11:22:12Z</time>
      </trkpt>
      <trkpt lat="43.8009" lon="7.11386">
        <ele>897.1</ele>
        <time>2011-12-28T11:22:16Z</time>
      </trkpt>
      <trkpt lat="43.8009" lon="7.11374">
        <ele>897.4</ele>
        <time>2011-12-28T11:22:20Z</time>
      </trkpt>
      <trkpt lat="43.80089" lon="7.11361">
        <ele>897.9</ele>
        <time>2011-12-28T11:22:24Z</time>
      </trkpt>
      <trkpt lat="43.80089" lon="7.11358">
        <ele>897.9</ele>
        <time>2011-12-28T11:22:25Z</time>
      </trkpt>
      <trkpt lat="43.80087" lon="7.11342">
        <ele>898.5</ele>
        <time>2011-12-28T11:22:30Z</time>
      </trkpt>
      <trkpt lat="43.80086" lon="7.11332">
        <ele>898.2</ele>
        <time>2011-12-28T11:22:33Z</time>
      </trkpt>
      <trkpt lat="43.80083" lon="7.11321">
        <ele>899.3</ele>
        <time>2011-12-28T11:22:37Z</time>
      </trkpt>
      <trkpt lat="43.8008" lon="7.11311">
        <ele>899.8</ele>
        <time>2011-12-28T11:22:41Z</time>
      </trkpt>
      <trkpt lat="43.80071" lon="7.11311">
        <ele>901</ele>
        <time>2011-12-28T11:24:21Z</time>
      </trkpt>
      <trkpt lat="43.8007" lon="7.11312">
        <ele>900.9</ele>
        <time>2011-12-28T11:24:22Z</time>
      </trkpt>
      <trkpt lat="43.80058" lon="7.11325">
        <ele>901.4</ele>
        <time>2011-12-28T11:24:30Z</time>
      </trkpt>
      <trkpt lat="43.80053" lon="7.11333">
        <ele>901.7</ele>
        <time>2011-12-28T11:24:34Z</time>
      </trkpt>
      <trkpt lat="43.80049" lon="7.11344">
        <ele>902.6</ele>
        <time>2011-12-28T11:24:39Z</time>
      </trkpt>
      <trkpt lat="43.80045" lon="7.11354">
        <ele>903.3</ele>
        <time>2011-12-28T11:24:45Z</time>
      </trkpt>
      <trkpt lat="43.8004" lon="7.11363">
        <ele>904.5</ele>
        <time>2011-12-28T11:24:51Z</time>
      </trkpt>
      <trkpt lat="43.80034" lon="7.11371">
        <ele>905.5</ele>
        <time>2011-12-28T11:24:57Z</time>
      </trkpt>
      <trkpt lat="43.80029" lon="7.1138">
        <ele>907.2</ele>
        <time>2011-12-28T11:25:04Z</time>
      </trkpt>
      <trkpt lat="43.80022" lon="7.11389">
        <ele>909.5</ele>
        <time>2011-12-28T11:25:12Z</time>
      </trkpt>
      <trkpt lat="43.80016" lon="7.11397">
        <ele>910.6</ele>
        <time>2011-12-28T11:25:20Z</time>
      </trkpt>
      <trkpt lat="43.80009" lon="7.11403">
        <ele>912.2</ele>
        <time>2011-12-28T11:25:28Z</time>
      </trkpt>
      <trkpt lat="43.80008" lon="7.11404">
        <ele>912.4</ele>
        <time>2011-12-28T11:25:29Z</time>
      </trkpt>
      <trkpt lat="43.79994" lon="7.11415">
        <ele>914.9</ele>
        <time>2011-12-28T11:25:43Z</time>
      </trkpt>
      <trkpt lat="43.79987" lon="7.11422">
        <ele>916</ele>
        <time>2011-12-28T11:25:50Z</time>
      </trkpt>
      <trkpt lat="43.7998" lon="7.11429">
        <ele>917.1</ele>
        <time>2011-12-28T11:25:57Z</time>
      </trkpt>
      <trkpt lat="43.79973" lon="7.11435">
        <ele>919.1</ele>
        <time>2011-12-28T11:26:04Z</time>
      </trkpt>
      <trkpt lat="43.79965" lon="7.11438">
        <ele>919.5</ele>
        <time>2011-12-28T11:26:11Z</time>
      </trkpt>
      <trkpt lat="43.79957" lon="7.11442">
        <ele>921.1</ele>
        <time>2011-12-28T11:27:04Z</time>
      </trkpt>
      <trkpt lat="43.79956" lon="7.11442">
        <ele>921.2</ele>
        <time>2011-12-28T11:27:05Z</time>
      </trkpt>
      <trkpt lat="43.79942" lon="7.11451">
        <ele>922.3</ele>
        <time>2011-12-28T11:27:32Z</time>
      </trkpt>
      <trkpt lat="43.79934" lon="7.11453">
        <ele>922.8</ele>
        <time>2011-12-28T11:27:38Z</time>
      </trkpt>
      <trkpt lat="43.79926" lon="7.11457">
        <ele>923.6</ele>
        <time>2011-12-28T11:27:44Z</time>
      </trkpt>
      <trkpt lat="43.79917" lon="7.11462">
        <ele>923.6</ele>
        <time>2011-12-28T11:27:50Z</time>
      </trkpt>
      <trkpt lat="43.7991" lon="7.11465">
        <ele>925.4</ele>
        <time>2011-12-28T11:27:56Z</time>
      </trkpt>
      <trkpt lat="43.79902" lon="7.11469">
        <ele>926.5</ele>
        <time>2011-12-28T11:28:03Z</time>
      </trkpt>
      <trkpt lat="43.79894" lon="7.11473">
        <ele>926.6</ele>
        <time>2011-12-28T11:28:09Z</time>
      </trkpt>
      <trkpt lat="43.79893" lon="7.11473">
        <ele>926.6</ele>
        <time>2011-12-28T11:28:10Z</time>
      </trkpt>
      <trkpt lat="43.79878" lon="7.11477">
        <ele>929.2</ele>
        <time>2011-12-28T11:28:22Z</time>
      </trkpt>
      <trkpt lat="43.79871" lon="7.11479">
        <ele>929.9</ele>
        <time>2011-12-28T11:28:28Z</time>
      </trkpt>
      <trkpt lat="43.79863" lon="7.11482">
        <ele>931.6</ele>
        <time>2011-12-28T11:28:34Z</time>
      </trkpt>
      <trkpt lat="43.79854" lon="7.11484">
        <ele>931.2</ele>
        <time>2011-12-28T11:28:40Z</time>
      </trkpt>
      <trkpt lat="43.79846" lon="7.11484">
        <ele>931.7</ele>
        <time>2011-12-28T11:28:46Z</time>
      </trkpt>
      <trkpt lat="43.79837" lon="7.11484">
        <ele>931.1</ele>
        <time>2011-12-28T11:28:52Z</time>
      </trkpt>
      <trkpt lat="43.7983" lon="7.11485">
        <ele>932.4</ele>
        <time>2011-12-28T11:28:57Z</time>
      </trkpt>
      <trkpt lat="43.79822" lon="7.11487">
        <ele>932.6</ele>
        <time>2011-12-28T11:29:02Z</time>
      </trkpt>
      <trkpt lat="43.79815" lon="7.1149">
        <ele>932.9</ele>
        <time>2011-12-28T11:29:07Z</time>
      </trkpt>
      <trkpt lat="43.79807" lon="7.11494">
        <ele>933.3</ele>
        <time>2011-12-28T11:29:13Z</time>
      </trkpt>
      <trkpt lat="43.79806" lon="7.11495">
        <ele>933.2</ele>
        <time>2011-12-28T11:29:14Z</time>
      </trkpt>
      <trkpt lat="43.79791" lon="7.115">
        <ele>936.1</ele>
        <time>2011-12-28T11:29:25Z</time>
      </trkpt>
      <trkpt lat="43.79783" lon="7.11502">
        <ele>937.4</ele>
        <time>2011-12-28T11:29:31Z</time>
      </trkpt>
      <trkpt lat="43.79782" lon="7.11514">
        <ele>938.9</ele>
        <time>2011-12-28T11:29:44Z</time>
      </trkpt>
      <trkpt lat="43.79788" lon="7.11523">
        <ele>940.1</ele>
        <time>2011-12-28T11:30:04Z</time>
      </trkpt>
      <trkpt lat="43.7978" lon="7.11525">
        <ele>941.5</ele>
        <time>2011-12-28T11:30:11Z</time>
      </trkpt>
      <trkpt lat="43.79773" lon="7.11523">
        <ele>941.8</ele>
        <time>2011-12-28T11:30:17Z</time>
      </trkpt>
      <trkpt lat="43.79771" lon="7.11522">
        <ele>942</ele>
        <time>2011-12-28T11:30:18Z</time>
      </trkpt>
      <trkpt lat="43.79756" lon="7.11516">
        <ele>944.3</ele>
        <time>2011-12-28T11:30:29Z</time>
      </trkpt>
      <trkpt lat="43.79748" lon="7.11516">
        <ele>944.3</ele>
        <time>2011-12-28T11:30:35Z</time>
      </trkpt>
      <trkpt lat="43.79741" lon="7.11514">
        <ele>946.2</ele>
        <time>2011-12-28T11:30:41Z</time>
      </trkpt>
      <trkpt lat="43.79733" lon="7.11512">
        <ele>947</ele>
        <time>2011-12-28T11:30:47Z</time>
      </trkpt>
      <trkpt lat="43.79725" lon="7.1151">
        <ele>947.4</ele>
        <time>2011-12-28T11:30:53Z</time>
      </trkpt>
      <trkpt lat="43.79717" lon="7.11509">
        <ele>948</ele>
        <time>2011-12-28T11:30:59Z</time>
      </trkpt>
      <trkpt lat="43.79709" lon="7.11505">
        <ele>948.7</ele>
        <time>2011-12-28T11:31:05Z</time>
      </trkpt>
      <trkpt lat="43.797" lon="7.11503">
        <ele>949.6</ele>
        <time>2011-12-28T11:31:12Z</time>
      </trkpt>
      <trkpt lat="43.79692" lon="7.115">
        <ele>951.4</ele>
        <time>2011-12-28T11:31:19Z</time>
      </trkpt>
      <trkpt lat="43.79691" lon="7.115">
        <ele>951.7</ele>
        <time>2011-12-28T11:31:20Z</time>
      </trkpt>
      <trkpt lat="43.79676" lon="7.11493">
        <ele>952.3</ele>
        <time>2011-12-28T11:31:33Z</time>
      </trkpt>
      <trkpt lat="43.79667" lon="7.11492">
        <ele>953.2</ele>
        <time>2011-12-28T11:31:40Z</time>
      </trkpt>
      <trkpt lat="43.7966" lon="7.11488">
        <ele>954.1</ele>
        <time>2011-12-28T11:31:46Z</time>
      </trkpt>
      <trkpt lat="43.79652" lon="7.11485">
        <ele>955.7</ele>
        <time>2011-12-28T11:31:52Z</time>
      </trkpt>
      <trkpt lat="43.79643" lon="7.11481">
        <ele>956.1</ele>
        <time>2011-12-28T11:31:59Z</time>
      </trkpt>
      <trkpt lat="43.79635" lon="7.11478">
        <ele>957.9</ele>
        <time>2011-12-28T11:32:06Z</time>
      </trkpt>
      <trkpt lat="43.79627" lon="7.11476">
        <ele>958.7</ele>
        <time>2011-12-28T11:32:12Z</time>
      </trkpt>
      <trkpt lat="43.79626" lon="7.11487">
        <ele>960.7</ele>
        <time>2011-12-28T11:32:26Z</time>
      </trkpt>
      <trkpt lat="43.79627" lon="7.11489">
        <ele>961.1</ele>
        <time>2011-12-28T11:32:27Z</time>
      </trkpt>
      <trkpt lat="43.79634" lon="7.11506">
        <ele>961.8</ele>
        <time>2011-12-28T11:32:38Z</time>
      </trkpt>
      <trkpt lat="43.79637" lon="7.11517">
        <ele>963.4</ele>
        <time>2011-12-28T11:32:48Z</time>
      </trkpt>
      <trkpt lat="43.7964" lon="7.11527">
        <ele>964.2</ele>
        <time>2011-12-28T11:32:54Z</time>
      </trkpt>
      <trkpt lat="43.79642" lon="7.11538">
        <ele>965.7</ele>
        <time>2011-12-28T11:33:00Z</time>
      </trkpt>
      <trkpt lat="43.79644" lon="7.11549">
        <ele>966.5</ele>
        <time>2011-12-28T11:33:07Z</time>
      </trkpt>
      <trkpt lat="43.79646" lon="7.11561">
        <ele>968.3</ele>
        <time>2011-12-28T11:33:17Z</time>
      </trkpt>
      <trkpt lat="43.79651" lon="7.1157">
        <ele>970.3</ele>
        <time>2011-12-28T11:33:28Z</time>
      </trkpt>
      <trkpt lat="43.79657" lon="7.11579">
        <ele>970.9</ele>
        <time>2011-12-28T11:33:49Z</time>
      </trkpt>
      <trkpt lat="43.79658" lon="7.1158">
        <ele>971.1</ele>
        <time>2011-12-28T11:33:50Z</time>
      </trkpt>
      <trkpt lat="43.79664" lon="7.11599">
        <ele>973.5</ele>
        <time>2011-12-28T11:34:01Z</time>
      </trkpt>
      <trkpt lat="43.79668" lon="7.11609">
        <ele>975.7</ele>
        <time>2011-12-28T11:34:08Z</time>
      </trkpt>
      <trkpt lat="43.79675" lon="7.11617">
        <ele>976.3</ele>
        <time>2011-12-28T11:34:15Z</time>
      </trkpt>
      <trkpt lat="43.79681" lon="7.11625">
        <ele>977.7</ele>
        <time>2011-12-28T11:34:21Z</time>
      </trkpt>
      <trkpt lat="43.79685" lon="7.11636">
        <ele>978</ele>
        <time>2011-12-28T11:34:27Z</time>
      </trkpt>
      <trkpt lat="43.7969" lon="7.11645">
        <ele>980</ele>
        <time>2011-12-28T11:34:33Z</time>
      </trkpt>
      <trkpt lat="43.79696" lon="7.11653">
        <ele>981</ele>
        <time>2011-12-28T11:34:39Z</time>
      </trkpt>
      <trkpt lat="43.797" lon="7.11663">
        <ele>982.5</ele>
        <time>2011-12-28T11:34:45Z</time>
      </trkpt>
      <trkpt lat="43.79705" lon="7.11672">
        <ele>983</ele>
        <time>2011-12-28T11:34:51Z</time>
      </trkpt>
      <trkpt lat="43.79706" lon="7.11673">
        <ele>983.3</ele>
        <time>2011-12-28T11:34:52Z</time>
      </trkpt>
      <trkpt lat="43.79712" lon="7.11691">
        <ele>983.4</ele>
        <time>2011-12-28T11:35:01Z</time>
      </trkpt>
      <trkpt lat="43.79713" lon="7.11702">
        <ele>984.7</ele>
        <time>2011-12-28T11:35:05Z</time>
      </trkpt>
      <trkpt lat="43.79714" lon="7.11714">
        <ele>984.4</ele>
        <time>2011-12-28T11:35:09Z</time>
      </trkpt>
      <trkpt lat="43.79715" lon="7.11724">
        <ele>984.6</ele>
        <time>2011-12-28T11:35:12Z</time>
      </trkpt>
      <trkpt lat="43.79715" lon="7.11734">
        <ele>984.8</ele>
        <time>2011-12-28T11:35:15Z</time>
      </trkpt>
      <trkpt lat="43.79713" lon="7.11744">
        <ele>985.3</ele>
        <time>2011-12-28T11:35:18Z</time>
      </trkpt>
      <trkpt lat="43.79712" lon="7.11756">
        <ele>985.4</ele>
        <time>2011-12-28T11:35:22Z</time>
      </trkpt>
      <trkpt lat="43.79712" lon="7.11768">
        <ele>985.8</ele>
        <time>2011-12-28T11:35:26Z</time>
      </trkpt>
      <trkpt lat="43.7971" lon="7.11779">
        <ele>985.4</ele>
        <time>2011-12-28T11:35:30Z</time>
      </trkpt>
      <trkpt lat="43.79706" lon="7.11788">
        <ele>986.3</ele>
        <time>2011-12-28T11:35:34Z</time>
      </trkpt>
      <trkpt lat="43.797" lon="7.11797">
        <ele>987</ele>
        <time>2011-12-28T11:35:38Z</time>
      </trkpt>
      <trkpt lat="43.79694" lon="7.11804">
        <ele>987.1</ele>
        <time>2011-12-28T11:35:42Z</time>
      </trkpt>
      <trkpt lat="43.79689" lon="7.11813">
        <ele>987.8</ele>
        <time>2011-12-28T11:35:47Z</time>
      </trkpt>
      <trkpt lat="43.79688" lon="7.11825">
        <ele>989.5</ele>
        <time>2011-12-28T11:35:53Z</time>
      </trkpt>
      <trkpt lat="43.79689" lon="7.11836">
        <ele>990.4</ele>
        <time>2011-12-28T11:35:58Z</time>
      </trkpt>
      <trkpt lat="43.7969" lon="7.11838">
        <ele>990.3</ele>
        <time>2011-12-28T11:35:59Z</time>
      </trkpt>
      <trkpt lat="43.79688" lon="7.11857">
        <ele>990.6</ele>
        <time>2011-12-28T11:36:08Z</time>
      </trkpt>
      <trkpt lat="43.79686" lon="7.11869">
        <ele>992.7</ele>
        <time>2011-12-28T11:36:13Z</time>
      </trkpt>
      <trkpt lat="43.79684" lon="7.11879">
        <ele>992.1</ele>
        <time>2011-12-28T11:36:17Z</time>
      </trkpt>
      <trkpt lat="43.79683" lon="7.11889">
        <ele>992.3</ele>
        <time>2011-12-28T11:36:21Z</time>
      </trkpt>
      <trkpt lat="43.79681" lon="7.11899">
        <ele>993</ele>
        <time>2011-12-28T11:36:25Z</time>
      </trkpt>
      <trkpt lat="43.79681" lon="7.11909">
        <ele>994.4</ele>
        <time>2011-12-28T11:36:29Z</time>
      </trkpt>
      <trkpt lat="43.7968" lon="7.11921">
        <ele>995.6</ele>
        <time>2011-12-28T11:36:34Z</time>
      </trkpt>
      <trkpt lat="43.79679" lon="7.11933">
        <ele>995.2</ele>
        <time>2011-12-28T11:36:39Z</time>
      </trkpt>
      <trkpt lat="43.79675" lon="7.11944">
        <ele>995.4</ele>
        <time>2011-12-28T11:36:44Z</time>
      </trkpt>
      <trkpt lat="43.79672" lon="7.11953">
        <ele>995.8</ele>
        <time>2011-12-28T11:36:48Z</time>
      </trkpt>
      <trkpt lat="43.79669" lon="7.11962">
        <ele>996.4</ele>
        <time>2011-12-28T11:36:52Z</time>
      </trkpt>
      <trkpt lat="43.79665" lon="7.11972">
        <ele>996.6</ele>
        <time>2011-12-28T11:36:56Z</time>
      </trkpt>
      <trkpt lat="43.79662" lon="7.11982">
        <ele>996.7</ele>
        <time>2011-12-28T11:37:00Z</time>
      </trkpt>
      <trkpt lat="43.79658" lon="7.11993">
        <ele>996.9</ele>
        <time>2011-12-28T11:37:05Z</time>
      </trkpt>
      <trkpt lat="43.79657" lon="7.11995">
        <ele>997.1</ele>
        <time>2011-12-28T11:37:06Z</time>
      </trkpt>
      <trkpt lat="43.79647" lon="7.12011">
        <ele>997.6</ele>
        <time>2011-12-28T11:37:15Z</time>
      </trkpt>
      <trkpt lat="43.7964" lon="7.12012">
        <ele>997.4</ele>
        <time>2011-12-28T11:37:19Z</time>
      </trkpt>
      <trkpt lat="43.79633" lon="7.12016">
        <ele>997.9</ele>
        <time>2011-12-28T11:37:23Z</time>
      </trkpt>
      <trkpt lat="43.79627" lon="7.12024">
        <ele>998.1</ele>
        <time>2011-12-28T11:37:27Z</time>
      </trkpt>
      <trkpt lat="43.79623" lon="7.12033">
        <ele>998.9</ele>
        <time>2011-12-28T11:37:31Z</time>
      </trkpt>
      <trkpt lat="43.79618" lon="7.12041">
        <ele>998.6</ele>
        <time>2011-12-28T11:37:35Z</time>
      </trkpt>
      <trkpt lat="43.79614" lon="7.12049">
        <ele>998.8</ele>
        <time>2011-12-28T11:37:39Z</time>
      </trkpt>
      <trkpt lat="43.7961" lon="7.1206">
        <ele>999.4</ele>
        <time>2011-12-28T11:37:44Z</time>
      </trkpt>
      <trkpt lat="43.79609" lon="7.12072">
        <ele>1000.4</ele>
        <time>2011-12-28T11:37:49Z</time>
      </trkpt>
      <trkpt lat="43.79607" lon="7.12084">
        <ele>1001.5</ele>
        <time>2011-12-28T11:37:54Z</time>
      </trkpt>
      <trkpt lat="43.79606" lon="7.12096">
        <ele>1002.1</ele>
        <time>2011-12-28T11:37:59Z</time>
      </trkpt>
      <trkpt lat="43.79604" lon="7.12107">
        <ele>1002.6</ele>
        <time>2011-12-28T11:38:04Z</time>
      </trkpt>
      <trkpt lat="43.796" lon="7.12118">
        <ele>1002.8</ele>
        <time>2011-12-28T11:38:09Z</time>
      </trkpt>
      <trkpt lat="43.796" lon="7.1212">
        <ele>1003</ele>
        <time>2011-12-28T11:38:10Z</time>
      </trkpt>
      <trkpt lat="43.79593" lon="7.12135">
        <ele>1003.6</ele>
        <time>2011-12-28T11:38:17Z</time>
      </trkpt>
      <trkpt lat="43.79589" lon="7.12144">
        <ele>1004.6</ele>
        <time>2011-12-28T11:38:21Z</time>
      </trkpt>
      <trkpt lat="43.79585" lon="7.12153">
        <ele>1004.5</ele>
        <time>2011-12-28T11:38:25Z</time>
      </trkpt>
      <trkpt lat="43.79581" lon="7.12162">
        <ele>1005.1</ele>
        <time>2011-12-28T11:38:29Z</time>
      </trkpt>
      <trkpt lat="43.79576" lon="7.12172">
        <ele>1005.1</ele>
        <time>2011-12-28T11:38:34Z</time>
      </trkpt>
      <trkpt lat="43.79571" lon="7.12182">
        <ele>1006</ele>
        <time>2011-12-28T11:38:39Z</time>
      </trkpt>
      <trkpt lat="43.79567" lon="7.12192">
        <ele>1007.1</ele>
        <time>2011-12-28T11:38:44Z</time>
      </trkpt>
      <trkpt lat="43.79565" lon="7.12203">
        <ele>1008.3</ele>
        <time>2011-12-28T11:38:49Z</time>
      </trkpt>
      <trkpt lat="43.79565" lon="7.12215">
        <ele>1008.6</ele>
        <time>2011-12-28T11:38:54Z</time>
      </trkpt>
      <trkpt lat="43.79566" lon="7.12227">
        <ele>1009.8</ele>
        <time>2011-12-28T11:38:59Z</time>
      </trkpt>
      <trkpt lat="43.79569" lon="7.12236">
        <ele>1009.6</ele>
        <time>2011-12-28T11:39:03Z</time>
      </trkpt>
      <trkpt lat="43.79573" lon="7.12247">
        <ele>1009.8</ele>
        <time>2011-12-28T11:39:08Z</time>
      </trkpt>
      <trkpt lat="43.79578" lon="7.12256">
        <ele>1010.4</ele>
        <time>2011-12-28T11:39:13Z</time>
      </trkpt>
      <trkpt lat="43.79579" lon="7.12258">
        <ele>1010.2</ele>
        <time>2011-12-28T11:39:14Z</time>
      </trkpt>
      <trkpt lat="43.79583" lon="7.12275">
        <ele>1011.6</ele>
        <time>2011-12-28T11:39:21Z</time>
      </trkpt>
      <trkpt lat="43.79584" lon="7.12287">
        <ele>1011.6</ele>
        <time>2011-12-28T11:39:26Z</time>
      </trkpt>
      <trkpt lat="43.79583" lon="7.12299">
        <ele>1011.9</ele>
        <time>2011-12-28T11:39:30Z</time>
      </trkpt>
      <trkpt lat="43.79581" lon="7.12311">
        <ele>1012.2</ele>
        <time>2011-12-28T11:39:34Z</time>
      </trkpt>
      <trkpt lat="43.79579" lon="7.12321">
        <ele>1011.9</ele>
        <time>2011-12-28T11:39:38Z</time>
      </trkpt>
      <trkpt lat="43.79576" lon="7.12331">
        <ele>1012.2</ele>
        <time>2011-12-28T11:39:42Z</time>
      </trkpt>
      <trkpt lat="43.79573" lon="7.12342">
        <ele>1013.1</ele>
        <time>2011-12-28T11:39:46Z</time>
      </trkpt>
      <trkpt lat="43.79571" lon="7.12354">
        <ele>1013.7</ele>
        <time>2011-12-28T11:39:50Z</time>
      </trkpt>
      <trkpt lat="43.79569" lon="7.12364">
        <ele>1014.3</ele>
        <time>2011-12-28T11:39:54Z</time>
      </trkpt>
      <trkpt lat="43.79561" lon="7.1237">
        <ele>1015.1</ele>
        <time>2011-12-28T11:40:22Z</time>
      </trkpt>
      <trkpt lat="43.79561" lon="7.12371">
        <ele>1015</ele>
        <time>2011-12-28T11:40:23Z</time>
      </trkpt>
      <trkpt lat="43.79545" lon="7.12379">
        <ele>1017.6</ele>
        <time>2011-12-28T11:40:46Z</time>
      </trkpt>
      <trkpt lat="43.79553" lon="7.12381">
        <ele>1017.7</ele>
        <time>2011-12-28T11:41:59Z</time>
      </trkpt>
      <trkpt lat="43.79555" lon="7.1238">
        <ele>1017.6</ele>
        <time>2011-12-28T11:42:00Z</time>
      </trkpt>
      <trkpt lat="43.79569" lon="7.1238">
        <ele>1015.7</ele>
        <time>2011-12-28T11:42:07Z</time>
      </trkpt>
      <trkpt lat="43.7957" lon="7.12392">
        <ele>1015.3</ele>
        <time>2011-12-28T11:42:11Z</time>
      </trkpt>
      <trkpt lat="43.7957" lon="7.12401">
        <ele>1015.2</ele>
        <time>2011-12-28T11:42:14Z</time>
      </trkpt>
      <trkpt lat="43.79571" lon="7.12412">
        <ele>1015.6</ele>
        <time>2011-12-28T11:42:17Z</time>
      </trkpt>
      <trkpt lat="43.79571" lon="7.1242">
        <ele>1014.7</ele>
        <time>2011-12-28T11:42:19Z</time>
      </trkpt>
      <trkpt lat="43.79568" lon="7.12429">
        <ele>1014.4</ele>
        <time>2011-12-28T11:42:21Z</time>
      </trkpt>
      <trkpt lat="43.79563" lon="7.12438">
        <ele>1014</ele>
        <time>2011-12-28T11:42:23Z</time>
      </trkpt>
      <trkpt lat="43.79556" lon="7.12442">
        <ele>1013.3</ele>
        <time>2011-12-28T11:42:25Z</time>
      </trkpt>
      <trkpt lat="43.79548" lon="7.12444">
        <ele>1012.7</ele>
        <time>2011-12-28T11:42:27Z</time>
      </trkpt>
      <trkpt lat="43.79544" lon="7.12446">
        <ele>1011.9</ele>
        <time>2011-12-28T11:42:28Z</time>
      </trkpt>
      <trkpt lat="43.7954" lon="7.1245">
        <ele>1011.3</ele>
        <time>2011-12-28T11:42:29Z</time>
      </trkpt>
      <trkpt lat="43.79537" lon="7.12456">
        <ele>1010.8</ele>
        <time>2011-12-28T11:42:30Z</time>
      </trkpt>
      <trkpt lat="43.79534" lon="7.12462">
        <ele>1010.4</ele>
        <time>2011-12-28T11:42:31Z</time>
      </trkpt>
      <trkpt lat="43.79531" lon="7.12468">
        <ele>1009.8</ele>
        <time>2011-12-28T11:42:32Z</time>
      </trkpt>
      <trkpt lat="43.7953" lon="7.12475">
        <ele>1009.3</ele>
        <time>2011-12-28T11:42:33Z</time>
      </trkpt>
      <trkpt lat="43.79526" lon="7.12486">
        <ele>1008.9</ele>
        <time>2011-12-28T11:42:35Z</time>
      </trkpt>
      <trkpt lat="43.79523" lon="7.12495">
        <ele>1009</ele>
        <time>2011-12-28T11:42:37Z</time>
      </trkpt>
      <trkpt lat="43.79519" lon="7.12504">
        <ele>1008.8</ele>
        <time>2011-12-28T11:42:39Z</time>
      </trkpt>
      <trkpt lat="43.79515" lon="7.12513">
        <ele>1008.4</ele>
        <time>2011-12-28T11:42:41Z</time>
      </trkpt>
      <trkpt lat="43.79512" lon="7.1252">
        <ele>1008.4</ele>
        <time>2011-12-28T11:42:43Z</time>
      </trkpt>
      <trkpt lat="43.79507" lon="7.12529">
        <ele>1008.8</ele>
        <time>2011-12-28T11:42:46Z</time>
      </trkpt>
      <trkpt lat="43.79502" lon="7.1254">
        <ele>1009.5</ele>
        <time>2011-12-28T11:42:50Z</time>
      </trkpt>
      <trkpt lat="43.79497" lon="7.1255">
        <ele>1009.9</ele>
        <time>2011-12-28T11:42:54Z</time>
      </trkpt>
      <trkpt lat="43.79494" lon="7.12559">
        <ele>1012.2</ele>
        <time>2011-12-28T11:42:58Z</time>
      </trkpt>
      <trkpt lat="43.79494" lon="7.1257">
        <ele>1013.6</ele>
        <time>2011-12-28T11:43:03Z</time>
      </trkpt>
      <trkpt lat="43.79494" lon="7.12572">
        <ele>1014</ele>
        <time>2011-12-28T11:43:04Z</time>
      </trkpt>
      <trkpt lat="43.79491" lon="7.12593">
        <ele>1016.2</ele>
        <time>2011-12-28T11:43:15Z</time>
      </trkpt>
      <trkpt lat="43.79485" lon="7.12601">
        <ele>1017.1</ele>
        <time>2011-12-28T11:43:21Z</time>
      </trkpt>
      <trkpt lat="43.79477" lon="7.12603">
        <ele>1017.9</ele>
        <time>2011-12-28T11:43:27Z</time>
      </trkpt>
      <trkpt lat="43.79468" lon="7.12606">
        <ele>1018.5</ele>
        <time>2011-12-28T11:43:34Z</time>
      </trkpt>
      <trkpt lat="43.7946" lon="7.12609">
        <ele>1019.5</ele>
        <time>2011-12-28T11:43:41Z</time>
      </trkpt>
      <trkpt lat="43.79452" lon="7.12614">
        <ele>1019.8</ele>
        <time>2011-12-28T11:43:48Z</time>
      </trkpt>
      <trkpt lat="43.79448" lon="7.12624">
        <ele>1021.2</ele>
        <time>2011-12-28T11:44:24Z</time>
      </trkpt>
      <trkpt lat="43.79447" lon="7.12625">
        <ele>1021.2</ele>
        <time>2011-12-28T11:44:25Z</time>
      </trkpt>
      <trkpt lat="43.79436" lon="7.12632">
        <ele>1020.1</ele>
        <time>2011-12-28T11:44:31Z</time>
      </trkpt>
      <trkpt lat="43.79428" lon="7.12636">
        <ele>1020.1</ele>
        <time>2011-12-28T11:44:34Z</time>
      </trkpt>
      <trkpt lat="43.79419" lon="7.12638">
        <ele>1020</ele>
        <time>2011-12-28T11:44:37Z</time>
      </trkpt>
      <trkpt lat="43.79413" lon="7.12641">
        <ele>1020.2</ele>
        <time>2011-12-28T11:44:39Z</time>
      </trkpt>
      <trkpt lat="43.79405" lon="7.12645">
        <ele>1020</ele>
        <time>2011-12-28T11:44:42Z</time>
      </trkpt>
      <trkpt lat="43.79397" lon="7.12649">
        <ele>1020.8</ele>
        <time>2011-12-28T11:44:45Z</time>
      </trkpt>
      <trkpt lat="43.79391" lon="7.12652">
        <ele>1021.5</ele>
        <time>2011-12-28T11:44:48Z</time>
      </trkpt>
      <trkpt lat="43.79385" lon="7.12657">
        <ele>1021.8</ele>
        <time>2011-12-28T11:44:51Z</time>
      </trkpt>
      <trkpt lat="43.79379" lon="7.12667">
        <ele>1022.4</ele>
        <time>2011-12-28T11:44:55Z</time>
      </trkpt>
      <trkpt lat="43.79374" lon="7.12676">
        <ele>1023.2</ele>
        <time>2011-12-28T11:44:59Z</time>
      </trkpt>
      <trkpt lat="43.7937" lon="7.12686">
        <ele>1024.5</ele>
        <time>2011-12-28T11:45:03Z</time>
      </trkpt>
      <trkpt lat="43.79366" lon="7.12695">
        <ele>1025.1</ele>
        <time>2011-12-28T11:45:07Z</time>
      </trkpt>
      <trkpt lat="43.79361" lon="7.12705">
        <ele>1025.4</ele>
        <time>2011-12-28T11:45:11Z</time>
      </trkpt>
      <trkpt lat="43.79358" lon="7.12714">
        <ele>1025.2</ele>
        <time>2011-12-28T11:45:15Z</time>
      </trkpt>
      <trkpt lat="43.7935" lon="7.12718">
        <ele>1026.2</ele>
        <time>2011-12-28T11:45:20Z</time>
      </trkpt>
      <trkpt lat="43.79342" lon="7.12716">
        <ele>1027.1</ele>
        <time>2011-12-28T11:49:07Z</time>
      </trkpt>
      <trkpt lat="43.7934" lon="7.12716">
        <ele>1027.2</ele>
        <time>2011-12-28T11:49:08Z</time>
      </trkpt>
      <trkpt lat="43.79326" lon="7.12717">
        <ele>1026.4</ele>
        <time>2011-12-28T11:49:16Z</time>
      </trkpt>
      <trkpt lat="43.79319" lon="7.12723">
        <ele>1026.3</ele>
        <time>2011-12-28T11:49:20Z</time>
      </trkpt>
      <trkpt lat="43.79312" lon="7.1273">
        <ele>1026</ele>
        <time>2011-12-28T11:49:24Z</time>
      </trkpt>
      <trkpt lat="43.79306" lon="7.12736">
        <ele>1026.4</ele>
        <time>2011-12-28T11:49:27Z</time>
      </trkpt>
      <trkpt lat="43.79301" lon="7.12741">
        <ele>1026.2</ele>
        <time>2011-12-28T11:49:29Z</time>
      </trkpt>
      <trkpt lat="43.79296" lon="7.12751">
        <ele>1025.3</ele>
        <time>2011-12-28T11:49:32Z</time>
      </trkpt>
      <trkpt lat="43.79295" lon="7.12763">
        <ele>1024.7</ele>
        <time>2011-12-28T11:49:38Z</time>
      </trkpt>
      <trkpt lat="43.79294" lon="7.12773">
        <ele>1024.2</ele>
        <time>2011-12-28T11:50:26Z</time>
      </trkpt>
      <trkpt lat="43.79293" lon="7.12776">
        <ele>1024</ele>
        <time>2011-12-28T11:50:27Z</time>
      </trkpt>
      <trkpt lat="43.79294" lon="7.1279">
        <ele>1023.1</ele>
        <time>2011-12-28T11:50:30Z</time>
      </trkpt>
      <trkpt lat="43.79293" lon="7.12802">
        <ele>1022.8</ele>
        <time>2011-12-28T11:50:32Z</time>
      </trkpt>
      <trkpt lat="43.79292" lon="7.12808">
        <ele>1022.8</ele>
        <time>2011-12-28T11:50:33Z</time>
      </trkpt>
      <trkpt lat="43.79291" lon="7.12815">
        <ele>1022</ele>
        <time>2011-12-28T11:50:34Z</time>
      </trkpt>
      <trkpt lat="43.7929" lon="7.12821">
        <ele>1021.3</ele>
        <time>2011-12-28T11:50:35Z</time>
      </trkpt>
      <trkpt lat="43.79289" lon="7.12827">
        <ele>1020.9</ele>
        <time>2011-12-28T11:50:36Z</time>
      </trkpt>
      <trkpt lat="43.79288" lon="7.12834">
        <ele>1020.6</ele>
        <time>2011-12-28T11:50:37Z</time>
      </trkpt>
      <trkpt lat="43.79287" lon="7.1284">
        <ele>1020.4</ele>
        <time>2011-12-28T11:50:38Z</time>
      </trkpt>
      <trkpt lat="43.79286" lon="7.12847">
        <ele>1019.3</ele>
        <time>2011-12-28T11:50:39Z</time>
      </trkpt>
      <trkpt lat="43.79285" lon="7.12854">
        <ele>1018.5</ele>
        <time>2011-12-28T11:50:40Z</time>
      </trkpt>
      <trkpt lat="43.79284" lon="7.12861">
        <ele>1017.5</ele>
        <time>2011-12-28T11:50:41Z</time>
      </trkpt>
      <trkpt lat="43.79283" lon="7.12868">
        <ele>1016.7</ele>
        <time>2011-12-28T11:50:42Z</time>
      </trkpt>
      <trkpt lat="43.79282" lon="7.12875">
        <ele>1016.1</ele>
        <time>2011-12-28T11:50:43Z</time>
      </trkpt>
      <trkpt lat="43.79282" lon="7.12882">
        <ele>1015.4</ele>
        <time>2011-12-28T11:50:44Z</time>
      </trkpt>
      <trkpt lat="43.7928" lon="7.12891">
        <ele>1014</ele>
        <time>2011-12-28T11:50:46Z</time>
      </trkpt>
      <trkpt lat="43.79271" lon="7.12895">
        <ele>1011.1</ele>
        <time>2011-12-28T11:50:49Z</time>
      </trkpt>
      <trkpt lat="43.79265" lon="7.12891">
        <ele>1010</ele>
        <time>2011-12-28T11:50:51Z</time>
      </trkpt>
      <trkpt lat="43.79257" lon="7.12886">
        <ele>1007.7</ele>
        <time>2011-12-28T11:50:59Z</time>
      </trkpt>
      <trkpt lat="43.79252" lon="7.12888">
        <ele>1006.6</ele>
        <time>2011-12-28T11:51:14Z</time>
      </trkpt>
      <trkpt lat="43.79245" lon="7.12891">
        <ele>1006.4</ele>
        <time>2011-12-28T11:51:16Z</time>
      </trkpt>
      <trkpt lat="43.79238" lon="7.12893">
        <ele>1005.3</ele>
        <time>2011-12-28T11:51:18Z</time>
      </trkpt>
      <trkpt lat="43.79231" lon="7.12898">
        <ele>1003.4</ele>
        <time>2011-12-28T11:51:21Z</time>
      </trkpt>
      <trkpt lat="43.79236" lon="7.12908">
        <ele>1002.3</ele>
        <time>2011-12-28T11:51:26Z</time>
      </trkpt>
      <trkpt lat="43.79243" lon="7.12911">
        <ele>1001.5</ele>
        <time>2011-12-28T11:51:28Z</time>
      </trkpt>
      <trkpt lat="43.79246" lon="7.12914">
        <ele>1000.8</ele>
        <time>2011-12-28T11:51:29Z</time>
      </trkpt>
      <trkpt lat="43.79246" lon="7.1293">
        <ele>999.4</ele>
        <time>2011-12-28T11:51:33Z</time>
      </trkpt>
      <trkpt lat="43.7924" lon="7.12936">
        <ele>997.5</ele>
        <time>2011-12-28T11:51:37Z</time>
      </trkpt>
      <trkpt lat="43.79233" lon="7.12938">
        <ele>995.3</ele>
        <time>2011-12-28T11:51:40Z</time>
      </trkpt>
      <trkpt lat="43.79229" lon="7.12946">
        <ele>993.8</ele>
        <time>2011-12-28T11:51:43Z</time>
      </trkpt>
      <trkpt lat="43.7923" lon="7.12954">
        <ele>992.8</ele>
        <time>2011-12-28T11:51:45Z</time>
      </trkpt>
      <trkpt lat="43.79229" lon="7.12965">
        <ele>991.9</ele>
        <time>2011-12-28T11:51:47Z</time>
      </trkpt>
      <trkpt lat="43.79229" lon="7.12972">
        <ele>991</ele>
        <time>2011-12-28T11:51:48Z</time>
      </trkpt>
      <trkpt lat="43.7923" lon="7.12978">
        <ele>990.4</ele>
        <time>2011-12-28T11:51:49Z</time>
      </trkpt>
      <trkpt lat="43.79233" lon="7.12989">
        <ele>989.4</ele>
        <time>2011-12-28T11:51:51Z</time>
      </trkpt>
      <trkpt lat="43.79236" lon="7.12999">
        <ele>989</ele>
        <time>2011-12-28T11:51:53Z</time>
      </trkpt>
      <trkpt lat="43.79238" lon="7.1301">
        <ele>988.2</ele>
        <time>2011-12-28T11:51:55Z</time>
      </trkpt>
      <trkpt lat="43.7924" lon="7.13021">
        <ele>987</ele>
        <time>2011-12-28T11:51:57Z</time>
      </trkpt>
      <trkpt lat="43.7924" lon="7.13033">
        <ele>986.1</ele>
        <time>2011-12-28T11:51:59Z</time>
      </trkpt>
      <trkpt lat="43.79238" lon="7.13039">
        <ele>985.3</ele>
        <time>2011-12-28T11:52:00Z</time>
      </trkpt>
      <trkpt lat="43.79233" lon="7.13049">
        <ele>983.6</ele>
        <time>2011-12-28T11:52:02Z</time>
      </trkpt>
      <trkpt lat="43.79226" lon="7.13053">
        <ele>981.7</ele>
        <time>2011-12-28T11:52:04Z</time>
      </trkpt>
      <trkpt lat="43.79217" lon="7.13054">
        <ele>980.5</ele>
        <time>2011-12-28T11:52:06Z</time>
      </trkpt>
      <trkpt lat="43.79209" lon="7.13056">
        <ele>979.9</ele>
        <time>2011-12-28T11:52:08Z</time>
      </trkpt>
      <trkpt lat="43.79202" lon="7.13058">
        <ele>978.4</ele>
        <time>2011-12-28T11:52:10Z</time>
      </trkpt>
      <trkpt lat="43.79196" lon="7.13059">
        <ele>976.5</ele>
        <time>2011-12-28T11:52:12Z</time>
      </trkpt>
      <trkpt lat="43.79188" lon="7.13061">
        <ele>974.9</ele>
        <time>2011-12-28T11:52:14Z</time>
      </trkpt>
      <trkpt lat="43.79184" lon="7.13064">
        <ele>974.2</ele>
        <time>2011-12-28T11:52:15Z</time>
      </trkpt>
      <trkpt lat="43.79178" lon="7.13072">
        <ele>972.6</ele>
        <time>2011-12-28T11:52:17Z</time>
      </trkpt>
      <trkpt lat="43.79174" lon="7.13077">
        <ele>972</ele>
        <time>2011-12-28T11:52:18Z</time>
      </trkpt>
      <trkpt lat="43.79167" lon="7.13081">
        <ele>970.8</ele>
        <time>2011-12-28T11:52:20Z</time>
      </trkpt>
      <trkpt lat="43.79158" lon="7.1308">
        <ele>969.5</ele>
        <time>2011-12-28T11:52:22Z</time>
      </trkpt>
      <trkpt lat="43.79151" lon="7.13079">
        <ele>967.7</ele>
        <time>2011-12-28T11:52:24Z</time>
      </trkpt>
      <trkpt lat="43.79143" lon="7.13081">
        <ele>965.8</ele>
        <time>2011-12-28T11:52:27Z</time>
      </trkpt>
      <trkpt lat="43.79135" lon="7.13082">
        <ele>962</ele>
        <time>2011-12-28T11:54:10Z</time>
      </trkpt>
      <trkpt lat="43.79133" lon="7.13082">
        <ele>962</ele>
        <time>2011-12-28T11:54:11Z</time>
      </trkpt>
      <trkpt lat="43.79122" lon="7.13073">
        <ele>961</ele>
        <time>2011-12-28T11:54:15Z</time>
      </trkpt>
      <trkpt lat="43.79115" lon="7.13068">
        <ele>960</ele>
        <time>2011-12-28T11:54:17Z</time>
      </trkpt>
      <trkpt lat="43.7911" lon="7.13064">
        <ele>959</ele>
        <time>2011-12-28T11:54:19Z</time>
      </trkpt>
      <trkpt lat="43.79101" lon="7.1306">
        <ele>957.7</ele>
        <time>2011-12-28T11:54:22Z</time>
      </trkpt>
      <trkpt lat="43.79095" lon="7.13064">
        <ele>956.6</ele>
        <time>2011-12-28T11:54:24Z</time>
      </trkpt>
      <trkpt lat="43.79088" lon="7.1307">
        <ele>955.6</ele>
        <time>2011-12-28T11:54:26Z</time>
      </trkpt>
      <trkpt lat="43.79081" lon="7.13068">
        <ele>954.8</ele>
        <time>2011-12-28T11:54:28Z</time>
      </trkpt>
      <trkpt lat="43.79074" lon="7.13066">
        <ele>953.8</ele>
        <time>2011-12-28T11:54:30Z</time>
      </trkpt>
      <trkpt lat="43.79066" lon="7.13071">
        <ele>951.5</ele>
        <time>2011-12-28T11:54:33Z</time>
      </trkpt>
      <trkpt lat="43.79059" lon="7.13076">
        <ele>950.7</ele>
        <time>2011-12-28T11:54:36Z</time>
      </trkpt>
      <trkpt lat="43.79052" lon="7.13082">
        <ele>950</ele>
        <time>2011-12-28T11:54:38Z</time>
      </trkpt>
      <trkpt lat="43.79044" lon="7.13087">
        <ele>948.4</ele>
        <time>2011-12-28T11:54:40Z</time>
      </trkpt>
      <trkpt lat="43.79038" lon="7.13092">
        <ele>947.1</ele>
        <time>2011-12-28T11:54:42Z</time>
      </trkpt>
      <trkpt lat="43.79034" lon="7.131">
        <ele>945.8</ele>
        <time>2011-12-28T11:54:44Z</time>
      </trkpt>
      <trkpt lat="43.79032" lon="7.1311">
        <ele>945.3</ele>
        <time>2011-12-28T11:54:46Z</time>
      </trkpt>
      <trkpt lat="43.79027" lon="7.13118">
        <ele>945.1</ele>
        <time>2011-12-28T11:54:48Z</time>
      </trkpt>
      <trkpt lat="43.79022" lon="7.13125">
        <ele>944.5</ele>
        <time>2011-12-28T11:54:50Z</time>
      </trkpt>
      <trkpt lat="43.79017" lon="7.1313">
        <ele>943.8</ele>
        <time>2011-12-28T11:54:52Z</time>
      </trkpt>
      <trkpt lat="43.79011" lon="7.13134">
        <ele>943.8</ele>
        <time>2011-12-28T11:54:54Z</time>
      </trkpt>
      <trkpt lat="43.79004" lon="7.13139">
        <ele>943.8</ele>
        <time>2011-12-28T11:54:57Z</time>
      </trkpt>
      <trkpt lat="43.78997" lon="7.13142">
        <ele>944.4</ele>
        <time>2011-12-28T11:55:00Z</time>
      </trkpt>
      <trkpt lat="43.78991" lon="7.13148">
        <ele>944.2</ele>
        <time>2011-12-28T11:55:03Z</time>
      </trkpt>
      <trkpt lat="43.78985" lon="7.13155">
        <ele>945.1</ele>
        <time>2011-12-28T11:55:06Z</time>
      </trkpt>
      <trkpt lat="43.7898" lon="7.13162">
        <ele>945.7</ele>
        <time>2011-12-28T11:55:09Z</time>
      </trkpt>
      <trkpt lat="43.78973" lon="7.13167">
        <ele>946.1</ele>
        <time>2011-12-28T11:55:12Z</time>
      </trkpt>
      <trkpt lat="43.78971" lon="7.13169">
        <ele>946.3</ele>
        <time>2011-12-28T11:55:13Z</time>
      </trkpt>
      <trkpt lat="43.78961" lon="7.13184">
        <ele>946.7</ele>
        <time>2011-12-28T11:55:20Z</time>
      </trkpt>
      <trkpt lat="43.78955" lon="7.13192">
        <ele>946.6</ele>
        <time>2011-12-28T11:55:24Z</time>
      </trkpt>
      <trkpt lat="43.78949" lon="7.132">
        <ele>946.8</ele>
        <time>2011-12-28T11:55:27Z</time>
      </trkpt>
      <trkpt lat="43.78944" lon="7.13209">
        <ele>946.6</ele>
        <time>2011-12-28T11:55:30Z</time>
      </trkpt>
      <trkpt lat="43.78939" lon="7.13219">
        <ele>946.7</ele>
        <time>2011-12-28T11:55:33Z</time>
      </trkpt>
      <trkpt lat="43.78931" lon="7.13225">
        <ele>945.8</ele>
        <time>2011-12-28T11:56:02Z</time>
      </trkpt>
      <trkpt lat="43.78924" lon="7.13226">
        <ele>945.3</ele>
        <time>2011-12-28T11:56:06Z</time>
      </trkpt>
      <trkpt lat="43.78918" lon="7.13228">
        <ele>944.7</ele>
        <time>2011-12-28T11:56:08Z</time>
      </trkpt>
      <trkpt lat="43.78912" lon="7.13231">
        <ele>944.7</ele>
        <time>2011-12-28T11:56:10Z</time>
      </trkpt>
      <trkpt lat="43.78904" lon="7.13233">
        <ele>945.1</ele>
        <time>2011-12-28T11:56:12Z</time>
      </trkpt>
      <trkpt lat="43.78897" lon="7.13234">
        <ele>944.4</ele>
        <time>2011-12-28T11:56:14Z</time>
      </trkpt>
      <trkpt lat="43.78894" lon="7.13235">
        <ele>944.2</ele>
        <time>2011-12-28T11:56:15Z</time>
      </trkpt>
      <trkpt lat="43.78885" lon="7.1324">
        <ele>944.7</ele>
        <time>2011-12-28T11:56:18Z</time>
      </trkpt>
      <trkpt lat="43.78877" lon="7.13246">
        <ele>944.6</ele>
        <time>2011-12-28T11:56:21Z</time>
      </trkpt>
      <trkpt lat="43.78871" lon="7.1325">
        <ele>944.5</ele>
        <time>2011-12-28T11:56:23Z</time>
      </trkpt>
      <trkpt lat="43.78865" lon="7.13255">
        <ele>944.5</ele>
        <time>2011-12-28T11:56:25Z</time>
      </trkpt>
      <trkpt lat="43.78858" lon="7.1326">
        <ele>944.6</ele>
        <time>2011-12-28T11:56:27Z</time>
      </trkpt>
      <trkpt lat="43.78851" lon="7.13263">
        <ele>944.3</ele>
        <time>2011-12-28T11:56:29Z</time>
      </trkpt>
      <trkpt lat="43.78843" lon="7.13268">
        <ele>944.2</ele>
        <time>2011-12-28T11:56:32Z</time>
      </trkpt>
      <trkpt lat="43.78837" lon="7.13277">
        <ele>943.8</ele>
        <time>2011-12-28T11:56:36Z</time>
      </trkpt>
      <trkpt lat="43.78835" lon="7.13289">
        <ele>945.4</ele>
        <time>2011-12-28T11:56:46Z</time>
      </trkpt>
      <trkpt lat="43.7883" lon="7.13297">
        <ele>945.5</ele>
        <time>2011-12-28T11:56:57Z</time>
      </trkpt>
      <trkpt lat="43.78824" lon="7.13304">
        <ele>945.3</ele>
        <time>2011-12-28T11:57:03Z</time>
      </trkpt>
      <trkpt lat="43.78817" lon="7.13313">
        <ele>945.3</ele>
        <time>2011-12-28T11:57:12Z</time>
      </trkpt>
      <trkpt lat="43.7881" lon="7.13317">
        <ele>950</ele>
        <time>2011-12-28T12:32:27Z</time>
      </trkpt>
      <trkpt lat="43.78807" lon="7.13319">
        <ele>950</ele>
        <time>2011-12-28T12:32:28Z</time>
      </trkpt>
      <trkpt lat="43.78796" lon="7.13323">
        <ele>948.9</ele>
        <time>2011-12-28T12:32:32Z</time>
      </trkpt>
      <trkpt lat="43.7879" lon="7.13327">
        <ele>948.6</ele>
        <time>2011-12-28T12:32:34Z</time>
      </trkpt>
      <trkpt lat="43.78784" lon="7.13329">
        <ele>948.4</ele>
        <time>2011-12-28T12:32:36Z</time>
      </trkpt>
      <trkpt lat="43.78775" lon="7.13332">
        <ele>948.7</ele>
        <time>2011-12-28T12:32:39Z</time>
      </trkpt>
      <trkpt lat="43.78769" lon="7.13333">
        <ele>948.4</ele>
        <time>2011-12-28T12:32:41Z</time>
      </trkpt>
      <trkpt lat="43.78763" lon="7.13333">
        <ele>948.1</ele>
        <time>2011-12-28T12:32:43Z</time>
      </trkpt>
      <trkpt lat="43.78756" lon="7.13334">
        <ele>948</ele>
        <time>2011-12-28T12:32:45Z</time>
      </trkpt>
      <trkpt lat="43.78749" lon="7.13331">
        <ele>947</ele>
        <time>2011-12-28T12:32:47Z</time>
      </trkpt>
      <trkpt lat="43.78741" lon="7.13329">
        <ele>946.5</ele>
        <time>2011-12-28T12:32:49Z</time>
      </trkpt>
      <trkpt lat="43.78736" lon="7.13325">
        <ele>946.2</ele>
        <time>2011-12-28T12:32:51Z</time>
      </trkpt>
      <trkpt lat="43.78729" lon="7.1332">
        <ele>945.5</ele>
        <time>2011-12-28T12:32:53Z</time>
      </trkpt>
      <trkpt lat="43.78721" lon="7.13323">
        <ele>944.8</ele>
        <time>2011-12-28T12:32:56Z</time>
      </trkpt>
      <trkpt lat="43.78716" lon="7.13331">
        <ele>944.2</ele>
        <time>2011-12-28T12:32:59Z</time>
      </trkpt>
      <trkpt lat="43.78708" lon="7.13328">
        <ele>943.2</ele>
        <time>2011-12-28T12:33:02Z</time>
      </trkpt>
      <trkpt lat="43.78701" lon="7.13326">
        <ele>942.2</ele>
        <time>2011-12-28T12:33:05Z</time>
      </trkpt>
      <trkpt lat="43.78693" lon="7.13321">
        <ele>941.4</ele>
        <time>2011-12-28T12:33:08Z</time>
      </trkpt>
      <trkpt lat="43.78685" lon="7.1332">
        <ele>942</ele>
        <time>2011-12-28T12:33:11Z</time>
      </trkpt>
      <trkpt lat="43.78677" lon="7.1332">
        <ele>941.6</ele>
        <time>2011-12-28T12:33:14Z</time>
      </trkpt>
      <trkpt lat="43.78669" lon="7.13318">
        <ele>942</ele>
        <time>2011-12-28T12:33:17Z</time>
      </trkpt>
      <trkpt lat="43.7866" lon="7.13317">
        <ele>942.6</ele>
        <time>2011-12-28T12:33:20Z</time>
      </trkpt>
      <trkpt lat="43.78652" lon="7.13317">
        <ele>943</ele>
        <time>2011-12-28T12:33:23Z</time>
      </trkpt>
      <trkpt lat="43.78646" lon="7.13317">
        <ele>942.5</ele>
        <time>2011-12-28T12:33:25Z</time>
      </trkpt>
      <trkpt lat="43.78639" lon="7.13317">
        <ele>942.5</ele>
        <time>2011-12-28T12:33:27Z</time>
      </trkpt>
      <trkpt lat="43.78633" lon="7.13318">
        <ele>942.5</ele>
        <time>2011-12-28T12:33:29Z</time>
      </trkpt>
      <trkpt lat="43.7863" lon="7.13319">
        <ele>942.5</ele>
        <time>2011-12-28T12:33:30Z</time>
      </trkpt>
      <trkpt lat="43.78619" lon="7.13323">
        <ele>942.5</ele>
        <time>2011-12-28T12:33:33Z</time>
      </trkpt>
      <trkpt lat="43.78612" lon="7.13325">
        <ele>942.5</ele>
        <time>2011-12-28T12:33:35Z</time>
      </trkpt>
      <trkpt lat="43.78605" lon="7.13326">
        <ele>942.4</ele>
        <time>2011-12-28T12:33:37Z</time>
      </trkpt>
      <trkpt lat="43.78599" lon="7.13327">
        <ele>941.8</ele>
        <time>2011-12-28T12:33:39Z</time>
      </trkpt>
      <trkpt lat="43.78592" lon="7.13325">
        <ele>941.5</ele>
        <time>2011-12-28T12:33:41Z</time>
      </trkpt>
      <trkpt lat="43.78584" lon="7.13324">
        <ele>941.5</ele>
        <time>2011-12-28T12:33:44Z</time>
      </trkpt>
      <trkpt lat="43.78578" lon="7.13325">
        <ele>941.7</ele>
        <time>2011-12-28T12:33:46Z</time>
      </trkpt>
      <trkpt lat="43.78572" lon="7.13326">
        <ele>941.7</ele>
        <time>2011-12-28T12:33:48Z</time>
      </trkpt>
      <trkpt lat="43.78565" lon="7.13327">
        <ele>942.1</ele>
        <time>2011-12-28T12:33:50Z</time>
      </trkpt>
      <trkpt lat="43.78557" lon="7.13328">
        <ele>942.1</ele>
        <time>2011-12-28T12:33:53Z</time>
      </trkpt>
      <trkpt lat="43.78549" lon="7.13329">
        <ele>941.9</ele>
        <time>2011-12-28T12:33:56Z</time>
      </trkpt>
      <trkpt lat="43.78541" lon="7.13332">
        <ele>940.7</ele>
        <time>2011-12-28T12:34:06Z</time>
      </trkpt>
      <trkpt lat="43.78533" lon="7.13333">
        <ele>941.2</ele>
        <time>2011-12-28T12:34:10Z</time>
      </trkpt>
      <trkpt lat="43.78525" lon="7.13334">
        <ele>941.2</ele>
        <time>2011-12-28T12:34:13Z</time>
      </trkpt>
      <trkpt lat="43.78519" lon="7.13336">
        <ele>941.3</ele>
        <time>2011-12-28T12:34:15Z</time>
      </trkpt>
      <trkpt lat="43.78513" lon="7.13338">
        <ele>940.8</ele>
        <time>2011-12-28T12:34:17Z</time>
      </trkpt>
      <trkpt lat="43.78507" lon="7.1334">
        <ele>940.2</ele>
        <time>2011-12-28T12:34:19Z</time>
      </trkpt>
      <trkpt lat="43.78501" lon="7.13343">
        <ele>940.2</ele>
        <time>2011-12-28T12:34:21Z</time>
      </trkpt>
      <trkpt lat="43.78494" lon="7.13344">
        <ele>940.1</ele>
        <time>2011-12-28T12:34:23Z</time>
      </trkpt>
      <trkpt lat="43.78487" lon="7.13344">
        <ele>939.7</ele>
        <time>2011-12-28T12:34:25Z</time>
      </trkpt>
      <trkpt lat="43.7848" lon="7.13342">
        <ele>939.5</ele>
        <time>2011-12-28T12:34:27Z</time>
      </trkpt>
      <trkpt lat="43.78473" lon="7.1334">
        <ele>939.1</ele>
        <time>2011-12-28T12:34:29Z</time>
      </trkpt>
      <trkpt lat="43.78467" lon="7.13339">
        <ele>938.8</ele>
        <time>2011-12-28T12:34:31Z</time>
      </trkpt>
      <trkpt lat="43.78464" lon="7.13338">
        <ele>938.8</ele>
        <time>2011-12-28T12:34:32Z</time>
      </trkpt>
      <trkpt lat="43.78452" lon="7.13343">
        <ele>938.1</ele>
        <time>2011-12-28T12:34:36Z</time>
      </trkpt>
      <trkpt lat="43.78444" lon="7.13344">
        <ele>937.2</ele>
        <time>2011-12-28T12:34:39Z</time>
      </trkpt>
      <trkpt lat="43.78436" lon="7.13348">
        <ele>937.3</ele>
        <time>2011-12-28T12:34:42Z</time>
      </trkpt>
      <trkpt lat="43.7843" lon="7.13352">
        <ele>937.2</ele>
        <time>2011-12-28T12:34:44Z</time>
      </trkpt>
      <trkpt lat="43.78427" lon="7.13359">
        <ele>937.8</ele>
        <time>2011-12-28T12:34:46Z</time>
      </trkpt>
      <trkpt lat="43.78423" lon="7.13366">
        <ele>938</ele>
        <time>2011-12-28T12:34:48Z</time>
      </trkpt>
      <trkpt lat="43.78418" lon="7.13371">
        <ele>937.9</ele>
        <time>2011-12-28T12:34:50Z</time>
      </trkpt>
      <trkpt lat="43.7841" lon="7.13377">
        <ele>938.2</ele>
        <time>2011-12-28T12:34:53Z</time>
      </trkpt>
      <trkpt lat="43.78403" lon="7.13382">
        <ele>937.6</ele>
        <time>2011-12-28T12:34:56Z</time>
      </trkpt>
      <trkpt lat="43.78396" lon="7.13386">
        <ele>937.5</ele>
        <time>2011-12-28T12:34:59Z</time>
      </trkpt>
      <trkpt lat="43.78388" lon="7.1339">
        <ele>937.2</ele>
        <time>2011-12-28T12:35:02Z</time>
      </trkpt>
      <trkpt lat="43.78381" lon="7.13392">
        <ele>936.3</ele>
        <time>2011-12-28T12:35:05Z</time>
      </trkpt>
      <trkpt lat="43.78375" lon="7.13399">
        <ele>936.5</ele>
        <time>2011-12-28T12:35:08Z</time>
      </trkpt>
      <trkpt lat="43.78366" lon="7.134">
        <ele>936.6</ele>
        <time>2011-12-28T12:35:11Z</time>
      </trkpt>
      <trkpt lat="43.7836" lon="7.13401">
        <ele>935.9</ele>
        <time>2011-12-28T12:35:13Z</time>
      </trkpt>
      <trkpt lat="43.78354" lon="7.13403">
        <ele>935.4</ele>
        <time>2011-12-28T12:35:15Z</time>
      </trkpt>
      <trkpt lat="43.78347" lon="7.13404">
        <ele>935.5</ele>
        <time>2011-12-28T12:35:17Z</time>
      </trkpt>
      <trkpt lat="43.78341" lon="7.13403">
        <ele>935.3</ele>
        <time>2011-12-28T12:35:19Z</time>
      </trkpt>
      <trkpt lat="43.78334" lon="7.13403">
        <ele>934.8</ele>
        <time>2011-12-28T12:35:21Z</time>
      </trkpt>
      <trkpt lat="43.78327" lon="7.13402">
        <ele>933.8</ele>
        <time>2011-12-28T12:35:23Z</time>
      </trkpt>
      <trkpt lat="43.78319" lon="7.13407">
        <ele>931.6</ele>
        <time>2011-12-28T12:37:01Z</time>
      </trkpt>
      <trkpt lat="43.78319" lon="7.13407">
        <ele>931.9</ele>
        <time>2011-12-28T12:37:02Z</time>
      </trkpt>
      <trkpt lat="43.78304" lon="7.13402">
        <ele>932.4</ele>
        <time>2011-12-28T12:37:41Z</time>
      </trkpt>
      <trkpt lat="43.78298" lon="7.13402">
        <ele>932.5</ele>
        <time>2011-12-28T12:37:43Z</time>
      </trkpt>
      <trkpt lat="43.78291" lon="7.13402">
        <ele>932.3</ele>
        <time>2011-12-28T12:37:45Z</time>
      </trkpt>
      <trkpt lat="43.78285" lon="7.13399">
        <ele>931.8</ele>
        <time>2011-12-28T12:37:47Z</time>
      </trkpt>
      <trkpt lat="43.78279" lon="7.13399">
        <ele>931.4</ele>
        <time>2011-12-28T12:37:49Z</time>
      </trkpt>
      <trkpt lat="43.78272" lon="7.13399">
        <ele>931.9</ele>
        <time>2011-12-28T12:37:51Z</time>
      </trkpt>
      <trkpt lat="43.78266" lon="7.13396">
        <ele>931.7</ele>
        <time>2011-12-28T12:37:53Z</time>
      </trkpt>
      <trkpt lat="43.78259" lon="7.13397">
        <ele>930.7</ele>
        <time>2011-12-28T12:37:55Z</time>
      </trkpt>
      <trkpt lat="43.78253" lon="7.13398">
        <ele>930.4</ele>
        <time>2011-12-28T12:37:57Z</time>
      </trkpt>
      <trkpt lat="43.78246" lon="7.134">
        <ele>929.7</ele>
        <time>2011-12-28T12:37:59Z</time>
      </trkpt>
      <trkpt lat="43.78239" lon="7.134">
        <ele>929</ele>
        <time>2011-12-28T12:38:01Z</time>
      </trkpt>
      <trkpt lat="43.78233" lon="7.13403">
        <ele>928.7</ele>
        <time>2011-12-28T12:38:03Z</time>
      </trkpt>
      <trkpt lat="43.7823" lon="7.13404">
        <ele>927.9</ele>
        <time>2011-12-28T12:38:04Z</time>
      </trkpt>
      <trkpt lat="43.7822" lon="7.13405">
        <ele>926.6</ele>
        <time>2011-12-28T12:38:07Z</time>
      </trkpt>
      <trkpt lat="43.78213" lon="7.13406">
        <ele>926.5</ele>
        <time>2011-12-28T12:38:09Z</time>
      </trkpt>
      <trkpt lat="43.78206" lon="7.1341">
        <ele>925.6</ele>
        <time>2011-12-28T12:38:12Z</time>
      </trkpt>
      <trkpt lat="43.78199" lon="7.13415">
        <ele>925</ele>
        <time>2011-12-28T12:38:15Z</time>
      </trkpt>
      <trkpt lat="43.78191" lon="7.13417">
        <ele>924.3</ele>
        <time>2011-12-28T12:38:18Z</time>
      </trkpt>
      <trkpt lat="43.78185" lon="7.13415">
        <ele>923.4</ele>
        <time>2011-12-28T12:38:20Z</time>
      </trkpt>
      <trkpt lat="43.78178" lon="7.13417">
        <ele>922.7</ele>
        <time>2011-12-28T12:38:22Z</time>
      </trkpt>
      <trkpt lat="43.78171" lon="7.13421">
        <ele>922</ele>
        <time>2011-12-28T12:38:24Z</time>
      </trkpt>
      <trkpt lat="43.78164" lon="7.13428">
        <ele>919</ele>
        <time>2011-12-28T12:38:43Z</time>
      </trkpt>
      <trkpt lat="43.78157" lon="7.13436">
        <ele>918.7</ele>
        <time>2011-12-28T12:38:49Z</time>
      </trkpt>
      <trkpt lat="43.7815" lon="7.13442">
        <ele>917.7</ele>
        <time>2011-12-28T12:38:52Z</time>
      </trkpt>
      <trkpt lat="43.78145" lon="7.13451">
        <ele>916.6</ele>
        <time>2011-12-28T12:38:55Z</time>
      </trkpt>
      <trkpt lat="43.78143" lon="7.13463">
        <ele>914.8</ele>
        <time>2011-12-28T12:39:04Z</time>
      </trkpt>
      <trkpt lat="43.78136" lon="7.13463">
        <ele>913.5</ele>
        <time>2011-12-28T12:39:11Z</time>
      </trkpt>
      <trkpt lat="43.78134" lon="7.13463">
        <ele>913.5</ele>
        <time>2011-12-28T12:39:12Z</time>
      </trkpt>
      <trkpt lat="43.78128" lon="7.13475">
        <ele>909.5</ele>
        <time>2011-12-28T12:39:23Z</time>
      </trkpt>
      <trkpt lat="43.78123" lon="7.13483">
        <ele>909</ele>
        <time>2011-12-28T12:39:26Z</time>
      </trkpt>
      <trkpt lat="43.78118" lon="7.13488">
        <ele>908.1</ele>
        <time>2011-12-28T12:39:28Z</time>
      </trkpt>
      <trkpt lat="43.78112" lon="7.13491">
        <ele>907.5</ele>
        <time>2011-12-28T12:39:30Z</time>
      </trkpt>
      <trkpt lat="43.78105" lon="7.13493">
        <ele>906.6</ele>
        <time>2011-12-28T12:39:32Z</time>
      </trkpt>
      <trkpt lat="43.78099" lon="7.13497">
        <ele>905.6</ele>
        <time>2011-12-28T12:39:34Z</time>
      </trkpt>
      <trkpt lat="43.78093" lon="7.13501">
        <ele>905.3</ele>
        <time>2011-12-28T12:39:36Z</time>
      </trkpt>
      <trkpt lat="43.78088" lon="7.13505">
        <ele>905.4</ele>
        <time>2011-12-28T12:39:38Z</time>
      </trkpt>
      <trkpt lat="43.78082" lon="7.1351">
        <ele>905.1</ele>
        <time>2011-12-28T12:39:40Z</time>
      </trkpt>
      <trkpt lat="43.78076" lon="7.13513">
        <ele>905.7</ele>
        <time>2011-12-28T12:39:42Z</time>
      </trkpt>
      <trkpt lat="43.7807" lon="7.13514">
        <ele>905.5</ele>
        <time>2011-12-28T12:39:44Z</time>
      </trkpt>
      <trkpt lat="43.78063" lon="7.13517">
        <ele>904.9</ele>
        <time>2011-12-28T12:39:46Z</time>
      </trkpt>
      <trkpt lat="43.78057" lon="7.13516">
        <ele>904.4</ele>
        <time>2011-12-28T12:39:48Z</time>
      </trkpt>
      <trkpt lat="43.7805" lon="7.13512">
        <ele>904.3</ele>
        <time>2011-12-28T12:39:50Z</time>
      </trkpt>
      <trkpt lat="43.78043" lon="7.13509">
        <ele>904.1</ele>
        <time>2011-12-28T12:39:52Z</time>
      </trkpt>
      <trkpt lat="43.78035" lon="7.13511">
        <ele>903.1</ele>
        <time>2011-12-28T12:39:54Z</time>
      </trkpt>
      <trkpt lat="43.78028" lon="7.13512">
        <ele>902.4</ele>
        <time>2011-12-28T12:39:56Z</time>
      </trkpt>
      <trkpt lat="43.7802" lon="7.13514">
        <ele>901.8</ele>
        <time>2011-12-28T12:39:58Z</time>
      </trkpt>
      <trkpt lat="43.78015" lon="7.13518">
        <ele>901.4</ele>
        <time>2011-12-28T12:40:00Z</time>
      </trkpt>
      <trkpt lat="43.78009" lon="7.13522">
        <ele>900.7</ele>
        <time>2011-12-28T12:40:02Z</time>
      </trkpt>
      <trkpt lat="43.78004" lon="7.13527">
        <ele>900</ele>
        <time>2011-12-28T12:40:04Z</time>
      </trkpt>
      <trkpt lat="43.77998" lon="7.13531">
        <ele>899.4</ele>
        <time>2011-12-28T12:40:06Z</time>
      </trkpt>
      <trkpt lat="43.77992" lon="7.13536">
        <ele>899.4</ele>
        <time>2011-12-28T12:40:08Z</time>
      </trkpt>
      <trkpt lat="43.77988" lon="7.13544">
        <ele>899.1</ele>
        <time>2011-12-28T12:40:10Z</time>
      </trkpt>
      <trkpt lat="43.77984" lon="7.13552">
        <ele>898.7</ele>
        <time>2011-12-28T12:40:14Z</time>
      </trkpt>
      <trkpt lat="43.77982" lon="7.13553">
        <ele>898.6</ele>
        <time>2011-12-28T12:40:15Z</time>
      </trkpt>
      <trkpt lat="43.77972" lon="7.13569">
        <ele>897.5</ele>
        <time>2011-12-28T12:40:21Z</time>
      </trkpt>
      <trkpt lat="43.77967" lon="7.13579">
        <ele>897.1</ele>
        <time>2011-12-28T12:40:24Z</time>
      </trkpt>
      <trkpt lat="43.77963" lon="7.13587">
        <ele>897.1</ele>
        <time>2011-12-28T12:40:27Z</time>
      </trkpt>
      <trkpt lat="43.77959" lon="7.13595">
        <ele>897</ele>
        <time>2011-12-28T12:40:30Z</time>
      </trkpt>
      <trkpt lat="43.77958" lon="7.13604">
        <ele>896.8</ele>
        <time>2011-12-28T12:40:33Z</time>
      </trkpt>
      <trkpt lat="43.77957" lon="7.13616">
        <ele>896.5</ele>
        <time>2011-12-28T12:40:37Z</time>
      </trkpt>
      <trkpt lat="43.77957" lon="7.13627">
        <ele>895.3</ele>
        <time>2011-12-28T12:40:40Z</time>
      </trkpt>
      <trkpt lat="43.77961" lon="7.13637">
        <ele>893.9</ele>
        <time>2011-12-28T12:40:44Z</time>
      </trkpt>
      <trkpt lat="43.77959" lon="7.13649">
        <ele>893.2</ele>
        <time>2011-12-28T12:40:48Z</time>
      </trkpt>
      <trkpt lat="43.77956" lon="7.13658">
        <ele>891.5</ele>
        <time>2011-12-28T12:40:52Z</time>
      </trkpt>
      <trkpt lat="43.7796" lon="7.13668">
        <ele>890.3</ele>
        <time>2011-12-28T12:40:55Z</time>
      </trkpt>
      <trkpt lat="43.77959" lon="7.1368">
        <ele>888.4</ele>
        <time>2011-12-28T12:41:00Z</time>
      </trkpt>
      <trkpt lat="43.77952" lon="7.13681">
        <ele>886.6</ele>
        <time>2011-12-28T12:41:04Z</time>
      </trkpt>
      <trkpt lat="43.77945" lon="7.13676">
        <ele>885.2</ele>
        <time>2011-12-28T12:41:07Z</time>
      </trkpt>
      <trkpt lat="43.7794" lon="7.13671">
        <ele>884.5</ele>
        <time>2011-12-28T12:41:09Z</time>
      </trkpt>
      <trkpt lat="43.77933" lon="7.13669">
        <ele>883.8</ele>
        <time>2011-12-28T12:41:11Z</time>
      </trkpt>
      <trkpt lat="43.77925" lon="7.13668">
        <ele>883.2</ele>
        <time>2011-12-28T12:41:13Z</time>
      </trkpt>
      <trkpt lat="43.77918" lon="7.13666">
        <ele>882.7</ele>
        <time>2011-12-28T12:41:15Z</time>
      </trkpt>
      <trkpt lat="43.7791" lon="7.13665">
        <ele>882.4</ele>
        <time>2011-12-28T12:41:17Z</time>
      </trkpt>
      <trkpt lat="43.77906" lon="7.13665">
        <ele>882.1</ele>
        <time>2011-12-28T12:41:18Z</time>
      </trkpt>
      <trkpt lat="43.77894" lon="7.1367">
        <ele>881.5</ele>
        <time>2011-12-28T12:41:23Z</time>
      </trkpt>
      <trkpt lat="43.77888" lon="7.13672">
        <ele>881.3</ele>
        <time>2011-12-28T12:41:25Z</time>
      </trkpt>
      <trkpt lat="43.77882" lon="7.13672">
        <ele>880.8</ele>
        <time>2011-12-28T12:41:27Z</time>
      </trkpt>
      <trkpt lat="43.77876" lon="7.13673">
        <ele>880.4</ele>
        <time>2011-12-28T12:41:29Z</time>
      </trkpt>
      <trkpt lat="43.77868" lon="7.13674">
        <ele>880</ele>
        <time>2011-12-28T12:41:31Z</time>
      </trkpt>
      <trkpt lat="43.7786" lon="7.13674">
        <ele>880.1</ele>
        <time>2011-12-28T12:41:33Z</time>
      </trkpt>
      <trkpt lat="43.77852" lon="7.13677">
        <ele>879.8</ele>
        <time>2011-12-28T12:41:36Z</time>
      </trkpt>
      <trkpt lat="43.77844" lon="7.13674">
        <ele>879.2</ele>
        <time>2011-12-28T12:41:40Z</time>
      </trkpt>
      <trkpt lat="43.77839" lon="7.13664">
        <ele>878.2</ele>
        <time>2011-12-28T12:41:44Z</time>
      </trkpt>
      <trkpt lat="43.77836" lon="7.13656">
        <ele>877.6</ele>
        <time>2011-12-28T12:41:47Z</time>
      </trkpt>
      <trkpt lat="43.77829" lon="7.13652">
        <ele>876.5</ele>
        <time>2011-12-28T12:41:50Z</time>
      </trkpt>
      <trkpt lat="43.77822" lon="7.13655">
        <ele>876.1</ele>
        <time>2011-12-28T12:41:53Z</time>
      </trkpt>
      <trkpt lat="43.77814" lon="7.13658">
        <ele>875.2</ele>
        <time>2011-12-28T12:41:56Z</time>
      </trkpt>
      <trkpt lat="43.77807" lon="7.13662">
        <ele>874.5</ele>
        <time>2011-12-28T12:41:59Z</time>
      </trkpt>
      <trkpt lat="43.77799" lon="7.13662">
        <ele>874.3</ele>
        <time>2011-12-28T12:42:02Z</time>
      </trkpt>
      <trkpt lat="43.7779" lon="7.1366">
        <ele>874.3</ele>
        <time>2011-12-28T12:42:05Z</time>
      </trkpt>
      <trkpt lat="43.77782" lon="7.13661">
        <ele>874.3</ele>
        <time>2011-12-28T12:42:08Z</time>
      </trkpt>
      <trkpt lat="43.77776" lon="7.13664">
        <ele>874.3</ele>
        <time>2011-12-28T12:42:10Z</time>
      </trkpt>
      <trkpt lat="43.77769" lon="7.1367">
        <ele>873</ele>
        <time>2011-12-28T12:42:14Z</time>
      </trkpt>
      <trkpt lat="43.77763" lon="7.13678">
        <ele>872.3</ele>
        <time>2011-12-28T12:42:18Z</time>
      </trkpt>
      <trkpt lat="43.77758" lon="7.13683">
        <ele>871.2</ele>
        <time>2011-12-28T12:42:21Z</time>
      </trkpt>
      <trkpt lat="43.77755" lon="7.13685">
        <ele>870.5</ele>
        <time>2011-12-28T12:42:22Z</time>
      </trkpt>
      <trkpt lat="43.77743" lon="7.13691">
        <ele>868.2</ele>
        <time>2011-12-28T12:42:27Z</time>
      </trkpt>
      <trkpt lat="43.77742" lon="7.13702">
        <ele>867.5</ele>
        <time>2011-12-28T12:42:30Z</time>
      </trkpt>
      <trkpt lat="43.7774" lon="7.13713">
        <ele>865.9</ele>
        <time>2011-12-28T12:42:33Z</time>
      </trkpt>
      <trkpt lat="43.77736" lon="7.13724">
        <ele>864.7</ele>
        <time>2011-12-28T12:42:36Z</time>
      </trkpt>
      <trkpt lat="43.77731" lon="7.13729">
        <ele>864.5</ele>
        <time>2011-12-28T12:42:38Z</time>
      </trkpt>
      <trkpt lat="43.77724" lon="7.13735">
        <ele>862.4</ele>
        <time>2011-12-28T12:42:41Z</time>
      </trkpt>
      <trkpt lat="43.77718" lon="7.13743">
        <ele>861.5</ele>
        <time>2011-12-28T12:42:44Z</time>
      </trkpt>
      <trkpt lat="43.77714" lon="7.13752">
        <ele>860.8</ele>
        <time>2011-12-28T12:42:47Z</time>
      </trkpt>
      <trkpt lat="43.77708" lon="7.13758">
        <ele>860.3</ele>
        <time>2011-12-28T12:42:50Z</time>
      </trkpt>
      <trkpt lat="43.77702" lon="7.13763">
        <ele>860.1</ele>
        <time>2011-12-28T12:42:53Z</time>
      </trkpt>
      <trkpt lat="43.77694" lon="7.13767">
        <ele>860.3</ele>
        <time>2011-12-28T12:42:56Z</time>
      </trkpt>
      <trkpt lat="43.77688" lon="7.13771">
        <ele>860.1</ele>
        <time>2011-12-28T12:42:58Z</time>
      </trkpt>
      <trkpt lat="43.7768" lon="7.13776">
        <ele>859.9</ele>
        <time>2011-12-28T12:43:00Z</time>
      </trkpt>
      <trkpt lat="43.77674" lon="7.13782">
        <ele>859.6</ele>
        <time>2011-12-28T12:43:02Z</time>
      </trkpt>
      <trkpt lat="43.77668" lon="7.13787">
        <ele>859</ele>
        <time>2011-12-28T12:43:04Z</time>
      </trkpt>
      <trkpt lat="43.77661" lon="7.13793">
        <ele>857.7</ele>
        <time>2011-12-28T12:43:06Z</time>
      </trkpt>
      <trkpt lat="43.77656" lon="7.138">
        <ele>856.9</ele>
        <time>2011-12-28T12:43:08Z</time>
      </trkpt>
      <trkpt lat="43.77651" lon="7.1381">
        <ele>855.6</ele>
        <time>2011-12-28T12:43:11Z</time>
      </trkpt>
      <trkpt lat="43.77642" lon="7.13807">
        <ele>853.3</ele>
        <time>2011-12-28T12:43:22Z</time>
      </trkpt>
      <trkpt lat="43.77634" lon="7.13811">
        <ele>852.5</ele>
        <time>2011-12-28T12:43:25Z</time>
      </trkpt>
      <trkpt lat="43.77631" lon="7.13813">
        <ele>852.3</ele>
        <time>2011-12-28T12:43:26Z</time>
      </trkpt>
      <trkpt lat="43.77624" lon="7.13822">
        <ele>850.1</ele>
        <time>2011-12-28T12:43:29Z</time>
      </trkpt>
      <trkpt lat="43.77616" lon="7.13828">
        <ele>848.3</ele>
        <time>2011-12-28T12:43:33Z</time>
      </trkpt>
      <trkpt lat="43.77611" lon="7.13832">
        <ele>847.9</ele>
        <time>2011-12-28T12:43:35Z</time>
      </trkpt>
      <trkpt lat="43.77604" lon="7.13835">
        <ele>846.2</ele>
        <time>2011-12-28T12:43:37Z</time>
      </trkpt>
      <trkpt lat="43.77596" lon="7.13837">
        <ele>844.9</ele>
        <time>2011-12-28T12:43:39Z</time>
      </trkpt>
      <trkpt lat="43.77589" lon="7.13839">
        <ele>843.8</ele>
        <time>2011-12-28T12:43:41Z</time>
      </trkpt>
      <trkpt lat="43.77583" lon="7.13844">
        <ele>842.1</ele>
        <time>2011-12-28T12:43:44Z</time>
      </trkpt>
      <trkpt lat="43.77575" lon="7.13842">
        <ele>838.7</ele>
        <time>2011-12-28T12:44:31Z</time>
      </trkpt>
      <trkpt lat="43.77573" lon="7.13842">
        <ele>838.2</ele>
        <time>2011-12-28T12:44:32Z</time>
      </trkpt>
      <trkpt lat="43.77562" lon="7.1385">
        <ele>837</ele>
        <time>2011-12-28T12:44:36Z</time>
      </trkpt>
      <trkpt lat="43.77555" lon="7.13854">
        <ele>836.1</ele>
        <time>2011-12-28T12:44:38Z</time>
      </trkpt>
      <trkpt lat="43.77549" lon="7.13859">
        <ele>835.2</ele>
        <time>2011-12-28T12:44:40Z</time>
      </trkpt>
      <trkpt lat="43.77543" lon="7.13865">
        <ele>833.8</ele>
        <time>2011-12-28T12:44:42Z</time>
      </trkpt>
      <trkpt lat="43.77537" lon="7.13873">
        <ele>831.9</ele>
        <time>2011-12-28T12:44:45Z</time>
      </trkpt>
      <trkpt lat="43.77533" lon="7.13883">
        <ele>829.1</ele>
        <time>2011-12-28T12:44:49Z</time>
      </trkpt>
      <trkpt lat="43.77528" lon="7.13872">
        <ele>827.1</ele>
        <time>2011-12-28T12:44:54Z</time>
      </trkpt>
      <trkpt lat="43.77522" lon="7.1388">
        <ele>825.3</ele>
        <time>2011-12-28T12:44:59Z</time>
      </trkpt>
      <trkpt lat="43.77518" lon="7.13891">
        <ele>823.8</ele>
        <time>2011-12-28T12:45:02Z</time>
      </trkpt>
      <trkpt lat="43.77516" lon="7.13899">
        <ele>822.9</ele>
        <time>2011-12-28T12:45:04Z</time>
      </trkpt>
      <trkpt lat="43.77513" lon="7.13908">
        <ele>821.2</ele>
        <time>2011-12-28T12:45:06Z</time>
      </trkpt>
      <trkpt lat="43.77511" lon="7.13917">
        <ele>819.6</ele>
        <time>2011-12-28T12:45:08Z</time>
      </trkpt>
      <trkpt lat="43.77506" lon="7.13927">
        <ele>818.1</ele>
        <time>2011-12-28T12:45:10Z</time>
      </trkpt>
      <trkpt lat="43.77503" lon="7.13933">
        <ele>816.9</ele>
        <time>2011-12-28T12:45:11Z</time>
      </trkpt>
      <trkpt lat="43.775" lon="7.13939">
        <ele>816.1</ele>
        <time>2011-12-28T12:45:12Z</time>
      </trkpt>
      <trkpt lat="43.77497" lon="7.13945">
        <ele>815.1</ele>
        <time>2011-12-28T12:45:13Z</time>
      </trkpt>
      <trkpt lat="43.77494" lon="7.13952">
        <ele>814.4</ele>
        <time>2011-12-28T12:45:14Z</time>
      </trkpt>
      <trkpt lat="43.77492" lon="7.13957">
        <ele>813.9</ele>
        <time>2011-12-28T12:45:15Z</time>
      </trkpt>
      <trkpt lat="43.77489" lon="7.13962">
        <ele>813.2</ele>
        <time>2011-12-28T12:45:16Z</time>
      </trkpt>
      <trkpt lat="43.77486" lon="7.13968">
        <ele>812.7</ele>
        <time>2011-12-28T12:45:17Z</time>
      </trkpt>
      <trkpt lat="43.77482" lon="7.13973">
        <ele>811.8</ele>
        <time>2011-12-28T12:45:18Z</time>
      </trkpt>
      <trkpt lat="43.77478" lon="7.13977">
        <ele>811.2</ele>
        <time>2011-12-28T12:45:19Z</time>
      </trkpt>
      <trkpt lat="43.77472" lon="7.1398">
        <ele>810.2</ele>
        <time>2011-12-28T12:45:20Z</time>
      </trkpt>
      <trkpt lat="43.77467" lon="7.13983">
        <ele>809.5</ele>
        <time>2011-12-28T12:45:21Z</time>
      </trkpt>
      <trkpt lat="43.77461" lon="7.13987">
        <ele>809</ele>
        <time>2011-12-28T12:45:22Z</time>
      </trkpt>
      <trkpt lat="43.77455" lon="7.13991">
        <ele>808.2</ele>
        <time>2011-12-28T12:45:23Z</time>
      </trkpt>
      <trkpt lat="43.7745" lon="7.13995">
        <ele>807.6</ele>
        <time>2011-12-28T12:45:24Z</time>
      </trkpt>
      <trkpt lat="43.77444" lon="7.13998">
        <ele>807.1</ele>
        <time>2011-12-28T12:45:25Z</time>
      </trkpt>
      <trkpt lat="43.77438" lon="7.14002">
        <ele>806.8</ele>
        <time>2011-12-28T12:45:26Z</time>
      </trkpt>
      <trkpt lat="43.77433" lon="7.14006">
        <ele>806.5</ele>
        <time>2011-12-28T12:45:27Z</time>
      </trkpt>
      <trkpt lat="43.77427" lon="7.1401">
        <ele>806.2</ele>
        <time>2011-12-28T12:45:28Z</time>
      </trkpt>
      <trkpt lat="43.77422" lon="7.14013">
        <ele>805.9</ele>
        <time>2011-12-28T12:45:29Z</time>
      </trkpt>
      <trkpt lat="43.77417" lon="7.14016">
        <ele>805.5</ele>
        <time>2011-12-28T12:45:30Z</time>
      </trkpt>
      <trkpt lat="43.77411" lon="7.14018">
        <ele>805.2</ele>
        <time>2011-12-28T12:45:31Z</time>
      </trkpt>
      <trkpt lat="43.77407" lon="7.1402">
        <ele>804.3</ele>
        <time>2011-12-28T12:45:32Z</time>
      </trkpt>
      <trkpt lat="43.77402" lon="7.14024">
        <ele>803.7</ele>
        <time>2011-12-28T12:45:33Z</time>
      </trkpt>
      <trkpt lat="43.77398" lon="7.14028">
        <ele>803.2</ele>
        <time>2011-12-28T12:45:34Z</time>
      </trkpt>
      <trkpt lat="43.77391" lon="7.14035">
        <ele>802.4</ele>
        <time>2011-12-28T12:45:36Z</time>
      </trkpt>
      <trkpt lat="43.77384" lon="7.14041">
        <ele>801.9</ele>
        <time>2011-12-28T12:45:38Z</time>
      </trkpt>
      <trkpt lat="43.77377" lon="7.14047">
        <ele>802.1</ele>
        <time>2011-12-28T12:45:40Z</time>
      </trkpt>
      <trkpt lat="43.77371" lon="7.14056">
        <ele>801.9</ele>
        <time>2011-12-28T12:45:42Z</time>
      </trkpt>
      <trkpt lat="43.77366" lon="7.14063">
        <ele>801.7</ele>
        <time>2011-12-28T12:45:44Z</time>
      </trkpt>
      <trkpt lat="43.77361" lon="7.14069">
        <ele>801.8</ele>
        <time>2011-12-28T12:45:46Z</time>
      </trkpt>
      <trkpt lat="43.77355" lon="7.14075">
        <ele>802.3</ele>
        <time>2011-12-28T12:45:48Z</time>
      </trkpt>
      <trkpt lat="43.7735" lon="7.14081">
        <ele>801.4</ele>
        <time>2011-12-28T12:45:50Z</time>
      </trkpt>
      <trkpt lat="43.77344" lon="7.14087">
        <ele>801.3</ele>
        <time>2011-12-28T12:45:52Z</time>
      </trkpt>
      <trkpt lat="43.77338" lon="7.14096">
        <ele>800.8</ele>
        <time>2011-12-28T12:45:54Z</time>
      </trkpt>
      <trkpt lat="43.77335" lon="7.14099">
        <ele>800.5</ele>
        <time>2011-12-28T12:45:55Z</time>
      </trkpt>
      <trkpt lat="43.77331" lon="7.14103">
        <ele>799.8</ele>
        <time>2011-12-28T12:45:56Z</time>
      </trkpt>
      <trkpt lat="43.77327" lon="7.14108">
        <ele>799.3</ele>
        <time>2011-12-28T12:45:57Z</time>
      </trkpt>
      <trkpt lat="43.77324" lon="7.14113">
        <ele>798.4</ele>
        <time>2011-12-28T12:45:58Z</time>
      </trkpt>
      <trkpt lat="43.77319" lon="7.14122">
        <ele>797.1</ele>
        <time>2011-12-28T12:46:00Z</time>
      </trkpt>
      <trkpt lat="43.77316" lon="7.14131">
        <ele>796.4</ele>
        <time>2011-12-28T12:46:02Z</time>
      </trkpt>
      <trkpt lat="43.77313" lon="7.1414">
        <ele>796.4</ele>
        <time>2011-12-28T12:46:04Z</time>
      </trkpt>
      <trkpt lat="43.7731" lon="7.14149">
        <ele>796</ele>
        <time>2011-12-28T12:46:06Z</time>
      </trkpt>
      <trkpt lat="43.77307" lon="7.14159">
        <ele>794.6</ele>
        <time>2011-12-28T12:46:08Z</time>
      </trkpt>
      <trkpt lat="43.77303" lon="7.14169">
        <ele>792.8</ele>
        <time>2011-12-28T12:46:10Z</time>
      </trkpt>
      <trkpt lat="43.77297" lon="7.14176">
        <ele>791.5</ele>
        <time>2011-12-28T12:46:12Z</time>
      </trkpt>
      <trkpt lat="43.77291" lon="7.14182">
        <ele>790.3</ele>
        <time>2011-12-28T12:46:14Z</time>
      </trkpt>
      <trkpt lat="43.77285" lon="7.1419">
        <ele>789.3</ele>
        <time>2011-12-28T12:46:16Z</time>
      </trkpt>
      <trkpt lat="43.77279" lon="7.14197">
        <ele>787.4</ele>
        <time>2011-12-28T12:46:18Z</time>
      </trkpt>
      <trkpt lat="43.77274" lon="7.14205">
        <ele>786.3</ele>
        <time>2011-12-28T12:46:20Z</time>
      </trkpt>
      <trkpt lat="43.77269" lon="7.14214">
        <ele>785.3</ele>
        <time>2011-12-28T12:46:22Z</time>
      </trkpt>
      <trkpt lat="43.77264" lon="7.14225">
        <ele>784.6</ele>
        <time>2011-12-28T12:46:24Z</time>
      </trkpt>
      <trkpt lat="43.7726" lon="7.14233">
        <ele>783.4</ele>
        <time>2011-12-28T12:46:26Z</time>
      </trkpt>
      <trkpt lat="43.77257" lon="7.1424">
        <ele>781.7</ele>
        <time>2011-12-28T12:46:28Z</time>
      </trkpt>
      <trkpt lat="43.77256" lon="7.14249">
        <ele>781.2</ele>
        <time>2011-12-28T12:46:30Z</time>
      </trkpt>
      <trkpt lat="43.77248" lon="7.14254">
        <ele>778.9</ele>
        <time>2011-12-28T12:46:34Z</time>
      </trkpt>
      <trkpt lat="43.77244" lon="7.14252">
        <ele>778.2</ele>
        <time>2011-12-28T12:46:35Z</time>
      </trkpt>
      <trkpt lat="43.77235" lon="7.14249">
        <ele>777.2</ele>
        <time>2011-12-28T12:46:37Z</time>
      </trkpt>
      <trkpt lat="43.7723" lon="7.1425">
        <ele>776.9</ele>
        <time>2011-12-28T12:46:38Z</time>
      </trkpt>
      <trkpt lat="43.77225" lon="7.14251">
        <ele>776.3</ele>
        <time>2011-12-28T12:46:39Z</time>
      </trkpt>
      <trkpt lat="43.7722" lon="7.14253">
        <ele>775.8</ele>
        <time>2011-12-28T12:46:40Z</time>
      </trkpt>
      <trkpt lat="43.77216" lon="7.14257">
        <ele>775.3</ele>
        <time>2011-12-28T12:46:41Z</time>
      </trkpt>
      <trkpt lat="43.77212" lon="7.1426">
        <ele>775</ele>
        <time>2011-12-28T12:46:42Z</time>
      </trkpt>
      <trkpt lat="43.77208" lon="7.14263">
        <ele>774.7</ele>
        <time>2011-12-28T12:46:43Z</time>
      </trkpt>
      <trkpt lat="43.77204" lon="7.14266">
        <ele>774.5</ele>
        <time>2011-12-28T12:46:44Z</time>
      </trkpt>
      <trkpt lat="43.772" lon="7.14269">
        <ele>774.3</ele>
        <time>2011-12-28T12:46:45Z</time>
      </trkpt>
      <trkpt lat="43.77195" lon="7.14272">
        <ele>773.9</ele>
        <time>2011-12-28T12:46:46Z</time>
      </trkpt>
      <trkpt lat="43.77191" lon="7.14276">
        <ele>773.6</ele>
        <time>2011-12-28T12:46:47Z</time>
      </trkpt>
      <trkpt lat="43.77188" lon="7.1428">
        <ele>773.4</ele>
        <time>2011-12-28T12:46:48Z</time>
      </trkpt>
      <trkpt lat="43.77182" lon="7.14289">
        <ele>773.2</ele>
        <time>2011-12-28T12:46:50Z</time>
      </trkpt>
      <trkpt lat="43.77177" lon="7.14299">
        <ele>772.7</ele>
        <time>2011-12-28T12:46:52Z</time>
      </trkpt>
      <trkpt lat="43.77171" lon="7.14307">
        <ele>772</ele>
        <time>2011-12-28T12:46:54Z</time>
      </trkpt>
      <trkpt lat="43.77166" lon="7.14315">
        <ele>772.4</ele>
        <time>2011-12-28T12:46:56Z</time>
      </trkpt>
      <trkpt lat="43.77161" lon="7.14322">
        <ele>772.4</ele>
        <time>2011-12-28T12:46:58Z</time>
      </trkpt>
      <trkpt lat="43.77154" lon="7.14328">
        <ele>772.1</ele>
        <time>2011-12-28T12:47:00Z</time>
      </trkpt>
      <trkpt lat="43.77149" lon="7.14335">
        <ele>771.9</ele>
        <time>2011-12-28T12:47:02Z</time>
      </trkpt>
      <trkpt lat="43.77143" lon="7.14341">
        <ele>771.8</ele>
        <time>2011-12-28T12:47:04Z</time>
      </trkpt>
      <trkpt lat="43.77137" lon="7.14349">
        <ele>771.8</ele>
        <time>2011-12-28T12:47:06Z</time>
      </trkpt>
      <trkpt lat="43.77131" lon="7.14356">
        <ele>770.1</ele>
        <time>2011-12-28T12:47:08Z</time>
      </trkpt>
      <trkpt lat="43.77126" lon="7.14364">
        <ele>769.4</ele>
        <time>2011-12-28T12:47:10Z</time>
      </trkpt>
      <trkpt lat="43.7712" lon="7.14371">
        <ele>769.8</ele>
        <time>2011-12-28T12:47:12Z</time>
      </trkpt>
      <trkpt lat="43.77115" lon="7.14378">
        <ele>769.9</ele>
        <time>2011-12-28T12:47:14Z</time>
      </trkpt>
      <trkpt lat="43.77109" lon="7.14384">
        <ele>769.6</ele>
        <time>2011-12-28T12:47:16Z</time>
      </trkpt>
      <trkpt lat="43.77104" lon="7.14392">
        <ele>769</ele>
        <time>2011-12-28T12:47:18Z</time>
      </trkpt>
      <trkpt lat="43.77097" lon="7.14397">
        <ele>768.9</ele>
        <time>2011-12-28T12:47:20Z</time>
      </trkpt>
      <trkpt lat="43.7709" lon="7.144">
        <ele>768</ele>
        <time>2011-12-28T12:47:22Z</time>
      </trkpt>
      <trkpt lat="43.77084" lon="7.14404">
        <ele>767.5</ele>
        <time>2011-12-28T12:47:24Z</time>
      </trkpt>
      <trkpt lat="43.77078" lon="7.14407">
        <ele>767.5</ele>
        <time>2011-12-28T12:47:26Z</time>
      </trkpt>
      <trkpt lat="43.77071" lon="7.14411">
        <ele>767.7</ele>
        <time>2011-12-28T12:47:28Z</time>
      </trkpt>
      <trkpt lat="43.77065" lon="7.14417">
        <ele>767.3</ele>
        <time>2011-12-28T12:47:30Z</time>
      </trkpt>
      <trkpt lat="43.77059" lon="7.14423">
        <ele>767.2</ele>
        <time>2011-12-28T12:47:32Z</time>
      </trkpt>
      <trkpt lat="43.77052" lon="7.1443">
        <ele>766.7</ele>
        <time>2011-12-28T12:47:34Z</time>
      </trkpt>
      <trkpt lat="43.77046" lon="7.14435">
        <ele>766.2</ele>
        <time>2011-12-28T12:47:36Z</time>
      </trkpt>
      <trkpt lat="43.77042" lon="7.14437">
        <ele>766</ele>
        <time>2011-12-28T12:47:37Z</time>
      </trkpt>
      <trkpt lat="43.77032" lon="7.14445">
        <ele>765.6</ele>
        <time>2011-12-28T12:47:40Z</time>
      </trkpt>
      <trkpt lat="43.77027" lon="7.1445">
        <ele>765.5</ele>
        <time>2011-12-28T12:47:42Z</time>
      </trkpt>
      <trkpt lat="43.7702" lon="7.14455">
        <ele>765.4</ele>
        <time>2011-12-28T12:47:45Z</time>
      </trkpt>
      <trkpt lat="43.77013" lon="7.14461">
        <ele>765.2</ele>
        <time>2011-12-28T12:47:48Z</time>
      </trkpt>
      <trkpt lat="43.77006" lon="7.1447">
        <ele>762.8</ele>
        <time>2011-12-28T12:48:27Z</time>
      </trkpt>
      <trkpt lat="43.77002" lon="7.1448">
        <ele>763.7</ele>
        <time>2011-12-28T12:48:47Z</time>
      </trkpt>
      <trkpt lat="43.77001" lon="7.1448">
        <ele>763.7</ele>
        <time>2011-12-28T12:48:48Z</time>
      </trkpt>
      <trkpt lat="43.77" lon="7.145">
        <ele>764.3</ele>
        <time>2011-12-28T12:50:39Z</time>
      </trkpt>
      <trkpt lat="43.77" lon="7.14501">
        <ele>764.5</ele>
        <time>2011-12-28T12:50:40Z</time>
      </trkpt>
      <trkpt lat="43.76994" lon="7.14522">
        <ele>768.4</ele>
        <time>2011-12-28T12:51:06Z</time>
      </trkpt>
      <trkpt lat="43.7699" lon="7.14533">
        <ele>770.6</ele>
        <time>2011-12-28T12:51:22Z</time>
      </trkpt>
      <trkpt lat="43.76982" lon="7.14538">
        <ele>772</ele>
        <time>2011-12-28T12:53:43Z</time>
      </trkpt>
      <trkpt lat="43.76982" lon="7.14539">
        <ele>772.1</ele>
        <time>2011-12-28T12:53:44Z</time>
      </trkpt>
      <trkpt lat="43.76966" lon="7.14548">
        <ele>771.8</ele>
        <time>2011-12-28T12:53:56Z</time>
      </trkpt>
      <trkpt lat="43.76959" lon="7.14555">
        <ele>772</ele>
        <time>2011-12-28T12:54:01Z</time>
      </trkpt>
      <trkpt lat="43.76954" lon="7.14565">
        <ele>773.2</ele>
        <time>2011-12-28T12:54:07Z</time>
      </trkpt>
      <trkpt lat="43.76947" lon="7.1457">
        <ele>774.5</ele>
        <time>2011-12-28T12:54:13Z</time>
      </trkpt>
      <trkpt lat="43.76939" lon="7.14576">
        <ele>776.3</ele>
        <time>2011-12-28T12:54:28Z</time>
      </trkpt>
      <trkpt lat="43.76931" lon="7.14579">
        <ele>778.1</ele>
        <time>2011-12-28T12:54:40Z</time>
      </trkpt>
      <trkpt lat="43.76924" lon="7.14585">
        <ele>778.3</ele>
        <time>2011-12-28T12:54:46Z</time>
      </trkpt>
      <trkpt lat="43.76923" lon="7.14586">
        <ele>778.3</ele>
        <time>2011-12-28T12:54:47Z</time>
      </trkpt>
      <trkpt lat="43.7691" lon="7.14598">
        <ele>780.2</ele>
        <time>2011-12-28T12:54:59Z</time>
      </trkpt>
      <trkpt lat="43.76904" lon="7.14606">
        <ele>781.7</ele>
        <time>2011-12-28T12:55:06Z</time>
      </trkpt>
      <trkpt lat="43.76896" lon="7.14612">
        <ele>784.7</ele>
        <time>2011-12-28T12:55:30Z</time>
      </trkpt>
      <trkpt lat="43.76889" lon="7.1462">
        <ele>785.1</ele>
        <time>2011-12-28T12:55:38Z</time>
      </trkpt>
      <trkpt lat="43.76883" lon="7.14625">
        <ele>787.4</ele>
        <time>2011-12-28T12:55:44Z</time>
      </trkpt>
      <trkpt lat="43.76876" lon="7.14631">
        <ele>787.7</ele>
        <time>2011-12-28T12:55:50Z</time>
      </trkpt>
      <trkpt lat="43.76875" lon="7.14632">
        <ele>784.2</ele>
        <time>2011-12-28T12:55:51Z</time>
      </trkpt>
      <trkpt lat="43.76864" lon="7.14648">
        <ele>776.7</ele>
        <time>2011-12-28T12:56:04Z</time>
      </trkpt>
      <trkpt lat="43.76857" lon="7.14655">
        <ele>777.6</ele>
        <time>2011-12-28T12:56:11Z</time>
      </trkpt>
      <trkpt lat="43.76849" lon="7.14661">
        <ele>779.3</ele>
        <time>2011-12-28T12:56:18Z</time>
      </trkpt>
      <trkpt lat="43.76844" lon="7.14669">
        <ele>780.3</ele>
        <time>2011-12-28T12:56:24Z</time>
      </trkpt>
      <trkpt lat="43.76838" lon="7.14678">
        <ele>781.9</ele>
        <time>2011-12-28T12:56:31Z</time>
      </trkpt>
      <trkpt lat="43.76832" lon="7.14686">
        <ele>782.9</ele>
        <time>2011-12-28T12:56:38Z</time>
      </trkpt>
      <trkpt lat="43.76825" lon="7.14688">
        <ele>783.9</ele>
        <time>2011-12-28T12:56:44Z</time>
      </trkpt>
      <trkpt lat="43.76817" lon="7.14686">
        <ele>786.1</ele>
        <time>2011-12-28T12:56:56Z</time>
      </trkpt>
      <trkpt lat="43.76816" lon="7.14686">
        <ele>786.1</ele>
        <time>2011-12-28T12:56:57Z</time>
      </trkpt>
      <trkpt lat="43.768" lon="7.14683">
        <ele>789.3</ele>
        <time>2011-12-28T12:57:18Z</time>
      </trkpt>
      <trkpt lat="43.76792" lon="7.1468">
        <ele>789</ele>
        <time>2011-12-28T12:57:25Z</time>
      </trkpt>
      <trkpt lat="43.76783" lon="7.14679">
        <ele>791.2</ele>
        <time>2011-12-28T12:57:36Z</time>
      </trkpt>
      <trkpt lat="43.76775" lon="7.14676">
        <ele>791.8</ele>
        <time>2011-12-28T12:57:42Z</time>
      </trkpt>
      <trkpt lat="43.76766" lon="7.14675">
        <ele>791.6</ele>
        <time>2011-12-28T12:57:48Z</time>
      </trkpt>
      <trkpt lat="43.76759" lon="7.14674">
        <ele>792.8</ele>
        <time>2011-12-28T12:57:53Z</time>
      </trkpt>
      <trkpt lat="43.76751" lon="7.14676">
        <ele>793.8</ele>
        <time>2011-12-28T12:57:58Z</time>
      </trkpt>
      <trkpt lat="43.76749" lon="7.14676">
        <ele>794</ele>
        <time>2011-12-28T12:57:59Z</time>
      </trkpt>
      <trkpt lat="43.76734" lon="7.14679">
        <ele>796.1</ele>
        <time>2011-12-28T12:58:10Z</time>
      </trkpt>
      <trkpt lat="43.76726" lon="7.14682">
        <ele>797.4</ele>
        <time>2011-12-28T12:58:16Z</time>
      </trkpt>
      <trkpt lat="43.76718" lon="7.14687">
        <ele>800</ele>
        <time>2011-12-28T12:58:27Z</time>
      </trkpt>
      <trkpt lat="43.7671" lon="7.14689">
        <ele>801</ele>
        <time>2011-12-28T12:59:26Z</time>
      </trkpt>
      <trkpt lat="43.76708" lon="7.14689">
        <ele>800.8</ele>
        <time>2011-12-28T12:59:27Z</time>
      </trkpt>
      <trkpt lat="43.76696" lon="7.14692">
        <ele>801.3</ele>
        <time>2011-12-28T12:59:34Z</time>
      </trkpt>
      <trkpt lat="43.76688" lon="7.14694">
        <ele>801.7</ele>
        <time>2011-12-28T12:59:38Z</time>
      </trkpt>
      <trkpt lat="43.7668" lon="7.14698">
        <ele>803.2</ele>
        <time>2011-12-28T12:59:43Z</time>
      </trkpt>
      <trkpt lat="43.76673" lon="7.14702">
        <ele>805.4</ele>
        <time>2011-12-28T12:59:48Z</time>
      </trkpt>
      <trkpt lat="43.76665" lon="7.14706">
        <ele>805</ele>
        <time>2011-12-28T12:59:53Z</time>
      </trkpt>
      <trkpt lat="43.76658" lon="7.1471">
        <ele>805.2</ele>
        <time>2011-12-28T12:59:59Z</time>
      </trkpt>
      <trkpt lat="43.76651" lon="7.14717">
        <ele>806.6</ele>
        <time>2011-12-28T13:00:05Z</time>
      </trkpt>
      <trkpt lat="43.76644" lon="7.14722">
        <ele>807.4</ele>
        <time>2011-12-28T13:00:10Z</time>
      </trkpt>
      <trkpt lat="43.76638" lon="7.14729">
        <ele>807.6</ele>
        <time>2011-12-28T13:00:15Z</time>
      </trkpt>
      <trkpt lat="43.7663" lon="7.14733">
        <ele>807.7</ele>
        <time>2011-12-28T13:00:19Z</time>
      </trkpt>
      <trkpt lat="43.76624" lon="7.14737">
        <ele>808</ele>
        <time>2011-12-28T13:00:23Z</time>
      </trkpt>
      <trkpt lat="43.76618" lon="7.14746">
        <ele>808.7</ele>
        <time>2011-12-28T13:00:32Z</time>
      </trkpt>
      <trkpt lat="43.76617" lon="7.14747">
        <ele>809.1</ele>
        <time>2011-12-28T13:00:33Z</time>
      </trkpt>
      <trkpt lat="43.76605" lon="7.14759">
        <ele>809.8</ele>
        <time>2011-12-28T13:00:51Z</time>
      </trkpt>
      <trkpt lat="43.76598" lon="7.14765">
        <ele>811.2</ele>
        <time>2011-12-28T13:00:57Z</time>
      </trkpt>
      <trkpt lat="43.76592" lon="7.14766">
        <ele>811.5</ele>
        <time>2011-12-28T13:01:00Z</time>
      </trkpt>
      <trkpt lat="43.76585" lon="7.14766">
        <ele>811.4</ele>
        <time>2011-12-28T13:01:02Z</time>
      </trkpt>
      <trkpt lat="43.76578" lon="7.14766">
        <ele>810.9</ele>
        <time>2011-12-28T13:01:04Z</time>
      </trkpt>
      <trkpt lat="43.76571" lon="7.14767">
        <ele>810.7</ele>
        <time>2011-12-28T13:01:07Z</time>
      </trkpt>
      <trkpt lat="43.76562" lon="7.14768">
        <ele>810.8</ele>
        <time>2011-12-28T13:01:11Z</time>
      </trkpt>
      <trkpt lat="43.76554" lon="7.14772">
        <ele>811.8</ele>
        <time>2011-12-28T13:01:16Z</time>
      </trkpt>
      <trkpt lat="43.76546" lon="7.14776">
        <ele>812.4</ele>
        <time>2011-12-28T13:01:27Z</time>
      </trkpt>
      <trkpt lat="43.7654" lon="7.14783">
        <ele>812.5</ele>
        <time>2011-12-28T13:01:32Z</time>
      </trkpt>
      <trkpt lat="43.76533" lon="7.14789">
        <ele>814.6</ele>
        <time>2011-12-28T13:01:37Z</time>
      </trkpt>
      <trkpt lat="43.76532" lon="7.1479">
        <ele>814.5</ele>
        <time>2011-12-28T13:01:38Z</time>
      </trkpt>
      <trkpt lat="43.76521" lon="7.14801">
        <ele>815.6</ele>
        <time>2011-12-28T13:01:47Z</time>
      </trkpt>
      <trkpt lat="43.76514" lon="7.14808">
        <ele>816.9</ele>
        <time>2011-12-28T13:01:52Z</time>
      </trkpt>
      <trkpt lat="43.76507" lon="7.14814">
        <ele>816.4</ele>
        <time>2011-12-28T13:01:57Z</time>
      </trkpt>
      <trkpt lat="43.765" lon="7.14821">
        <ele>817.1</ele>
        <time>2011-12-28T13:02:02Z</time>
      </trkpt>
      <trkpt lat="43.76494" lon="7.14827">
        <ele>819</ele>
        <time>2011-12-28T13:02:07Z</time>
      </trkpt>
      <trkpt lat="43.76486" lon="7.14833">
        <ele>819.7</ele>
        <time>2011-12-28T13:02:13Z</time>
      </trkpt>
      <trkpt lat="43.76479" lon="7.14836">
        <ele>820.1</ele>
        <time>2011-12-28T13:02:17Z</time>
      </trkpt>
      <trkpt lat="43.76472" lon="7.14842">
        <ele>819.4</ele>
        <time>2011-12-28T13:02:22Z</time>
      </trkpt>
      <trkpt lat="43.76465" lon="7.1485">
        <ele>820.9</ele>
        <time>2011-12-28T13:02:28Z</time>
      </trkpt>
      <trkpt lat="43.76458" lon="7.14857">
        <ele>821.6</ele>
        <time>2011-12-28T13:02:33Z</time>
      </trkpt>
      <trkpt lat="43.76452" lon="7.14864">
        <ele>822.4</ele>
        <time>2011-12-28T13:02:37Z</time>
      </trkpt>
      <trkpt lat="43.76446" lon="7.1487">
        <ele>823.2</ele>
        <time>2011-12-28T13:02:40Z</time>
      </trkpt>
      <trkpt lat="43.76444" lon="7.14872">
        <ele>823.3</ele>
        <time>2011-12-28T13:02:41Z</time>
      </trkpt>
      <trkpt lat="43.76433" lon="7.14881">
        <ele>822.9</ele>
        <time>2011-12-28T13:02:47Z</time>
      </trkpt>
      <trkpt lat="43.76426" lon="7.14886">
        <ele>822.9</ele>
        <time>2011-12-28T13:02:50Z</time>
      </trkpt>
      <trkpt lat="43.76419" lon="7.14891">
        <ele>823</ele>
        <time>2011-12-28T13:02:54Z</time>
      </trkpt>
      <trkpt lat="43.76411" lon="7.14894">
        <ele>823.2</ele>
        <time>2011-12-28T13:02:58Z</time>
      </trkpt>
      <trkpt lat="43.76404" lon="7.14902">
        <ele>823.3</ele>
        <time>2011-12-28T13:03:03Z</time>
      </trkpt>
      <trkpt lat="43.76397" lon="7.14906">
        <ele>823.8</ele>
        <time>2011-12-28T13:07:13Z</time>
      </trkpt>
      <trkpt lat="43.76396" lon="7.14908">
        <ele>823.9</ele>
        <time>2011-12-28T13:07:14Z</time>
      </trkpt>
      <trkpt lat="43.76391" lon="7.14927">
        <ele>825.6</ele>
        <time>2011-12-28T13:08:39Z</time>
      </trkpt>
      <trkpt lat="43.7639" lon="7.14928">
        <ele>825.8</ele>
        <time>2011-12-28T13:08:40Z</time>
      </trkpt>
      <trkpt lat="43.76387" lon="7.14941">
        <ele>825.3</ele>
        <time>2011-12-28T13:10:07Z</time>
      </trkpt>
      <trkpt lat="43.7638" lon="7.14954">
        <ele>824.6</ele>
        <time>2011-12-28T13:10:11Z</time>
      </trkpt>
      <trkpt lat="43.76377" lon="7.14964">
        <ele>824.5</ele>
        <time>2011-12-28T13:10:13Z</time>
      </trkpt>
      <trkpt lat="43.76377" lon="7.1497">
        <ele>824.6</ele>
        <time>2011-12-28T13:10:14Z</time>
      </trkpt>
      <trkpt lat="43.76376" lon="7.14977">
        <ele>823.9</ele>
        <time>2011-12-28T13:10:15Z</time>
      </trkpt>
      <trkpt lat="43.76374" lon="7.14983">
        <ele>823.3</ele>
        <time>2011-12-28T13:10:16Z</time>
      </trkpt>
      <trkpt lat="43.76368" lon="7.14993">
        <ele>822.4</ele>
        <time>2011-12-28T13:10:18Z</time>
      </trkpt>
      <trkpt lat="43.76365" lon="7.15002">
        <ele>821.3</ele>
        <time>2011-12-28T13:10:20Z</time>
      </trkpt>
      <trkpt lat="43.76362" lon="7.15013">
        <ele>819.9</ele>
        <time>2011-12-28T13:10:22Z</time>
      </trkpt>
      <trkpt lat="43.76359" lon="7.15019">
        <ele>819.2</ele>
        <time>2011-12-28T13:10:23Z</time>
      </trkpt>
      <trkpt lat="43.76356" lon="7.15023">
        <ele>818.8</ele>
        <time>2011-12-28T13:10:24Z</time>
      </trkpt>
      <trkpt lat="43.76353" lon="7.15027">
        <ele>818.1</ele>
        <time>2011-12-28T13:10:25Z</time>
      </trkpt>
      <trkpt lat="43.76349" lon="7.15032">
        <ele>817.5</ele>
        <time>2011-12-28T13:10:26Z</time>
      </trkpt>
      <trkpt lat="43.76347" lon="7.15037">
        <ele>816.2</ele>
        <time>2011-12-28T13:10:27Z</time>
      </trkpt>
      <trkpt lat="43.76345" lon="7.15043">
        <ele>815.3</ele>
        <time>2011-12-28T13:10:28Z</time>
      </trkpt>
      <trkpt lat="43.76342" lon="7.15049">
        <ele>814.6</ele>
        <time>2011-12-28T13:10:29Z</time>
      </trkpt>
      <trkpt lat="43.76339" lon="7.15055">
        <ele>813.7</ele>
        <time>2011-12-28T13:10:30Z</time>
      </trkpt>
      <trkpt lat="43.76336" lon="7.15061">
        <ele>813</ele>
        <time>2011-12-28T13:10:31Z</time>
      </trkpt>
      <trkpt lat="43.76332" lon="7.15067">
        <ele>811.6</ele>
        <time>2011-12-28T13:10:32Z</time>
      </trkpt>
      <trkpt lat="43.7633" lon="7.15073">
        <ele>810.5</ele>
        <time>2011-12-28T13:10:33Z</time>
      </trkpt>
      <trkpt lat="43.76327" lon="7.1508">
        <ele>809</ele>
        <time>2011-12-28T13:10:34Z</time>
      </trkpt>
      <trkpt lat="43.76324" lon="7.15086">
        <ele>807.9</ele>
        <time>2011-12-28T13:10:35Z</time>
      </trkpt>
      <trkpt lat="43.76321" lon="7.15092">
        <ele>807</ele>
        <time>2011-12-28T13:10:36Z</time>
      </trkpt>
      <trkpt lat="43.76318" lon="7.15097">
        <ele>805.8</ele>
        <time>2011-12-28T13:10:37Z</time>
      </trkpt>
      <trkpt lat="43.76312" lon="7.15105">
        <ele>804.1</ele>
        <time>2011-12-28T13:10:39Z</time>
      </trkpt>
      <trkpt lat="43.76306" lon="7.1511">
        <ele>802.6</ele>
        <time>2011-12-28T13:10:41Z</time>
      </trkpt>
      <trkpt lat="43.76303" lon="7.15114">
        <ele>802</ele>
        <time>2011-12-28T13:10:42Z</time>
      </trkpt>
      <trkpt lat="43.76299" lon="7.1512">
        <ele>801.5</ele>
        <time>2011-12-28T13:10:43Z</time>
      </trkpt>
      <trkpt lat="43.76296" lon="7.15125">
        <ele>800.5</ele>
        <time>2011-12-28T13:10:44Z</time>
      </trkpt>
      <trkpt lat="43.76292" lon="7.15129">
        <ele>799.7</ele>
        <time>2011-12-28T13:10:45Z</time>
      </trkpt>
      <trkpt lat="43.76285" lon="7.15137">
        <ele>797.4</ele>
        <time>2011-12-28T13:10:47Z</time>
      </trkpt>
      <trkpt lat="43.76281" lon="7.15145">
        <ele>795.6</ele>
        <time>2011-12-28T13:10:49Z</time>
      </trkpt>
      <trkpt lat="43.76282" lon="7.15157">
        <ele>792.4</ele>
        <time>2011-12-28T13:10:53Z</time>
      </trkpt>
      <trkpt lat="43.76285" lon="7.15167">
        <ele>789.5</ele>
        <time>2011-12-28T13:10:57Z</time>
      </trkpt>
      <trkpt lat="43.76284" lon="7.15179">
        <ele>786.6</ele>
        <time>2011-12-28T13:11:01Z</time>
      </trkpt>
      <trkpt lat="43.76283" lon="7.15189">
        <ele>784.7</ele>
        <time>2011-12-28T13:11:04Z</time>
      </trkpt>
      <trkpt lat="43.76282" lon="7.15199">
        <ele>781.6</ele>
        <time>2011-12-28T13:11:09Z</time>
      </trkpt>
      <trkpt lat="43.76281" lon="7.15201">
        <ele>780.4</ele>
        <time>2011-12-28T13:11:10Z</time>
      </trkpt>
      <trkpt lat="43.76274" lon="7.15216">
        <ele>776.3</ele>
        <time>2011-12-28T13:11:15Z</time>
      </trkpt>
      <trkpt lat="43.76272" lon="7.15225">
        <ele>774.3</ele>
        <time>2011-12-28T13:11:17Z</time>
      </trkpt>
      <trkpt lat="43.76267" lon="7.15233">
        <ele>771.9</ele>
        <time>2011-12-28T13:11:19Z</time>
      </trkpt>
      <trkpt lat="43.76263" lon="7.15242">
        <ele>770.1</ele>
        <time>2011-12-28T13:11:21Z</time>
      </trkpt>
      <trkpt lat="43.76259" lon="7.1525">
        <ele>768.6</ele>
        <time>2011-12-28T13:11:23Z</time>
      </trkpt>
      <trkpt lat="43.76255" lon="7.15259">
        <ele>765.6</ele>
        <time>2011-12-28T13:11:26Z</time>
      </trkpt>
      <trkpt lat="43.76251" lon="7.15267">
        <ele>764</ele>
        <time>2011-12-28T13:11:29Z</time>
      </trkpt>
      <trkpt lat="43.76244" lon="7.15273">
        <ele>762.2</ele>
        <time>2011-12-28T13:11:32Z</time>
      </trkpt>
      <trkpt lat="43.76238" lon="7.1528">
        <ele>760.1</ele>
        <time>2011-12-28T13:11:35Z</time>
      </trkpt>
      <trkpt lat="43.76234" lon="7.15291">
        <ele>756.4</ele>
        <time>2011-12-28T13:11:39Z</time>
      </trkpt>
      <trkpt lat="43.76229" lon="7.15297">
        <ele>753.7</ele>
        <time>2011-12-28T13:11:42Z</time>
      </trkpt>
      <trkpt lat="43.76224" lon="7.15304">
        <ele>752.2</ele>
        <time>2011-12-28T13:11:44Z</time>
      </trkpt>
      <trkpt lat="43.76218" lon="7.1531">
        <ele>750.3</ele>
        <time>2011-12-28T13:11:47Z</time>
      </trkpt>
      <trkpt lat="43.76213" lon="7.15319">
        <ele>746.7</ele>
        <time>2011-12-28T13:13:17Z</time>
      </trkpt>
      <trkpt lat="43.76211" lon="7.15322">
        <ele>746.2</ele>
        <time>2011-12-28T13:13:18Z</time>
      </trkpt>
      <trkpt lat="43.76209" lon="7.15337">
        <ele>744.7</ele>
        <time>2011-12-28T13:13:21Z</time>
      </trkpt>
      <trkpt lat="43.76202" lon="7.15344">
        <ele>744.2</ele>
        <time>2011-12-28T13:13:23Z</time>
      </trkpt>
      <trkpt lat="43.76193" lon="7.15346">
        <ele>744</ele>
        <time>2011-12-28T13:13:25Z</time>
      </trkpt>
      <trkpt lat="43.76184" lon="7.15345">
        <ele>743.8</ele>
        <time>2011-12-28T13:13:27Z</time>
      </trkpt>
      <trkpt lat="43.76178" lon="7.15339">
        <ele>742.6</ele>
        <time>2011-12-28T13:13:29Z</time>
      </trkpt>
      <trkpt lat="43.76172" lon="7.15333">
        <ele>742.2</ele>
        <time>2011-12-28T13:13:31Z</time>
      </trkpt>
      <trkpt lat="43.76164" lon="7.15331">
        <ele>740</ele>
        <time>2011-12-28T13:13:34Z</time>
      </trkpt>
      <trkpt lat="43.76157" lon="7.15333">
        <ele>738.3</ele>
        <time>2011-12-28T13:13:37Z</time>
      </trkpt>
      <trkpt lat="43.76149" lon="7.15337">
        <ele>737.1</ele>
        <time>2011-12-28T13:13:41Z</time>
      </trkpt>
      <trkpt lat="43.76141" lon="7.15335">
        <ele>734.2</ele>
        <time>2011-12-28T13:13:45Z</time>
      </trkpt>
      <trkpt lat="43.76135" lon="7.15334">
        <ele>732.6</ele>
        <time>2011-12-28T13:13:48Z</time>
      </trkpt>
      <trkpt lat="43.76127" lon="7.15339">
        <ele>729.5</ele>
        <time>2011-12-28T13:13:51Z</time>
      </trkpt>
      <trkpt lat="43.76119" lon="7.15345">
        <ele>727.6</ele>
        <time>2011-12-28T13:13:55Z</time>
      </trkpt>
      <trkpt lat="43.76111" lon="7.15348">
        <ele>725.1</ele>
        <time>2011-12-28T13:13:59Z</time>
      </trkpt>
      <trkpt lat="43.76103" lon="7.15348">
        <ele>724.2</ele>
        <time>2011-12-28T13:14:02Z</time>
      </trkpt>
      <trkpt lat="43.76097" lon="7.15349">
        <ele>722.4</ele>
        <time>2011-12-28T13:14:04Z</time>
      </trkpt>
      <trkpt lat="43.76091" lon="7.15352">
        <ele>721</ele>
        <time>2011-12-28T13:14:06Z</time>
      </trkpt>
      <trkpt lat="43.76085" lon="7.15355">
        <ele>719.6</ele>
        <time>2011-12-28T13:14:08Z</time>
      </trkpt>
      <trkpt lat="43.76078" lon="7.15359">
        <ele>717.7</ele>
        <time>2011-12-28T13:14:10Z</time>
      </trkpt>
      <trkpt lat="43.76074" lon="7.15361">
        <ele>716.7</ele>
        <time>2011-12-28T13:14:11Z</time>
      </trkpt>
      <trkpt lat="43.7607" lon="7.15363">
        <ele>716</ele>
        <time>2011-12-28T13:14:12Z</time>
      </trkpt>
      <trkpt lat="43.76062" lon="7.15368">
        <ele>714.3</ele>
        <time>2011-12-28T13:14:14Z</time>
      </trkpt>
      <trkpt lat="43.76055" lon="7.15373">
        <ele>713</ele>
        <time>2011-12-28T13:14:17Z</time>
      </trkpt>
      <trkpt lat="43.76048" lon="7.15374">
        <ele>712.4</ele>
        <time>2011-12-28T13:14:19Z</time>
      </trkpt>
      <trkpt lat="43.76045" lon="7.15375">
        <ele>712.1</ele>
        <time>2011-12-28T13:14:20Z</time>
      </trkpt>
      <trkpt lat="43.76035" lon="7.1538">
        <ele>710.2</ele>
        <time>2011-12-28T13:14:24Z</time>
      </trkpt>
      <trkpt lat="43.76029" lon="7.15386">
        <ele>708.1</ele>
        <time>2011-12-28T13:14:27Z</time>
      </trkpt>
      <trkpt lat="43.76022" lon="7.15392">
        <ele>706.7</ele>
        <time>2011-12-28T13:14:30Z</time>
      </trkpt>
      <trkpt lat="43.76014" lon="7.15398">
        <ele>704.4</ele>
        <time>2011-12-28T13:14:34Z</time>
      </trkpt>
      <trkpt lat="43.76008" lon="7.15404">
        <ele>702.1</ele>
        <time>2011-12-28T13:14:37Z</time>
      </trkpt>
      <trkpt lat="43.76001" lon="7.15408">
        <ele>701.1</ele>
        <time>2011-12-28T13:14:40Z</time>
      </trkpt>
      <trkpt lat="43.75994" lon="7.15412">
        <ele>700.6</ele>
        <time>2011-12-28T13:14:43Z</time>
      </trkpt>
      <trkpt lat="43.75987" lon="7.15418">
        <ele>698.3</ele>
        <time>2011-12-28T13:14:46Z</time>
      </trkpt>
      <trkpt lat="43.7598" lon="7.15425">
        <ele>695.5</ele>
        <time>2011-12-28T13:14:49Z</time>
      </trkpt>
      <trkpt lat="43.75972" lon="7.1543">
        <ele>694</ele>
        <time>2011-12-28T13:14:52Z</time>
      </trkpt>
      <trkpt lat="43.75966" lon="7.15436">
        <ele>693.3</ele>
        <time>2011-12-28T13:14:54Z</time>
      </trkpt>
      <trkpt lat="43.75962" lon="7.15441">
        <ele>692</ele>
        <time>2011-12-28T13:14:56Z</time>
      </trkpt>
      <trkpt lat="43.75955" lon="7.1545">
        <ele>691.7</ele>
        <time>2011-12-28T13:14:59Z</time>
      </trkpt>
      <trkpt lat="43.75951" lon="7.15455">
        <ele>691.5</ele>
        <time>2011-12-28T13:15:01Z</time>
      </trkpt>
      <trkpt lat="43.75945" lon="7.15461">
        <ele>691.6</ele>
        <time>2011-12-28T13:15:03Z</time>
      </trkpt>
      <trkpt lat="43.7594" lon="7.15469">
        <ele>691.3</ele>
        <time>2011-12-28T13:15:05Z</time>
      </trkpt>
      <trkpt lat="43.75934" lon="7.15475">
        <ele>691.2</ele>
        <time>2011-12-28T13:15:07Z</time>
      </trkpt>
      <trkpt lat="43.75929" lon="7.15483">
        <ele>691</ele>
        <time>2011-12-28T13:15:10Z</time>
      </trkpt>
      <trkpt lat="43.75922" lon="7.1549">
        <ele>689.4</ele>
        <time>2011-12-28T13:15:13Z</time>
      </trkpt>
      <trkpt lat="43.75913" lon="7.15489">
        <ele>687.2</ele>
        <time>2011-12-28T13:16:22Z</time>
      </trkpt>
      <trkpt lat="43.75913" lon="7.15489">
        <ele>687.3</ele>
        <time>2011-12-28T13:16:23Z</time>
      </trkpt>
      <trkpt lat="43.75898" lon="7.15498">
        <ele>685.5</ele>
        <time>2011-12-28T13:16:37Z</time>
      </trkpt>
      <trkpt lat="43.75894" lon="7.15506">
        <ele>685</ele>
        <time>2011-12-28T13:16:40Z</time>
      </trkpt>
      <trkpt lat="43.75891" lon="7.15514">
        <ele>684.2</ele>
        <time>2011-12-28T13:16:43Z</time>
      </trkpt>
      <trkpt lat="43.75887" lon="7.15525">
        <ele>683</ele>
        <time>2011-12-28T13:16:46Z</time>
      </trkpt>
      <trkpt lat="43.75883" lon="7.15533">
        <ele>682.1</ele>
        <time>2011-12-28T13:16:48Z</time>
      </trkpt>
      <trkpt lat="43.75881" lon="7.15539">
        <ele>681.5</ele>
        <time>2011-12-28T13:16:49Z</time>
      </trkpt>
      <trkpt lat="43.75879" lon="7.15545">
        <ele>681</ele>
        <time>2011-12-28T13:16:50Z</time>
      </trkpt>
      <trkpt lat="43.75877" lon="7.15551">
        <ele>680.7</ele>
        <time>2011-12-28T13:16:51Z</time>
      </trkpt>
      <trkpt lat="43.75874" lon="7.15557">
        <ele>680.1</ele>
        <time>2011-12-28T13:16:52Z</time>
      </trkpt>
      <trkpt lat="43.75872" lon="7.15563">
        <ele>679.7</ele>
        <time>2011-12-28T13:16:53Z</time>
      </trkpt>
      <trkpt lat="43.7587" lon="7.1557">
        <ele>678.9</ele>
        <time>2011-12-28T13:16:54Z</time>
      </trkpt>
      <trkpt lat="43.75868" lon="7.15577">
        <ele>678.3</ele>
        <time>2011-12-28T13:16:55Z</time>
      </trkpt>
      <trkpt lat="43.75867" lon="7.15584">
        <ele>678.1</ele>
        <time>2011-12-28T13:16:56Z</time>
      </trkpt>
      <trkpt lat="43.75865" lon="7.1559">
        <ele>677.9</ele>
        <time>2011-12-28T13:16:57Z</time>
      </trkpt>
      <trkpt lat="43.75864" lon="7.15596">
        <ele>677.8</ele>
        <time>2011-12-28T13:16:58Z</time>
      </trkpt>
      <trkpt lat="43.75861" lon="7.15607">
        <ele>676.9</ele>
        <time>2011-12-28T13:17:00Z</time>
      </trkpt>
      <trkpt lat="43.75859" lon="7.15619">
        <ele>675.5</ele>
        <time>2011-12-28T13:17:02Z</time>
      </trkpt>
      <trkpt lat="43.75857" lon="7.15631">
        <ele>674.3</ele>
        <time>2011-12-28T13:17:04Z</time>
      </trkpt>
      <trkpt lat="43.75857" lon="7.15641">
        <ele>673.4</ele>
        <time>2011-12-28T13:17:06Z</time>
      </trkpt>
      <trkpt lat="43.75856" lon="7.15653">
        <ele>673</ele>
        <time>2011-12-28T13:17:09Z</time>
      </trkpt>
      <trkpt lat="43.75854" lon="7.15665">
        <ele>672</ele>
        <time>2011-12-28T13:17:12Z</time>
      </trkpt>
      <trkpt lat="43.75854" lon="7.15677">
        <ele>670</ele>
        <time>2011-12-28T13:17:15Z</time>
      </trkpt>
      <trkpt lat="43.75853" lon="7.15689">
        <ele>666.5</ele>
        <time>2011-12-28T13:18:41Z</time>
      </trkpt>
      <trkpt lat="43.75853" lon="7.15689">
        <ele>666.5</ele>
        <time>2011-12-28T13:18:42Z</time>
      </trkpt>
      <trkpt lat="43.75852" lon="7.15712">
        <ele>665.6</ele>
        <time>2011-12-28T13:19:04Z</time>
      </trkpt>
      <trkpt lat="43.75852" lon="7.15723">
        <ele>664.2</ele>
        <time>2011-12-28T13:19:07Z</time>
      </trkpt>
      <trkpt lat="43.75852" lon="7.15733">
        <ele>662.2</ele>
        <time>2011-12-28T13:19:10Z</time>
      </trkpt>
      <trkpt lat="43.75853" lon="7.15743">
        <ele>661</ele>
        <time>2011-12-28T13:19:13Z</time>
      </trkpt>
      <trkpt lat="43.75851" lon="7.15754">
        <ele>659.1</ele>
        <time>2011-12-28T13:19:16Z</time>
      </trkpt>
      <trkpt lat="43.75852" lon="7.15766">
        <ele>657.4</ele>
        <time>2011-12-28T13:19:19Z</time>
      </trkpt>
      <trkpt lat="43.75856" lon="7.15777">
        <ele>655.9</ele>
        <time>2011-12-28T13:19:22Z</time>
      </trkpt>
      <trkpt lat="43.75858" lon="7.15786">
        <ele>654.9</ele>
        <time>2011-12-28T13:19:24Z</time>
      </trkpt>
      <trkpt lat="43.75861" lon="7.15794">
        <ele>653.5</ele>
        <time>2011-12-28T13:19:26Z</time>
      </trkpt>
      <trkpt lat="43.75863" lon="7.15804">
        <ele>651.7</ele>
        <time>2011-12-28T13:19:29Z</time>
      </trkpt>
      <trkpt lat="43.75868" lon="7.15815">
        <ele>650.5</ele>
        <time>2011-12-28T13:19:32Z</time>
      </trkpt>
      <trkpt lat="43.75873" lon="7.15822">
        <ele>648.8</ele>
        <time>2011-12-28T13:19:35Z</time>
      </trkpt>
      <trkpt lat="43.75877" lon="7.15829">
        <ele>648.1</ele>
        <time>2011-12-28T13:19:37Z</time>
      </trkpt>
      <trkpt lat="43.75882" lon="7.15835">
        <ele>646.5</ele>
        <time>2011-12-28T13:19:39Z</time>
      </trkpt>
      <trkpt lat="43.75888" lon="7.15841">
        <ele>644.9</ele>
        <time>2011-12-28T13:19:41Z</time>
      </trkpt>
      <trkpt lat="43.75896" lon="7.15845">
        <ele>643.4</ele>
        <time>2011-12-28T13:19:44Z</time>
      </trkpt>
      <trkpt lat="43.75898" lon="7.15847">
        <ele>643.5</ele>
        <time>2011-12-28T13:19:45Z</time>
      </trkpt>
      <trkpt lat="43.75908" lon="7.15856">
        <ele>643.3</ele>
        <time>2011-12-28T13:19:53Z</time>
      </trkpt>
      <trkpt lat="43.75914" lon="7.15862">
        <ele>642.5</ele>
        <time>2011-12-28T13:19:55Z</time>
      </trkpt>
      <trkpt lat="43.75921" lon="7.15869">
        <ele>640.8</ele>
        <time>2011-12-28T13:20:53Z</time>
      </trkpt>
      <trkpt lat="43.75923" lon="7.15871">
        <ele>640.4</ele>
        <time>2011-12-28T13:20:54Z</time>
      </trkpt>
      <trkpt lat="43.75906" lon="7.15872">
        <ele>636.3</ele>
        <time>2011-12-28T13:21:06Z</time>
      </trkpt>
      <trkpt lat="43.75908" lon="7.15881">
        <ele>633.4</ele>
        <time>2011-12-28T13:21:12Z</time>
      </trkpt>
      <trkpt lat="43.75915" lon="7.15887">
        <ele>631.7</ele>
        <time>2011-12-28T13:21:15Z</time>
      </trkpt>
      <trkpt lat="43.75922" lon="7.15895">
        <ele>629.4</ele>
        <time>2011-12-28T13:21:24Z</time>
      </trkpt>
      <trkpt lat="43.75931" lon="7.159">
        <ele>628.9</ele>
        <time>2011-12-28T13:21:45Z</time>
      </trkpt>
      <trkpt lat="43.75936" lon="7.15908">
        <ele>627.3</ele>
        <time>2011-12-28T13:23:58Z</time>
      </trkpt>
      <trkpt lat="43.75937" lon="7.15909">
        <ele>627.2</ele>
        <time>2011-12-28T13:23:59Z</time>
      </trkpt>
      <trkpt lat="43.7595" lon="7.15923">
        <ele>623.8</ele>
        <time>2011-12-28T13:25:16Z</time>
      </trkpt>
      <trkpt lat="43.7595" lon="7.15923">
        <ele>624.1</ele>
        <time>2011-12-28T13:25:17Z</time>
      </trkpt>
      <trkpt lat="43.75964" lon="7.15937">
        <ele>620.6</ele>
        <time>2011-12-28T13:25:51Z</time>
      </trkpt>
      <trkpt lat="43.75972" lon="7.15943">
        <ele>619.4</ele>
        <time>2011-12-28T13:26:07Z</time>
      </trkpt>
      <trkpt lat="43.75964" lon="7.15949">
        <ele>617.3</ele>
        <time>2011-12-28T13:26:27Z</time>
      </trkpt>
      <trkpt lat="43.75963" lon="7.15949">
        <ele>616.8</ele>
        <time>2011-12-28T13:26:28Z</time>
      </trkpt>
      <trkpt lat="43.75947" lon="7.15948">
        <ele>614.3</ele>
        <time>2011-12-28T13:26:44Z</time>
      </trkpt>
      <trkpt lat="43.7594" lon="7.15948">
        <ele>613.3</ele>
        <time>2011-12-28T13:26:47Z</time>
      </trkpt>
      <trkpt lat="43.75932" lon="7.15948">
        <ele>610.9</ele>
        <time>2011-12-28T13:26:53Z</time>
      </trkpt>
      <trkpt lat="43.75931" lon="7.15961">
        <ele>606</ele>
        <time>2011-12-28T13:27:20Z</time>
      </trkpt>
      <trkpt lat="43.75938" lon="7.15967">
        <ele>603.3</ele>
        <time>2011-12-28T13:27:29Z</time>
      </trkpt>
      <trkpt lat="43.7594" lon="7.15968">
        <ele>602.9</ele>
        <time>2011-12-28T13:27:30Z</time>
      </trkpt>
      <trkpt lat="43.75951" lon="7.15982">
        <ele>599.5</ele>
        <time>2011-12-28T13:27:42Z</time>
      </trkpt>
      <trkpt lat="43.75956" lon="7.15989">
        <ele>597.5</ele>
        <time>2011-12-28T13:27:51Z</time>
      </trkpt>
      <trkpt lat="43.75963" lon="7.15996">
        <ele>596.6</ele>
        <time>2011-12-28T13:27:55Z</time>
      </trkpt>
      <trkpt lat="43.7597" lon="7.16002">
        <ele>594.2</ele>
        <time>2011-12-28T13:28:00Z</time>
      </trkpt>
      <trkpt lat="43.75976" lon="7.16011">
        <ele>591</ele>
        <time>2011-12-28T13:28:09Z</time>
      </trkpt>
      <trkpt lat="43.75983" lon="7.16018">
        <ele>589.8</ele>
        <time>2011-12-28T13:28:19Z</time>
      </trkpt>
      <trkpt lat="43.7599" lon="7.16024">
        <ele>587.7</ele>
        <time>2011-12-28T13:28:25Z</time>
      </trkpt>
      <trkpt lat="43.75996" lon="7.16033">
        <ele>586.9</ele>
        <time>2011-12-28T13:28:28Z</time>
      </trkpt>
      <trkpt lat="43.76002" lon="7.1604">
        <ele>585.1</ele>
        <time>2011-12-28T13:28:31Z</time>
      </trkpt>
      <trkpt lat="43.76003" lon="7.16042">
        <ele>584.6</ele>
        <time>2011-12-28T13:28:32Z</time>
      </trkpt>
      <trkpt lat="43.75987" lon="7.16046">
        <ele>580.3</ele>
        <time>2011-12-28T13:28:41Z</time>
      </trkpt>
      <trkpt lat="43.75979" lon="7.16044">
        <ele>578.8</ele>
        <time>2011-12-28T13:28:44Z</time>
      </trkpt>
      <trkpt lat="43.75973" lon="7.16044">
        <ele>578.1</ele>
        <time>2011-12-28T13:28:46Z</time>
      </trkpt>
      <trkpt lat="43.75966" lon="7.16043">
        <ele>577.3</ele>
        <time>2011-12-28T13:28:48Z</time>
      </trkpt>
      <trkpt lat="43.75961" lon="7.16044">
        <ele>576.7</ele>
        <time>2011-12-28T13:28:50Z</time>
      </trkpt>
      <trkpt lat="43.75954" lon="7.16044">
        <ele>575.6</ele>
        <time>2011-12-28T13:28:52Z</time>
      </trkpt>
      <trkpt lat="43.75948" lon="7.16043">
        <ele>575.3</ele>
        <time>2011-12-28T13:28:54Z</time>
      </trkpt>
      <trkpt lat="43.7594" lon="7.1604">
        <ele>573.1</ele>
        <time>2011-12-28T13:28:58Z</time>
      </trkpt>
      <trkpt lat="43.75945" lon="7.16049">
        <ele>570.4</ele>
        <time>2011-12-28T13:29:10Z</time>
      </trkpt>
      <trkpt lat="43.75951" lon="7.16055">
        <ele>569.8</ele>
        <time>2011-12-28T13:29:13Z</time>
      </trkpt>
      <trkpt lat="43.75958" lon="7.16063">
        <ele>568.4</ele>
        <time>2011-12-28T13:29:16Z</time>
      </trkpt>
      <trkpt lat="43.75965" lon="7.1607">
        <ele>566.2</ele>
        <time>2011-12-28T13:29:22Z</time>
      </trkpt>
      <trkpt lat="43.7597" lon="7.16076">
        <ele>564.6</ele>
        <time>2011-12-28T13:29:26Z</time>
      </trkpt>
      <trkpt lat="43.75965" lon="7.16083">
        <ele>560.5</ele>
        <time>2011-12-28T13:29:38Z</time>
      </trkpt>
      <trkpt lat="43.75963" lon="7.16084">
        <ele>560.5</ele>
        <time>2011-12-28T13:29:39Z</time>
      </trkpt>
      <trkpt lat="43.75949" lon="7.16086">
        <ele>558.2</ele>
        <time>2011-12-28T13:29:44Z</time>
      </trkpt>
      <trkpt lat="43.75942" lon="7.16087">
        <ele>557.5</ele>
        <time>2011-12-28T13:29:47Z</time>
      </trkpt>
      <trkpt lat="43.75934" lon="7.16089">
        <ele>552.9</ele>
        <time>2011-12-28T13:30:03Z</time>
      </trkpt>
      <trkpt lat="43.75935" lon="7.161">
        <ele>550.3</ele>
        <time>2011-12-28T13:30:12Z</time>
      </trkpt>
      <trkpt lat="43.75941" lon="7.16107">
        <ele>549.2</ele>
        <time>2011-12-28T13:30:16Z</time>
      </trkpt>
      <trkpt lat="43.75946" lon="7.16117">
        <ele>546.5</ele>
        <time>2011-12-28T13:30:28Z</time>
      </trkpt>
      <trkpt lat="43.75953" lon="7.16125">
        <ele>545.4</ele>
        <time>2011-12-28T13:30:33Z</time>
      </trkpt>
      <trkpt lat="43.75948" lon="7.16135">
        <ele>541.6</ele>
        <time>2011-12-28T13:30:43Z</time>
      </trkpt>
      <trkpt lat="43.75946" lon="7.16135">
        <ele>541.4</ele>
        <time>2011-12-28T13:30:44Z</time>
      </trkpt>
      <trkpt lat="43.75935" lon="7.16134">
        <ele>539.5</ele>
        <time>2011-12-28T13:30:47Z</time>
      </trkpt>
      <trkpt lat="43.75927" lon="7.16134">
        <ele>537</ele>
        <time>2011-12-28T13:30:51Z</time>
      </trkpt>
      <trkpt lat="43.7593" lon="7.16142">
        <ele>534.8</ele>
        <time>2011-12-28T13:30:57Z</time>
      </trkpt>
      <trkpt lat="43.75937" lon="7.16151">
        <ele>533.6</ele>
        <time>2011-12-28T13:31:00Z</time>
      </trkpt>
      <trkpt lat="43.75941" lon="7.16158">
        <ele>531.8</ele>
        <time>2011-12-28T13:31:02Z</time>
      </trkpt>
      <trkpt lat="43.75948" lon="7.16163">
        <ele>531.4</ele>
        <time>2011-12-28T13:31:05Z</time>
      </trkpt>
      <trkpt lat="43.75953" lon="7.16172">
        <ele>530</ele>
        <time>2011-12-28T13:31:09Z</time>
      </trkpt>
      <trkpt lat="43.75959" lon="7.16181">
        <ele>527.4</ele>
        <time>2011-12-28T13:31:14Z</time>
      </trkpt>
      <trkpt lat="43.75959" lon="7.16192">
        <ele>524.6</ele>
        <time>2011-12-28T13:31:25Z</time>
      </trkpt>
      <trkpt lat="43.75964" lon="7.16201">
        <ele>523.5</ele>
        <time>2011-12-28T13:31:28Z</time>
      </trkpt>
      <trkpt lat="43.75968" lon="7.16208">
        <ele>522.5</ele>
        <time>2011-12-28T13:31:30Z</time>
      </trkpt>
      <trkpt lat="43.75974" lon="7.16214">
        <ele>521.7</ele>
        <time>2011-12-28T13:31:32Z</time>
      </trkpt>
      <trkpt lat="43.75979" lon="7.16221">
        <ele>521.4</ele>
        <time>2011-12-28T13:31:34Z</time>
      </trkpt>
      <trkpt lat="43.75984" lon="7.16227">
        <ele>521.2</ele>
        <time>2011-12-28T13:31:36Z</time>
      </trkpt>
      <trkpt lat="43.7599" lon="7.16233">
        <ele>520.9</ele>
        <time>2011-12-28T13:31:38Z</time>
      </trkpt>
      <trkpt lat="43.75995" lon="7.16239">
        <ele>520.3</ele>
        <time>2011-12-28T13:31:40Z</time>
      </trkpt>
      <trkpt lat="43.76002" lon="7.16244">
        <ele>518.9</ele>
        <time>2011-12-28T13:31:43Z</time>
      </trkpt>
      <trkpt lat="43.76007" lon="7.16251">
        <ele>518.5</ele>
        <time>2011-12-28T13:31:45Z</time>
      </trkpt>
      <trkpt lat="43.76009" lon="7.16254">
        <ele>518</ele>
        <time>2011-12-28T13:31:46Z</time>
      </trkpt>
      <trkpt lat="43.76019" lon="7.16265">
        <ele>517.1</ele>
        <time>2011-12-28T13:31:50Z</time>
      </trkpt>
      <trkpt lat="43.76023" lon="7.16274">
        <ele>516.4</ele>
        <time>2011-12-28T13:32:03Z</time>
      </trkpt>
      <trkpt lat="43.76016" lon="7.16277">
        <ele>513.2</ele>
        <time>2011-12-28T13:32:14Z</time>
      </trkpt>
      <trkpt lat="43.7601" lon="7.16274">
        <ele>512.5</ele>
        <time>2011-12-28T13:32:16Z</time>
      </trkpt>
      <trkpt lat="43.76004" lon="7.16272">
        <ele>511.6</ele>
        <time>2011-12-28T13:32:18Z</time>
      </trkpt>
      <trkpt lat="43.75997" lon="7.1627">
        <ele>510.9</ele>
        <time>2011-12-28T13:32:20Z</time>
      </trkpt>
      <trkpt lat="43.75989" lon="7.16267">
        <ele>509.5</ele>
        <time>2011-12-28T13:32:23Z</time>
      </trkpt>
      <trkpt lat="43.75982" lon="7.16265">
        <ele>508.7</ele>
        <time>2011-12-28T13:32:25Z</time>
      </trkpt>
      <trkpt lat="43.75975" lon="7.16264">
        <ele>508.1</ele>
        <time>2011-12-28T13:32:27Z</time>
      </trkpt>
      <trkpt lat="43.75974" lon="7.16276">
        <ele>504.5</ele>
        <time>2011-12-28T13:32:37Z</time>
      </trkpt>
      <trkpt lat="43.7597" lon="7.16287">
        <ele>500.3</ele>
        <time>2011-12-28T13:32:53Z</time>
      </trkpt>
      <trkpt lat="43.75972" lon="7.16288">
        <ele>500</ele>
        <time>2011-12-28T13:32:54Z</time>
      </trkpt>
      <trkpt lat="43.75957" lon="7.163">
        <ele>495</ele>
        <time>2011-12-28T13:33:06Z</time>
      </trkpt>
      <trkpt lat="43.75948" lon="7.163">
        <ele>492.9</ele>
        <time>2011-12-28T13:33:10Z</time>
      </trkpt>
      <trkpt lat="43.75947" lon="7.16313">
        <ele>488.5</ele>
        <time>2011-12-28T13:33:18Z</time>
      </trkpt>
      <trkpt lat="43.75949" lon="7.16324">
        <ele>486.6</ele>
        <time>2011-12-28T13:33:22Z</time>
      </trkpt>
      <trkpt lat="43.75941" lon="7.16323">
        <ele>482.8</ele>
        <time>2011-12-28T13:34:30Z</time>
      </trkpt>
      <trkpt lat="43.75939" lon="7.16324">
        <ele>482.9</ele>
        <time>2011-12-28T13:34:31Z</time>
      </trkpt>
      <trkpt lat="43.75935" lon="7.16337">
        <ele>480.4</ele>
        <time>2011-12-28T13:34:53Z</time>
      </trkpt>
      <trkpt lat="43.75931" lon="7.16346">
        <ele>477.5</ele>
        <time>2011-12-28T13:34:59Z</time>
      </trkpt>
      <trkpt lat="43.75928" lon="7.16357">
        <ele>474.7</ele>
        <time>2011-12-28T13:35:06Z</time>
      </trkpt>
      <trkpt lat="43.75921" lon="7.1636">
        <ele>472.7</ele>
        <time>2011-12-28T13:35:10Z</time>
      </trkpt>
      <trkpt lat="43.75914" lon="7.16362">
        <ele>471</ele>
        <time>2011-12-28T13:35:13Z</time>
      </trkpt>
      <trkpt lat="43.75912" lon="7.16372">
        <ele>468.4</ele>
        <time>2011-12-28T13:35:18Z</time>
      </trkpt>
      <trkpt lat="43.75914" lon="7.16381">
        <ele>466.1</ele>
        <time>2011-12-28T13:35:21Z</time>
      </trkpt>
      <trkpt lat="43.75916" lon="7.1639">
        <ele>464.3</ele>
        <time>2011-12-28T13:35:24Z</time>
      </trkpt>
      <trkpt lat="43.7591" lon="7.16396">
        <ele>460.8</ele>
        <time>2011-12-28T13:35:29Z</time>
      </trkpt>
      <trkpt lat="43.75905" lon="7.16405">
        <ele>458.4</ele>
        <time>2011-12-28T13:35:33Z</time>
      </trkpt>
      <trkpt lat="43.75904" lon="7.16407">
        <ele>457.8</ele>
        <time>2011-12-28T13:35:34Z</time>
      </trkpt>
      <trkpt lat="43.75899" lon="7.16425">
        <ele>453.3</ele>
        <time>2011-12-28T13:35:40Z</time>
      </trkpt>
      <trkpt lat="43.75896" lon="7.16437">
        <ele>450</ele>
        <time>2011-12-28T13:35:44Z</time>
      </trkpt>
      <trkpt lat="43.75891" lon="7.16446">
        <ele>442.8</ele>
        <time>2011-12-28T13:36:57Z</time>
      </trkpt>
      <trkpt lat="43.75889" lon="7.16446">
        <ele>442.8</ele>
        <time>2011-12-28T13:36:58Z</time>
      </trkpt>
      <trkpt lat="43.75881" lon="7.16454">
        <ele>441.1</ele>
        <time>2011-12-28T13:37:15Z</time>
      </trkpt>
      <trkpt lat="43.75883" lon="7.16465">
        <ele>439.1</ele>
        <time>2011-12-28T13:37:18Z</time>
      </trkpt>
      <trkpt lat="43.75884" lon="7.16473">
        <ele>438.7</ele>
        <time>2011-12-28T13:37:20Z</time>
      </trkpt>
      <trkpt lat="43.75883" lon="7.16483">
        <ele>437.5</ele>
        <time>2011-12-28T13:37:22Z</time>
      </trkpt>
      <trkpt lat="43.75882" lon="7.1649">
        <ele>436</ele>
        <time>2011-12-28T13:37:23Z</time>
      </trkpt>
      <trkpt lat="43.75881" lon="7.16496">
        <ele>434.9</ele>
        <time>2011-12-28T13:37:24Z</time>
      </trkpt>
      <trkpt lat="43.75879" lon="7.16504">
        <ele>434.1</ele>
        <time>2011-12-28T13:37:25Z</time>
      </trkpt>
      <trkpt lat="43.75877" lon="7.16512">
        <ele>433</ele>
        <time>2011-12-28T13:37:26Z</time>
      </trkpt>
      <trkpt lat="43.75875" lon="7.16521">
        <ele>432.1</ele>
        <time>2011-12-28T13:37:27Z</time>
      </trkpt>
      <trkpt lat="43.75874" lon="7.16529">
        <ele>430.4</ele>
        <time>2011-12-28T13:37:28Z</time>
      </trkpt>
      <trkpt lat="43.75872" lon="7.16538">
        <ele>429.1</ele>
        <time>2011-12-28T13:37:29Z</time>
      </trkpt>
      <trkpt lat="43.75871" lon="7.16546">
        <ele>427.3</ele>
        <time>2011-12-28T13:37:30Z</time>
      </trkpt>
      <trkpt lat="43.7587" lon="7.16553">
        <ele>425.9</ele>
        <time>2011-12-28T13:37:31Z</time>
      </trkpt>
      <trkpt lat="43.7587" lon="7.16559">
        <ele>424.9</ele>
        <time>2011-12-28T13:37:32Z</time>
      </trkpt>
      <trkpt lat="43.7587" lon="7.16566">
        <ele>423.3</ele>
        <time>2011-12-28T13:37:33Z</time>
      </trkpt>
      <trkpt lat="43.75869" lon="7.16573">
        <ele>422.1</ele>
        <time>2011-12-28T13:37:34Z</time>
      </trkpt>
      <trkpt lat="43.75867" lon="7.1658">
        <ele>420.7</ele>
        <time>2011-12-28T13:37:35Z</time>
      </trkpt>
      <trkpt lat="43.75865" lon="7.16587">
        <ele>419.6</ele>
        <time>2011-12-28T13:37:36Z</time>
      </trkpt>
      <trkpt lat="43.75863" lon="7.16594">
        <ele>418.8</ele>
        <time>2011-12-28T13:37:37Z</time>
      </trkpt>
      <trkpt lat="43.7586" lon="7.166">
        <ele>417.5</ele>
        <time>2011-12-28T13:37:38Z</time>
      </trkpt>
      <trkpt lat="43.75857" lon="7.16609">
        <ele>415</ele>
        <time>2011-12-28T13:37:40Z</time>
      </trkpt>
      <trkpt lat="43.7585" lon="7.16616">
        <ele>411.5</ele>
        <time>2011-12-28T13:37:43Z</time>
      </trkpt>
      <trkpt lat="43.75842" lon="7.16616">
        <ele>409.9</ele>
        <time>2011-12-28T13:37:45Z</time>
      </trkpt>
      <trkpt lat="43.75838" lon="7.16615">
        <ele>409.3</ele>
        <time>2011-12-28T13:37:46Z</time>
      </trkpt>
      <trkpt lat="43.75833" lon="7.16614">
        <ele>408.2</ele>
        <time>2011-12-28T13:37:47Z</time>
      </trkpt>
      <trkpt lat="43.75828" lon="7.16612">
        <ele>407.4</ele>
        <time>2011-12-28T13:37:48Z</time>
      </trkpt>
      <trkpt lat="43.75823" lon="7.16609">
        <ele>406.6</ele>
        <time>2011-12-28T13:37:49Z</time>
      </trkpt>
      <trkpt lat="43.75818" lon="7.16606">
        <ele>406.1</ele>
        <time>2011-12-28T13:37:50Z</time>
      </trkpt>
      <trkpt lat="43.75812" lon="7.166">
        <ele>404.9</ele>
        <time>2011-12-28T13:37:52Z</time>
      </trkpt>
      <trkpt lat="43.75805" lon="7.16597">
        <ele>404.1</ele>
        <time>2011-12-28T13:37:57Z</time>
      </trkpt>
      <trkpt lat="43.75797" lon="7.1659">
        <ele>403.2</ele>
        <time>2011-12-28T13:38:03Z</time>
      </trkpt>
      <trkpt lat="43.75797" lon="7.16589">
        <ele>403.2</ele>
        <time>2011-12-28T13:38:04Z</time>
      </trkpt>
      <trkpt lat="43.75808" lon="7.16605">
        <ele>403.5</ele>
        <time>2011-12-28T13:38:44Z</time>
      </trkpt>
      <trkpt lat="43.75815" lon="7.1661">
        <ele>403.9</ele>
        <time>2011-12-28T13:38:48Z</time>
      </trkpt>
      <trkpt lat="43.75823" lon="7.16615">
        <ele>405.4</ele>
        <time>2011-12-28T13:38:52Z</time>
      </trkpt>
      <trkpt lat="43.75831" lon="7.16618">
        <ele>405.5</ele>
        <time>2011-12-28T13:38:55Z</time>
      </trkpt>
      <trkpt lat="43.75839" lon="7.1662">
        <ele>406.4</ele>
        <time>2011-12-28T13:38:58Z</time>
      </trkpt>
      <trkpt lat="43.75847" lon="7.1662">
        <ele>406</ele>
        <time>2011-12-28T13:39:02Z</time>
      </trkpt>
      <trkpt lat="43.75855" lon="7.16619">
        <ele>407</ele>
        <time>2011-12-28T13:39:06Z</time>
      </trkpt>
      <trkpt lat="43.75857" lon="7.16619">
        <ele>407.3</ele>
        <time>2011-12-28T13:39:07Z</time>
      </trkpt>
      <trkpt lat="43.75869" lon="7.1662">
        <ele>408.2</ele>
        <time>2011-12-28T13:39:11Z</time>
      </trkpt>
      <trkpt lat="43.75875" lon="7.1662">
        <ele>408.4</ele>
        <time>2011-12-28T13:39:13Z</time>
      </trkpt>
      <trkpt lat="43.75881" lon="7.1662">
        <ele>408.4</ele>
        <time>2011-12-28T13:39:15Z</time>
      </trkpt>
      <trkpt lat="43.75887" lon="7.16619">
        <ele>408.1</ele>
        <time>2011-12-28T13:39:17Z</time>
      </trkpt>
      <trkpt lat="43.75893" lon="7.16619">
        <ele>407.8</ele>
        <time>2011-12-28T13:39:19Z</time>
      </trkpt>
      <trkpt lat="43.75899" lon="7.1662">
        <ele>407.6</ele>
        <time>2011-12-28T13:39:21Z</time>
      </trkpt>
      <trkpt lat="43.75905" lon="7.16621">
        <ele>407.5</ele>
        <time>2011-12-28T13:39:23Z</time>
      </trkpt>
      <trkpt lat="43.75913" lon="7.16624">
        <ele>406.8</ele>
        <time>2011-12-28T13:39:26Z</time>
      </trkpt>
      <trkpt lat="43.75921" lon="7.16629">
        <ele>408</ele>
        <time>2011-12-28T13:39:29Z</time>
      </trkpt>
      <trkpt lat="43.75927" lon="7.16633">
        <ele>408.2</ele>
        <time>2011-12-28T13:39:31Z</time>
      </trkpt>
      <trkpt lat="43.75933" lon="7.16638">
        <ele>408.7</ele>
        <time>2011-12-28T13:39:33Z</time>
      </trkpt>
      <trkpt lat="43.75938" lon="7.16644">
        <ele>409</ele>
        <time>2011-12-28T13:39:35Z</time>
      </trkpt>
      <trkpt lat="43.75944" lon="7.1665">
        <ele>408.4</ele>
        <time>2011-12-28T13:39:37Z</time>
      </trkpt>
      <trkpt lat="43.75949" lon="7.16656">
        <ele>408.4</ele>
        <time>2011-12-28T13:39:39Z</time>
      </trkpt>
      <trkpt lat="43.75954" lon="7.16663">
        <ele>408.5</ele>
        <time>2011-12-28T13:39:41Z</time>
      </trkpt>
      <trkpt lat="43.75959" lon="7.16671">
        <ele>408.7</ele>
        <time>2011-12-28T13:39:43Z</time>
      </trkpt>
      <trkpt lat="43.75964" lon="7.16678">
        <ele>409.1</ele>
        <time>2011-12-28T13:39:45Z</time>
      </trkpt>
      <trkpt lat="43.75968" lon="7.16686">
        <ele>408.5</ele>
        <time>2011-12-28T13:39:47Z</time>
      </trkpt>
      <trkpt lat="43.75971" lon="7.16694">
        <ele>408.7</ele>
        <time>2011-12-28T13:39:49Z</time>
      </trkpt>
      <trkpt lat="43.75975" lon="7.16703">
        <ele>409</ele>
        <time>2011-12-28T13:39:51Z</time>
      </trkpt>
      <trkpt lat="43.75978" lon="7.16711">
        <ele>408.9</ele>
        <time>2011-12-28T13:39:53Z</time>
      </trkpt>
      <trkpt lat="43.75982" lon="7.1672">
        <ele>408.9</ele>
        <time>2011-12-28T13:39:56Z</time>
      </trkpt>
      <trkpt lat="43.75987" lon="7.16729">
        <ele>409.4</ele>
        <time>2011-12-28T13:40:05Z</time>
      </trkpt>
      <trkpt lat="43.75982" lon="7.16738">
        <ele>408.6</ele>
        <time>2011-12-28T13:40:18Z</time>
      </trkpt>
      <trkpt lat="43.75981" lon="7.16741">
        <ele>407.7</ele>
        <time>2011-12-28T13:40:19Z</time>
      </trkpt>
      <trkpt lat="43.75968" lon="7.16727">
        <ele>402.6</ele>
        <time>2011-12-28T13:40:27Z</time>
      </trkpt>
      <trkpt lat="43.7596" lon="7.16722">
        <ele>399.3</ele>
        <time>2011-12-28T13:40:33Z</time>
      </trkpt>
      <trkpt lat="43.75954" lon="7.16729">
        <ele>396.9</ele>
        <time>2011-12-28T13:40:37Z</time>
      </trkpt>
      <trkpt lat="43.7595" lon="7.16735">
        <ele>395.3</ele>
        <time>2011-12-28T13:40:39Z</time>
      </trkpt>
      <trkpt lat="43.75946" lon="7.16742">
        <ele>393.2</ele>
        <time>2011-12-28T13:40:41Z</time>
      </trkpt>
      <trkpt lat="43.75941" lon="7.1675">
        <ele>391.6</ele>
        <time>2011-12-28T13:40:43Z</time>
      </trkpt>
      <trkpt lat="43.75938" lon="7.16761">
        <ele>389.7</ele>
        <time>2011-12-28T13:40:46Z</time>
      </trkpt>
      <trkpt lat="43.75942" lon="7.16772">
        <ele>388.7</ele>
        <time>2011-12-28T13:40:49Z</time>
      </trkpt>
      <trkpt lat="43.75947" lon="7.16778">
        <ele>388.1</ele>
        <time>2011-12-28T13:40:51Z</time>
      </trkpt>
      <trkpt lat="43.75951" lon="7.16786">
        <ele>388.1</ele>
        <time>2011-12-28T13:40:54Z</time>
      </trkpt>
      <trkpt lat="43.75954" lon="7.16795">
        <ele>388.4</ele>
        <time>2011-12-28T13:40:57Z</time>
      </trkpt>
      <trkpt lat="43.75957" lon="7.16806">
        <ele>388</ele>
        <time>2011-12-28T13:41:00Z</time>
      </trkpt>
      <trkpt lat="43.75959" lon="7.16818">
        <ele>387.3</ele>
        <time>2011-12-28T13:41:04Z</time>
      </trkpt>
      <trkpt lat="43.75962" lon="7.16829">
        <ele>387.6</ele>
        <time>2011-12-28T13:41:08Z</time>
      </trkpt>
      <trkpt lat="43.75968" lon="7.16837">
        <ele>384.4</ele>
        <time>2011-12-28T13:41:17Z</time>
      </trkpt>
      <trkpt lat="43.75969" lon="7.16849">
        <ele>382.2</ele>
        <time>2011-12-28T13:41:25Z</time>
      </trkpt>
      <trkpt lat="43.75969" lon="7.16853">
        <ele>382</ele>
        <time>2011-12-28T13:41:26Z</time>
      </trkpt>
      <trkpt lat="43.75969" lon="7.16872">
        <ele>378.8</ele>
        <time>2011-12-28T13:41:34Z</time>
      </trkpt>
      <trkpt lat="43.75967" lon="7.16883">
        <ele>376.8</ele>
        <time>2011-12-28T13:41:38Z</time>
      </trkpt>
      <trkpt lat="43.75966" lon="7.16892">
        <ele>374.9</ele>
        <time>2011-12-28T13:41:41Z</time>
      </trkpt>
      <trkpt lat="43.75966" lon="7.16901">
        <ele>373.8</ele>
        <time>2011-12-28T13:41:43Z</time>
      </trkpt>
      <trkpt lat="43.75969" lon="7.16911">
        <ele>372.2</ele>
        <time>2011-12-28T13:41:45Z</time>
      </trkpt>
      <trkpt lat="43.75972" lon="7.16919">
        <ele>370.9</ele>
        <time>2011-12-28T13:41:47Z</time>
      </trkpt>
      <trkpt lat="43.75975" lon="7.16928">
        <ele>370.1</ele>
        <time>2011-12-28T13:41:49Z</time>
      </trkpt>
      <trkpt lat="43.75979" lon="7.16938">
        <ele>369.2</ele>
        <time>2011-12-28T13:41:51Z</time>
      </trkpt>
      <trkpt lat="43.75982" lon="7.16948">
        <ele>368.1</ele>
        <time>2011-12-28T13:41:53Z</time>
      </trkpt>
      <trkpt lat="43.75985" lon="7.16958">
        <ele>367</ele>
        <time>2011-12-28T13:41:55Z</time>
      </trkpt>
      <trkpt lat="43.75987" lon="7.1697">
        <ele>365.9</ele>
        <time>2011-12-28T13:41:58Z</time>
      </trkpt>
      <trkpt lat="43.75987" lon="7.16978">
        <ele>365.6</ele>
        <time>2011-12-28T13:42:00Z</time>
      </trkpt>
      <trkpt lat="43.75987" lon="7.16988">
        <ele>364.3</ele>
        <time>2011-12-28T13:42:02Z</time>
      </trkpt>
      <trkpt lat="43.75988" lon="7.16999">
        <ele>364.2</ele>
        <time>2011-12-28T13:42:04Z</time>
      </trkpt>
      <trkpt lat="43.75989" lon="7.1701">
        <ele>362.1</ele>
        <time>2011-12-28T13:42:07Z</time>
      </trkpt>
      <trkpt lat="43.7599" lon="7.17023">
        <ele>361</ele>
        <time>2011-12-28T13:42:30Z</time>
      </trkpt>
      <trkpt lat="43.7599" lon="7.17023">
        <ele>361</ele>
        <time>2011-12-28T13:42:31Z</time>
      </trkpt>
      <trkpt lat="43.75992" lon="7.17036">
        <ele>361.5</ele>
        <time>2011-12-28T13:43:40Z</time>
      </trkpt>
      <trkpt lat="43.75994" lon="7.17053">
        <ele>359.7</ele>
        <time>2011-12-28T13:43:44Z</time>
      </trkpt>
      <trkpt lat="43.75994" lon="7.17065">
        <ele>359.1</ele>
        <time>2011-12-28T13:43:47Z</time>
      </trkpt>
      <trkpt lat="43.75993" lon="7.17074">
        <ele>358.8</ele>
        <time>2011-12-28T13:43:49Z</time>
      </trkpt>
      <trkpt lat="43.75992" lon="7.17085">
        <ele>358.2</ele>
        <time>2011-12-28T13:43:51Z</time>
      </trkpt>
      <trkpt lat="43.75991" lon="7.17096">
        <ele>357.2</ele>
        <time>2011-12-28T13:43:53Z</time>
      </trkpt>
      <trkpt lat="43.75989" lon="7.17108">
        <ele>355.9</ele>
        <time>2011-12-28T13:43:56Z</time>
      </trkpt>
      <trkpt lat="43.75988" lon="7.17116">
        <ele>353.2</ele>
        <time>2011-12-28T13:44:00Z</time>
      </trkpt>
      <trkpt lat="43.75986" lon="7.17124">
        <ele>352.3</ele>
        <time>2011-12-28T13:44:02Z</time>
      </trkpt>
      <trkpt lat="43.75984" lon="7.17133">
        <ele>351.6</ele>
        <time>2011-12-28T13:44:04Z</time>
      </trkpt>
      <trkpt lat="43.75982" lon="7.17142">
        <ele>351</ele>
        <time>2011-12-28T13:44:06Z</time>
      </trkpt>
      <trkpt lat="43.75979" lon="7.1715">
        <ele>349.5</ele>
        <time>2011-12-28T13:44:08Z</time>
      </trkpt>
      <trkpt lat="43.75976" lon="7.17159">
        <ele>348.2</ele>
        <time>2011-12-28T13:44:10Z</time>
      </trkpt>
      <trkpt lat="43.75973" lon="7.17166">
        <ele>347.3</ele>
        <time>2011-12-28T13:44:12Z</time>
      </trkpt>
      <trkpt lat="43.75969" lon="7.17177">
        <ele>346</ele>
        <time>2011-12-28T13:44:14Z</time>
      </trkpt>
      <trkpt lat="43.75966" lon="7.17182">
        <ele>345.3</ele>
        <time>2011-12-28T13:44:15Z</time>
      </trkpt>
      <trkpt lat="43.75964" lon="7.17188">
        <ele>343.8</ele>
        <time>2011-12-28T13:44:16Z</time>
      </trkpt>
      <trkpt lat="43.75961" lon="7.17194">
        <ele>342.6</ele>
        <time>2011-12-28T13:44:17Z</time>
      </trkpt>
      <trkpt lat="43.75959" lon="7.172">
        <ele>341.8</ele>
        <time>2011-12-28T13:44:18Z</time>
      </trkpt>
      <trkpt lat="43.75955" lon="7.17208">
        <ele>341</ele>
        <time>2011-12-28T13:44:20Z</time>
      </trkpt>
      <trkpt lat="43.75953" lon="7.17216">
        <ele>339.9</ele>
        <time>2011-12-28T13:44:22Z</time>
      </trkpt>
      <trkpt lat="43.75951" lon="7.17225">
        <ele>339</ele>
        <time>2011-12-28T13:44:24Z</time>
      </trkpt>
      <trkpt lat="43.75949" lon="7.17233">
        <ele>338.3</ele>
        <time>2011-12-28T13:44:26Z</time>
      </trkpt>
      <trkpt lat="43.7595" lon="7.17244">
        <ele>337.5</ele>
        <time>2011-12-28T13:44:29Z</time>
      </trkpt>
      <trkpt lat="43.75951" lon="7.17252">
        <ele>338</ele>
        <time>2011-12-28T13:44:31Z</time>
      </trkpt>
      <trkpt lat="43.75951" lon="7.17263">
        <ele>337.4</ele>
        <time>2011-12-28T13:44:33Z</time>
      </trkpt>
      <trkpt lat="43.7595" lon="7.17273">
        <ele>336.3</ele>
        <time>2011-12-28T13:44:35Z</time>
      </trkpt>
      <trkpt lat="43.75948" lon="7.17281">
        <ele>335.6</ele>
        <time>2011-12-28T13:44:37Z</time>
      </trkpt>
      <trkpt lat="43.75946" lon="7.17292">
        <ele>334.4</ele>
        <time>2011-12-28T13:44:39Z</time>
      </trkpt>
      <trkpt lat="43.75944" lon="7.17303">
        <ele>332.7</ele>
        <time>2011-12-28T13:44:41Z</time>
      </trkpt>
      <trkpt lat="43.75943" lon="7.17309">
        <ele>331.7</ele>
        <time>2011-12-28T13:44:42Z</time>
      </trkpt>
      <trkpt lat="43.75942" lon="7.17315">
        <ele>330.9</ele>
        <time>2011-12-28T13:44:43Z</time>
      </trkpt>
      <trkpt lat="43.75941" lon="7.17322">
        <ele>330.3</ele>
        <time>2011-12-28T13:44:44Z</time>
      </trkpt>
      <trkpt lat="43.75939" lon="7.17328">
        <ele>328.7</ele>
        <time>2011-12-28T13:44:45Z</time>
      </trkpt>
      <trkpt lat="43.75938" lon="7.17335">
        <ele>327.5</ele>
        <time>2011-12-28T13:44:46Z</time>
      </trkpt>
      <trkpt lat="43.75935" lon="7.17346">
        <ele>325.8</ele>
        <time>2011-12-28T13:44:48Z</time>
      </trkpt>
      <trkpt lat="43.75931" lon="7.17354">
        <ele>322.2</ele>
        <time>2011-12-28T13:44:50Z</time>
      </trkpt>
      <trkpt lat="43.75923" lon="7.17357">
        <ele>320.2</ele>
        <time>2011-12-28T13:44:52Z</time>
      </trkpt>
      <trkpt lat="43.75917" lon="7.17361">
        <ele>318.6</ele>
        <time>2011-12-28T13:44:54Z</time>
      </trkpt>
      <trkpt lat="43.75913" lon="7.1737">
        <ele>316.5</ele>
        <time>2011-12-28T13:44:57Z</time>
      </trkpt>
      <trkpt lat="43.75915" lon="7.17381">
        <ele>314.5</ele>
        <time>2011-12-28T13:45:00Z</time>
      </trkpt>
      <trkpt lat="43.75919" lon="7.17389">
        <ele>314</ele>
        <time>2011-12-28T13:45:02Z</time>
      </trkpt>
      <trkpt lat="43.75925" lon="7.17392">
        <ele>313.8</ele>
        <time>2011-12-28T13:45:04Z</time>
      </trkpt>
      <trkpt lat="43.75933" lon="7.1739">
        <ele>312.6</ele>
        <time>2011-12-28T13:45:07Z</time>
      </trkpt>
      <trkpt lat="43.75936" lon="7.174">
        <ele>310.7</ele>
        <time>2011-12-28T13:45:17Z</time>
      </trkpt>
      <trkpt lat="43.75934" lon="7.17406">
        <ele>309.7</ele>
        <time>2011-12-28T13:45:18Z</time>
      </trkpt>
      <trkpt lat="43.7593" lon="7.17415">
        <ele>308.3</ele>
        <time>2011-12-28T13:45:20Z</time>
      </trkpt>
      <trkpt lat="43.75928" lon="7.17425">
        <ele>306.6</ele>
        <time>2011-12-28T13:45:23Z</time>
      </trkpt>
      <trkpt lat="43.75928" lon="7.17436">
        <ele>301.8</ele>
        <time>2011-12-28T13:45:30Z</time>
      </trkpt>
      <trkpt lat="43.75923" lon="7.17445">
        <ele>299.5</ele>
        <time>2011-12-28T13:45:33Z</time>
      </trkpt>
      <trkpt lat="43.75923" lon="7.17454">
        <ele>298.2</ele>
        <time>2011-12-28T13:45:35Z</time>
      </trkpt>
      <trkpt lat="43.7592" lon="7.17463">
        <ele>296.3</ele>
        <time>2011-12-28T13:45:37Z</time>
      </trkpt>
      <trkpt lat="43.75913" lon="7.17465">
        <ele>292.9</ele>
        <time>2011-12-28T13:45:40Z</time>
      </trkpt>
      <trkpt lat="43.75907" lon="7.17461">
        <ele>290.9</ele>
        <time>2011-12-28T13:45:42Z</time>
      </trkpt>
      <trkpt lat="43.759" lon="7.17456">
        <ele>289.4</ele>
        <time>2011-12-28T13:45:44Z</time>
      </trkpt>
      <trkpt lat="43.75897" lon="7.17453">
        <ele>289</ele>
        <time>2011-12-28T13:45:45Z</time>
      </trkpt>
      <trkpt lat="43.75897" lon="7.1746">
        <ele>285.8</ele>
        <time>2011-12-28T13:45:55Z</time>
      </trkpt>
      <trkpt lat="43.75899" lon="7.17472">
        <ele>283.7</ele>
        <time>2011-12-28T13:46:00Z</time>
      </trkpt>
      <trkpt lat="43.75899" lon="7.17484">
        <ele>282.9</ele>
        <time>2011-12-28T13:46:05Z</time>
      </trkpt>
      <trkpt lat="43.75905" lon="7.17493">
        <ele>281.3</ele>
        <time>2011-12-28T13:46:41Z</time>
      </trkpt>
      <trkpt lat="43.75908" lon="7.17503">
        <ele>280.5</ele>
        <time>2011-12-28T13:46:47Z</time>
      </trkpt>
      <trkpt lat="43.75909" lon="7.17506">
        <ele>280.4</ele>
        <time>2011-12-28T13:46:48Z</time>
      </trkpt>
      <trkpt lat="43.75917" lon="7.17521">
        <ele>279.7</ele>
        <time>2011-12-28T13:46:52Z</time>
      </trkpt>
      <trkpt lat="43.75922" lon="7.17528">
        <ele>278.4</ele>
        <time>2011-12-28T13:46:54Z</time>
      </trkpt>
      <trkpt lat="43.75928" lon="7.17533">
        <ele>277.7</ele>
        <time>2011-12-28T13:46:56Z</time>
      </trkpt>
      <trkpt lat="43.75933" lon="7.1754">
        <ele>277</ele>
        <time>2011-12-28T13:46:58Z</time>
      </trkpt>
      <trkpt lat="43.75939" lon="7.17548">
        <ele>275.9</ele>
        <time>2011-12-28T13:47:01Z</time>
      </trkpt>
      <trkpt lat="43.75944" lon="7.17556">
        <ele>275.2</ele>
        <time>2011-12-28T13:47:05Z</time>
      </trkpt>
      <trkpt lat="43.7595" lon="7.17564">
        <ele>274.1</ele>
        <time>2011-12-28T13:47:08Z</time>
      </trkpt>
      <trkpt lat="43.75958" lon="7.17571">
        <ele>272.9</ele>
        <time>2011-12-28T13:47:13Z</time>
      </trkpt>
      <trkpt lat="43.75965" lon="7.17576">
        <ele>271.8</ele>
        <time>2011-12-28T13:47:17Z</time>
      </trkpt>
      <trkpt lat="43.75973" lon="7.1758">
        <ele>271.8</ele>
        <time>2011-12-28T13:47:20Z</time>
      </trkpt>
      <trkpt lat="43.75979" lon="7.17583">
        <ele>271.3</ele>
        <time>2011-12-28T13:47:22Z</time>
      </trkpt>
      <trkpt lat="43.75985" lon="7.17585">
        <ele>271.1</ele>
        <time>2011-12-28T13:47:24Z</time>
      </trkpt>
      <trkpt lat="43.75992" lon="7.17593">
        <ele>269</ele>
        <time>2011-12-28T13:47:33Z</time>
      </trkpt>
      <trkpt lat="43.75995" lon="7.17601">
        <ele>268.5</ele>
        <time>2011-12-28T13:47:36Z</time>
      </trkpt>
      <trkpt lat="43.76002" lon="7.17608">
        <ele>268.2</ele>
        <time>2011-12-28T13:47:39Z</time>
      </trkpt>
      <trkpt lat="43.7601" lon="7.17612">
        <ele>267.3</ele>
        <time>2011-12-28T13:47:42Z</time>
      </trkpt>
      <trkpt lat="43.76018" lon="7.17611">
        <ele>267.4</ele>
        <time>2011-12-28T13:47:55Z</time>
      </trkpt>
      <trkpt lat="43.7602" lon="7.1761">
        <ele>267.9</ele>
        <time>2011-12-28T13:47:56Z</time>
      </trkpt>
      <trkpt lat="43.76032" lon="7.17601">
        <ele>267.1</ele>
        <time>2011-12-28T13:48:01Z</time>
      </trkpt>
      <trkpt lat="43.76038" lon="7.17595">
        <ele>266.3</ele>
        <time>2011-12-28T13:48:04Z</time>
      </trkpt>
      <trkpt lat="43.76044" lon="7.17589">
        <ele>266.2</ele>
        <time>2011-12-28T13:48:07Z</time>
      </trkpt>
      <trkpt lat="43.76048" lon="7.17584">
        <ele>266.4</ele>
        <time>2011-12-28T13:48:09Z</time>
      </trkpt>
      <trkpt lat="43.76053" lon="7.17577">
        <ele>266.2</ele>
        <time>2011-12-28T13:48:11Z</time>
      </trkpt>
      <trkpt lat="43.76057" lon="7.1757">
        <ele>265.7</ele>
        <time>2011-12-28T13:48:13Z</time>
      </trkpt>
      <trkpt lat="43.76062" lon="7.17561">
        <ele>265.3</ele>
        <time>2011-12-28T13:48:15Z</time>
      </trkpt>
      <trkpt lat="43.76067" lon="7.17552">
        <ele>265.7</ele>
        <time>2011-12-28T13:48:17Z</time>
      </trkpt>
      <trkpt lat="43.76072" lon="7.17542">
        <ele>264.8</ele>
        <time>2011-12-28T13:48:19Z</time>
      </trkpt>
      <trkpt lat="43.76075" lon="7.17536">
        <ele>264.5</ele>
        <time>2011-12-28T13:48:20Z</time>
      </trkpt>
      <trkpt lat="43.76078" lon="7.17531">
        <ele>264.1</ele>
        <time>2011-12-28T13:48:21Z</time>
      </trkpt>
      <trkpt lat="43.7608" lon="7.17526">
        <ele>263.8</ele>
        <time>2011-12-28T13:48:22Z</time>
      </trkpt>
      <trkpt lat="43.76083" lon="7.17521">
        <ele>263.5</ele>
        <time>2011-12-28T13:48:23Z</time>
      </trkpt>
      <trkpt lat="43.76086" lon="7.17516">
        <ele>263.3</ele>
        <time>2011-12-28T13:48:24Z</time>
      </trkpt>
      <trkpt lat="43.7609" lon="7.17511">
        <ele>262.9</ele>
        <time>2011-12-28T13:48:25Z</time>
      </trkpt>
      <trkpt lat="43.76094" lon="7.17507">
        <ele>262.5</ele>
        <time>2011-12-28T13:48:26Z</time>
      </trkpt>
      <trkpt lat="43.761" lon="7.17505">
        <ele>262.3</ele>
        <time>2011-12-28T13:48:27Z</time>
      </trkpt>
      <trkpt lat="43.76105" lon="7.17503">
        <ele>261.5</ele>
        <time>2011-12-28T13:48:28Z</time>
      </trkpt>
      <trkpt lat="43.76111" lon="7.17503">
        <ele>260.9</ele>
        <time>2011-12-28T13:48:29Z</time>
      </trkpt>
      <trkpt lat="43.76117" lon="7.17504">
        <ele>260.5</ele>
        <time>2011-12-28T13:48:30Z</time>
      </trkpt>
      <trkpt lat="43.76122" lon="7.17504">
        <ele>260.3</ele>
        <time>2011-12-28T13:48:31Z</time>
      </trkpt>
      <trkpt lat="43.76128" lon="7.17505">
        <ele>260.1</ele>
        <time>2011-12-28T13:48:32Z</time>
      </trkpt>
      <trkpt lat="43.76134" lon="7.17505">
        <ele>259.7</ele>
        <time>2011-12-28T13:48:33Z</time>
      </trkpt>
      <trkpt lat="43.7614" lon="7.17504">
        <ele>259.4</ele>
        <time>2011-12-28T13:48:34Z</time>
      </trkpt>
      <trkpt lat="43.76145" lon="7.17502">
        <ele>259.1</ele>
        <time>2011-12-28T13:48:35Z</time>
      </trkpt>
      <trkpt lat="43.76153" lon="7.17499">
        <ele>258.9</ele>
        <time>2011-12-28T13:48:37Z</time>
      </trkpt>
      <trkpt lat="43.7616" lon="7.17498">
        <ele>258.7</ele>
        <time>2011-12-28T13:48:39Z</time>
      </trkpt>
      <trkpt lat="43.76166" lon="7.17498">
        <ele>258.8</ele>
        <time>2011-12-28T13:48:41Z</time>
      </trkpt>
      <trkpt lat="43.76173" lon="7.17497">
        <ele>260</ele>
        <time>2011-12-28T13:48:43Z</time>
      </trkpt>
      <trkpt lat="43.76179" lon="7.17496">
        <ele>260.1</ele>
        <time>2011-12-28T13:48:45Z</time>
      </trkpt>
      <trkpt lat="43.76188" lon="7.17495">
        <ele>260.8</ele>
        <time>2011-12-28T13:48:48Z</time>
      </trkpt>
      <trkpt lat="43.76196" lon="7.17494">
        <ele>260.8</ele>
        <time>2011-12-28T13:48:51Z</time>
      </trkpt>
      <trkpt lat="43.76205" lon="7.17493">
        <ele>261</ele>
        <time>2011-12-28T13:48:54Z</time>
      </trkpt>
      <trkpt lat="43.76213" lon="7.17491">
        <ele>260.7</ele>
        <time>2011-12-28T13:48:57Z</time>
      </trkpt>
      <trkpt lat="43.76216" lon="7.17491">
        <ele>260.6</ele>
        <time>2011-12-28T13:48:58Z</time>
      </trkpt>
      <trkpt lat="43.76227" lon="7.175">
        <ele>261.5</ele>
        <time>2011-12-28T13:49:04Z</time>
      </trkpt>
      <trkpt lat="43.76223" lon="7.17509">
        <ele>261.4</ele>
        <time>2011-12-28T13:49:07Z</time>
      </trkpt>
      <trkpt lat="43.76217" lon="7.17513">
        <ele>261</ele>
        <time>2011-12-28T13:49:09Z</time>
      </trkpt>
      <trkpt lat="43.76211" lon="7.17523">
        <ele>259.9</ele>
        <time>2011-12-28T13:49:12Z</time>
      </trkpt>
      <trkpt lat="43.76211" lon="7.17531">
        <ele>257.6</ele>
        <time>2011-12-28T13:50:25Z</time>
      </trkpt>
      <trkpt lat="43.76211" lon="7.17531">
        <ele>257.6</ele>
        <time>2011-12-28T13:50:26Z</time>
      </trkpt>
    </trkseg>
  </trk>
</gpx>